<?xml version='1.0' encoding='UTF-8'?><gpx version="1.1" creator="JPX - https://github.com/jenetics/jpx" xmlns="http://www.topografix.com/GPX/1/1"><trk><trkseg><trkpt lat="42.5968982" lon="12.2758573"><ele>218.25</ele><time>2026-04-03T13:26:56.492Z</time></trkpt><trkpt lat="42.5970266" lon="12.2759257"><ele>220.5</ele><time>2026-04-03T13:26:58.496Z</time></trkpt><trkpt lat="42.5971259" lon="12.2759827"><ele>222.75</ele><time>2026-04-03T13:26:59.514Z</time></trkpt><trkpt lat="42.5972328" lon="12.2760617"><ele>225.0</ele><time>2026-04-03T13:27:00.497Z</time></trkpt><trkpt lat="42.5973437" lon="12.2761475"><ele>225.0</ele><time>2026-04-03T13:27:01.503Z</time></trkpt><trkpt lat="42.5974648" lon="12.276234"><ele>225.0</ele><time>2026-04-03T13:27:02.503Z</time></trkpt><trkpt lat="42.59759" lon="12.2763276"><ele>225.0</ele><time>2026-04-03T13:27:03.504Z</time></trkpt><trkpt lat="42.5977179" lon="12.2764205"><ele>225.0</ele><time>2026-04-03T13:27:04.51Z</time></trkpt><trkpt lat="42.5978495" lon="12.2765128"><ele>227.0</ele><time>2026-04-03T13:27:05.5Z</time></trkpt><trkpt lat="42.5979714" lon="12.2765899"><ele>229.0</ele><time>2026-04-03T13:27:06.49Z</time></trkpt><trkpt lat="42.5980761" lon="12.2766519"><ele>231.0</ele><time>2026-04-03T13:27:07.489Z</time></trkpt><trkpt lat="42.5981768" lon="12.2767102"><ele>233.0</ele><time>2026-04-03T13:27:09.453Z</time></trkpt><trkpt lat="42.5983224" lon="12.2767983"><ele>233.00000000000003</ele><time>2026-04-03T13:27:10.486Z</time></trkpt><trkpt lat="42.5983538" lon="12.2769392"><ele>233.0</ele><time>2026-04-03T13:27:13.5Z</time></trkpt><trkpt lat="42.5983557" lon="12.2770353"><ele>233.0</ele><time>2026-04-03T13:27:14.497Z</time></trkpt><trkpt lat="42.5983629" lon="12.2771233"><ele>233.0</ele><time>2026-04-03T13:27:15.491Z</time></trkpt><trkpt lat="42.5984008" lon="12.2772673"><ele>233.00000000000003</ele><time>2026-04-03T13:27:17.497Z</time></trkpt><trkpt lat="42.598448" lon="12.2773321"><ele>233.0</ele><time>2026-04-03T13:27:18.501Z</time></trkpt><trkpt lat="42.5984957" lon="12.2774123"><ele>231.66666666666669</ele><time>2026-04-03T13:27:19.503Z</time></trkpt><trkpt lat="42.5985566" lon="12.277494"><ele>230.33333333333334</ele><time>2026-04-03T13:27:20.488Z</time></trkpt><trkpt lat="42.5986298" lon="12.2775873"><ele>229.0</ele><time>2026-04-03T13:27:21.485Z</time></trkpt><trkpt lat="42.5987" lon="12.2776835"><ele>227.66666666666669</ele><time>2026-04-03T13:27:22.498Z</time></trkpt><trkpt lat="42.5987587" lon="12.2777663"><ele>226.33333333333334</ele><time>2026-04-03T13:27:23.491Z</time></trkpt><trkpt lat="42.5988043" lon="12.2778356"><ele>225.0</ele><time>2026-04-03T13:27:24.504Z</time></trkpt><trkpt lat="42.5988481" lon="12.2779215"><ele>226.75</ele><time>2026-04-03T13:27:26.493Z</time></trkpt><trkpt lat="42.5989215" lon="12.2780506"><ele>228.5</ele><time>2026-04-03T13:27:28.488Z</time></trkpt><trkpt lat="42.5989768" lon="12.2781454"><ele>230.25</ele><time>2026-04-03T13:27:30.197Z</time></trkpt><trkpt lat="42.5991005" lon="12.2783133"><ele>232.0</ele><time>2026-04-03T13:27:31.493Z</time></trkpt><trkpt lat="42.5991501" lon="12.2783842"><ele>231.99999999999997</ele><time>2026-04-03T13:27:32.492Z</time></trkpt><trkpt lat="42.599242" lon="12.2784702"><ele>232.0</ele><time>2026-04-03T13:27:34.49Z</time></trkpt><trkpt lat="42.599312" lon="12.2785278"><ele>232.0</ele><time>2026-04-03T13:27:38.5Z</time></trkpt><trkpt lat="42.5993668" lon="12.2785813"><ele>232.0</ele><time>2026-04-03T13:27:39.488Z</time></trkpt><trkpt lat="42.5994324" lon="12.2786396"><ele>231.99999999999997</ele><time>2026-04-03T13:27:40.497Z</time></trkpt><trkpt lat="42.5994894" lon="12.2786916"><ele>232.0</ele><time>2026-04-03T13:27:41.491Z</time></trkpt><trkpt lat="42.5995789" lon="12.2787746"><ele>233.2</ele><time>2026-04-03T13:27:43.505Z</time></trkpt><trkpt lat="42.5997032" lon="12.2788751"><ele>234.39999999999998</ele><time>2026-04-03T13:27:45.51Z</time></trkpt><trkpt lat="42.599789" lon="12.2789493"><ele>235.60000000000002</ele><time>2026-04-03T13:27:46.497Z</time></trkpt><trkpt lat="42.5998723" lon="12.2790224"><ele>236.8</ele><time>2026-04-03T13:27:47.495Z</time></trkpt><trkpt lat="42.5999375" lon="12.2790784"><ele>238.0</ele><time>2026-04-03T13:27:48.498Z</time></trkpt><trkpt lat="42.5999878" lon="12.2791515"><ele>237.99999999999997</ele><time>2026-04-03T13:27:49.485Z</time></trkpt><trkpt lat="42.6000347" lon="12.2792339"><ele>238.0</ele><time>2026-04-03T13:27:50.497Z</time></trkpt><trkpt lat="42.6001273" lon="12.2793207"><ele>238.0</ele><time>2026-04-03T13:27:52.498Z</time></trkpt><trkpt lat="42.6001922" lon="12.2793307"><ele>238.0</ele><time>2026-04-03T13:27:53.505Z</time></trkpt><trkpt lat="42.6002871" lon="12.2793506"><ele>237.99999999999997</ele><time>2026-04-03T13:27:55.509Z</time></trkpt><trkpt lat="42.6003786" lon="12.2793894"><ele>238.0</ele><time>2026-04-03T13:27:57.501Z</time></trkpt><trkpt lat="42.600466" lon="12.2794377"><ele>239.16666666666666</ele><time>2026-04-03T13:27:59.499Z</time></trkpt><trkpt lat="42.6005551" lon="12.2794243"><ele>240.33333333333331</ele><time>2026-04-03T13:28:01.51Z</time></trkpt><trkpt lat="42.6006201" lon="12.2793892"><ele>241.5</ele><time>2026-04-03T13:28:02.505Z</time></trkpt><trkpt lat="42.6006904" lon="12.2793395"><ele>242.66666666666669</ele><time>2026-04-03T13:28:03.508Z</time></trkpt><trkpt lat="42.6007605" lon="12.2792758"><ele>243.83333333333334</ele><time>2026-04-03T13:28:04.505Z</time></trkpt><trkpt lat="42.600825" lon="12.2792278"><ele>245.0</ele><time>2026-04-03T13:28:05.501Z</time></trkpt><trkpt lat="42.6009005" lon="12.2792035"><ele>245.0</ele><time>2026-04-03T13:28:06.503Z</time></trkpt><trkpt lat="42.6009761" lon="12.2791903"><ele>245.0</ele><time>2026-04-03T13:28:07.499Z</time></trkpt><trkpt lat="42.6010447" lon="12.2791781"><ele>245.0</ele><time>2026-04-03T13:28:08.503Z</time></trkpt><trkpt lat="42.6011126" lon="12.279167"><ele>245.0</ele><time>2026-04-03T13:28:09.507Z</time></trkpt><trkpt lat="42.6011885" lon="12.2791747"><ele>245.0</ele><time>2026-04-03T13:28:10.495Z</time></trkpt><trkpt lat="42.6012636" lon="12.2791958"><ele>245.0</ele><time>2026-04-03T13:28:11.496Z</time></trkpt><trkpt lat="42.6013353" lon="12.2792116"><ele>245.0</ele><time>2026-04-03T13:28:12.507Z</time></trkpt><trkpt lat="42.6014057" lon="12.2792063"><ele>244.8</ele><time>2026-04-03T13:28:13.506Z</time></trkpt><trkpt lat="42.6015221" lon="12.2792388"><ele>244.6</ele><time>2026-04-03T13:28:15.509Z</time></trkpt><trkpt lat="42.601593" lon="12.2792814"><ele>244.39999999999998</ele><time>2026-04-03T13:28:16.5Z</time></trkpt><trkpt lat="42.6016684" lon="12.2793055"><ele>244.2</ele><time>2026-04-03T13:28:17.506Z</time></trkpt><trkpt lat="42.6017526" lon="12.2793091"><ele>244.0</ele><time>2026-04-03T13:28:18.508Z</time></trkpt><trkpt lat="42.6018537" lon="12.2793046"><ele>244.0</ele><time>2026-04-03T13:28:19.509Z</time></trkpt><trkpt lat="42.6019645" lon="12.279301"><ele>244.0</ele><time>2026-04-03T13:28:20.499Z</time></trkpt><trkpt lat="42.6020766" lon="12.2793057"><ele>244.0</ele><time>2026-04-03T13:28:21.504Z</time></trkpt><trkpt lat="42.6021959" lon="12.2793234"><ele>244.0</ele><time>2026-04-03T13:28:22.505Z</time></trkpt><trkpt lat="42.6023123" lon="12.279366"><ele>243.79999999999998</ele><time>2026-04-03T13:28:23.498Z</time></trkpt><trkpt lat="42.6024267" lon="12.2794219"><ele>243.59999999999997</ele><time>2026-04-03T13:28:24.505Z</time></trkpt><trkpt lat="42.6025332" lon="12.2794818"><ele>243.4</ele><time>2026-04-03T13:28:25.51Z</time></trkpt><trkpt lat="42.6026131" lon="12.2795457"><ele>243.2</ele><time>2026-04-03T13:28:26.511Z</time></trkpt><trkpt lat="42.6026731" lon="12.2796089"><ele>243.0</ele><time>2026-04-03T13:28:27.509Z</time></trkpt><trkpt lat="42.6027388" lon="12.2796732"><ele>243.0</ele><time>2026-04-03T13:28:28.499Z</time></trkpt><trkpt lat="42.6028093" lon="12.2797143"><ele>243.0</ele><time>2026-04-03T13:28:29.503Z</time></trkpt><trkpt lat="42.6028761" lon="12.2797363"><ele>243.0</ele><time>2026-04-03T13:28:30.501Z</time></trkpt><trkpt lat="42.6029695" lon="12.2796966"><ele>243.0</ele><time>2026-04-03T13:28:32.497Z</time></trkpt><trkpt lat="42.603038" lon="12.2795914"><ele>243.0</ele><time>2026-04-03T13:28:34.495Z</time></trkpt><trkpt lat="42.6030796" lon="12.2795008"><ele>243.0</ele><time>2026-04-03T13:28:36.499Z</time></trkpt><trkpt lat="42.6031209" lon="12.2794076"><ele>241.8</ele><time>2026-04-03T13:28:44.507Z</time></trkpt><trkpt lat="42.6031798" lon="12.2793525"><ele>240.60000000000002</ele><time>2026-04-03T13:28:46.506Z</time></trkpt><trkpt lat="42.6032885" lon="12.2793445"><ele>239.39999999999998</ele><time>2026-04-03T13:28:49.208Z</time></trkpt><trkpt lat="42.6033868" lon="12.2793836"><ele>238.2</ele><time>2026-04-03T13:28:50.491Z</time></trkpt><trkpt lat="42.6034801" lon="12.2794321"><ele>237.0</ele><time>2026-04-03T13:28:52.504Z</time></trkpt><trkpt lat="42.6036004" lon="12.2794821"><ele>234.57142857142853</ele><time>2026-04-03T13:28:54.505Z</time></trkpt><trkpt lat="42.6036718" lon="12.2795093"><ele>232.14285714285714</ele><time>2026-04-03T13:28:55.51Z</time></trkpt><trkpt lat="42.603745" lon="12.2795322"><ele>229.7142857142857</ele><time>2026-04-03T13:28:56.509Z</time></trkpt><trkpt lat="42.603821" lon="12.2795519"><ele>227.28571428571428</ele><time>2026-04-03T13:28:57.513Z</time></trkpt><trkpt lat="42.6038933" lon="12.2795593"><ele>224.85714285714283</ele><time>2026-04-03T13:28:58.511Z</time></trkpt><trkpt lat="42.6039637" lon="12.2795616"><ele>222.42857142857142</ele><time>2026-04-03T13:28:59.509Z</time></trkpt><trkpt lat="42.6040306" lon="12.2795662"><ele>220.0</ele><time>2026-04-03T13:29:00.509Z</time></trkpt><trkpt lat="42.6041479" lon="12.2795558"><ele>220.0</ele><time>2026-04-03T13:29:02.497Z</time></trkpt><trkpt lat="42.6042464" lon="12.2795504"><ele>220.0</ele><time>2026-04-03T13:29:04.507Z</time></trkpt><trkpt lat="42.6043636" lon="12.2795784"><ele>220.0</ele><time>2026-04-03T13:29:06.501Z</time></trkpt><trkpt lat="42.6044312" lon="12.2796047"><ele>220.0</ele><time>2026-04-03T13:29:07.511Z</time></trkpt><trkpt lat="42.6045164" lon="12.2796379"><ele>220.0</ele><time>2026-04-03T13:29:08.503Z</time></trkpt><trkpt lat="42.6046066" lon="12.2796788"><ele>218.66666666666666</ele><time>2026-04-03T13:29:09.508Z</time></trkpt><trkpt lat="42.6046859" lon="12.2797191"><ele>217.33333333333331</ele><time>2026-04-03T13:29:10.505Z</time></trkpt><trkpt lat="42.6047614" lon="12.2797577"><ele>216.0</ele><time>2026-04-03T13:29:11.51Z</time></trkpt><trkpt lat="42.6048293" lon="12.2798026"><ele>214.66666666666669</ele><time>2026-04-03T13:29:12.502Z</time></trkpt><trkpt lat="42.6048959" lon="12.2798486"><ele>213.33333333333334</ele><time>2026-04-03T13:29:13.482Z</time></trkpt><trkpt lat="42.6049549" lon="12.2798989"><ele>212.0</ele><time>2026-04-03T13:29:14.508Z</time></trkpt><trkpt lat="42.6050084" lon="12.2799481"><ele>212.00000000000003</ele><time>2026-04-03T13:29:15.511Z</time></trkpt><trkpt lat="42.6050629" lon="12.2799912"><ele>212.0</ele><time>2026-04-03T13:29:16.511Z</time></trkpt><trkpt lat="42.6051683" lon="12.2800552"><ele>212.0</ele><time>2026-04-03T13:29:18.509Z</time></trkpt><trkpt lat="42.6052342" lon="12.2800921"><ele>212.0</ele><time>2026-04-03T13:29:19.505Z</time></trkpt><trkpt lat="42.6053218" lon="12.2801265"><ele>212.00000000000003</ele><time>2026-04-03T13:29:20.494Z</time></trkpt><trkpt lat="42.605423" lon="12.2801588"><ele>212.0</ele><time>2026-04-03T13:29:21.499Z</time></trkpt><trkpt lat="42.6055241" lon="12.2801962"><ele>209.39999999999998</ele><time>2026-04-03T13:29:22.485Z</time></trkpt><trkpt lat="42.6056227" lon="12.2802273"><ele>206.79999999999998</ele><time>2026-04-03T13:29:23.49Z</time></trkpt><trkpt lat="42.6057189" lon="12.2802496"><ele>204.2</ele><time>2026-04-03T13:29:24.49Z</time></trkpt><trkpt lat="42.6058098" lon="12.2802594"><ele>201.6</ele><time>2026-04-03T13:29:25.49Z</time></trkpt><trkpt lat="42.6058903" lon="12.2802678"><ele>199.0</ele><time>2026-04-03T13:29:26.491Z</time></trkpt><trkpt lat="42.6060041" lon="12.2802879"><ele>199.0</ele><time>2026-04-03T13:29:28.5Z</time></trkpt><trkpt lat="42.6061163" lon="12.2803361"><ele>199.0</ele><time>2026-04-03T13:29:30.503Z</time></trkpt><trkpt lat="42.6061857" lon="12.2803739"><ele>199.0</ele><time>2026-04-03T13:29:31.508Z</time></trkpt><trkpt lat="42.6062731" lon="12.2803998"><ele>199.0</ele><time>2026-04-03T13:29:32.502Z</time></trkpt><trkpt lat="42.6063712" lon="12.2804127"><ele>199.0</ele><time>2026-04-03T13:29:33.482Z</time></trkpt><trkpt lat="42.6064631" lon="12.2804394"><ele>198.5</ele><time>2026-04-03T13:29:34.506Z</time></trkpt><trkpt lat="42.6065673" lon="12.2804993"><ele>198.0</ele><time>2026-04-03T13:29:35.497Z</time></trkpt><trkpt lat="42.6066903" lon="12.2805777"><ele>197.5</ele><time>2026-04-03T13:29:36.503Z</time></trkpt><trkpt lat="42.6068188" lon="12.2806499"><ele>197.0</ele><time>2026-04-03T13:29:37.504Z</time></trkpt><trkpt lat="42.6069266" lon="12.2806993"><ele>197.2</ele><time>2026-04-03T13:29:38.51Z</time></trkpt><trkpt lat="42.6070171" lon="12.2807415"><ele>197.39999999999998</ele><time>2026-04-03T13:29:39.508Z</time></trkpt><trkpt lat="42.6070947" lon="12.2807588"><ele>197.60000000000002</ele><time>2026-04-03T13:29:40.505Z</time></trkpt><trkpt lat="42.6072046" lon="12.2807351"><ele>197.8</ele><time>2026-04-03T13:29:41.514Z</time></trkpt><trkpt lat="42.6073435" lon="12.2806753"><ele>198.0</ele><time>2026-04-03T13:29:42.504Z</time></trkpt><trkpt lat="42.6075006" lon="12.2806118"><ele>193.33333333333334</ele><time>2026-04-03T13:29:43.489Z</time></trkpt><trkpt lat="42.6076606" lon="12.2805625"><ele>188.66666666666669</ele><time>2026-04-03T13:29:44.5Z</time></trkpt><trkpt lat="42.6078098" lon="12.2805271"><ele>184.0</ele><time>2026-04-03T13:29:45.495Z</time></trkpt><trkpt lat="42.6079511" lon="12.2804845"><ele>184.0</ele><time>2026-04-03T13:29:46.5Z</time></trkpt><trkpt lat="42.608091" lon="12.2804464"><ele>184.0</ele><time>2026-04-03T13:29:47.498Z</time></trkpt><trkpt lat="42.6082263" lon="12.2804126"><ele>184.0</ele><time>2026-04-03T13:29:48.495Z</time></trkpt><trkpt lat="42.6083418" lon="12.280388"><ele>184.0</ele><time>2026-04-03T13:29:49.501Z</time></trkpt><trkpt lat="42.6084296" lon="12.2803658"><ele>184.0</ele><time>2026-04-03T13:29:50.484Z</time></trkpt><trkpt lat="42.6085091" lon="12.2803392"><ele>184.0</ele><time>2026-04-03T13:29:51.505Z</time></trkpt><trkpt lat="42.6085774" lon="12.2803195"><ele>184.0</ele><time>2026-04-03T13:29:52.499Z</time></trkpt><trkpt lat="42.6086781" lon="12.2803274"><ele>184.0</ele><time>2026-04-03T13:29:54.511Z</time></trkpt><trkpt lat="42.6087387" lon="12.2803745"><ele>184.0</ele><time>2026-04-03T13:30:06.486Z</time></trkpt><trkpt lat="42.6088315" lon="12.280417"><ele>184.0</ele><time>2026-04-03T13:30:08.48Z</time></trkpt><trkpt lat="42.6088945" lon="12.2804528"><ele>185.2</ele><time>2026-04-03T13:30:09.488Z</time></trkpt><trkpt lat="42.6089663" lon="12.2804904"><ele>186.39999999999998</ele><time>2026-04-03T13:30:10.481Z</time></trkpt><trkpt lat="42.6090589" lon="12.2805007"><ele>187.6</ele><time>2026-04-03T13:30:11.477Z</time></trkpt><trkpt lat="42.6091656" lon="12.2804869"><ele>188.8</ele><time>2026-04-03T13:30:12.486Z</time></trkpt><trkpt lat="42.6092873" lon="12.2804689"><ele>190.0</ele><time>2026-04-03T13:30:13.504Z</time></trkpt><trkpt lat="42.6094044" lon="12.2804628"><ele>190.25</ele><time>2026-04-03T13:30:14.506Z</time></trkpt><trkpt lat="42.6095215" lon="12.2804789"><ele>190.5</ele><time>2026-04-03T13:30:15.494Z</time></trkpt><trkpt lat="42.6096347" lon="12.2805247"><ele>190.75</ele><time>2026-04-03T13:30:16.51Z</time></trkpt><trkpt lat="42.6097574" lon="12.2805965"><ele>191.0</ele><time>2026-04-03T13:30:17.491Z</time></trkpt><trkpt lat="42.6098987" lon="12.2806914"><ele>192.33333333333331</ele><time>2026-04-03T13:30:18.5Z</time></trkpt><trkpt lat="42.6100397" lon="12.2807821"><ele>193.66666666666666</ele><time>2026-04-03T13:30:19.494Z</time></trkpt><trkpt lat="42.6101811" lon="12.2808795"><ele>195.0</ele><time>2026-04-03T13:30:20.506Z</time></trkpt><trkpt lat="42.6103175" lon="12.2809829"><ele>198.0</ele><time>2026-04-03T13:30:21.504Z</time></trkpt><trkpt lat="42.6104443" lon="12.2810877"><ele>201.0</ele><time>2026-04-03T13:30:22.503Z</time></trkpt><trkpt lat="42.6105554" lon="12.2811857"><ele>204.0</ele><time>2026-04-03T13:30:23.506Z</time></trkpt><trkpt lat="42.6106543" lon="12.2812816"><ele>207.0</ele><time>2026-04-03T13:30:24.505Z</time></trkpt><trkpt lat="42.6107423" lon="12.2813737"><ele>206.25</ele><time>2026-04-03T13:30:25.513Z</time></trkpt><trkpt lat="42.6108196" lon="12.2814597"><ele>205.5</ele><time>2026-04-03T13:30:26.49Z</time></trkpt><trkpt lat="42.6109216" lon="12.2815456"><ele>204.75</ele><time>2026-04-03T13:30:27.511Z</time></trkpt><trkpt lat="42.6110359" lon="12.2816303"><ele>204.0</ele><time>2026-04-03T13:30:28.502Z</time></trkpt><trkpt lat="42.6111286" lon="12.2817151"><ele>205.0</ele><time>2026-04-03T13:30:29.511Z</time></trkpt><trkpt lat="42.611202" lon="12.2817863"><ele>206.0</ele><time>2026-04-03T13:30:30.508Z</time></trkpt><trkpt lat="42.6112755" lon="12.2818389"><ele>207.0</ele><time>2026-04-03T13:30:31.502Z</time></trkpt><trkpt lat="42.611345" lon="12.2818703"><ele>208.0</ele><time>2026-04-03T13:30:32.514Z</time></trkpt><trkpt lat="42.6114639" lon="12.2818758"><ele>209.0</ele><time>2026-04-03T13:30:34.511Z</time></trkpt><trkpt lat="42.6115756" lon="12.2818208"><ele>209.00000000000003</ele><time>2026-04-03T13:30:36.506Z</time></trkpt><trkpt lat="42.6116463" lon="12.2817777"><ele>209.0</ele><time>2026-04-03T13:30:37.515Z</time></trkpt><trkpt lat="42.6117154" lon="12.2817589"><ele>209.0</ele><time>2026-04-03T13:30:38.512Z</time></trkpt><trkpt lat="42.6117772" lon="12.2817783"><ele>209.0</ele><time>2026-04-03T13:30:39.512Z</time></trkpt><trkpt lat="42.6118731" lon="12.2818875"><ele>209.00000000000003</ele><time>2026-04-03T13:30:41.507Z</time></trkpt><trkpt lat="42.6119206" lon="12.2819674"><ele>209.0</ele><time>2026-04-03T13:30:42.509Z</time></trkpt><trkpt lat="42.6119755" lon="12.282074"><ele>207.79999999999998</ele><time>2026-04-03T13:30:43.513Z</time></trkpt><trkpt lat="42.6120469" lon="12.2821906"><ele>206.6</ele><time>2026-04-03T13:30:44.51Z</time></trkpt><trkpt lat="42.6121125" lon="12.2822898"><ele>205.4</ele><time>2026-04-03T13:30:45.507Z</time></trkpt><trkpt lat="42.6121731" lon="12.2823785"><ele>204.2</ele><time>2026-04-03T13:30:46.513Z</time></trkpt><trkpt lat="42.6121995" lon="12.2824853"><ele>203.0</ele><time>2026-04-03T13:30:47.512Z</time></trkpt><trkpt lat="42.6121971" lon="12.282621"><ele>202.2</ele><time>2026-04-03T13:30:48.506Z</time></trkpt><trkpt lat="42.6121837" lon="12.2827577"><ele>201.4</ele><time>2026-04-03T13:30:49.493Z</time></trkpt><trkpt lat="42.6121848" lon="12.2828744"><ele>200.6</ele><time>2026-04-03T13:30:50.506Z</time></trkpt><trkpt lat="42.6121989" lon="12.2829824"><ele>199.79999999999998</ele><time>2026-04-03T13:30:51.505Z</time></trkpt><trkpt lat="42.6122358" lon="12.2830901"><ele>199.0</ele><time>2026-04-03T13:30:52.504Z</time></trkpt><trkpt lat="42.6123055" lon="12.2832012"><ele>197.25</ele><time>2026-04-03T13:30:53.498Z</time></trkpt><trkpt lat="42.6123907" lon="12.2833223"><ele>195.5</ele><time>2026-04-03T13:30:54.505Z</time></trkpt><trkpt lat="42.6124759" lon="12.2834378"><ele>193.75</ele><time>2026-04-03T13:30:55.512Z</time></trkpt><trkpt lat="42.6125653" lon="12.2835283"><ele>192.0</ele><time>2026-04-03T13:30:56.512Z</time></trkpt><trkpt lat="42.6126656" lon="12.2835975"><ele>192.0</ele><time>2026-04-03T13:30:57.516Z</time></trkpt><trkpt lat="42.6127562" lon="12.2836485"><ele>192.0</ele><time>2026-04-03T13:30:58.5Z</time></trkpt><trkpt lat="42.61283" lon="12.2836852"><ele>192.0</ele><time>2026-04-03T13:30:59.485Z</time></trkpt><trkpt lat="42.6129385" lon="12.2837271"><ele>192.0</ele><time>2026-04-03T13:31:01.503Z</time></trkpt><trkpt lat="42.6130295" lon="12.2837985"><ele>192.0</ele><time>2026-04-03T13:31:03.494Z</time></trkpt><trkpt lat="42.6130862" lon="12.2838881"><ele>192.39999999999998</ele><time>2026-04-03T13:31:04.506Z</time></trkpt><trkpt lat="42.6131393" lon="12.2839983"><ele>192.79999999999998</ele><time>2026-04-03T13:31:05.481Z</time></trkpt><trkpt lat="42.613196" lon="12.2841227"><ele>193.2</ele><time>2026-04-03T13:31:06.499Z</time></trkpt><trkpt lat="42.6132773" lon="12.2842395"><ele>193.6</ele><time>2026-04-03T13:31:07.506Z</time></trkpt><trkpt lat="42.6133588" lon="12.2843536"><ele>194.0</ele><time>2026-04-03T13:31:08.486Z</time></trkpt><trkpt lat="42.6134552" lon="12.2844595"><ele>194.0</ele><time>2026-04-03T13:31:09.502Z</time></trkpt><trkpt lat="42.61356" lon="12.2845568"><ele>194.0</ele><time>2026-04-03T13:31:10.491Z</time></trkpt><trkpt lat="42.6136637" lon="12.2846373"><ele>194.0</ele><time>2026-04-03T13:31:11.51Z</time></trkpt><trkpt lat="42.6137598" lon="12.2847032"><ele>194.0</ele><time>2026-04-03T13:31:12.501Z</time></trkpt><trkpt lat="42.6138427" lon="12.2847652"><ele>194.0</ele><time>2026-04-03T13:31:13.507Z</time></trkpt><trkpt lat="42.613918" lon="12.2848193"><ele>194.33333333333334</ele><time>2026-04-03T13:31:14.5Z</time></trkpt><trkpt lat="42.613986" lon="12.2848632"><ele>194.66666666666669</ele><time>2026-04-03T13:31:15.488Z</time></trkpt><trkpt lat="42.6140556" lon="12.2849039"><ele>195.0</ele><time>2026-04-03T13:31:16.501Z</time></trkpt><trkpt lat="42.6141305" lon="12.2849394"><ele>195.33333333333331</ele><time>2026-04-03T13:31:17.505Z</time></trkpt><trkpt lat="42.6142158" lon="12.2849806"><ele>195.66666666666666</ele><time>2026-04-03T13:31:18.506Z</time></trkpt><trkpt lat="42.6143151" lon="12.2850271"><ele>196.0</ele><time>2026-04-03T13:31:19.506Z</time></trkpt><trkpt lat="42.6144174" lon="12.2850976"><ele>198.5</ele><time>2026-04-03T13:31:20.503Z</time></trkpt><trkpt lat="42.6145113" lon="12.2851999"><ele>201.0</ele><time>2026-04-03T13:31:21.508Z</time></trkpt><trkpt lat="42.6146029" lon="12.2853114"><ele>203.5</ele><time>2026-04-03T13:31:22.506Z</time></trkpt><trkpt lat="42.6147082" lon="12.2854178"><ele>206.0</ele><time>2026-04-03T13:31:23.483Z</time></trkpt><trkpt lat="42.6148321" lon="12.2855183"><ele>206.25</ele><time>2026-04-03T13:31:24.505Z</time></trkpt><trkpt lat="42.6149683" lon="12.2856026"><ele>206.5</ele><time>2026-04-03T13:31:25.504Z</time></trkpt><trkpt lat="42.6150953" lon="12.285674"><ele>206.75</ele><time>2026-04-03T13:31:26.502Z</time></trkpt><trkpt lat="42.6152174" lon="12.2857369"><ele>207.0</ele><time>2026-04-03T13:31:27.51Z</time></trkpt><trkpt lat="42.6153376" lon="12.2858"><ele>207.0</ele><time>2026-04-03T13:31:28.501Z</time></trkpt><trkpt lat="42.6154606" lon="12.2858661"><ele>207.0</ele><time>2026-04-03T13:31:29.513Z</time></trkpt><trkpt lat="42.6155832" lon="12.2859235"><ele>207.0</ele><time>2026-04-03T13:31:30.484Z</time></trkpt><trkpt lat="42.6156972" lon="12.2859824"><ele>207.0</ele><time>2026-04-03T13:31:31.508Z</time></trkpt><trkpt lat="42.6158042" lon="12.2860368"><ele>207.0</ele><time>2026-04-03T13:31:32.511Z</time></trkpt><trkpt lat="42.6159019" lon="12.2860834"><ele>207.0</ele><time>2026-04-03T13:31:33.515Z</time></trkpt><trkpt lat="42.6159947" lon="12.2861295"><ele>207.0</ele><time>2026-04-03T13:31:34.511Z</time></trkpt><trkpt lat="42.616081" lon="12.2861736"><ele>207.0</ele><time>2026-04-03T13:31:35.513Z</time></trkpt><trkpt lat="42.6161641" lon="12.2862146"><ele>207.0</ele><time>2026-04-03T13:31:36.514Z</time></trkpt><trkpt lat="42.616244" lon="12.2862572"><ele>206.8</ele><time>2026-04-03T13:31:37.513Z</time></trkpt><trkpt lat="42.6163268" lon="12.2863053"><ele>206.6</ele><time>2026-04-03T13:31:38.513Z</time></trkpt><trkpt lat="42.6164153" lon="12.2863573"><ele>206.4</ele><time>2026-04-03T13:31:39.516Z</time></trkpt><trkpt lat="42.6164967" lon="12.2864065"><ele>206.20000000000002</ele><time>2026-04-03T13:31:40.489Z</time></trkpt><trkpt lat="42.6165777" lon="12.2864578"><ele>206.0</ele><time>2026-04-03T13:31:41.514Z</time></trkpt><trkpt lat="42.6166581" lon="12.2865203"><ele>207.0</ele><time>2026-04-03T13:31:42.514Z</time></trkpt><trkpt lat="42.6167329" lon="12.286602"><ele>208.0</ele><time>2026-04-03T13:31:43.509Z</time></trkpt><trkpt lat="42.6168006" lon="12.2866967"><ele>209.0</ele><time>2026-04-03T13:31:44.509Z</time></trkpt><trkpt lat="42.6168587" lon="12.286812"><ele>210.0</ele><time>2026-04-03T13:31:45.494Z</time></trkpt><trkpt lat="42.6168972" lon="12.2869571"><ele>211.0</ele><time>2026-04-03T13:31:46.51Z</time></trkpt><trkpt lat="42.616925" lon="12.2871147"><ele>211.75</ele><time>2026-04-03T13:31:47.506Z</time></trkpt><trkpt lat="42.6169393" lon="12.2872871"><ele>212.5</ele><time>2026-04-03T13:31:48.484Z</time></trkpt><trkpt lat="42.6169418" lon="12.2874655"><ele>213.25</ele><time>2026-04-03T13:31:49.481Z</time></trkpt><trkpt lat="42.616948" lon="12.2876508"><ele>214.0</ele><time>2026-04-03T13:31:50.496Z</time></trkpt><trkpt lat="42.6169551" lon="12.2878343"><ele>214.0</ele><time>2026-04-03T13:31:51.511Z</time></trkpt><trkpt lat="42.6169577" lon="12.2880234"><ele>214.0</ele><time>2026-04-03T13:31:52.51Z</time></trkpt><trkpt lat="42.6169576" lon="12.288221"><ele>214.0</ele><time>2026-04-03T13:31:53.493Z</time></trkpt><trkpt lat="42.61696" lon="12.288421"><ele>214.0</ele><time>2026-04-03T13:31:54.502Z</time></trkpt><trkpt lat="42.6169671" lon="12.2886245"><ele>215.75</ele><time>2026-04-03T13:31:55.51Z</time></trkpt><trkpt lat="42.6169754" lon="12.2888279"><ele>217.5</ele><time>2026-04-03T13:31:56.51Z</time></trkpt><trkpt lat="42.6169831" lon="12.2890284"><ele>219.25</ele><time>2026-04-03T13:31:57.486Z</time></trkpt><trkpt lat="42.6169894" lon="12.2892263"><ele>221.0</ele><time>2026-04-03T13:31:58.505Z</time></trkpt><trkpt lat="42.6170002" lon="12.2894177"><ele>226.0</ele><time>2026-04-03T13:31:59.51Z</time></trkpt><trkpt lat="42.6170126" lon="12.2895945"><ele>231.0</ele><time>2026-04-03T13:32:00.507Z</time></trkpt><trkpt lat="42.6170242" lon="12.2897569"><ele>236.0</ele><time>2026-04-03T13:32:01.513Z</time></trkpt><trkpt lat="42.6170396" lon="12.289928"><ele>241.0</ele><time>2026-04-03T13:32:02.493Z</time></trkpt><trkpt lat="42.617055" lon="12.2901051"><ele>241.0</ele><time>2026-04-03T13:32:03.488Z</time></trkpt><trkpt lat="42.6170716" lon="12.2902896"><ele>241.0</ele><time>2026-04-03T13:32:04.505Z</time></trkpt><trkpt lat="42.6170863" lon="12.2904811"><ele>241.0</ele><time>2026-04-03T13:32:05.502Z</time></trkpt><trkpt lat="42.6170928" lon="12.290672"><ele>241.0</ele><time>2026-04-03T13:32:06.494Z</time></trkpt><trkpt lat="42.6170889" lon="12.2908429"><ele>242.0</ele><time>2026-04-03T13:32:07.507Z</time></trkpt><trkpt lat="42.6170682" lon="12.29099"><ele>243.0</ele><time>2026-04-03T13:32:08.508Z</time></trkpt><trkpt lat="42.6170351" lon="12.2911292"><ele>244.0</ele><time>2026-04-03T13:32:09.487Z</time></trkpt><trkpt lat="42.6169799" lon="12.2912629"><ele>245.0</ele><time>2026-04-03T13:32:10.499Z</time></trkpt><trkpt lat="42.6168943" lon="12.2913794"><ele>244.25</ele><time>2026-04-03T13:32:11.496Z</time></trkpt><trkpt lat="42.6167948" lon="12.2914869"><ele>243.5</ele><time>2026-04-03T13:32:12.503Z</time></trkpt><trkpt lat="42.6166903" lon="12.2915621"><ele>242.75</ele><time>2026-04-03T13:32:13.501Z</time></trkpt><trkpt lat="42.6165851" lon="12.2915993"><ele>242.0</ele><time>2026-04-03T13:32:14.5Z</time></trkpt><trkpt lat="42.6164774" lon="12.2916035"><ele>242.0</ele><time>2026-04-03T13:32:15.49Z</time></trkpt><trkpt lat="42.6163638" lon="12.2915736"><ele>242.0</ele><time>2026-04-03T13:32:16.494Z</time></trkpt><trkpt lat="42.6162394" lon="12.291506"><ele>242.0</ele><time>2026-04-03T13:32:17.49Z</time></trkpt><trkpt lat="42.6161157" lon="12.2914135"><ele>242.0</ele><time>2026-04-03T13:32:18.505Z</time></trkpt><trkpt lat="42.6159953" lon="12.291313"><ele>241.33333333333334</ele><time>2026-04-03T13:32:19.489Z</time></trkpt><trkpt lat="42.6158715" lon="12.2912097"><ele>240.66666666666669</ele><time>2026-04-03T13:32:20.5Z</time></trkpt><trkpt lat="42.6157463" lon="12.2910972"><ele>240.0</ele><time>2026-04-03T13:32:21.478Z</time></trkpt><trkpt lat="42.6156121" lon="12.2909749"><ele>240.0</ele><time>2026-04-03T13:32:22.494Z</time></trkpt><trkpt lat="42.6154679" lon="12.2908431"><ele>240.0</ele><time>2026-04-03T13:32:23.502Z</time></trkpt><trkpt lat="42.6153243" lon="12.2907057"><ele>240.0</ele><time>2026-04-03T13:32:24.494Z</time></trkpt><trkpt lat="42.6151857" lon="12.2905735"><ele>240.25</ele><time>2026-04-03T13:32:25.499Z</time></trkpt><trkpt lat="42.6150605" lon="12.2904622"><ele>240.5</ele><time>2026-04-03T13:32:26.495Z</time></trkpt><trkpt lat="42.6149539" lon="12.2903649"><ele>240.75</ele><time>2026-04-03T13:32:27.501Z</time></trkpt><trkpt lat="42.6148593" lon="12.2902721"><ele>241.0</ele><time>2026-04-03T13:32:28.503Z</time></trkpt><trkpt lat="42.614778" lon="12.2901876"><ele>240.99999999999997</ele><time>2026-04-03T13:32:29.498Z</time></trkpt><trkpt lat="42.6146996" lon="12.2901222"><ele>241.0</ele><time>2026-04-03T13:32:30.503Z</time></trkpt><trkpt lat="42.6146197" lon="12.2900882"><ele>241.0</ele><time>2026-04-03T13:32:31.499Z</time></trkpt><trkpt lat="42.6145452" lon="12.2900872"><ele>241.0</ele><time>2026-04-03T13:32:32.501Z</time></trkpt><trkpt lat="42.614479" lon="12.2901035"><ele>240.99999999999997</ele><time>2026-04-03T13:32:33.508Z</time></trkpt><trkpt lat="42.6143916" lon="12.2901425"><ele>241.0</ele><time>2026-04-03T13:32:34.503Z</time></trkpt><trkpt lat="42.6142917" lon="12.2901993"><ele>241.20000000000002</ele><time>2026-04-03T13:32:35.51Z</time></trkpt><trkpt lat="42.6141964" lon="12.290254"><ele>241.40000000000003</ele><time>2026-04-03T13:32:36.507Z</time></trkpt><trkpt lat="42.6141172" lon="12.2903114"><ele>241.6</ele><time>2026-04-03T13:32:37.489Z</time></trkpt><trkpt lat="42.6140455" lon="12.2903881"><ele>241.8</ele><time>2026-04-03T13:32:38.501Z</time></trkpt><trkpt lat="42.6139807" lon="12.2904865"><ele>242.0</ele><time>2026-04-03T13:32:39.502Z</time></trkpt><trkpt lat="42.6139347" lon="12.2906025"><ele>244.33333333333334</ele><time>2026-04-03T13:32:40.496Z</time></trkpt><trkpt lat="42.6139109" lon="12.2907191"><ele>246.66666666666669</ele><time>2026-04-03T13:32:41.503Z</time></trkpt><trkpt lat="42.6138988" lon="12.2908198"><ele>249.0</ele><time>2026-04-03T13:32:42.504Z</time></trkpt><trkpt lat="42.6138934" lon="12.2909135"><ele>251.33333333333331</ele><time>2026-04-03T13:32:43.503Z</time></trkpt><trkpt lat="42.6138915" lon="12.2910024"><ele>253.66666666666666</ele><time>2026-04-03T13:32:44.496Z</time></trkpt><trkpt lat="42.6138651" lon="12.2911472"><ele>256.0</ele><time>2026-04-03T13:32:46.497Z</time></trkpt><trkpt lat="42.6138127" lon="12.2912106"><ele>256.0</ele><time>2026-04-03T13:32:47.506Z</time></trkpt><trkpt lat="42.6137276" lon="12.2912607"><ele>256.0</ele><time>2026-04-03T13:32:48.502Z</time></trkpt><trkpt lat="42.6136309" lon="12.2913131"><ele>256.0</ele><time>2026-04-03T13:32:49.508Z</time></trkpt><trkpt lat="42.6135277" lon="12.291362"><ele>256.0</ele><time>2026-04-03T13:32:50.511Z</time></trkpt><trkpt lat="42.6134272" lon="12.2913822"><ele>256.0</ele><time>2026-04-03T13:32:51.491Z</time></trkpt><trkpt lat="42.6133076" lon="12.2913709"><ele>256.66666666666663</ele><time>2026-04-03T13:32:52.498Z</time></trkpt><trkpt lat="42.6131545" lon="12.2913263"><ele>257.3333333333333</ele><time>2026-04-03T13:32:53.494Z</time></trkpt><trkpt lat="42.6130037" lon="12.291281"><ele>258.0</ele><time>2026-04-03T13:32:54.483Z</time></trkpt><trkpt lat="42.6128681" lon="12.2912417"><ele>259.0</ele><time>2026-04-03T13:32:55.502Z</time></trkpt><trkpt lat="42.6127487" lon="12.2912107"><ele>260.0</ele><time>2026-04-03T13:32:56.485Z</time></trkpt><trkpt lat="42.612636" lon="12.2911786"><ele>261.0</ele><time>2026-04-03T13:32:57.484Z</time></trkpt><trkpt lat="42.6125365" lon="12.291152"><ele>262.0</ele><time>2026-04-03T13:32:58.478Z</time></trkpt><trkpt lat="42.6124407" lon="12.2911325"><ele>263.0</ele><time>2026-04-03T13:32:59.483Z</time></trkpt><trkpt lat="42.612341" lon="12.291107"><ele>263.0</ele><time>2026-04-03T13:33:00.506Z</time></trkpt><trkpt lat="42.6122396" lon="12.2910768"><ele>263.0</ele><time>2026-04-03T13:33:01.508Z</time></trkpt><trkpt lat="42.6121302" lon="12.2910433"><ele>263.0</ele><time>2026-04-03T13:33:02.501Z</time></trkpt><trkpt lat="42.6120226" lon="12.2910123"><ele>263.0</ele><time>2026-04-03T13:33:03.485Z</time></trkpt><trkpt lat="42.6119156" lon="12.2909855"><ele>263.0</ele><time>2026-04-03T13:33:04.489Z</time></trkpt><trkpt lat="42.6118136" lon="12.2909599"><ele>264.0</ele><time>2026-04-03T13:33:05.502Z</time></trkpt><trkpt lat="42.6117192" lon="12.2909331"><ele>265.0</ele><time>2026-04-03T13:33:06.503Z</time></trkpt><trkpt lat="42.6116245" lon="12.2909098"><ele>266.0</ele><time>2026-04-03T13:33:07.5Z</time></trkpt><trkpt lat="42.6115251" lon="12.2908922"><ele>267.0</ele><time>2026-04-03T13:33:08.495Z</time></trkpt><trkpt lat="42.6114351" lon="12.2908764"><ele>268.0</ele><time>2026-04-03T13:33:09.509Z</time></trkpt><trkpt lat="42.6113587" lon="12.2908761"><ele>268.0</ele><time>2026-04-03T13:33:10.506Z</time></trkpt><trkpt lat="42.6112859" lon="12.2908901"><ele>268.0</ele><time>2026-04-03T13:33:11.508Z</time></trkpt><trkpt lat="42.6112119" lon="12.2909132"><ele>268.0</ele><time>2026-04-03T13:33:12.494Z</time></trkpt><trkpt lat="42.6111348" lon="12.2909566"><ele>268.0</ele><time>2026-04-03T13:33:13.494Z</time></trkpt><trkpt lat="42.6110509" lon="12.2910151"><ele>268.0</ele><time>2026-04-03T13:33:14.506Z</time></trkpt><trkpt lat="42.610976" lon="12.2910779"><ele>268.0</ele><time>2026-04-03T13:33:15.514Z</time></trkpt><trkpt lat="42.610899" lon="12.2911348"><ele>268.2</ele><time>2026-04-03T13:33:16.489Z</time></trkpt><trkpt lat="42.6108326" lon="12.291189"><ele>268.4</ele><time>2026-04-03T13:33:17.501Z</time></trkpt><trkpt lat="42.6107721" lon="12.291235"><ele>268.59999999999997</ele><time>2026-04-03T13:33:18.485Z</time></trkpt><trkpt lat="42.6106649" lon="12.2913247"><ele>268.8</ele><time>2026-04-03T13:33:20.494Z</time></trkpt><trkpt lat="42.6105733" lon="12.2914085"><ele>269.0</ele><time>2026-04-03T13:33:22.487Z</time></trkpt><trkpt lat="42.6104715" lon="12.2914531"><ele>270.33333333333337</ele><time>2026-04-03T13:33:24.507Z</time></trkpt><trkpt lat="42.6104018" lon="12.2914893"><ele>271.6666666666667</ele><time>2026-04-03T13:33:27.499Z</time></trkpt><trkpt lat="42.6103319" lon="12.291549"><ele>273.0</ele><time>2026-04-03T13:34:21.506Z</time></trkpt><trkpt lat="42.6102695" lon="12.2915959"><ele>274.3333333333333</ele><time>2026-04-03T13:34:22.51Z</time></trkpt><trkpt lat="42.610202" lon="12.2916453"><ele>275.66666666666663</ele><time>2026-04-03T13:34:23.512Z</time></trkpt><trkpt lat="42.6101291" lon="12.2916938"><ele>277.0</ele><time>2026-04-03T13:34:24.505Z</time></trkpt><trkpt lat="42.6100443" lon="12.2917493"><ele>277.4</ele><time>2026-04-03T13:34:25.51Z</time></trkpt><trkpt lat="42.6099511" lon="12.2918059"><ele>277.79999999999995</ele><time>2026-04-03T13:34:26.506Z</time></trkpt><trkpt lat="42.609843" lon="12.2918506"><ele>278.2</ele><time>2026-04-03T13:34:27.509Z</time></trkpt><trkpt lat="42.6097391" lon="12.291874"><ele>278.59999999999997</ele><time>2026-04-03T13:34:28.501Z</time></trkpt><trkpt lat="42.6096241" lon="12.2918753"><ele>279.0</ele><time>2026-04-03T13:34:29.476Z</time></trkpt><trkpt lat="42.6094911" lon="12.2918717"><ele>281.5</ele><time>2026-04-03T13:34:30.488Z</time></trkpt><trkpt lat="42.6093492" lon="12.2918681"><ele>284.0</ele><time>2026-04-03T13:34:31.486Z</time></trkpt><trkpt lat="42.6092" lon="12.2918572"><ele>286.5</ele><time>2026-04-03T13:34:32.487Z</time></trkpt><trkpt lat="42.6090452" lon="12.2918433"><ele>289.0</ele><time>2026-04-03T13:34:33.489Z</time></trkpt><trkpt lat="42.6088927" lon="12.2918413"><ele>289.0</ele><time>2026-04-03T13:34:34.479Z</time></trkpt><trkpt lat="42.6087325" lon="12.291844"><ele>289.0</ele><time>2026-04-03T13:34:35.502Z</time></trkpt><trkpt lat="42.6085763" lon="12.291838"><ele>289.0</ele><time>2026-04-03T13:34:36.513Z</time></trkpt><trkpt lat="42.6084342" lon="12.2918282"><ele>291.0</ele><time>2026-04-03T13:34:37.506Z</time></trkpt><trkpt lat="42.6083132" lon="12.2918208"><ele>293.0</ele><time>2026-04-03T13:34:38.474Z</time></trkpt><trkpt lat="42.6082002" lon="12.2918137"><ele>295.0</ele><time>2026-04-03T13:34:39.482Z</time></trkpt><trkpt lat="42.6080989" lon="12.2918121"><ele>297.0</ele><time>2026-04-03T13:34:40.478Z</time></trkpt><trkpt lat="42.6079955" lon="12.2918215"><ele>299.0</ele><time>2026-04-03T13:34:41.495Z</time></trkpt><trkpt lat="42.6079007" lon="12.2918397"><ele>298.8</ele><time>2026-04-03T13:34:42.487Z</time></trkpt><trkpt lat="42.6078122" lon="12.2918707"><ele>298.59999999999997</ele><time>2026-04-03T13:34:43.485Z</time></trkpt><trkpt lat="42.6077211" lon="12.2919193"><ele>298.4</ele><time>2026-04-03T13:34:44.492Z</time></trkpt><trkpt lat="42.6076269" lon="12.2919882"><ele>298.2</ele><time>2026-04-03T13:34:45.486Z</time></trkpt><trkpt lat="42.6075326" lon="12.2920721"><ele>298.0</ele><time>2026-04-03T13:34:46.497Z</time></trkpt><trkpt lat="42.6074333" lon="12.2921665"><ele>300.5</ele><time>2026-04-03T13:34:47.502Z</time></trkpt><trkpt lat="42.6073314" lon="12.2922671"><ele>303.0</ele><time>2026-04-03T13:34:48.496Z</time></trkpt><trkpt lat="42.6072289" lon="12.2923687"><ele>305.5</ele><time>2026-04-03T13:34:49.503Z</time></trkpt><trkpt lat="42.6071301" lon="12.2924688"><ele>308.0</ele><time>2026-04-03T13:34:50.506Z</time></trkpt><trkpt lat="42.6070255" lon="12.2925666"><ele>307.5</ele><time>2026-04-03T13:34:51.502Z</time></trkpt><trkpt lat="42.606922" lon="12.292648"><ele>307.0</ele><time>2026-04-03T13:34:52.506Z</time></trkpt><trkpt lat="42.606835" lon="12.2927128"><ele>306.5</ele><time>2026-04-03T13:34:53.509Z</time></trkpt><trkpt lat="42.6067621" lon="12.2927665"><ele>306.0</ele><time>2026-04-03T13:34:54.505Z</time></trkpt><trkpt lat="42.6067024" lon="12.2928141"><ele>305.5</ele><time>2026-04-03T13:34:55.511Z</time></trkpt><trkpt lat="42.6066514" lon="12.2928652"><ele>305.0</ele><time>2026-04-03T13:34:56.503Z</time></trkpt><trkpt lat="42.6066111" lon="12.2929351"><ele>305.0</ele><time>2026-04-03T13:34:57.506Z</time></trkpt><trkpt lat="42.6065809" lon="12.2930293"><ele>305.0</ele><time>2026-04-03T13:34:58.508Z</time></trkpt><trkpt lat="42.6065697" lon="12.2931232"><ele>305.0</ele><time>2026-04-03T13:34:59.495Z</time></trkpt><trkpt lat="42.6065799" lon="12.2932123"><ele>305.0</ele><time>2026-04-03T13:35:00.481Z</time></trkpt><trkpt lat="42.606608" lon="12.293306"><ele>305.0</ele><time>2026-04-03T13:35:01.508Z</time></trkpt><trkpt lat="42.6066579" lon="12.2933935"><ele>305.0</ele><time>2026-04-03T13:35:02.481Z</time></trkpt><trkpt lat="42.6067406" lon="12.2934594"><ele>308.0</ele><time>2026-04-03T13:35:03.506Z</time></trkpt><trkpt lat="42.6068488" lon="12.2935218"><ele>311.0</ele><time>2026-04-03T13:35:04.493Z</time></trkpt><trkpt lat="42.6069642" lon="12.2935707"><ele>314.0</ele><time>2026-04-03T13:35:05.488Z</time></trkpt><trkpt lat="42.6070882" lon="12.293621"><ele>317.0</ele><time>2026-04-03T13:35:06.508Z</time></trkpt><trkpt lat="42.607232" lon="12.2936775"><ele>317.5</ele><time>2026-04-03T13:35:07.5Z</time></trkpt><trkpt lat="42.6073779" lon="12.2937321"><ele>318.0</ele><time>2026-04-03T13:35:08.497Z</time></trkpt><trkpt lat="42.6075235" lon="12.2937849"><ele>318.5</ele><time>2026-04-03T13:35:09.495Z</time></trkpt><trkpt lat="42.6076584" lon="12.2938252"><ele>319.0</ele><time>2026-04-03T13:35:10.484Z</time></trkpt><trkpt lat="42.6077814" lon="12.2938694"><ele>319.0</ele><time>2026-04-03T13:35:11.501Z</time></trkpt><trkpt lat="42.6079064" lon="12.2939168"><ele>319.0</ele><time>2026-04-03T13:35:12.503Z</time></trkpt><trkpt lat="42.6080228" lon="12.293988"><ele>319.0</ele><time>2026-04-03T13:35:13.507Z</time></trkpt><trkpt lat="42.6081415" lon="12.2940732"><ele>319.0</ele><time>2026-04-03T13:35:14.479Z</time></trkpt><trkpt lat="42.60826" lon="12.2941731"><ele>320.0</ele><time>2026-04-03T13:35:15.508Z</time></trkpt><trkpt lat="42.6083789" lon="12.2942736"><ele>321.0</ele><time>2026-04-03T13:35:16.507Z</time></trkpt><trkpt lat="42.6085025" lon="12.2943755"><ele>322.0</ele><time>2026-04-03T13:35:17.494Z</time></trkpt><trkpt lat="42.6086279" lon="12.2944794"><ele>323.0</ele><time>2026-04-03T13:35:18.49Z</time></trkpt><trkpt lat="42.6087525" lon="12.2945865"><ele>323.0</ele><time>2026-04-03T13:35:19.504Z</time></trkpt><trkpt lat="42.6088689" lon="12.2946826"><ele>323.0</ele><time>2026-04-03T13:35:20.499Z</time></trkpt><trkpt lat="42.6089812" lon="12.294774"><ele>323.0</ele><time>2026-04-03T13:35:21.496Z</time></trkpt><trkpt lat="42.6090936" lon="12.2948673"><ele>323.0</ele><time>2026-04-03T13:35:22.493Z</time></trkpt><trkpt lat="42.609211" lon="12.2949585"><ele>323.5</ele><time>2026-04-03T13:35:23.498Z</time></trkpt><trkpt lat="42.6093327" lon="12.2950543"><ele>324.0</ele><time>2026-04-03T13:35:24.498Z</time></trkpt><trkpt lat="42.6094536" lon="12.2951422"><ele>324.5</ele><time>2026-04-03T13:35:25.494Z</time></trkpt><trkpt lat="42.6095733" lon="12.2952247"><ele>325.0</ele><time>2026-04-03T13:35:26.491Z</time></trkpt><trkpt lat="42.6096944" lon="12.295306"><ele>325.0</ele><time>2026-04-03T13:35:27.495Z</time></trkpt><trkpt lat="42.6098154" lon="12.2953901"><ele>325.0</ele><time>2026-04-03T13:35:28.482Z</time></trkpt><trkpt lat="42.6099366" lon="12.295475"><ele>325.0</ele><time>2026-04-03T13:35:29.495Z</time></trkpt><trkpt lat="42.6100564" lon="12.2955621"><ele>325.0</ele><time>2026-04-03T13:35:30.496Z</time></trkpt><trkpt lat="42.6101604" lon="12.2956568"><ele>326.0</ele><time>2026-04-03T13:35:31.502Z</time></trkpt><trkpt lat="42.6102435" lon="12.2957561"><ele>327.0</ele><time>2026-04-03T13:35:32.501Z</time></trkpt><trkpt lat="42.6103125" lon="12.2958723"><ele>328.0</ele><time>2026-04-03T13:35:33.493Z</time></trkpt><trkpt lat="42.610369" lon="12.296008"><ele>329.0</ele><time>2026-04-03T13:35:34.494Z</time></trkpt><trkpt lat="42.6104165" lon="12.296155"><ele>329.0</ele><time>2026-04-03T13:35:35.507Z</time></trkpt><trkpt lat="42.6104641" lon="12.2963124"><ele>329.0</ele><time>2026-04-03T13:35:36.488Z</time></trkpt><trkpt lat="42.6105062" lon="12.2964845"><ele>329.0</ele><time>2026-04-03T13:35:37.497Z</time></trkpt><trkpt lat="42.6105647" lon="12.2966629"><ele>329.0</ele><time>2026-04-03T13:35:38.489Z</time></trkpt><trkpt lat="42.6106308" lon="12.2968396"><ele>331.0</ele><time>2026-04-03T13:35:39.51Z</time></trkpt><trkpt lat="42.6107048" lon="12.2970035"><ele>333.0</ele><time>2026-04-03T13:35:40.5Z</time></trkpt><trkpt lat="42.6107674" lon="12.2971492"><ele>335.0</ele><time>2026-04-03T13:35:41.498Z</time></trkpt><trkpt lat="42.6108248" lon="12.29729"><ele>337.0</ele><time>2026-04-03T13:35:42.484Z</time></trkpt><trkpt lat="42.6108855" lon="12.2974308"><ele>338.20000000000005</ele><time>2026-04-03T13:35:43.488Z</time></trkpt><trkpt lat="42.610948" lon="12.2975734"><ele>339.4</ele><time>2026-04-03T13:35:44.5Z</time></trkpt><trkpt lat="42.611008" lon="12.2977086"><ele>340.6</ele><time>2026-04-03T13:35:45.481Z</time></trkpt><trkpt lat="42.6110632" lon="12.2978286"><ele>341.79999999999995</ele><time>2026-04-03T13:35:46.503Z</time></trkpt><trkpt lat="42.6111199" lon="12.2979433"><ele>343.0</ele><time>2026-04-03T13:35:47.489Z</time></trkpt><trkpt lat="42.6111939" lon="12.2980547"><ele>344.4</ele><time>2026-04-03T13:35:48.494Z</time></trkpt><trkpt lat="42.6112844" lon="12.2981586"><ele>345.79999999999995</ele><time>2026-04-03T13:35:49.483Z</time></trkpt><trkpt lat="42.6113687" lon="12.2982561"><ele>347.2</ele><time>2026-04-03T13:35:50.48Z</time></trkpt><trkpt lat="42.6114495" lon="12.2983376"><ele>348.6</ele><time>2026-04-03T13:35:51.477Z</time></trkpt><trkpt lat="42.6115258" lon="12.2984241"><ele>350.0</ele><time>2026-04-03T13:35:52.481Z</time></trkpt><trkpt lat="42.6116128" lon="12.2984975"><ele>350.0</ele><time>2026-04-03T13:35:53.486Z</time></trkpt><trkpt lat="42.6117137" lon="12.2985513"><ele>350.0</ele><time>2026-04-03T13:35:54.483Z</time></trkpt><trkpt lat="42.6118151" lon="12.2985829"><ele>350.0</ele><time>2026-04-03T13:35:55.486Z</time></trkpt><trkpt lat="42.611904" lon="12.2985931"><ele>350.0</ele><time>2026-04-03T13:35:56.501Z</time></trkpt><trkpt lat="42.6119832" lon="12.2985907"><ele>350.0</ele><time>2026-04-03T13:35:57.505Z</time></trkpt><trkpt lat="42.6120572" lon="12.2986094"><ele>351.2</ele><time>2026-04-03T13:35:58.502Z</time></trkpt><trkpt lat="42.6121348" lon="12.2986585"><ele>352.4</ele><time>2026-04-03T13:35:59.507Z</time></trkpt><trkpt lat="42.6122106" lon="12.2987526"><ele>353.6</ele><time>2026-04-03T13:36:00.502Z</time></trkpt><trkpt lat="42.6122867" lon="12.2988824"><ele>354.8</ele><time>2026-04-03T13:36:01.505Z</time></trkpt><trkpt lat="42.6123642" lon="12.2990063"><ele>356.0</ele><time>2026-04-03T13:36:02.498Z</time></trkpt><trkpt lat="42.612448" lon="12.2991226"><ele>356.0</ele><time>2026-04-03T13:36:03.491Z</time></trkpt><trkpt lat="42.6125508" lon="12.2992209"><ele>356.0</ele><time>2026-04-03T13:36:04.504Z</time></trkpt><trkpt lat="42.6126658" lon="12.2993149"><ele>356.0</ele><time>2026-04-03T13:36:05.5Z</time></trkpt><trkpt lat="42.6128019" lon="12.2993971"><ele>356.0</ele><time>2026-04-03T13:36:06.499Z</time></trkpt><trkpt lat="42.6129528" lon="12.2994789"><ele>358.6666666666667</ele><time>2026-04-03T13:36:07.499Z</time></trkpt><trkpt lat="42.6131072" lon="12.2995684"><ele>361.3333333333333</ele><time>2026-04-03T13:36:08.499Z</time></trkpt><trkpt lat="42.6132659" lon="12.2996599"><ele>364.0</ele><time>2026-04-03T13:36:09.493Z</time></trkpt><trkpt lat="42.6134138" lon="12.2997446"><ele>364.5</ele><time>2026-04-03T13:36:10.505Z</time></trkpt><trkpt lat="42.6135475" lon="12.2998215"><ele>365.0</ele><time>2026-04-03T13:36:11.504Z</time></trkpt><trkpt lat="42.613676" lon="12.2998977"><ele>365.5</ele><time>2026-04-03T13:36:12.504Z</time></trkpt><trkpt lat="42.613806" lon="12.2999666"><ele>366.0</ele><time>2026-04-03T13:36:13.505Z</time></trkpt><trkpt lat="42.6139401" lon="12.3000343"><ele>366.5</ele><time>2026-04-03T13:36:14.499Z</time></trkpt><trkpt lat="42.6140751" lon="12.3001049"><ele>367.0</ele><time>2026-04-03T13:36:15.508Z</time></trkpt><trkpt lat="42.614197" lon="12.3001851"><ele>367.5</ele><time>2026-04-03T13:36:16.502Z</time></trkpt><trkpt lat="42.6142993" lon="12.3002599"><ele>368.0</ele><time>2026-04-03T13:36:17.504Z</time></trkpt><trkpt lat="42.6143837" lon="12.3003111"><ele>368.0</ele><time>2026-04-03T13:36:18.494Z</time></trkpt><trkpt lat="42.6144464" lon="12.3003644"><ele>368.0</ele><time>2026-04-03T13:36:19.501Z</time></trkpt><trkpt lat="42.6144589" lon="12.3005297"><ele>368.0</ele><time>2026-04-03T13:36:21.501Z</time></trkpt><trkpt lat="42.6144089" lon="12.300631"><ele>368.0</ele><time>2026-04-03T13:36:22.498Z</time></trkpt><trkpt lat="42.6143389" lon="12.3007464"><ele>368.0</ele><time>2026-04-03T13:36:23.495Z</time></trkpt><trkpt lat="42.6142432" lon="12.3008589"><ele>369.0</ele><time>2026-04-03T13:36:24.494Z</time></trkpt><trkpt lat="42.6141559" lon="12.3010034"><ele>370.0</ele><time>2026-04-03T13:36:25.508Z</time></trkpt><trkpt lat="42.614075" lon="12.3011788"><ele>371.0</ele><time>2026-04-03T13:36:26.51Z</time></trkpt><trkpt lat="42.6139956" lon="12.3013626"><ele>372.0</ele><time>2026-04-03T13:36:27.511Z</time></trkpt><trkpt lat="42.6139287" lon="12.3015153"><ele>373.3333333333333</ele><time>2026-04-03T13:36:28.51Z</time></trkpt><trkpt lat="42.6138815" lon="12.3016225"><ele>374.6666666666667</ele><time>2026-04-03T13:36:29.495Z</time></trkpt><trkpt lat="42.6138546" lon="12.3017042"><ele>376.0</ele><time>2026-04-03T13:36:30.51Z</time></trkpt><trkpt lat="42.6138478" lon="12.3017971"><ele>377.33333333333337</ele><time>2026-04-03T13:36:31.509Z</time></trkpt><trkpt lat="42.6138622" lon="12.3019035"><ele>378.6666666666667</ele><time>2026-04-03T13:36:32.489Z</time></trkpt><trkpt lat="42.6139039" lon="12.3020266"><ele>380.0</ele><time>2026-04-03T13:36:33.506Z</time></trkpt><trkpt lat="42.6139533" lon="12.3021509"><ele>381.6</ele><time>2026-04-03T13:36:34.499Z</time></trkpt><trkpt lat="42.6140066" lon="12.3022638"><ele>383.2</ele><time>2026-04-03T13:36:35.502Z</time></trkpt><trkpt lat="42.6140465" lon="12.3023593"><ele>384.79999999999995</ele><time>2026-04-03T13:36:36.495Z</time></trkpt><trkpt lat="42.6140862" lon="12.3024836"><ele>386.4</ele><time>2026-04-03T13:36:38.499Z</time></trkpt><trkpt lat="42.6141126" lon="12.3026055"><ele>388.0</ele><time>2026-04-03T13:36:40.504Z</time></trkpt><trkpt lat="42.6141445" lon="12.3027641"><ele>388.00000000000006</ele><time>2026-04-03T13:36:42.506Z</time></trkpt><trkpt lat="42.614167" lon="12.3028954"><ele>388.0</ele><time>2026-04-03T13:36:44.509Z</time></trkpt><trkpt lat="42.6141874" lon="12.3030044"><ele>388.0</ele><time>2026-04-03T13:36:46.497Z</time></trkpt><trkpt lat="42.6142051" lon="12.3031098"><ele>388.0</ele><time>2026-04-03T13:36:48.505Z</time></trkpt><trkpt lat="42.6142171" lon="12.3032178"><ele>388.00000000000006</ele><time>2026-04-03T13:36:50.51Z</time></trkpt><trkpt lat="42.614236" lon="12.3033356"><ele>388.0</ele><time>2026-04-03T13:36:52.506Z</time></trkpt><trkpt lat="42.6142573" lon="12.3034572"><ele>388.50000000000006</ele><time>2026-04-03T13:36:54.497Z</time></trkpt><trkpt lat="42.6142773" lon="12.3035728"><ele>389.0</ele><time>2026-04-03T13:36:56.51Z</time></trkpt><trkpt lat="42.6142691" lon="12.3036885"><ele>389.5</ele><time>2026-04-03T13:36:59.514Z</time></trkpt><trkpt lat="42.614257" lon="12.3037849"><ele>390.0</ele><time>2026-04-03T13:37:01.51Z</time></trkpt><trkpt lat="42.6142185" lon="12.303876"><ele>390.50000000000006</ele><time>2026-04-03T13:37:04.507Z</time></trkpt><trkpt lat="42.6142051" lon="12.3040161"><ele>391.0</ele><time>2026-04-03T13:37:06.502Z</time></trkpt><trkpt lat="42.6142243" lon="12.3041391"><ele>392.0</ele><time>2026-04-03T13:37:07.504Z</time></trkpt><trkpt lat="42.6142567" lon="12.304291"><ele>393.0</ele><time>2026-04-03T13:37:08.499Z</time></trkpt><trkpt lat="42.6142946" lon="12.304452"><ele>394.0</ele><time>2026-04-03T13:37:09.506Z</time></trkpt><trkpt lat="42.614346" lon="12.3046112"><ele>395.0</ele><time>2026-04-03T13:37:10.504Z</time></trkpt><trkpt lat="42.6144122" lon="12.3047727"><ele>393.5</ele><time>2026-04-03T13:37:11.506Z</time></trkpt><trkpt lat="42.6144927" lon="12.3049132"><ele>392.0</ele><time>2026-04-03T13:37:12.492Z</time></trkpt><trkpt lat="42.614586" lon="12.3050434"><ele>390.5</ele><time>2026-04-03T13:37:13.503Z</time></trkpt><trkpt lat="42.6146904" lon="12.3051674"><ele>389.0</ele><time>2026-04-03T13:37:14.494Z</time></trkpt><trkpt lat="42.614807" lon="12.3052789"><ele>389.0</ele><time>2026-04-03T13:37:15.507Z</time></trkpt><trkpt lat="42.6149289" lon="12.3053876"><ele>389.0</ele><time>2026-04-03T13:37:16.498Z</time></trkpt><trkpt lat="42.6150557" lon="12.3054907"><ele>389.0</ele><time>2026-04-03T13:37:17.503Z</time></trkpt><trkpt lat="42.6151834" lon="12.3055979"><ele>389.0</ele><time>2026-04-03T13:37:18.501Z</time></trkpt><trkpt lat="42.6153114" lon="12.3057067"><ele>389.0</ele><time>2026-04-03T13:37:19.506Z</time></trkpt><trkpt lat="42.6154266" lon="12.3058129"><ele>389.0</ele><time>2026-04-03T13:37:20.502Z</time></trkpt><trkpt lat="42.6155376" lon="12.3059149"><ele>389.0</ele><time>2026-04-03T13:37:21.498Z</time></trkpt><trkpt lat="42.6156479" lon="12.3060199"><ele>389.0</ele><time>2026-04-03T13:37:22.504Z</time></trkpt><trkpt lat="42.6157658" lon="12.3061239"><ele>389.0</ele><time>2026-04-03T13:37:23.507Z</time></trkpt><trkpt lat="42.6158815" lon="12.3062276"><ele>389.0</ele><time>2026-04-03T13:37:24.505Z</time></trkpt><trkpt lat="42.6160036" lon="12.3063253"><ele>389.0</ele><time>2026-04-03T13:37:25.506Z</time></trkpt><trkpt lat="42.6161344" lon="12.3064177"><ele>389.0</ele><time>2026-04-03T13:37:26.506Z</time></trkpt><trkpt lat="42.6162649" lon="12.3065034"><ele>389.5</ele><time>2026-04-03T13:37:27.502Z</time></trkpt><trkpt lat="42.6163981" lon="12.3065874"><ele>390.0</ele><time>2026-04-03T13:37:28.506Z</time></trkpt><trkpt lat="42.6165322" lon="12.3066702"><ele>390.5</ele><time>2026-04-03T13:37:29.504Z</time></trkpt><trkpt lat="42.6166675" lon="12.3067513"><ele>391.0</ele><time>2026-04-03T13:37:30.506Z</time></trkpt><trkpt lat="42.6167933" lon="12.3068246"><ele>391.0</ele><time>2026-04-03T13:37:31.501Z</time></trkpt><trkpt lat="42.6169146" lon="12.3068942"><ele>391.0</ele><time>2026-04-03T13:37:32.505Z</time></trkpt><trkpt lat="42.6170386" lon="12.3069709"><ele>391.0</ele><time>2026-04-03T13:37:33.499Z</time></trkpt><trkpt lat="42.6171621" lon="12.307049"><ele>391.0</ele><time>2026-04-03T13:37:34.504Z</time></trkpt><trkpt lat="42.6172889" lon="12.307131"><ele>390.5</ele><time>2026-04-03T13:37:35.5Z</time></trkpt><trkpt lat="42.6174117" lon="12.3072203"><ele>390.0</ele><time>2026-04-03T13:37:36.494Z</time></trkpt><trkpt lat="42.617532" lon="12.3073167"><ele>389.5</ele><time>2026-04-03T13:37:37.497Z</time></trkpt><trkpt lat="42.6176527" lon="12.3074154"><ele>389.0</ele><time>2026-04-03T13:37:38.49Z</time></trkpt><trkpt lat="42.617772" lon="12.3075168"><ele>389.0</ele><time>2026-04-03T13:37:39.504Z</time></trkpt><trkpt lat="42.6178922" lon="12.3076252"><ele>389.0</ele><time>2026-04-03T13:37:40.494Z</time></trkpt><trkpt lat="42.6180147" lon="12.3077352"><ele>389.0</ele><time>2026-04-03T13:37:41.497Z</time></trkpt><trkpt lat="42.6181312" lon="12.307848"><ele>389.0</ele><time>2026-04-03T13:37:42.496Z</time></trkpt><trkpt lat="42.6182399" lon="12.307961"><ele>389.0</ele><time>2026-04-03T13:37:43.503Z</time></trkpt><trkpt lat="42.6183449" lon="12.3080677"><ele>389.0</ele><time>2026-04-03T13:37:44.497Z</time></trkpt><trkpt lat="42.6184395" lon="12.3081668"><ele>389.0</ele><time>2026-04-03T13:37:45.503Z</time></trkpt><trkpt lat="42.618527" lon="12.3082583"><ele>389.0</ele><time>2026-04-03T13:37:46.502Z</time></trkpt><trkpt lat="42.6186063" lon="12.308344"><ele>389.79999999999995</ele><time>2026-04-03T13:37:47.497Z</time></trkpt><trkpt lat="42.6186822" lon="12.3084227"><ele>390.59999999999997</ele><time>2026-04-03T13:37:48.504Z</time></trkpt><trkpt lat="42.6187601" lon="12.3084882"><ele>391.4</ele><time>2026-04-03T13:37:49.501Z</time></trkpt><trkpt lat="42.6188402" lon="12.3085418"><ele>392.2</ele><time>2026-04-03T13:37:50.503Z</time></trkpt><trkpt lat="42.6189308" lon="12.3085801"><ele>393.0</ele><time>2026-04-03T13:37:51.494Z</time></trkpt><trkpt lat="42.6190365" lon="12.3086035"><ele>393.0</ele><time>2026-04-03T13:37:52.505Z</time></trkpt><trkpt lat="42.6191533" lon="12.3086067"><ele>393.0</ele><time>2026-04-03T13:37:53.501Z</time></trkpt><trkpt lat="42.6192647" lon="12.3085939"><ele>393.0</ele><time>2026-04-03T13:37:54.5Z</time></trkpt><trkpt lat="42.6193731" lon="12.3085665"><ele>393.0</ele><time>2026-04-03T13:37:55.503Z</time></trkpt><trkpt lat="42.6194789" lon="12.3085241"><ele>393.0</ele><time>2026-04-03T13:37:56.504Z</time></trkpt><trkpt lat="42.6195718" lon="12.3084708"><ele>394.59999999999997</ele><time>2026-04-03T13:37:57.501Z</time></trkpt><trkpt lat="42.6196497" lon="12.308419"><ele>396.2</ele><time>2026-04-03T13:37:59.372Z</time></trkpt><trkpt lat="42.619767" lon="12.3083085"><ele>397.8</ele><time>2026-04-03T13:38:00.492Z</time></trkpt><trkpt lat="42.6198409" lon="12.3082646"><ele>399.4</ele><time>2026-04-03T13:38:02.496Z</time></trkpt><trkpt lat="42.6198932" lon="12.3084052"><ele>401.0</ele><time>2026-04-03T13:38:04.485Z</time></trkpt><trkpt lat="42.6198857" lon="12.3085423"><ele>401.0</ele><time>2026-04-03T13:38:05.489Z</time></trkpt><trkpt lat="42.6198634" lon="12.3086999"><ele>401.0</ele><time>2026-04-03T13:38:06.489Z</time></trkpt><trkpt lat="42.6198471" lon="12.308877"><ele>401.0</ele><time>2026-04-03T13:38:07.494Z</time></trkpt><trkpt lat="42.6198424" lon="12.3090645"><ele>401.0</ele><time>2026-04-03T13:38:08.498Z</time></trkpt><trkpt lat="42.6198578" lon="12.3092662"><ele>401.5</ele><time>2026-04-03T13:38:09.496Z</time></trkpt><trkpt lat="42.6198894" lon="12.3094692"><ele>402.0</ele><time>2026-04-03T13:38:10.495Z</time></trkpt><trkpt lat="42.6199387" lon="12.3096568"><ele>402.5</ele><time>2026-04-03T13:38:11.483Z</time></trkpt><trkpt lat="42.6199851" lon="12.3098285"><ele>403.0</ele><time>2026-04-03T13:38:12.483Z</time></trkpt><trkpt lat="42.6200269" lon="12.3099958"><ele>403.0</ele><time>2026-04-03T13:38:13.496Z</time></trkpt><trkpt lat="42.6200726" lon="12.3101593"><ele>403.0</ele><time>2026-04-03T13:38:14.49Z</time></trkpt><trkpt lat="42.6201174" lon="12.3103208"><ele>403.0</ele><time>2026-04-03T13:38:15.498Z</time></trkpt><trkpt lat="42.6201681" lon="12.310486"><ele>403.0</ele><time>2026-04-03T13:38:16.496Z</time></trkpt><trkpt lat="42.6202158" lon="12.3106301"><ele>404.5</ele><time>2026-04-03T13:38:17.492Z</time></trkpt><trkpt lat="42.6202712" lon="12.3107603"><ele>406.0</ele><time>2026-04-03T13:38:18.5Z</time></trkpt><trkpt lat="42.6203423" lon="12.3108801"><ele>407.5</ele><time>2026-04-03T13:38:19.491Z</time></trkpt><trkpt lat="42.6204273" lon="12.3109904"><ele>409.0</ele><time>2026-04-03T13:38:20.497Z</time></trkpt><trkpt lat="42.6205297" lon="12.3110813"><ele>410.0</ele><time>2026-04-03T13:38:21.49Z</time></trkpt><trkpt lat="42.6206431" lon="12.3111537"><ele>411.0</ele><time>2026-04-03T13:38:22.493Z</time></trkpt><trkpt lat="42.6207485" lon="12.3112152"><ele>412.0</ele><time>2026-04-03T13:38:23.487Z</time></trkpt><trkpt lat="42.6208427" lon="12.311266"><ele>413.0</ele><time>2026-04-03T13:38:24.492Z</time></trkpt><trkpt lat="42.6209336" lon="12.3113073"><ele>414.0</ele><time>2026-04-03T13:38:25.504Z</time></trkpt><trkpt lat="42.6210136" lon="12.3113459"><ele>414.0</ele><time>2026-04-03T13:38:26.491Z</time></trkpt><trkpt lat="42.6211003" lon="12.3113939"><ele>414.0</ele><time>2026-04-03T13:38:27.501Z</time></trkpt><trkpt lat="42.6211898" lon="12.311447"><ele>414.0</ele><time>2026-04-03T13:38:28.489Z</time></trkpt><trkpt lat="42.621282" lon="12.3115147"><ele>414.0</ele><time>2026-04-03T13:38:29.5Z</time></trkpt><trkpt lat="42.621368" lon="12.3115739"><ele>414.0</ele><time>2026-04-03T13:38:30.492Z</time></trkpt><trkpt lat="42.6214426" lon="12.3116257"><ele>412.8333333333333</ele><time>2026-04-03T13:38:31.499Z</time></trkpt><trkpt lat="42.6215143" lon="12.3116719"><ele>411.66666666666663</ele><time>2026-04-03T13:38:32.503Z</time></trkpt><trkpt lat="42.6215906" lon="12.3117224"><ele>410.5</ele><time>2026-04-03T13:38:33.486Z</time></trkpt><trkpt lat="42.6216749" lon="12.3117782"><ele>409.3333333333333</ele><time>2026-04-03T13:38:34.504Z</time></trkpt><trkpt lat="42.6217605" lon="12.3118373"><ele>408.16666666666663</ele><time>2026-04-03T13:38:35.496Z</time></trkpt><trkpt lat="42.62184" lon="12.3118958"><ele>407.0</ele><time>2026-04-03T13:38:36.5Z</time></trkpt><trkpt lat="42.6219099" lon="12.3119517"><ele>407.0</ele><time>2026-04-03T13:38:37.496Z</time></trkpt><trkpt lat="42.6219727" lon="12.312001"><ele>407.0</ele><time>2026-04-03T13:38:38.49Z</time></trkpt><trkpt lat="42.6220669" lon="12.3120883"><ele>407.0</ele><time>2026-04-03T13:38:40.492Z</time></trkpt><trkpt lat="42.6221189" lon="12.3121588"><ele>407.0</ele><time>2026-04-03T13:38:42.483Z</time></trkpt><trkpt lat="42.622298" lon="12.3122253"><ele>407.0</ele><time>2026-04-03T13:39:22.493Z</time></trkpt><trkpt lat="42.6223782" lon="12.3122676"><ele>406.8</ele><time>2026-04-03T13:39:23.488Z</time></trkpt><trkpt lat="42.6224704" lon="12.3123272"><ele>406.6</ele><time>2026-04-03T13:39:24.496Z</time></trkpt><trkpt lat="42.6225694" lon="12.3123876"><ele>406.40000000000003</ele><time>2026-04-03T13:39:25.497Z</time></trkpt><trkpt lat="42.6226768" lon="12.3124528"><ele>406.20000000000005</ele><time>2026-04-03T13:39:26.495Z</time></trkpt><trkpt lat="42.6227875" lon="12.3125167"><ele>406.0</ele><time>2026-04-03T13:39:27.497Z</time></trkpt><trkpt lat="42.6228788" lon="12.3125983"><ele>406.4</ele><time>2026-04-03T13:39:28.488Z</time></trkpt><trkpt lat="42.6229452" lon="12.3127014"><ele>406.8</ele><time>2026-04-03T13:39:29.495Z</time></trkpt><trkpt lat="42.6229975" lon="12.3128288"><ele>407.2</ele><time>2026-04-03T13:39:30.485Z</time></trkpt><trkpt lat="42.6230267" lon="12.3129775"><ele>407.59999999999997</ele><time>2026-04-03T13:39:31.497Z</time></trkpt><trkpt lat="42.6230454" lon="12.3131298"><ele>408.0</ele><time>2026-04-03T13:39:32.49Z</time></trkpt><trkpt lat="42.6230585" lon="12.3132958"><ele>408.0</ele><time>2026-04-03T13:39:33.501Z</time></trkpt><trkpt lat="42.6230672" lon="12.3134547"><ele>408.0</ele><time>2026-04-03T13:39:34.5Z</time></trkpt><trkpt lat="42.623074" lon="12.3135965"><ele>408.0</ele><time>2026-04-03T13:39:35.501Z</time></trkpt><trkpt lat="42.6230801" lon="12.3137233"><ele>408.0</ele><time>2026-04-03T13:39:36.505Z</time></trkpt><trkpt lat="42.6230857" lon="12.3138407"><ele>408.0</ele><time>2026-04-03T13:39:37.498Z</time></trkpt><trkpt lat="42.6230947" lon="12.3139509"><ele>408.59999999999997</ele><time>2026-04-03T13:39:38.491Z</time></trkpt><trkpt lat="42.6231068" lon="12.314061"><ele>409.2</ele><time>2026-04-03T13:39:39.502Z</time></trkpt><trkpt lat="42.623127" lon="12.314174"><ele>409.8</ele><time>2026-04-03T13:39:40.49Z</time></trkpt><trkpt lat="42.6231581" lon="12.3142957"><ele>410.4</ele><time>2026-04-03T13:39:41.488Z</time></trkpt><trkpt lat="42.6232094" lon="12.3144204"><ele>411.0</ele><time>2026-04-03T13:39:42.49Z</time></trkpt><trkpt lat="42.6232767" lon="12.3145491"><ele>411.0</ele><time>2026-04-03T13:39:43.497Z</time></trkpt><trkpt lat="42.6233599" lon="12.314667"><ele>411.0</ele><time>2026-04-03T13:39:44.494Z</time></trkpt><trkpt lat="42.6234497" lon="12.3147801"><ele>411.0</ele><time>2026-04-03T13:39:45.496Z</time></trkpt><trkpt lat="42.6235491" lon="12.3148819"><ele>411.0</ele><time>2026-04-03T13:39:46.49Z</time></trkpt><trkpt lat="42.6236509" lon="12.3149785"><ele>411.0</ele><time>2026-04-03T13:39:47.482Z</time></trkpt><trkpt lat="42.6237507" lon="12.3150637"><ele>411.0</ele><time>2026-04-03T13:39:48.482Z</time></trkpt><trkpt lat="42.6238488" lon="12.3151427"><ele>411.0</ele><time>2026-04-03T13:39:49.489Z</time></trkpt><trkpt lat="42.6239405" lon="12.31522"><ele>411.0</ele><time>2026-04-03T13:39:50.484Z</time></trkpt><trkpt lat="42.6240353" lon="12.3152941"><ele>411.0</ele><time>2026-04-03T13:39:51.497Z</time></trkpt><trkpt lat="42.6241338" lon="12.3153681"><ele>411.0</ele><time>2026-04-03T13:39:52.487Z</time></trkpt><trkpt lat="42.6242381" lon="12.3154478"><ele>411.0</ele><time>2026-04-03T13:39:53.497Z</time></trkpt><trkpt lat="42.6243391" lon="12.3155339"><ele>411.0</ele><time>2026-04-03T13:39:54.493Z</time></trkpt><trkpt lat="42.6244391" lon="12.3156246"><ele>411.0</ele><time>2026-04-03T13:39:55.497Z</time></trkpt><trkpt lat="42.6245466" lon="12.3157017"><ele>411.75</ele><time>2026-04-03T13:39:56.492Z</time></trkpt><trkpt lat="42.6246571" lon="12.3157693"><ele>412.5</ele><time>2026-04-03T13:39:57.495Z</time></trkpt><trkpt lat="42.6247647" lon="12.3158289"><ele>413.25</ele><time>2026-04-03T13:39:58.483Z</time></trkpt><trkpt lat="42.6248744" lon="12.3158864"><ele>414.0</ele><time>2026-04-03T13:39:59.492Z</time></trkpt><trkpt lat="42.6249744" lon="12.3159392"><ele>414.0</ele><time>2026-04-03T13:40:00.484Z</time></trkpt><trkpt lat="42.6250693" lon="12.3159925"><ele>414.0</ele><time>2026-04-03T13:40:01.498Z</time></trkpt><trkpt lat="42.6251537" lon="12.3160441"><ele>414.0</ele><time>2026-04-03T13:40:02.5Z</time></trkpt><trkpt lat="42.6252236" lon="12.3160875"><ele>414.0</ele><time>2026-04-03T13:40:03.491Z</time></trkpt><trkpt lat="42.6252916" lon="12.3162197"><ele>414.0</ele><time>2026-04-03T13:40:05.493Z</time></trkpt><trkpt lat="42.6252948" lon="12.3163168"><ele>413.8333333333333</ele><time>2026-04-03T13:40:06.495Z</time></trkpt><trkpt lat="42.6252869" lon="12.3164323"><ele>413.66666666666663</ele><time>2026-04-03T13:40:07.484Z</time></trkpt><trkpt lat="42.6252816" lon="12.3165475"><ele>413.5</ele><time>2026-04-03T13:40:08.498Z</time></trkpt><trkpt lat="42.6252902" lon="12.3166647"><ele>413.3333333333333</ele><time>2026-04-03T13:40:09.495Z</time></trkpt><trkpt lat="42.6253047" lon="12.3167864"><ele>413.16666666666663</ele><time>2026-04-03T13:40:10.497Z</time></trkpt><trkpt lat="42.6253229" lon="12.3168997"><ele>413.0</ele><time>2026-04-03T13:40:11.499Z</time></trkpt><trkpt lat="42.625339" lon="12.3170093"><ele>413.0</ele><time>2026-04-03T13:40:12.497Z</time></trkpt><trkpt lat="42.6253382" lon="12.3171241"><ele>413.0</ele><time>2026-04-03T13:40:13.507Z</time></trkpt><trkpt lat="42.6253233" lon="12.3172405"><ele>413.0</ele><time>2026-04-03T13:40:14.494Z</time></trkpt><trkpt lat="42.6253007" lon="12.3173613"><ele>413.0</ele><time>2026-04-03T13:40:15.481Z</time></trkpt><trkpt lat="42.625263" lon="12.3174829"><ele>413.0</ele><time>2026-04-03T13:40:16.505Z</time></trkpt><trkpt lat="42.6252152" lon="12.317606"><ele>414.0</ele><time>2026-04-03T13:40:17.508Z</time></trkpt><trkpt lat="42.625175" lon="12.3177289"><ele>415.0</ele><time>2026-04-03T13:40:18.498Z</time></trkpt><trkpt lat="42.6251478" lon="12.3178494"><ele>416.0</ele><time>2026-04-03T13:40:19.509Z</time></trkpt><trkpt lat="42.6251285" lon="12.3179677"><ele>417.0</ele><time>2026-04-03T13:40:20.502Z</time></trkpt><trkpt lat="42.6251167" lon="12.3180835"><ele>418.0</ele><time>2026-04-03T13:40:21.503Z</time></trkpt><trkpt lat="42.6251091" lon="12.3181987"><ele>418.00000000000006</ele><time>2026-04-03T13:40:22.504Z</time></trkpt><trkpt lat="42.6251163" lon="12.3183114"><ele>418.0</ele><time>2026-04-03T13:40:23.507Z</time></trkpt><trkpt lat="42.6251345" lon="12.3184158"><ele>418.0</ele><time>2026-04-03T13:40:24.497Z</time></trkpt><trkpt lat="42.6251611" lon="12.31851"><ele>418.0</ele><time>2026-04-03T13:40:25.503Z</time></trkpt><trkpt lat="42.6251855" lon="12.3186031"><ele>418.00000000000006</ele><time>2026-04-03T13:40:26.502Z</time></trkpt><trkpt lat="42.625213" lon="12.3186981"><ele>418.0</ele><time>2026-04-03T13:40:27.505Z</time></trkpt><trkpt lat="42.6252416" lon="12.3187937"><ele>418.00000000000006</ele><time>2026-04-03T13:40:28.505Z</time></trkpt><trkpt lat="42.6252708" lon="12.318895"><ele>418.0</ele><time>2026-04-03T13:40:29.479Z</time></trkpt><trkpt lat="42.6253045" lon="12.3189933"><ele>418.0</ele><time>2026-04-03T13:40:30.49Z</time></trkpt><trkpt lat="42.6253439" lon="12.3190818"><ele>418.0</ele><time>2026-04-03T13:40:31.504Z</time></trkpt><trkpt lat="42.625386" lon="12.3191589"><ele>418.00000000000006</ele><time>2026-04-03T13:40:32.507Z</time></trkpt><trkpt lat="42.6254342" lon="12.3192369"><ele>418.0</ele><time>2026-04-03T13:40:33.497Z</time></trkpt><trkpt lat="42.62548" lon="12.3193226"><ele>419.00000000000006</ele><time>2026-04-03T13:40:34.5Z</time></trkpt><trkpt lat="42.6255251" lon="12.3194051"><ele>420.0</ele><time>2026-04-03T13:40:35.493Z</time></trkpt><trkpt lat="42.6255597" lon="12.3194923"><ele>421.0</ele><time>2026-04-03T13:40:36.496Z</time></trkpt><trkpt lat="42.6255784" lon="12.3195956"><ele>422.0</ele><time>2026-04-03T13:40:37.503Z</time></trkpt><trkpt lat="42.6255834" lon="12.3197221"><ele>423.00000000000006</ele><time>2026-04-03T13:40:38.497Z</time></trkpt><trkpt lat="42.6255739" lon="12.3198532"><ele>424.0</ele><time>2026-04-03T13:40:39.503Z</time></trkpt><trkpt lat="42.6255668" lon="12.3199761"><ele>425.2</ele><time>2026-04-03T13:40:40.501Z</time></trkpt><trkpt lat="42.6255651" lon="12.3200897"><ele>426.4</ele><time>2026-04-03T13:40:41.508Z</time></trkpt><trkpt lat="42.6255664" lon="12.3201994"><ele>427.6</ele><time>2026-04-03T13:40:43.176Z</time></trkpt><trkpt lat="42.6255437" lon="12.3204264"><ele>428.8</ele><time>2026-04-03T13:40:44.495Z</time></trkpt><trkpt lat="42.6255191" lon="12.3205587"><ele>430.0</ele><time>2026-04-03T13:40:45.502Z</time></trkpt><trkpt lat="42.6254891" lon="12.3207012"><ele>430.75</ele><time>2026-04-03T13:40:46.487Z</time></trkpt><trkpt lat="42.6254541" lon="12.3208613"><ele>431.5</ele><time>2026-04-03T13:40:47.505Z</time></trkpt><trkpt lat="42.6254278" lon="12.321038"><ele>432.25</ele><time>2026-04-03T13:40:48.494Z</time></trkpt><trkpt lat="42.6254035" lon="12.3212282"><ele>433.0</ele><time>2026-04-03T13:40:49.476Z</time></trkpt><trkpt lat="42.6253884" lon="12.3214041"><ele>434.4</ele><time>2026-04-03T13:40:50.489Z</time></trkpt><trkpt lat="42.6253767" lon="12.3215506"><ele>435.79999999999995</ele><time>2026-04-03T13:40:51.496Z</time></trkpt><trkpt lat="42.6253652" lon="12.3216873"><ele>437.2</ele><time>2026-04-03T13:40:52.488Z</time></trkpt><trkpt lat="42.6253566" lon="12.3218157"><ele>438.6</ele><time>2026-04-03T13:40:53.491Z</time></trkpt><trkpt lat="42.6253468" lon="12.3219323"><ele>440.0</ele><time>2026-04-03T13:40:54.489Z</time></trkpt><trkpt lat="42.6253305" lon="12.3220463"><ele>440.6</ele><time>2026-04-03T13:40:55.488Z</time></trkpt><trkpt lat="42.6253097" lon="12.322152"><ele>441.2</ele><time>2026-04-03T13:40:56.497Z</time></trkpt><trkpt lat="42.6252895" lon="12.3222503"><ele>441.79999999999995</ele><time>2026-04-03T13:40:57.489Z</time></trkpt><trkpt lat="42.6252381" lon="12.322394"><ele>442.4</ele><time>2026-04-03T13:40:59.494Z</time></trkpt><trkpt lat="42.6251636" lon="12.3225004"><ele>443.0</ele><time>2026-04-03T13:41:01.488Z</time></trkpt><trkpt lat="42.6251025" lon="12.3225747"><ele>442.99999999999994</ele><time>2026-04-03T13:41:03.491Z</time></trkpt><trkpt lat="42.6250603" lon="12.3226596"><ele>443.0</ele><time>2026-04-03T13:41:05.504Z</time></trkpt><trkpt lat="42.6250128" lon="12.3227948"><ele>443.0</ele><time>2026-04-03T13:41:07.496Z</time></trkpt><trkpt lat="42.6249703" lon="12.3228798"><ele>443.0</ele><time>2026-04-03T13:41:08.494Z</time></trkpt><trkpt lat="42.6249252" lon="12.3229691"><ele>442.99999999999994</ele><time>2026-04-03T13:41:09.506Z</time></trkpt><trkpt lat="42.6248699" lon="12.3230543"><ele>443.0</ele><time>2026-04-03T13:41:10.501Z</time></trkpt><trkpt lat="42.6248096" lon="12.3231262"><ele>443.8333333333333</ele><time>2026-04-03T13:41:11.5Z</time></trkpt><trkpt lat="42.6247427" lon="12.3231924"><ele>444.66666666666663</ele><time>2026-04-03T13:41:12.509Z</time></trkpt><trkpt lat="42.6246713" lon="12.3232575"><ele>445.5</ele><time>2026-04-03T13:41:13.497Z</time></trkpt><trkpt lat="42.6246004" lon="12.3233175"><ele>446.33333333333337</ele><time>2026-04-03T13:41:14.503Z</time></trkpt><trkpt lat="42.6245375" lon="12.3233747"><ele>447.1666666666667</ele><time>2026-04-03T13:41:15.497Z</time></trkpt><trkpt lat="42.6244795" lon="12.3234408"><ele>448.0</ele><time>2026-04-03T13:41:16.48Z</time></trkpt><trkpt lat="42.6244256" lon="12.3235109"><ele>448.00000000000006</ele><time>2026-04-03T13:41:17.496Z</time></trkpt><trkpt lat="42.624366" lon="12.3235916"><ele>448.0</ele><time>2026-04-03T13:41:18.502Z</time></trkpt><trkpt lat="42.6242983" lon="12.3236711"><ele>448.0</ele><time>2026-04-03T13:41:19.505Z</time></trkpt><trkpt lat="42.6242313" lon="12.3237506"><ele>448.0</ele><time>2026-04-03T13:41:20.493Z</time></trkpt><trkpt lat="42.6241634" lon="12.3238255"><ele>448.00000000000006</ele><time>2026-04-03T13:41:21.496Z</time></trkpt><trkpt lat="42.6240938" lon="12.3239028"><ele>448.0</ele><time>2026-04-03T13:41:22.503Z</time></trkpt><trkpt lat="42.6240171" lon="12.3239728"><ele>449.2</ele><time>2026-04-03T13:41:23.501Z</time></trkpt><trkpt lat="42.6239393" lon="12.3240381"><ele>450.4</ele><time>2026-04-03T13:41:24.493Z</time></trkpt><trkpt lat="42.6238636" lon="12.3240975"><ele>451.59999999999997</ele><time>2026-04-03T13:41:25.494Z</time></trkpt><trkpt lat="42.623791" lon="12.3241623"><ele>452.79999999999995</ele><time>2026-04-03T13:41:26.499Z</time></trkpt><trkpt lat="42.6237103" lon="12.3242639"><ele>454.0</ele><time>2026-04-03T13:41:27.492Z</time></trkpt><trkpt lat="42.6236315" lon="12.3243831"><ele>454.0</ele><time>2026-04-03T13:41:28.491Z</time></trkpt><trkpt lat="42.6235613" lon="12.324499"><ele>454.0</ele><time>2026-04-03T13:41:29.501Z</time></trkpt><trkpt lat="42.6234915" lon="12.3246047"><ele>454.0</ele><time>2026-04-03T13:41:30.494Z</time></trkpt><trkpt lat="42.623426" lon="12.3247"><ele>454.0</ele><time>2026-04-03T13:41:31.496Z</time></trkpt><trkpt lat="42.6233603" lon="12.3247921"><ele>454.0</ele><time>2026-04-03T13:41:32.501Z</time></trkpt><trkpt lat="42.6232894" lon="12.3248784"><ele>456.50000000000006</ele><time>2026-04-03T13:41:33.493Z</time></trkpt><trkpt lat="42.6232216" lon="12.3249664"><ele>459.0</ele><time>2026-04-03T13:41:34.496Z</time></trkpt><trkpt lat="42.6231669" lon="12.3250487"><ele>461.5</ele><time>2026-04-03T13:41:35.495Z</time></trkpt><trkpt lat="42.6231178" lon="12.325134"><ele>464.0</ele><time>2026-04-03T13:41:36.495Z</time></trkpt><trkpt lat="42.6230722" lon="12.3252196"><ele>466.50000000000006</ele><time>2026-04-03T13:41:37.501Z</time></trkpt><trkpt lat="42.623031" lon="12.3253154"><ele>469.0</ele><time>2026-04-03T13:41:38.488Z</time></trkpt><trkpt lat="42.6229957" lon="12.3254159"><ele>469.0</ele><time>2026-04-03T13:41:39.489Z</time></trkpt><trkpt lat="42.6229611" lon="12.32551"><ele>469.0</ele><time>2026-04-03T13:41:40.49Z</time></trkpt><trkpt lat="42.6229253" lon="12.3255957"><ele>469.0</ele><time>2026-04-03T13:41:41.492Z</time></trkpt><trkpt lat="42.622882" lon="12.3256715"><ele>469.0</ele><time>2026-04-03T13:41:42.491Z</time></trkpt><trkpt lat="42.622838" lon="12.3257355"><ele>469.0</ele><time>2026-04-03T13:41:43.501Z</time></trkpt><trkpt lat="42.6227949" lon="12.3257991"><ele>469.0</ele><time>2026-04-03T13:41:44.496Z</time></trkpt><trkpt lat="42.6227488" lon="12.3258626"><ele>469.0</ele><time>2026-04-03T13:41:45.496Z</time></trkpt><trkpt lat="42.6227005" lon="12.3259276"><ele>470.25</ele><time>2026-04-03T13:41:46.48Z</time></trkpt><trkpt lat="42.6226279" lon="12.3260464"><ele>471.5</ele><time>2026-04-03T13:41:48.492Z</time></trkpt><trkpt lat="42.6225743" lon="12.3261966"><ele>472.75</ele><time>2026-04-03T13:41:51.381Z</time></trkpt><trkpt lat="42.62252" lon="12.3263811"><ele>474.0</ele><time>2026-04-03T13:41:52.496Z</time></trkpt><trkpt lat="42.622489" lon="12.3264651"><ele>475.1666666666667</ele><time>2026-04-03T13:41:53.501Z</time></trkpt><trkpt lat="42.622455" lon="12.3265596"><ele>476.33333333333337</ele><time>2026-04-03T13:41:54.495Z</time></trkpt><trkpt lat="42.6224246" lon="12.3266512"><ele>477.5</ele><time>2026-04-03T13:41:55.503Z</time></trkpt><trkpt lat="42.622402" lon="12.3267373"><ele>478.6666666666667</ele><time>2026-04-03T13:41:56.487Z</time></trkpt><trkpt lat="42.6223788" lon="12.3268209"><ele>479.83333333333337</ele><time>2026-04-03T13:41:57.493Z</time></trkpt><trkpt lat="42.622342" lon="12.3269823"><ele>481.0</ele><time>2026-04-03T13:41:59.492Z</time></trkpt><trkpt lat="42.6223205" lon="12.327066"><ele>481.00000000000006</ele><time>2026-04-03T13:42:00.491Z</time></trkpt><trkpt lat="42.6223055" lon="12.3271576"><ele>481.0</ele><time>2026-04-03T13:42:01.5Z</time></trkpt><trkpt lat="42.6222904" lon="12.327273"><ele>481.0</ele><time>2026-04-03T13:42:02.493Z</time></trkpt><trkpt lat="42.6222727" lon="12.3274003"><ele>481.0</ele><time>2026-04-03T13:42:03.497Z</time></trkpt><trkpt lat="42.6222556" lon="12.3275317"><ele>481.00000000000006</ele><time>2026-04-03T13:42:04.493Z</time></trkpt><trkpt lat="42.6222391" lon="12.3276528"><ele>481.0</ele><time>2026-04-03T13:42:05.492Z</time></trkpt><trkpt lat="42.6222192" lon="12.3277537"><ele>482.42857142857133</ele><time>2026-04-03T13:42:06.493Z</time></trkpt><trkpt lat="42.6222104" lon="12.3278558"><ele>483.85714285714283</ele><time>2026-04-03T13:42:07.495Z</time></trkpt><trkpt lat="42.6222247" lon="12.3279641"><ele>485.2857142857142</ele><time>2026-04-03T13:42:08.498Z</time></trkpt><trkpt lat="42.6222588" lon="12.3280728"><ele>486.71428571428567</ele><time>2026-04-03T13:42:09.493Z</time></trkpt><trkpt lat="42.6222854" lon="12.3281624"><ele>488.1428571428571</ele><time>2026-04-03T13:42:10.499Z</time></trkpt><trkpt lat="42.6223121" lon="12.3282449"><ele>489.57142857142856</ele><time>2026-04-03T13:42:11.501Z</time></trkpt><trkpt lat="42.6223402" lon="12.3283232"><ele>491.0</ele><time>2026-04-03T13:42:12.489Z</time></trkpt><trkpt lat="42.6223658" lon="12.3284073"><ele>491.2857142857143</ele><time>2026-04-03T13:42:13.493Z</time></trkpt><trkpt lat="42.6223935" lon="12.3284989"><ele>491.57142857142856</ele><time>2026-04-03T13:42:14.496Z</time></trkpt><trkpt lat="42.6224154" lon="12.3285887"><ele>491.85714285714283</ele><time>2026-04-03T13:42:15.494Z</time></trkpt><trkpt lat="42.6224434" lon="12.3286812"><ele>492.1428571428571</ele><time>2026-04-03T13:42:16.492Z</time></trkpt><trkpt lat="42.6224797" lon="12.328768"><ele>492.42857142857144</ele><time>2026-04-03T13:42:17.489Z</time></trkpt><trkpt lat="42.622531" lon="12.3288451"><ele>492.71428571428567</ele><time>2026-04-03T13:42:18.5Z</time></trkpt><trkpt lat="42.6225825" lon="12.3289272"><ele>493.0</ele><time>2026-04-03T13:42:19.493Z</time></trkpt><trkpt lat="42.6226262" lon="12.3289999"><ele>493.1666666666667</ele><time>2026-04-03T13:42:20.493Z</time></trkpt><trkpt lat="42.622652" lon="12.3290791"><ele>493.33333333333337</ele><time>2026-04-03T13:42:21.488Z</time></trkpt><trkpt lat="42.6226752" lon="12.3291673"><ele>493.5</ele><time>2026-04-03T13:42:22.491Z</time></trkpt><trkpt lat="42.6226825" lon="12.3292523"><ele>493.66666666666663</ele><time>2026-04-03T13:42:23.496Z</time></trkpt><trkpt lat="42.6226929" lon="12.3294394"><ele>493.8333333333333</ele><time>2026-04-03T13:42:25.492Z</time></trkpt><trkpt lat="42.6227079" lon="12.3295528"><ele>494.0</ele><time>2026-04-03T13:42:26.49Z</time></trkpt><trkpt lat="42.6227195" lon="12.3296823"><ele>494.2</ele><time>2026-04-03T13:42:27.506Z</time></trkpt><trkpt lat="42.6227517" lon="12.3298255"><ele>494.4</ele><time>2026-04-03T13:42:28.5Z</time></trkpt><trkpt lat="42.6227882" lon="12.3299619"><ele>494.6</ele><time>2026-04-03T13:42:29.489Z</time></trkpt><trkpt lat="42.6228346" lon="12.3300676"><ele>494.8</ele><time>2026-04-03T13:42:30.498Z</time></trkpt><trkpt lat="42.6228831" lon="12.3301556"><ele>495.0</ele><time>2026-04-03T13:42:31.501Z</time></trkpt><trkpt lat="42.6229338" lon="12.330236"><ele>497.6666666666667</ele><time>2026-04-03T13:42:32.494Z</time></trkpt><trkpt lat="42.6229839" lon="12.3303041"><ele>500.33333333333337</ele><time>2026-04-03T13:42:33.505Z</time></trkpt><trkpt lat="42.6230187" lon="12.3303779"><ele>503.0</ele><time>2026-04-03T13:42:34.504Z</time></trkpt><trkpt lat="42.6230507" lon="12.3305354"><ele>505.6666666666667</ele><time>2026-04-03T13:42:36.497Z</time></trkpt><trkpt lat="42.6230481" lon="12.3306288"><ele>508.33333333333337</ele><time>2026-04-03T13:42:37.505Z</time></trkpt><trkpt lat="42.6230437" lon="12.3307172"><ele>511.0</ele><time>2026-04-03T13:42:38.506Z</time></trkpt><trkpt lat="42.6230345" lon="12.3308182"><ele>511.00000000000006</ele><time>2026-04-03T13:42:39.495Z</time></trkpt><trkpt lat="42.6230264" lon="12.3309337"><ele>511.0</ele><time>2026-04-03T13:42:40.499Z</time></trkpt><trkpt lat="42.6230145" lon="12.3310512"><ele>511.0</ele><time>2026-04-03T13:42:41.496Z</time></trkpt><trkpt lat="42.6229956" lon="12.3311537"><ele>511.0</ele><time>2026-04-03T13:42:42.494Z</time></trkpt><trkpt lat="42.6229789" lon="12.3312419"><ele>511.00000000000006</ele><time>2026-04-03T13:42:43.492Z</time></trkpt><trkpt lat="42.622939" lon="12.3313845"><ele>511.0</ele><time>2026-04-03T13:42:45.494Z</time></trkpt><trkpt lat="42.6229003" lon="12.3314616"><ele>511.50000000000006</ele><time>2026-04-03T13:42:48.494Z</time></trkpt><trkpt lat="42.6229369" lon="12.3315866"><ele>512.0</ele><time>2026-04-03T13:43:51.496Z</time></trkpt><trkpt lat="42.6229727" lon="12.3316584"><ele>512.5</ele><time>2026-04-03T13:43:52.492Z</time></trkpt><trkpt lat="42.6230005" lon="12.3317405"><ele>513.0</ele><time>2026-04-03T13:43:53.502Z</time></trkpt><trkpt lat="42.6230281" lon="12.3318366"><ele>513.5</ele><time>2026-04-03T13:43:54.489Z</time></trkpt><trkpt lat="42.623052" lon="12.3319416"><ele>514.0</ele><time>2026-04-03T13:43:55.492Z</time></trkpt><trkpt lat="42.6230754" lon="12.3320462"><ele>514.0</ele><time>2026-04-03T13:43:56.487Z</time></trkpt><trkpt lat="42.6231023" lon="12.3321489"><ele>514.0</ele><time>2026-04-03T13:43:57.503Z</time></trkpt><trkpt lat="42.6231324" lon="12.3322433"><ele>514.0</ele><time>2026-04-03T13:43:58.502Z</time></trkpt><trkpt lat="42.623164" lon="12.3323438"><ele>514.0</ele><time>2026-04-03T13:43:59.504Z</time></trkpt><trkpt lat="42.6231967" lon="12.3324402"><ele>514.0</ele><time>2026-04-03T13:44:00.492Z</time></trkpt><trkpt lat="42.6232228" lon="12.3325304"><ele>514.0</ele><time>2026-04-03T13:44:01.49Z</time></trkpt><trkpt lat="42.6232464" lon="12.3326213"><ele>514.3333333333334</ele><time>2026-04-03T13:44:02.487Z</time></trkpt><trkpt lat="42.6232707" lon="12.3327118"><ele>514.6666666666667</ele><time>2026-04-03T13:44:03.486Z</time></trkpt><trkpt lat="42.6232929" lon="12.332797"><ele>515.0</ele><time>2026-04-03T13:44:04.501Z</time></trkpt><trkpt lat="42.6233137" lon="12.3328789"><ele>515.3333333333334</ele><time>2026-04-03T13:44:05.497Z</time></trkpt><trkpt lat="42.6233407" lon="12.3330341"><ele>515.6666666666666</ele><time>2026-04-03T13:44:07.494Z</time></trkpt><trkpt lat="42.6233698" lon="12.3331733"><ele>516.0</ele><time>2026-04-03T13:44:09.492Z</time></trkpt><trkpt lat="42.6234036" lon="12.3332925"><ele>517.0</ele><time>2026-04-03T13:44:11.494Z</time></trkpt><trkpt lat="42.6234344" lon="12.3334213"><ele>518.0</ele><time>2026-04-03T13:44:13.478Z</time></trkpt><trkpt lat="42.6234622" lon="12.3335404"><ele>519.0</ele><time>2026-04-03T13:44:15.508Z</time></trkpt><trkpt lat="42.6234634" lon="12.333662"><ele>520.0</ele><time>2026-04-03T13:44:17.504Z</time></trkpt><trkpt lat="42.6234411" lon="12.3337836"><ele>521.0</ele><time>2026-04-03T13:44:19.507Z</time></trkpt><trkpt lat="42.6234485" lon="12.3339128"><ele>521.6</ele><time>2026-04-03T13:44:21.498Z</time></trkpt><trkpt lat="42.6234626" lon="12.334061"><ele>522.2</ele><time>2026-04-03T13:44:23.501Z</time></trkpt><trkpt lat="42.6235144" lon="12.334208"><ele>522.8</ele><time>2026-04-03T13:44:25.512Z</time></trkpt><trkpt lat="42.6235629" lon="12.334346"><ele>523.4</ele><time>2026-04-03T13:44:27.505Z</time></trkpt><trkpt lat="42.6236032" lon="12.3344805"><ele>524.0</ele><time>2026-04-03T13:44:29.507Z</time></trkpt><trkpt lat="42.623664" lon="12.3345944"><ele>526.8</ele><time>2026-04-03T13:44:31.505Z</time></trkpt><trkpt lat="42.6237078" lon="12.3347185"><ele>529.5999999999999</ele><time>2026-04-03T13:44:33.493Z</time></trkpt><trkpt lat="42.6237231" lon="12.3348386"><ele>532.4</ele><time>2026-04-03T13:44:35.5Z</time></trkpt><trkpt lat="42.6237269" lon="12.3349896"><ele>535.1999999999999</ele><time>2026-04-03T13:44:37.494Z</time></trkpt><trkpt lat="42.6237421" lon="12.3351746"><ele>538.0</ele><time>2026-04-03T13:44:39.498Z</time></trkpt><trkpt lat="42.6237582" lon="12.3352684"><ele>538.0</ele><time>2026-04-03T13:44:40.499Z</time></trkpt><trkpt lat="42.6238032" lon="12.3354277"><ele>538.0</ele><time>2026-04-03T13:44:42.502Z</time></trkpt><trkpt lat="42.6238586" lon="12.3355786"><ele>538.0</ele><time>2026-04-03T13:44:44.511Z</time></trkpt><trkpt lat="42.6238866" lon="12.335658"><ele>538.0</ele><time>2026-04-03T13:44:45.5Z</time></trkpt><trkpt lat="42.6239223" lon="12.3358001"><ele>538.0</ele><time>2026-04-03T13:44:47.486Z</time></trkpt><trkpt lat="42.6239672" lon="12.3359131"><ele>538.6666666666667</ele><time>2026-04-03T13:44:49.495Z</time></trkpt><trkpt lat="42.6240403" lon="12.336016"><ele>539.3333333333334</ele><time>2026-04-03T13:44:51.492Z</time></trkpt><trkpt lat="42.6241187" lon="12.336134"><ele>540.0</ele><time>2026-04-03T13:44:53.49Z</time></trkpt><trkpt lat="42.6241609" lon="12.336215"><ele>540.6666666666666</ele><time>2026-04-03T13:44:54.499Z</time></trkpt><trkpt lat="42.6241975" lon="12.3362916"><ele>541.3333333333333</ele><time>2026-04-03T13:44:55.495Z</time></trkpt><trkpt lat="42.624229" lon="12.336369"><ele>542.0</ele><time>2026-04-03T13:44:56.491Z</time></trkpt><trkpt lat="42.6242575" lon="12.3364465"><ele>543.8000000000001</ele><time>2026-04-03T13:44:57.493Z</time></trkpt><trkpt lat="42.6243099" lon="12.3365896"><ele>545.6</ele><time>2026-04-03T13:44:59.501Z</time></trkpt><trkpt lat="42.6243429" lon="12.3366657"><ele>547.4000000000001</ele><time>2026-04-03T13:45:00.476Z</time></trkpt><trkpt lat="42.6243759" lon="12.3367433"><ele>549.2</ele><time>2026-04-03T13:45:01.499Z</time></trkpt><trkpt lat="42.6244482" lon="12.3368634"><ele>551.0</ele><time>2026-04-03T13:45:03.488Z</time></trkpt><trkpt lat="42.6245125" lon="12.3369732"><ele>551.0</ele><time>2026-04-03T13:45:05.5Z</time></trkpt><trkpt lat="42.6245875" lon="12.3370914"><ele>551.0</ele><time>2026-04-03T13:45:07.49Z</time></trkpt><trkpt lat="42.6246794" lon="12.3371597"><ele>551.0</ele><time>2026-04-03T13:45:09.493Z</time></trkpt><trkpt lat="42.6247716" lon="12.3372072"><ele>551.0</ele><time>2026-04-03T13:45:11.496Z</time></trkpt><trkpt lat="42.6248859" lon="12.3372545"><ele>551.0</ele><time>2026-04-03T13:45:13.498Z</time></trkpt><trkpt lat="42.6250099" lon="12.3372929"><ele>553.0</ele><time>2026-04-03T13:45:15.481Z</time></trkpt><trkpt lat="42.6250847" lon="12.3373243"><ele>555.0</ele><time>2026-04-03T13:45:16.491Z</time></trkpt><trkpt lat="42.6251496" lon="12.3373566"><ele>557.0</ele><time>2026-04-03T13:45:17.485Z</time></trkpt><trkpt lat="42.6252394" lon="12.3374286"><ele>559.0</ele><time>2026-04-03T13:45:19.498Z</time></trkpt><trkpt lat="42.6253081" lon="12.3375232"><ele>561.0</ele><time>2026-04-03T13:45:21.492Z</time></trkpt><trkpt lat="42.625334" lon="12.3376366"><ele>563.0</ele><time>2026-04-03T13:45:23.491Z</time></trkpt><trkpt lat="42.6253302" lon="12.3377617"><ele>564.1999999999999</ele><time>2026-04-03T13:45:25.485Z</time></trkpt><trkpt lat="42.6253342" lon="12.3378781"><ele>565.4</ele><time>2026-04-03T13:45:27.49Z</time></trkpt><trkpt lat="42.6253338" lon="12.3379934"><ele>566.5999999999999</ele><time>2026-04-03T13:45:29.495Z</time></trkpt><trkpt lat="42.6253488" lon="12.3381278"><ele>567.8</ele><time>2026-04-03T13:45:31.492Z</time></trkpt><trkpt lat="42.6253543" lon="12.3382764"><ele>569.0</ele><time>2026-04-03T13:45:33.49Z</time></trkpt><trkpt lat="42.6253461" lon="12.3384111"><ele>571.1666666666666</ele><time>2026-04-03T13:45:35.493Z</time></trkpt><trkpt lat="42.6253414" lon="12.3385324"><ele>573.3333333333333</ele><time>2026-04-03T13:45:37.501Z</time></trkpt><trkpt lat="42.6253508" lon="12.3386396"><ele>575.5</ele><time>2026-04-03T13:45:39.483Z</time></trkpt><trkpt lat="42.6253645" lon="12.3387346"><ele>577.6666666666666</ele><time>2026-04-03T13:45:41.49Z</time></trkpt><trkpt lat="42.6253756" lon="12.3388707"><ele>579.8333333333334</ele><time>2026-04-03T13:45:51.505Z</time></trkpt><trkpt lat="42.6253765" lon="12.3389582"><ele>582.0</ele><time>2026-04-03T13:45:53.501Z</time></trkpt><trkpt lat="42.6253731" lon="12.3390675"><ele>583.5</ele><time>2026-04-03T13:45:55.496Z</time></trkpt><trkpt lat="42.6253663" lon="12.3391678"><ele>585.0</ele><time>2026-04-03T13:45:57.489Z</time></trkpt><trkpt lat="42.6253588" lon="12.3392719"><ele>586.5</ele><time>2026-04-03T13:45:59.48Z</time></trkpt><trkpt lat="42.6253489" lon="12.3393712"><ele>588.0</ele><time>2026-04-03T13:46:01.492Z</time></trkpt><trkpt lat="42.6253526" lon="12.3394869"><ele>589.5</ele><time>2026-04-03T13:46:03.483Z</time></trkpt><trkpt lat="42.625371" lon="12.3395905"><ele>591.0</ele><time>2026-04-03T13:46:05.47Z</time></trkpt><trkpt lat="42.6253905" lon="12.3396915"><ele>592.1666666666666</ele><time>2026-04-03T13:46:07.487Z</time></trkpt><trkpt lat="42.6254319" lon="12.3397897"><ele>593.3333333333334</ele><time>2026-04-03T13:46:09.486Z</time></trkpt><trkpt lat="42.6254721" lon="12.3398882"><ele>594.5</ele><time>2026-04-03T13:46:11.489Z</time></trkpt><trkpt lat="42.6255067" lon="12.3399891"><ele>595.6666666666667</ele><time>2026-04-03T13:46:13.485Z</time></trkpt><trkpt lat="42.625559" lon="12.34007"><ele>596.8333333333334</ele><time>2026-04-03T13:46:15.49Z</time></trkpt><trkpt lat="42.6256463" lon="12.3401222"><ele>598.0</ele><time>2026-04-03T13:46:17.499Z</time></trkpt><trkpt lat="42.6257528" lon="12.340184"><ele>598.0</ele><time>2026-04-03T13:46:19.494Z</time></trkpt><trkpt lat="42.6258362" lon="12.3402419"><ele>598.0</ele><time>2026-04-03T13:46:21.498Z</time></trkpt><trkpt lat="42.6259112" lon="12.3402856"><ele>598.0</ele><time>2026-04-03T13:46:23.489Z</time></trkpt><trkpt lat="42.6259893" lon="12.3403395"><ele>598.0</ele><time>2026-04-03T13:46:25.49Z</time></trkpt><trkpt lat="42.6260805" lon="12.3403907"><ele>598.0</ele><time>2026-04-03T13:46:27.497Z</time></trkpt><trkpt lat="42.6261452" lon="12.3404162"><ele>598.0</ele><time>2026-04-03T13:46:28.49Z</time></trkpt><trkpt lat="42.6262536" lon="12.3404729"><ele>602.0</ele><time>2026-04-03T13:46:30.487Z</time></trkpt><trkpt lat="42.6263658" lon="12.3405194"><ele>606.0</ele><time>2026-04-03T13:46:32.501Z</time></trkpt><trkpt lat="42.6264846" lon="12.3405556"><ele>610.0</ele><time>2026-04-03T13:46:34.496Z</time></trkpt><trkpt lat="42.6265797" lon="12.3405967"><ele>614.0</ele><time>2026-04-03T13:46:36.498Z</time></trkpt><trkpt lat="42.6266597" lon="12.3406324"><ele>618.0</ele><time>2026-04-03T13:46:38.5Z</time></trkpt><trkpt lat="42.6267237" lon="12.3406641"><ele>618.6666666666666</ele><time>2026-04-03T13:46:40.498Z</time></trkpt><trkpt lat="42.6267875" lon="12.3406963"><ele>619.3333333333334</ele><time>2026-04-03T13:46:42.502Z</time></trkpt><trkpt lat="42.6268509" lon="12.3407198"><ele>620.0</ele><time>2026-04-03T13:46:44.494Z</time></trkpt><trkpt lat="42.6269262" lon="12.3407198"><ele>620.6666666666667</ele><time>2026-04-03T13:46:46.493Z</time></trkpt><trkpt lat="42.6270282" lon="12.3406904"><ele>621.3333333333334</ele><time>2026-04-03T13:46:48.489Z</time></trkpt><trkpt lat="42.6271321" lon="12.3406682"><ele>622.0</ele><time>2026-04-03T13:46:50.494Z</time></trkpt><trkpt lat="42.6272308" lon="12.3406273"><ele>625.2</ele><time>2026-04-03T13:46:52.478Z</time></trkpt><trkpt lat="42.6273322" lon="12.3406"><ele>628.4000000000001</ele><time>2026-04-03T13:46:54.494Z</time></trkpt><trkpt lat="42.6274299" lon="12.3405793"><ele>631.5999999999999</ele><time>2026-04-03T13:46:57.178Z</time></trkpt><trkpt lat="42.6275167" lon="12.3405368"><ele>634.8</ele><time>2026-04-03T13:46:58.49Z</time></trkpt><trkpt lat="42.627593" lon="12.3404507"><ele>638.0</ele><time>2026-04-03T13:47:00.491Z</time></trkpt><trkpt lat="42.627658" lon="12.3404036"><ele>638.5</ele><time>2026-04-03T13:47:02.499Z</time></trkpt><trkpt lat="42.6277335" lon="12.3403557"><ele>639.0</ele><time>2026-04-03T13:47:05.495Z</time></trkpt><trkpt lat="42.6278069" lon="12.3403522"><ele>639.5</ele><time>2026-04-03T13:47:09.481Z</time></trkpt><trkpt lat="42.6277404" lon="12.3403004"><ele>640.0</ele><time>2026-04-03T13:47:26.494Z</time></trkpt><trkpt lat="42.6276903" lon="12.3403769"><ele>640.5</ele><time>2026-04-03T13:47:29.492Z</time></trkpt><trkpt lat="42.6276379" lon="12.3404261"><ele>641.0</ele><time>2026-04-03T13:47:31.491Z</time></trkpt><trkpt lat="42.6275444" lon="12.3404491"><ele>641.0</ele><time>2026-04-03T13:47:34.486Z</time></trkpt><trkpt lat="42.6274531" lon="12.3404582"><ele>641.0</ele><time>2026-04-03T13:47:36.491Z</time></trkpt><trkpt lat="42.6273487" lon="12.3404869"><ele>641.0</ele><time>2026-04-03T13:47:38.488Z</time></trkpt><trkpt lat="42.6272435" lon="12.3405383"><ele>641.0</ele><time>2026-04-03T13:47:40.485Z</time></trkpt><trkpt lat="42.6271483" lon="12.3405573"><ele>641.0</ele><time>2026-04-03T13:47:42.488Z</time></trkpt><trkpt lat="42.6270786" lon="12.340538"><ele>641.0</ele><time>2026-04-03T13:47:44.489Z</time></trkpt><trkpt lat="42.6269899" lon="12.3404974"><ele>641.0</ele><time>2026-04-03T13:47:46.489Z</time></trkpt><trkpt lat="42.6268945" lon="12.3404733"><ele>641.0</ele><time>2026-04-03T13:47:48.488Z</time></trkpt><trkpt lat="42.6267908" lon="12.3404615"><ele>641.0</ele><time>2026-04-03T13:47:50.489Z</time></trkpt><trkpt lat="42.6266854" lon="12.3404161"><ele>641.0</ele><time>2026-04-03T13:47:52.489Z</time></trkpt><trkpt lat="42.6265808" lon="12.3403747"><ele>635.25</ele><time>2026-04-03T13:47:54.49Z</time></trkpt><trkpt lat="42.6264753" lon="12.3403412"><ele>629.5</ele><time>2026-04-03T13:47:56.486Z</time></trkpt><trkpt lat="42.6263562" lon="12.3402792"><ele>623.75</ele><time>2026-04-03T13:47:58.489Z</time></trkpt><trkpt lat="42.6262518" lon="12.34023"><ele>618.0</ele><time>2026-04-03T13:48:00.488Z</time></trkpt><trkpt lat="42.6261453" lon="12.3402029"><ele>614.0</ele><time>2026-04-03T13:48:02.49Z</time></trkpt><trkpt lat="42.6260287" lon="12.3401578"><ele>610.0</ele><time>2026-04-03T13:48:04.495Z</time></trkpt><trkpt lat="42.6259315" lon="12.3401203"><ele>606.0</ele><time>2026-04-03T13:48:06.494Z</time></trkpt><trkpt lat="42.625849" lon="12.3400828"><ele>602.0</ele><time>2026-04-03T13:48:08.491Z</time></trkpt><trkpt lat="42.6257949" lon="12.3400096"><ele>598.0</ele><time>2026-04-03T13:48:10.491Z</time></trkpt><trkpt lat="42.625725" lon="12.3399317"><ele>598.0</ele><time>2026-04-03T13:48:12.491Z</time></trkpt><trkpt lat="42.625666" lon="12.3398263"><ele>598.0</ele><time>2026-04-03T13:48:14.486Z</time></trkpt><trkpt lat="42.6256341" lon="12.3397248"><ele>598.0</ele><time>2026-04-03T13:48:16.49Z</time></trkpt><trkpt lat="42.6256105" lon="12.3396244"><ele>598.0</ele><time>2026-04-03T13:48:18.498Z</time></trkpt><trkpt lat="42.6255665" lon="12.3394854"><ele>598.0</ele><time>2026-04-03T13:48:20.496Z</time></trkpt><trkpt lat="42.625545" lon="12.3393488"><ele>596.6</ele><time>2026-04-03T13:48:22.491Z</time></trkpt><trkpt lat="42.6255355" lon="12.3391945"><ele>595.1999999999999</ele><time>2026-04-03T13:48:24.49Z</time></trkpt><trkpt lat="42.6255331" lon="12.3390773"><ele>593.8</ele><time>2026-04-03T13:48:26.482Z</time></trkpt><trkpt lat="42.6255067" lon="12.3389334"><ele>592.4</ele><time>2026-04-03T13:48:28.492Z</time></trkpt><trkpt lat="42.6254515" lon="12.338807"><ele>591.0</ele><time>2026-04-03T13:48:30.495Z</time></trkpt><trkpt lat="42.6254538" lon="12.3386718"><ele>589.2</ele><time>2026-04-03T13:48:32.489Z</time></trkpt><trkpt lat="42.6254663" lon="12.3385226"><ele>587.4000000000001</ele><time>2026-04-03T13:48:34.472Z</time></trkpt><trkpt lat="42.6254761" lon="12.3383731"><ele>585.6</ele><time>2026-04-03T13:48:36.488Z</time></trkpt><trkpt lat="42.6254708" lon="12.3382347"><ele>583.8000000000001</ele><time>2026-04-03T13:48:38.485Z</time></trkpt><trkpt lat="42.6254746" lon="12.3381007"><ele>582.0</ele><time>2026-04-03T13:48:40.484Z</time></trkpt><trkpt lat="42.6254637" lon="12.3380125"><ele>579.8333333333334</ele><time>2026-04-03T13:48:41.488Z</time></trkpt><trkpt lat="42.6254479" lon="12.3379163"><ele>577.6666666666666</ele><time>2026-04-03T13:48:42.487Z</time></trkpt><trkpt lat="42.6254438" lon="12.3378303"><ele>575.5</ele><time>2026-04-03T13:48:43.486Z</time></trkpt><trkpt lat="42.6254393" lon="12.3377415"><ele>573.3333333333333</ele><time>2026-04-03T13:48:44.483Z</time></trkpt><trkpt lat="42.6254186" lon="12.3376581"><ele>571.1666666666666</ele><time>2026-04-03T13:48:45.486Z</time></trkpt><trkpt lat="42.6253536" lon="12.3375656"><ele>569.0</ele><time>2026-04-03T13:48:46.493Z</time></trkpt><trkpt lat="42.6252801" lon="12.3374788"><ele>568.0</ele><time>2026-04-03T13:48:47.484Z</time></trkpt><trkpt lat="42.6252035" lon="12.3373912"><ele>567.0</ele><time>2026-04-03T13:48:48.491Z</time></trkpt><trkpt lat="42.6251433" lon="12.3373255"><ele>566.0</ele><time>2026-04-03T13:48:49.498Z</time></trkpt><trkpt lat="42.6250862" lon="12.337279"><ele>565.0</ele><time>2026-04-03T13:48:50.496Z</time></trkpt><trkpt lat="42.6250272" lon="12.337238"><ele>564.0</ele><time>2026-04-03T13:48:51.492Z</time></trkpt><trkpt lat="42.6249695" lon="12.3371949"><ele>563.0</ele><time>2026-04-03T13:48:52.495Z</time></trkpt><trkpt lat="42.6248605" lon="12.337136"><ele>560.6</ele><time>2026-04-03T13:48:54.498Z</time></trkpt><trkpt lat="42.6247485" lon="12.337087"><ele>558.1999999999999</ele><time>2026-04-03T13:48:56.495Z</time></trkpt><trkpt lat="42.6246492" lon="12.3369903"><ele>555.8</ele><time>2026-04-03T13:48:58.491Z</time></trkpt><trkpt lat="42.6246027" lon="12.3369103"><ele>553.4</ele><time>2026-04-03T13:48:59.485Z</time></trkpt><trkpt lat="42.6245546" lon="12.3368292"><ele>551.0</ele><time>2026-04-03T13:49:00.491Z</time></trkpt><trkpt lat="42.6245021" lon="12.3367534"><ele>551.6666666666666</ele><time>2026-04-03T13:49:01.491Z</time></trkpt><trkpt lat="42.6244529" lon="12.3366798"><ele>552.3333333333333</ele><time>2026-04-03T13:49:02.493Z</time></trkpt><trkpt lat="42.6244012" lon="12.3366081"><ele>553.0</ele><time>2026-04-03T13:49:03.491Z</time></trkpt><trkpt lat="42.6243588" lon="12.3365329"><ele>553.6666666666666</ele><time>2026-04-03T13:49:04.49Z</time></trkpt><trkpt lat="42.6243282" lon="12.3364559"><ele>554.3333333333334</ele><time>2026-04-03T13:49:05.489Z</time></trkpt><trkpt lat="42.624301" lon="12.3363761"><ele>555.0</ele><time>2026-04-03T13:49:06.497Z</time></trkpt><trkpt lat="42.6242555" lon="12.3362154"><ele>551.75</ele><time>2026-04-03T13:49:08.49Z</time></trkpt><trkpt lat="42.6241761" lon="12.3360658"><ele>548.5</ele><time>2026-04-03T13:49:10.495Z</time></trkpt><trkpt lat="42.6241214" lon="12.3359945"><ele>545.25</ele><time>2026-04-03T13:49:12.468Z</time></trkpt><trkpt lat="42.6240368" lon="12.3358632"><ele>542.0</ele><time>2026-04-03T13:49:13.484Z</time></trkpt><trkpt lat="42.6239926" lon="12.3357144"><ele>541.2</ele><time>2026-04-03T13:49:15.503Z</time></trkpt><trkpt lat="42.6239466" lon="12.3355524"><ele>540.4000000000001</ele><time>2026-04-03T13:49:17.498Z</time></trkpt><trkpt lat="42.623919" lon="12.3354729"><ele>539.5999999999999</ele><time>2026-04-03T13:49:18.504Z</time></trkpt><trkpt lat="42.623853" lon="12.3353451"><ele>538.8</ele><time>2026-04-03T13:49:20.495Z</time></trkpt><trkpt lat="42.6238164" lon="12.3351918"><ele>538.0</ele><time>2026-04-03T13:49:22.501Z</time></trkpt><trkpt lat="42.6238012" lon="12.3351066"><ele>538.0</ele><time>2026-04-03T13:49:23.493Z</time></trkpt><trkpt lat="42.6237879" lon="12.3349504"><ele>538.0</ele><time>2026-04-03T13:49:25.492Z</time></trkpt><trkpt lat="42.6237898" lon="12.3348055"><ele>538.0</ele><time>2026-04-03T13:49:27.483Z</time></trkpt><trkpt lat="42.6237844" lon="12.3346727"><ele>538.0</ele><time>2026-04-03T13:49:29.489Z</time></trkpt><trkpt lat="42.6238208" lon="12.3345857"><ele>538.0</ele><time>2026-04-03T13:49:33.49Z</time></trkpt><trkpt lat="42.6238836" lon="12.334573"><ele>538.1999999999999</ele><time>2026-04-03T13:49:35.501Z</time></trkpt><trkpt lat="42.6239494" lon="12.3345969"><ele>538.4</ele><time>2026-04-03T13:49:37.506Z</time></trkpt><trkpt lat="42.6238537" lon="12.3345964"><ele>538.5999999999999</ele><time>2026-04-03T13:49:41.49Z</time></trkpt><trkpt lat="42.6237769" lon="12.334539"><ele>538.8</ele><time>2026-04-03T13:49:43.497Z</time></trkpt><trkpt lat="42.6237052" lon="12.3344105"><ele>539.0</ele><time>2026-04-03T13:49:45.493Z</time></trkpt><trkpt lat="42.6236507" lon="12.334264"><ele>536.0</ele><time>2026-04-03T13:49:47.495Z</time></trkpt><trkpt lat="42.6235948" lon="12.3341173"><ele>533.0</ele><time>2026-04-03T13:49:49.494Z</time></trkpt><trkpt lat="42.6235396" lon="12.3339521"><ele>530.0</ele><time>2026-04-03T13:49:51.5Z</time></trkpt><trkpt lat="42.6235167" lon="12.3338563"><ele>527.0</ele><time>2026-04-03T13:49:52.49Z</time></trkpt><trkpt lat="42.6234972" lon="12.3337731"><ele>524.0</ele><time>2026-04-03T13:49:53.494Z</time></trkpt><trkpt lat="42.6234837" lon="12.3336885"><ele>523.5</ele><time>2026-04-03T13:49:54.497Z</time></trkpt><trkpt lat="42.6234836" lon="12.3336016"><ele>523.0</ele><time>2026-04-03T13:49:55.485Z</time></trkpt><trkpt lat="42.6234852" lon="12.3334625"><ele>522.5</ele><time>2026-04-03T13:49:57.498Z</time></trkpt><trkpt lat="42.6234624" lon="12.3332945"><ele>522.0</ele><time>2026-04-03T13:49:59.497Z</time></trkpt><trkpt lat="42.623445" lon="12.333201"><ele>521.5</ele><time>2026-04-03T13:50:00.493Z</time></trkpt><trkpt lat="42.6234204" lon="12.3331077"><ele>521.0</ele><time>2026-04-03T13:50:01.501Z</time></trkpt><trkpt lat="42.6233959" lon="12.3330099"><ele>520.1666666666666</ele><time>2026-04-03T13:50:02.495Z</time></trkpt><trkpt lat="42.6233758" lon="12.3329031"><ele>519.3333333333333</ele><time>2026-04-03T13:50:03.493Z</time></trkpt><trkpt lat="42.623365" lon="12.3327823"><ele>518.5</ele><time>2026-04-03T13:50:04.493Z</time></trkpt><trkpt lat="42.6233491" lon="12.3326752"><ele>517.6666666666666</ele><time>2026-04-03T13:50:05.497Z</time></trkpt><trkpt lat="42.6233181" lon="12.3325735"><ele>516.8333333333334</ele><time>2026-04-03T13:50:06.492Z</time></trkpt><trkpt lat="42.6232881" lon="12.3324551"><ele>516.0</ele><time>2026-04-03T13:50:07.489Z</time></trkpt><trkpt lat="42.623256" lon="12.3323257"><ele>515.6666666666666</ele><time>2026-04-03T13:50:08.5Z</time></trkpt><trkpt lat="42.6232187" lon="12.3321978"><ele>515.3333333333334</ele><time>2026-04-03T13:50:09.48Z</time></trkpt><trkpt lat="42.6231707" lon="12.3320713"><ele>515.0</ele><time>2026-04-03T13:50:10.474Z</time></trkpt><trkpt lat="42.6231288" lon="12.3319647"><ele>514.6666666666667</ele><time>2026-04-03T13:50:11.489Z</time></trkpt><trkpt lat="42.6231008" lon="12.3318739"><ele>514.3333333333334</ele><time>2026-04-03T13:50:12.49Z</time></trkpt><trkpt lat="42.6230718" lon="12.3317822"><ele>514.0</ele><time>2026-04-03T13:50:13.495Z</time></trkpt><trkpt lat="42.6230474" lon="12.3316981"><ele>514.0</ele><time>2026-04-03T13:50:14.493Z</time></trkpt><trkpt lat="42.6229819" lon="12.3316008"><ele>514.0</ele><time>2026-04-03T13:50:16.484Z</time></trkpt><trkpt lat="42.6229107" lon="12.3315777"><ele>514.0</ele><time>2026-04-03T13:50:18.492Z</time></trkpt><trkpt lat="42.6228487" lon="12.3316537"><ele>514.0</ele><time>2026-04-03T13:50:20.493Z</time></trkpt><trkpt lat="42.6228167" lon="12.3317397"><ele>514.0</ele><time>2026-04-03T13:50:21.494Z</time></trkpt><trkpt lat="42.6227691" lon="12.3318344"><ele>514.0</ele><time>2026-04-03T13:50:22.506Z</time></trkpt><trkpt lat="42.6227062" lon="12.3319234"><ele>512.6</ele><time>2026-04-03T13:50:23.491Z</time></trkpt><trkpt lat="42.6226334" lon="12.3320055"><ele>511.2</ele><time>2026-04-03T13:50:24.476Z</time></trkpt><trkpt lat="42.6225681" lon="12.3320893"><ele>509.80000000000007</ele><time>2026-04-03T13:50:25.502Z</time></trkpt><trkpt lat="42.6225111" lon="12.3321709"><ele>508.40000000000003</ele><time>2026-04-03T13:50:26.51Z</time></trkpt><trkpt lat="42.6224476" lon="12.3322714"><ele>507.0</ele><time>2026-04-03T13:50:27.485Z</time></trkpt><trkpt lat="42.6223814" lon="12.3323778"><ele>507.0</ele><time>2026-04-03T13:50:28.496Z</time></trkpt><trkpt lat="42.6223251" lon="12.3324705"><ele>507.0</ele><time>2026-04-03T13:50:29.505Z</time></trkpt><trkpt lat="42.6222841" lon="12.3325527"><ele>507.0</ele><time>2026-04-03T13:50:30.494Z</time></trkpt><trkpt lat="42.6222459" lon="12.3326307"><ele>507.0</ele><time>2026-04-03T13:50:31.506Z</time></trkpt><trkpt lat="42.6221987" lon="12.332694"><ele>507.0</ele><time>2026-04-03T13:50:32.502Z</time></trkpt><trkpt lat="42.6221512" lon="12.3327577"><ele>507.0</ele><time>2026-04-03T13:50:33.499Z</time></trkpt><trkpt lat="42.6221054" lon="12.3328255"><ele>507.0</ele><time>2026-04-03T13:50:34.498Z</time></trkpt><trkpt lat="42.6220673" lon="12.3328941"><ele>507.0</ele><time>2026-04-03T13:50:35.494Z</time></trkpt><trkpt lat="42.6220083" lon="12.3330404"><ele>507.0</ele><time>2026-04-03T13:50:37.495Z</time></trkpt><trkpt lat="42.6219633" lon="12.3331253"><ele>507.0</ele><time>2026-04-03T13:50:38.493Z</time></trkpt><trkpt lat="42.6219143" lon="12.3331996"><ele>507.0</ele><time>2026-04-03T13:50:39.491Z</time></trkpt><trkpt lat="42.6218604" lon="12.3332639"><ele>507.0</ele><time>2026-04-03T13:50:40.496Z</time></trkpt><trkpt lat="42.6218079" lon="12.333319"><ele>507.0</ele><time>2026-04-03T13:50:41.489Z</time></trkpt><trkpt lat="42.6217153" lon="12.3334078"><ele>508.0</ele><time>2026-04-03T13:50:43.483Z</time></trkpt><trkpt lat="42.6216322" lon="12.3334927"><ele>509.00000000000006</ele><time>2026-04-03T13:50:45.494Z</time></trkpt><trkpt lat="42.6215348" lon="12.3335297"><ele>510.00000000000006</ele><time>2026-04-03T13:50:47.502Z</time></trkpt><trkpt lat="42.6214339" lon="12.3335517"><ele>511.0</ele><time>2026-04-03T13:50:49.49Z</time></trkpt><trkpt lat="42.6213101" lon="12.3335537"><ele>512.0</ele><time>2026-04-03T13:50:51.495Z</time></trkpt><trkpt lat="42.621208" lon="12.3335674"><ele>516.0</ele><time>2026-04-03T13:50:53.487Z</time></trkpt><trkpt lat="42.6211026" lon="12.3335969"><ele>520.0</ele><time>2026-04-03T13:50:55.488Z</time></trkpt><trkpt lat="42.6209891" lon="12.3336563"><ele>524.0</ele><time>2026-04-03T13:50:57.497Z</time></trkpt><trkpt lat="42.6209238" lon="12.3336976"><ele>528.0</ele><time>2026-04-03T13:50:58.491Z</time></trkpt><trkpt lat="42.620861" lon="12.3337456"><ele>532.0</ele><time>2026-04-03T13:50:59.492Z</time></trkpt><trkpt lat="42.620801" lon="12.3337929"><ele>536.0</ele><time>2026-04-03T13:51:00.492Z</time></trkpt><trkpt lat="42.6207413" lon="12.3338411"><ele>535.0</ele><time>2026-04-03T13:51:01.484Z</time></trkpt><trkpt lat="42.6206868" lon="12.3338987"><ele>534.0</ele><time>2026-04-03T13:51:02.495Z</time></trkpt><trkpt lat="42.6206307" lon="12.3339672"><ele>533.0</ele><time>2026-04-03T13:51:03.489Z</time></trkpt><trkpt lat="42.6205742" lon="12.3340377"><ele>532.0</ele><time>2026-04-03T13:51:04.489Z</time></trkpt><trkpt lat="42.6205092" lon="12.3341171"><ele>531.0</ele><time>2026-04-03T13:51:05.488Z</time></trkpt><trkpt lat="42.6204407" lon="12.3342002"><ele>530.0</ele><time>2026-04-03T13:51:06.485Z</time></trkpt><trkpt lat="42.620374" lon="12.3342858"><ele>532.6666666666666</ele><time>2026-04-03T13:51:07.495Z</time></trkpt><trkpt lat="42.6203095" lon="12.334364"><ele>535.3333333333333</ele><time>2026-04-03T13:51:08.489Z</time></trkpt><trkpt lat="42.620243" lon="12.3344426"><ele>538.0</ele><time>2026-04-03T13:51:09.488Z</time></trkpt><trkpt lat="42.6201765" lon="12.3345162"><ele>540.6666666666666</ele><time>2026-04-03T13:51:10.495Z</time></trkpt><trkpt lat="42.6201174" lon="12.3345915"><ele>543.3333333333334</ele><time>2026-04-03T13:51:11.487Z</time></trkpt><trkpt lat="42.6200606" lon="12.3346649"><ele>546.0</ele><time>2026-04-03T13:51:12.494Z</time></trkpt><trkpt lat="42.6200079" lon="12.3347411"><ele>546.0</ele><time>2026-04-03T13:51:13.474Z</time></trkpt><trkpt lat="42.619958" lon="12.3348151"><ele>546.0</ele><time>2026-04-03T13:51:14.484Z</time></trkpt><trkpt lat="42.6199101" lon="12.334887"><ele>546.0</ele><time>2026-04-03T13:51:15.493Z</time></trkpt><trkpt lat="42.6198519" lon="12.3349642"><ele>546.0</ele><time>2026-04-03T13:51:16.487Z</time></trkpt><trkpt lat="42.619787" lon="12.3350442"><ele>546.0</ele><time>2026-04-03T13:51:17.476Z</time></trkpt><trkpt lat="42.6197261" lon="12.335106"><ele>546.0</ele><time>2026-04-03T13:51:18.495Z</time></trkpt><trkpt lat="42.6196659" lon="12.3351637"><ele>546.0</ele><time>2026-04-03T13:51:19.49Z</time></trkpt><trkpt lat="42.6196156" lon="12.335218"><ele>546.0</ele><time>2026-04-03T13:51:20.495Z</time></trkpt><trkpt lat="42.6195278" lon="12.3353377"><ele>546.0</ele><time>2026-04-03T13:51:22.488Z</time></trkpt><trkpt lat="42.6194852" lon="12.3354182"><ele>546.0</ele><time>2026-04-03T13:51:23.484Z</time></trkpt><trkpt lat="42.6194373" lon="12.3355036"><ele>546.0</ele><time>2026-04-03T13:51:24.488Z</time></trkpt><trkpt lat="42.6193751" lon="12.3355891"><ele>546.0</ele><time>2026-04-03T13:51:25.495Z</time></trkpt><trkpt lat="42.619299" lon="12.3356813"><ele>550.6666666666666</ele><time>2026-04-03T13:51:26.493Z</time></trkpt><trkpt lat="42.6192233" lon="12.3357875"><ele>555.3333333333333</ele><time>2026-04-03T13:51:28.391Z</time></trkpt><trkpt lat="42.61907" lon="12.3360145"><ele>560.0</ele><time>2026-04-03T13:51:29.486Z</time></trkpt><trkpt lat="42.6189891" lon="12.3361301"><ele>560.0</ele><time>2026-04-03T13:51:30.49Z</time></trkpt><trkpt lat="42.6189111" lon="12.3362559"><ele>560.0</ele><time>2026-04-03T13:51:31.491Z</time></trkpt><trkpt lat="42.6188362" lon="12.3363748"><ele>560.0</ele><time>2026-04-03T13:51:32.488Z</time></trkpt><trkpt lat="42.6187609" lon="12.336491"><ele>560.0</ele><time>2026-04-03T13:51:33.489Z</time></trkpt><trkpt lat="42.6186846" lon="12.3366039"><ele>562.6</ele><time>2026-04-03T13:51:34.491Z</time></trkpt><trkpt lat="42.6186103" lon="12.3367174"><ele>565.2</ele><time>2026-04-03T13:51:35.488Z</time></trkpt><trkpt lat="42.6185382" lon="12.3368253"><ele>567.8</ele><time>2026-04-03T13:51:36.489Z</time></trkpt><trkpt lat="42.6184623" lon="12.3369278"><ele>570.4</ele><time>2026-04-03T13:51:37.49Z</time></trkpt><trkpt lat="42.6183799" lon="12.3370223"><ele>573.0</ele><time>2026-04-03T13:51:38.5Z</time></trkpt><trkpt lat="42.6182961" lon="12.3370975"><ele>573.0</ele><time>2026-04-03T13:51:39.493Z</time></trkpt><trkpt lat="42.6182162" lon="12.3371556"><ele>573.0</ele><time>2026-04-03T13:51:40.488Z</time></trkpt><trkpt lat="42.6181531" lon="12.3372115"><ele>573.0</ele><time>2026-04-03T13:51:41.499Z</time></trkpt><trkpt lat="42.6181051" lon="12.3372804"><ele>573.0</ele><time>2026-04-03T13:51:42.487Z</time></trkpt><trkpt lat="42.6180779" lon="12.3374194"><ele>573.0</ele><time>2026-04-03T13:51:44.486Z</time></trkpt><trkpt lat="42.6181104" lon="12.3375256"><ele>573.0</ele><time>2026-04-03T13:51:46.488Z</time></trkpt><trkpt lat="42.6181831" lon="12.3375928"><ele>573.1999999999999</ele><time>2026-04-03T13:51:48.494Z</time></trkpt><trkpt lat="42.6182986" lon="12.3376722"><ele>573.4</ele><time>2026-04-03T13:51:50.487Z</time></trkpt><trkpt lat="42.6183812" lon="12.3377387"><ele>573.5999999999999</ele><time>2026-04-03T13:51:51.487Z</time></trkpt><trkpt lat="42.61848" lon="12.337814"><ele>573.8</ele><time>2026-04-03T13:51:52.487Z</time></trkpt><trkpt lat="42.618578" lon="12.3378745"><ele>574.0</ele><time>2026-04-03T13:51:53.494Z</time></trkpt><trkpt lat="42.6186677" lon="12.3379202"><ele>574.0</ele><time>2026-04-03T13:51:54.494Z</time></trkpt><trkpt lat="42.6187404" lon="12.3379427"><ele>574.0</ele><time>2026-04-03T13:51:55.492Z</time></trkpt><trkpt lat="42.6188122" lon="12.3379427"><ele>574.0</ele><time>2026-04-03T13:51:56.494Z</time></trkpt><trkpt lat="42.6188922" lon="12.3379435"><ele>574.0</ele><time>2026-04-03T13:51:57.487Z</time></trkpt><trkpt lat="42.6190186" lon="12.337973"><ele>574.0</ele><time>2026-04-03T13:51:59.479Z</time></trkpt><trkpt lat="42.6191051" lon="12.3380189"><ele>574.0</ele><time>2026-04-03T13:52:01.485Z</time></trkpt><trkpt lat="42.6191321" lon="12.3380976"><ele>577.6</ele><time>2026-04-03T13:52:03.49Z</time></trkpt><trkpt lat="42.619115" lon="12.3382018"><ele>581.2</ele><time>2026-04-03T13:52:05.488Z</time></trkpt><trkpt lat="42.6190554" lon="12.3382769"><ele>584.8000000000001</ele><time>2026-04-03T13:52:07.486Z</time></trkpt><trkpt lat="42.6189579" lon="12.338333"><ele>588.4</ele><time>2026-04-03T13:52:09.484Z</time></trkpt><trkpt lat="42.6188264" lon="12.3383711"><ele>592.0</ele><time>2026-04-03T13:52:11.489Z</time></trkpt><trkpt lat="42.6187412" lon="12.338386"><ele>591.6</ele><time>2026-04-03T13:52:12.491Z</time></trkpt><trkpt lat="42.6186483" lon="12.3383952"><ele>591.2</ele><time>2026-04-03T13:52:13.477Z</time></trkpt><trkpt lat="42.6185592" lon="12.3384065"><ele>590.8</ele><time>2026-04-03T13:52:14.471Z</time></trkpt><trkpt lat="42.6184646" lon="12.338428"><ele>590.4</ele><time>2026-04-03T13:52:15.494Z</time></trkpt><trkpt lat="42.6183714" lon="12.3384551"><ele>590.0</ele><time>2026-04-03T13:52:16.486Z</time></trkpt><trkpt lat="42.6182765" lon="12.3384766"><ele>590.0</ele><time>2026-04-03T13:52:17.497Z</time></trkpt><trkpt lat="42.6181891" lon="12.3385002"><ele>590.0</ele><time>2026-04-03T13:52:18.483Z</time></trkpt><trkpt lat="42.6180992" lon="12.3385294"><ele>590.0</ele><time>2026-04-03T13:52:19.489Z</time></trkpt><trkpt lat="42.6180082" lon="12.3385818"><ele>590.0</ele><time>2026-04-03T13:52:20.479Z</time></trkpt><trkpt lat="42.6179212" lon="12.3386434"><ele>590.0</ele><time>2026-04-03T13:52:21.477Z</time></trkpt><trkpt lat="42.6178468" lon="12.3387052"><ele>591.2</ele><time>2026-04-03T13:52:22.472Z</time></trkpt><trkpt lat="42.6177725" lon="12.3387615"><ele>592.4</ele><time>2026-04-03T13:52:23.497Z</time></trkpt><trkpt lat="42.6177091" lon="12.3388053"><ele>593.6</ele><time>2026-04-03T13:52:24.479Z</time></trkpt><trkpt lat="42.6175975" lon="12.3388361"><ele>594.8</ele><time>2026-04-03T13:52:26.484Z</time></trkpt><trkpt lat="42.6174995" lon="12.3388096"><ele>596.0</ele><time>2026-04-03T13:52:28.492Z</time></trkpt><trkpt lat="42.6174339" lon="12.338746"><ele>596.0</ele><time>2026-04-03T13:52:30.502Z</time></trkpt><trkpt lat="42.617374" lon="12.3386554"><ele>596.0</ele><time>2026-04-03T13:52:32.49Z</time></trkpt><trkpt lat="42.6173131" lon="12.3385285"><ele>596.0</ele><time>2026-04-03T13:52:34.49Z</time></trkpt><trkpt lat="42.6172649" lon="12.3383777"><ele>596.0</ele><time>2026-04-03T13:52:36.493Z</time></trkpt><trkpt lat="42.6172358" lon="12.3382932"><ele>596.0</ele><time>2026-04-03T13:52:37.495Z</time></trkpt><trkpt lat="42.6172123" lon="12.3381932"><ele>596.0</ele><time>2026-04-03T13:52:38.491Z</time></trkpt><trkpt lat="42.6171888" lon="12.3380869"><ele>596.0</ele><time>2026-04-03T13:52:39.5Z</time></trkpt><trkpt lat="42.617162" lon="12.3379836"><ele>596.0</ele><time>2026-04-03T13:52:40.486Z</time></trkpt><trkpt lat="42.6171388" lon="12.3378815"><ele>596.0</ele><time>2026-04-03T13:52:41.486Z</time></trkpt><trkpt lat="42.6171201" lon="12.3377803"><ele>596.0</ele><time>2026-04-03T13:52:42.484Z</time></trkpt><trkpt lat="42.6171112" lon="12.3376814"><ele>596.0</ele><time>2026-04-03T13:52:43.496Z</time></trkpt><trkpt lat="42.6170934" lon="12.3375894"><ele>595.1428571428571</ele><time>2026-04-03T13:52:44.486Z</time></trkpt><trkpt lat="42.6170711" lon="12.3374969"><ele>594.2857142857142</ele><time>2026-04-03T13:52:45.488Z</time></trkpt><trkpt lat="42.6170514" lon="12.3374111"><ele>593.4285714285714</ele><time>2026-04-03T13:52:46.496Z</time></trkpt><trkpt lat="42.6170222" lon="12.3373345"><ele>592.5714285714286</ele><time>2026-04-03T13:52:47.486Z</time></trkpt><trkpt lat="42.6169734" lon="12.3372659"><ele>591.7142857142858</ele><time>2026-04-03T13:52:48.495Z</time></trkpt><trkpt lat="42.6169135" lon="12.3372123"><ele>590.8571428571429</ele><time>2026-04-03T13:52:49.497Z</time></trkpt><trkpt lat="42.6168513" lon="12.3371711"><ele>590.0</ele><time>2026-04-03T13:52:50.492Z</time></trkpt><trkpt lat="42.6167662" lon="12.3370986"><ele>594.1666666666666</ele><time>2026-04-03T13:52:52.501Z</time></trkpt><trkpt lat="42.6167342" lon="12.336989"><ele>598.3333333333333</ele><time>2026-04-03T13:52:54.498Z</time></trkpt><trkpt lat="42.6167304" lon="12.3369022"><ele>602.5</ele><time>2026-04-03T13:52:55.492Z</time></trkpt><trkpt lat="42.6166992" lon="12.3367731"><ele>606.6666666666666</ele><time>2026-04-03T13:52:57.494Z</time></trkpt><trkpt lat="42.6166135" lon="12.3367388"><ele>610.8333333333334</ele><time>2026-04-03T13:52:59.503Z</time></trkpt><trkpt lat="42.6166828" lon="12.3366815"><ele>615.0</ele><time>2026-04-03T13:53:13.502Z</time></trkpt><trkpt lat="42.6167582" lon="12.3365951"><ele>615.0</ele><time>2026-04-03T13:53:15.488Z</time></trkpt><trkpt lat="42.6168625" lon="12.3365174"><ele>615.0</ele><time>2026-04-03T13:53:17.486Z</time></trkpt><trkpt lat="42.6169371" lon="12.3364649"><ele>615.0</ele><time>2026-04-03T13:53:18.488Z</time></trkpt><trkpt lat="42.6170153" lon="12.3364008"><ele>615.0</ele><time>2026-04-03T13:53:19.497Z</time></trkpt><trkpt lat="42.6170878" lon="12.3363349"><ele>615.0</ele><time>2026-04-03T13:53:20.492Z</time></trkpt><trkpt lat="42.6171556" lon="12.3362625"><ele>613.6666666666666</ele><time>2026-04-03T13:53:21.5Z</time></trkpt><trkpt lat="42.6172218" lon="12.336192"><ele>612.3333333333334</ele><time>2026-04-03T13:53:22.496Z</time></trkpt><trkpt lat="42.6172737" lon="12.336124"><ele>611.0</ele><time>2026-04-03T13:53:23.492Z</time></trkpt><trkpt lat="42.617327" lon="12.3360487"><ele>609.6666666666667</ele><time>2026-04-03T13:53:24.501Z</time></trkpt><trkpt lat="42.6173693" lon="12.3359649"><ele>608.3333333333334</ele><time>2026-04-03T13:53:25.487Z</time></trkpt><trkpt lat="42.6174154" lon="12.33589"><ele>607.0</ele><time>2026-04-03T13:53:26.499Z</time></trkpt><trkpt lat="42.6174524" lon="12.3358067"><ele>607.0</ele><time>2026-04-03T13:53:27.49Z</time></trkpt><trkpt lat="42.6174856" lon="12.3357264"><ele>607.0</ele><time>2026-04-03T13:53:28.492Z</time></trkpt><trkpt lat="42.6175255" lon="12.335643"><ele>607.0</ele><time>2026-04-03T13:53:29.489Z</time></trkpt><trkpt lat="42.6175705" lon="12.3355435"><ele>607.0</ele><time>2026-04-03T13:53:30.495Z</time></trkpt><trkpt lat="42.6176197" lon="12.335426"><ele>607.0</ele><time>2026-04-03T13:53:31.497Z</time></trkpt><trkpt lat="42.6176701" lon="12.3352861"><ele>607.0</ele><time>2026-04-03T13:53:32.471Z</time></trkpt><trkpt lat="42.6177125" lon="12.3351526"><ele>605.8333333333334</ele><time>2026-04-03T13:53:33.489Z</time></trkpt><trkpt lat="42.617754" lon="12.3350258"><ele>604.6666666666667</ele><time>2026-04-03T13:53:34.493Z</time></trkpt><trkpt lat="42.6177995" lon="12.3349038"><ele>603.5</ele><time>2026-04-03T13:53:35.486Z</time></trkpt><trkpt lat="42.617831" lon="12.3348145"><ele>602.3333333333334</ele><time>2026-04-03T13:53:36.489Z</time></trkpt><trkpt lat="42.6178689" lon="12.3346946"><ele>601.1666666666666</ele><time>2026-04-03T13:53:38.483Z</time></trkpt><trkpt lat="42.6179039" lon="12.3346018"><ele>600.0</ele><time>2026-04-03T13:53:40.495Z</time></trkpt><trkpt lat="42.6179015" lon="12.3344926"><ele>600.0</ele><time>2026-04-03T13:53:42.481Z</time></trkpt><trkpt lat="42.6178634" lon="12.3343545"><ele>600.0</ele><time>2026-04-03T13:53:44.496Z</time></trkpt><trkpt lat="42.617834" lon="12.3342711"><ele>600.0</ele><time>2026-04-03T13:53:45.493Z</time></trkpt><trkpt lat="42.6177897" lon="12.3341662"><ele>600.0</ele><time>2026-04-03T13:53:47.496Z</time></trkpt><trkpt lat="42.6177245" lon="12.3341149"><ele>600.0</ele><time>2026-04-03T13:53:49.492Z</time></trkpt><trkpt lat="42.6176534" lon="12.3340746"><ele>600.0</ele><time>2026-04-03T13:53:51.492Z</time></trkpt><trkpt lat="42.6175624" lon="12.3340459"><ele>603.1666666666666</ele><time>2026-04-03T13:53:54.506Z</time></trkpt><trkpt lat="42.6174982" lon="12.3340526"><ele>606.3333333333334</ele><time>2026-04-03T13:53:56.479Z</time></trkpt><trkpt lat="42.6174296" lon="12.3340258"><ele>609.5</ele><time>2026-04-03T13:53:59.491Z</time></trkpt><trkpt lat="42.617514" lon="12.3340269"><ele>612.6666666666667</ele><time>2026-04-03T13:54:24.491Z</time></trkpt><trkpt lat="42.6175974" lon="12.334048"><ele>615.8333333333334</ele><time>2026-04-03T13:54:26.504Z</time></trkpt><trkpt lat="42.6176506" lon="12.3341524"><ele>619.0</ele><time>2026-04-03T13:54:29.489Z</time></trkpt><trkpt lat="42.6176661" lon="12.3342434"><ele>619.0</ele><time>2026-04-03T13:54:31.488Z</time></trkpt><trkpt lat="42.6177145" lon="12.3343303"><ele>619.0</ele><time>2026-04-03T13:54:33.49Z</time></trkpt><trkpt lat="42.6177309" lon="12.3344265"><ele>619.0</ele><time>2026-04-03T13:54:35.488Z</time></trkpt><trkpt lat="42.6176971" lon="12.3345136"><ele>619.0</ele><time>2026-04-03T13:54:37.488Z</time></trkpt><trkpt lat="42.6176395" lon="12.3346046"><ele>619.0</ele><time>2026-04-03T13:54:39.492Z</time></trkpt><trkpt lat="42.6175573" lon="12.334723"><ele>619.0</ele><time>2026-04-03T13:54:41.488Z</time></trkpt><trkpt lat="42.6175073" lon="12.3348107"><ele>618.3333333333334</ele><time>2026-04-03T13:54:42.493Z</time></trkpt><trkpt lat="42.6174623" lon="12.3349181"><ele>617.6666666666667</ele><time>2026-04-03T13:54:43.486Z</time></trkpt><trkpt lat="42.6174288" lon="12.3350275"><ele>617.0</ele><time>2026-04-03T13:54:44.492Z</time></trkpt><trkpt lat="42.617392" lon="12.335127"><ele>616.3333333333334</ele><time>2026-04-03T13:54:45.488Z</time></trkpt><trkpt lat="42.6173569" lon="12.3352252"><ele>615.6666666666666</ele><time>2026-04-03T13:54:46.489Z</time></trkpt><trkpt lat="42.6173214" lon="12.3353117"><ele>615.0</ele><time>2026-04-03T13:54:47.487Z</time></trkpt><trkpt lat="42.6172858" lon="12.3354002"><ele>615.0</ele><time>2026-04-03T13:54:48.486Z</time></trkpt><trkpt lat="42.6172516" lon="12.3354897"><ele>615.0</ele><time>2026-04-03T13:54:49.492Z</time></trkpt><trkpt lat="42.6172267" lon="12.3355923"><ele>615.0</ele><time>2026-04-03T13:54:50.487Z</time></trkpt><trkpt lat="42.617202" lon="12.3356958"><ele>615.0</ele><time>2026-04-03T13:54:51.498Z</time></trkpt><trkpt lat="42.6171879" lon="12.335797"><ele>615.0</ele><time>2026-04-03T13:54:52.5Z</time></trkpt><trkpt lat="42.6171742" lon="12.3358895"><ele>615.0</ele><time>2026-04-03T13:54:53.501Z</time></trkpt><trkpt lat="42.6171606" lon="12.3359783"><ele>615.0</ele><time>2026-04-03T13:54:54.49Z</time></trkpt><trkpt lat="42.6171399" lon="12.3360617"><ele>615.0</ele><time>2026-04-03T13:54:55.5Z</time></trkpt><trkpt lat="42.6171111" lon="12.3361499"><ele>615.0</ele><time>2026-04-03T13:54:56.495Z</time></trkpt><trkpt lat="42.6170774" lon="12.3362351"><ele>615.0</ele><time>2026-04-03T13:54:57.491Z</time></trkpt><trkpt lat="42.6170291" lon="12.3363073"><ele>615.0</ele><time>2026-04-03T13:54:58.492Z</time></trkpt><trkpt lat="42.6169652" lon="12.3363721"><ele>615.0</ele><time>2026-04-03T13:54:59.502Z</time></trkpt><trkpt lat="42.6168976" lon="12.3364333"><ele>615.0</ele><time>2026-04-03T13:55:00.491Z</time></trkpt><trkpt lat="42.6168288" lon="12.3364938"><ele>615.0</ele><time>2026-04-03T13:55:01.504Z</time></trkpt><trkpt lat="42.6167682" lon="12.3365337"><ele>615.0</ele><time>2026-04-03T13:55:02.476Z</time></trkpt><trkpt lat="42.6166775" lon="12.3366245"><ele>615.0</ele><time>2026-04-03T13:55:04.48Z</time></trkpt><trkpt lat="42.6166281" lon="12.3367392"><ele>615.0</ele><time>2026-04-03T13:55:06.501Z</time></trkpt><trkpt lat="42.6166245" lon="12.3368643"><ele>615.0</ele><time>2026-04-03T13:55:08.494Z</time></trkpt><trkpt lat="42.6166171" lon="12.3369773"><ele>615.0</ele><time>2026-04-03T13:55:10.482Z</time></trkpt><trkpt lat="42.6166198" lon="12.3370734"><ele>615.0</ele><time>2026-04-03T13:55:12.494Z</time></trkpt><trkpt lat="42.6166164" lon="12.3371718"><ele>615.0</ele><time>2026-04-03T13:55:14.493Z</time></trkpt><trkpt lat="42.6166042" lon="12.3373445"><ele>615.0</ele><time>2026-04-03T13:55:16.507Z</time></trkpt><trkpt lat="42.6166064" lon="12.3374485"><ele>615.0</ele><time>2026-04-03T13:55:17.499Z</time></trkpt><trkpt lat="42.6166259" lon="12.3375628"><ele>615.0</ele><time>2026-04-03T13:55:18.5Z</time></trkpt><trkpt lat="42.6166384" lon="12.3376811"><ele>614.8</ele><time>2026-04-03T13:55:19.493Z</time></trkpt><trkpt lat="42.6166439" lon="12.3378045"><ele>614.6</ele><time>2026-04-03T13:55:20.494Z</time></trkpt><trkpt lat="42.6166498" lon="12.3379383"><ele>614.4</ele><time>2026-04-03T13:55:21.491Z</time></trkpt><trkpt lat="42.6166551" lon="12.3380665"><ele>614.2</ele><time>2026-04-03T13:55:22.499Z</time></trkpt><trkpt lat="42.6166563" lon="12.3381833"><ele>614.0</ele><time>2026-04-03T13:55:23.498Z</time></trkpt><trkpt lat="42.6166683" lon="12.3383"><ele>614.6</ele><time>2026-04-03T13:55:24.505Z</time></trkpt><trkpt lat="42.6166845" lon="12.3384093"><ele>615.2</ele><time>2026-04-03T13:55:25.487Z</time></trkpt><trkpt lat="42.6167108" lon="12.3385231"><ele>615.8000000000001</ele><time>2026-04-03T13:55:26.481Z</time></trkpt><trkpt lat="42.6167502" lon="12.3386536"><ele>616.4</ele><time>2026-04-03T13:55:27.499Z</time></trkpt><trkpt lat="42.616788" lon="12.3387725"><ele>617.0</ele><time>2026-04-03T13:55:28.5Z</time></trkpt><trkpt lat="42.6168271" lon="12.3388811"><ele>617.8571428571429</ele><time>2026-04-03T13:55:29.483Z</time></trkpt><trkpt lat="42.6168644" lon="12.3389819"><ele>618.7142857142857</ele><time>2026-04-03T13:55:30.488Z</time></trkpt><trkpt lat="42.6168926" lon="12.3390767"><ele>619.5714285714286</ele><time>2026-04-03T13:55:31.499Z</time></trkpt><trkpt lat="42.6169101" lon="12.3391794"><ele>620.4285714285714</ele><time>2026-04-03T13:55:32.494Z</time></trkpt><trkpt lat="42.6169251" lon="12.339282"><ele>621.2857142857142</ele><time>2026-04-03T13:55:33.501Z</time></trkpt><trkpt lat="42.6169289" lon="12.3393726"><ele>622.1428571428571</ele><time>2026-04-03T13:55:34.501Z</time></trkpt><trkpt lat="42.6169324" lon="12.3394587"><ele>623.0</ele><time>2026-04-03T13:55:35.492Z</time></trkpt><trkpt lat="42.6169417" lon="12.3395977"><ele>623.0</ele><time>2026-04-03T13:55:37.502Z</time></trkpt><trkpt lat="42.6169826" lon="12.3397124"><ele>623.0</ele><time>2026-04-03T13:55:39.491Z</time></trkpt><trkpt lat="42.6170597" lon="12.3397828"><ele>623.0</ele><time>2026-04-03T13:55:41.488Z</time></trkpt><trkpt lat="42.6171753" lon="12.3398077"><ele>623.0</ele><time>2026-04-03T13:55:43.488Z</time></trkpt><trkpt lat="42.6172512" lon="12.3398015"><ele>623.0</ele><time>2026-04-03T13:55:44.49Z</time></trkpt><trkpt lat="42.617334" lon="12.3397715"><ele>624.0</ele><time>2026-04-03T13:55:45.493Z</time></trkpt><trkpt lat="42.6174107" lon="12.3397275"><ele>625.0</ele><time>2026-04-03T13:55:46.502Z</time></trkpt><trkpt lat="42.6174814" lon="12.3396941"><ele>626.0</ele><time>2026-04-03T13:55:47.488Z</time></trkpt><trkpt lat="42.61756" lon="12.3396674"><ele>627.0</ele><time>2026-04-03T13:55:48.5Z</time></trkpt><trkpt lat="42.6176437" lon="12.3396486"><ele>628.0</ele><time>2026-04-03T13:55:49.497Z</time></trkpt><trkpt lat="42.6177344" lon="12.3396332"><ele>629.0</ele><time>2026-04-03T13:55:50.493Z</time></trkpt><trkpt lat="42.6178258" lon="12.3396104"><ele>625.8</ele><time>2026-04-03T13:55:51.488Z</time></trkpt><trkpt lat="42.617921" lon="12.3395708"><ele>622.5999999999999</ele><time>2026-04-03T13:55:52.501Z</time></trkpt><trkpt lat="42.6180184" lon="12.339526"><ele>619.4</ele><time>2026-04-03T13:55:53.491Z</time></trkpt><trkpt lat="42.6181095" lon="12.3394657"><ele>616.1999999999999</ele><time>2026-04-03T13:55:54.497Z</time></trkpt><trkpt lat="42.6182022" lon="12.3394132"><ele>613.0</ele><time>2026-04-03T13:55:55.494Z</time></trkpt><trkpt lat="42.6182965" lon="12.33938"><ele>613.0</ele><time>2026-04-03T13:55:56.494Z</time></trkpt><trkpt lat="42.6183945" lon="12.3393654"><ele>613.0</ele><time>2026-04-03T13:55:57.499Z</time></trkpt><trkpt lat="42.6184878" lon="12.3393629"><ele>613.0</ele><time>2026-04-03T13:55:58.496Z</time></trkpt><trkpt lat="42.6185838" lon="12.3393734"><ele>613.0</ele><time>2026-04-03T13:55:59.499Z</time></trkpt><trkpt lat="42.6186865" lon="12.339397"><ele>613.0</ele><time>2026-04-03T13:56:00.503Z</time></trkpt><trkpt lat="42.6187872" lon="12.3394205"><ele>614.1666666666667</ele><time>2026-04-03T13:56:01.493Z</time></trkpt><trkpt lat="42.6188764" lon="12.3394496"><ele>615.3333333333334</ele><time>2026-04-03T13:56:02.501Z</time></trkpt><trkpt lat="42.6189593" lon="12.3394882"><ele>616.5</ele><time>2026-04-03T13:56:03.501Z</time></trkpt><trkpt lat="42.6190316" lon="12.3395172"><ele>617.6666666666666</ele><time>2026-04-03T13:56:04.479Z</time></trkpt><trkpt lat="42.6191046" lon="12.3395328"><ele>618.8333333333333</ele><time>2026-04-03T13:56:05.496Z</time></trkpt><trkpt lat="42.6191876" lon="12.3395458"><ele>620.0</ele><time>2026-04-03T13:56:06.504Z</time></trkpt><trkpt lat="42.6192743" lon="12.339543"><ele>620.0</ele><time>2026-04-03T13:56:07.507Z</time></trkpt><trkpt lat="42.6193581" lon="12.3395326"><ele>620.0</ele><time>2026-04-03T13:56:08.494Z</time></trkpt><trkpt lat="42.6194428" lon="12.3395146"><ele>620.0</ele><time>2026-04-03T13:56:09.493Z</time></trkpt><trkpt lat="42.6195296" lon="12.3394872"><ele>620.0</ele><time>2026-04-03T13:56:10.503Z</time></trkpt><trkpt lat="42.6196162" lon="12.3394485"><ele>620.0</ele><time>2026-04-03T13:56:11.495Z</time></trkpt><trkpt lat="42.6197106" lon="12.3394013"><ele>622.0</ele><time>2026-04-03T13:56:12.49Z</time></trkpt><trkpt lat="42.6198071" lon="12.3393554"><ele>624.0</ele><time>2026-04-03T13:56:13.488Z</time></trkpt><trkpt lat="42.6199073" lon="12.3393089"><ele>626.0</ele><time>2026-04-03T13:56:14.487Z</time></trkpt><trkpt lat="42.6200176" lon="12.3392507"><ele>628.0</ele><time>2026-04-03T13:56:15.501Z</time></trkpt><trkpt lat="42.6201349" lon="12.3391824"><ele>628.0</ele><time>2026-04-03T13:56:16.493Z</time></trkpt><trkpt lat="42.6202533" lon="12.3391183"><ele>628.0</ele><time>2026-04-03T13:56:17.499Z</time></trkpt><trkpt lat="42.6203637" lon="12.3390562"><ele>628.0</ele><time>2026-04-03T13:56:18.493Z</time></trkpt><trkpt lat="42.6204734" lon="12.3389919"><ele>628.0</ele><time>2026-04-03T13:56:19.491Z</time></trkpt><trkpt lat="42.6205747" lon="12.3389291"><ele>626.4</ele><time>2026-04-03T13:56:20.492Z</time></trkpt><trkpt lat="42.6206592" lon="12.3388794"><ele>624.8</ele><time>2026-04-03T13:56:21.492Z</time></trkpt><trkpt lat="42.6207354" lon="12.3388288"><ele>623.2</ele><time>2026-04-03T13:56:22.492Z</time></trkpt><trkpt lat="42.6208018" lon="12.3387976"><ele>621.6</ele><time>2026-04-03T13:56:23.497Z</time></trkpt><trkpt lat="42.6209075" lon="12.3387863"><ele>620.0</ele><time>2026-04-03T13:56:25.496Z</time></trkpt><trkpt lat="42.6210243" lon="12.3388143"><ele>620.0</ele><time>2026-04-03T13:56:27.495Z</time></trkpt><trkpt lat="42.6211463" lon="12.3388605"><ele>620.0</ele><time>2026-04-03T13:56:29.488Z</time></trkpt><trkpt lat="42.6212084" lon="12.3388898"><ele>620.0</ele><time>2026-04-03T13:56:30.505Z</time></trkpt><trkpt lat="42.6212659" lon="12.3389362"><ele>620.0</ele><time>2026-04-03T13:56:31.497Z</time></trkpt><trkpt lat="42.6213173" lon="12.3389864"><ele>620.0</ele><time>2026-04-03T13:56:32.501Z</time></trkpt><trkpt lat="42.621367" lon="12.3390423"><ele>620.0</ele><time>2026-04-03T13:56:33.505Z</time></trkpt><trkpt lat="42.6214249" lon="12.3390986"><ele>624.1666666666666</ele><time>2026-04-03T13:56:34.503Z</time></trkpt><trkpt lat="42.6214876" lon="12.339138"><ele>628.3333333333333</ele><time>2026-04-03T13:56:35.475Z</time></trkpt><trkpt lat="42.6215536" lon="12.3391676"><ele>632.5</ele><time>2026-04-03T13:56:36.499Z</time></trkpt><trkpt lat="42.6216302" lon="12.3392031"><ele>636.6666666666666</ele><time>2026-04-03T13:56:37.493Z</time></trkpt><trkpt lat="42.6217221" lon="12.3392493"><ele>640.8333333333334</ele><time>2026-04-03T13:56:38.493Z</time></trkpt><trkpt lat="42.6218077" lon="12.3393054"><ele>645.0</ele><time>2026-04-03T13:56:39.49Z</time></trkpt><trkpt lat="42.6218889" lon="12.339353"><ele>645.0</ele><time>2026-04-03T13:56:40.476Z</time></trkpt><trkpt lat="42.6219757" lon="12.339385"><ele>645.0</ele><time>2026-04-03T13:56:41.503Z</time></trkpt><trkpt lat="42.6220441" lon="12.3394245"><ele>645.0</ele><time>2026-04-03T13:56:42.493Z</time></trkpt><trkpt lat="42.6221017" lon="12.3394625"><ele>645.0</ele><time>2026-04-03T13:56:43.499Z</time></trkpt><trkpt lat="42.6221593" lon="12.339507"><ele>645.0</ele><time>2026-04-03T13:56:44.499Z</time></trkpt><trkpt lat="42.6222251" lon="12.339547"><ele>645.0</ele><time>2026-04-03T13:56:45.492Z</time></trkpt><trkpt lat="42.6222997" lon="12.3395871"><ele>645.0</ele><time>2026-04-03T13:56:46.5Z</time></trkpt><trkpt lat="42.6223787" lon="12.3396313"><ele>646.2</ele><time>2026-04-03T13:56:47.503Z</time></trkpt><trkpt lat="42.6224616" lon="12.3396731"><ele>647.4</ele><time>2026-04-03T13:56:48.487Z</time></trkpt><trkpt lat="42.6225421" lon="12.3397103"><ele>648.5999999999999</ele><time>2026-04-03T13:56:49.503Z</time></trkpt><trkpt lat="42.6226124" lon="12.3397399"><ele>649.8</ele><time>2026-04-03T13:56:50.497Z</time></trkpt><trkpt lat="42.6227312" lon="12.3397745"><ele>651.0</ele><time>2026-04-03T13:56:52.506Z</time></trkpt><trkpt lat="42.6228364" lon="12.3398114"><ele>651.0</ele><time>2026-04-03T13:56:54.49Z</time></trkpt><trkpt lat="42.6228936" lon="12.3398516"><ele>651.0</ele><time>2026-04-03T13:56:55.502Z</time></trkpt><trkpt lat="42.6229565" lon="12.3399077"><ele>651.0</ele><time>2026-04-03T13:56:56.492Z</time></trkpt><trkpt lat="42.6230087" lon="12.3399646"><ele>651.0</ele><time>2026-04-03T13:56:57.497Z</time></trkpt><trkpt lat="42.6230999" lon="12.3400631"><ele>651.0</ele><time>2026-04-03T13:56:59.497Z</time></trkpt><trkpt lat="42.6232027" lon="12.3401689"><ele>651.0</ele><time>2026-04-03T13:57:01.5Z</time></trkpt><trkpt lat="42.6232815" lon="12.3402762"><ele>651.0</ele><time>2026-04-03T13:57:03.489Z</time></trkpt><trkpt lat="42.6233456" lon="12.340375"><ele>651.0</ele><time>2026-04-03T13:57:05.497Z</time></trkpt><trkpt lat="42.623383" lon="12.3405061"><ele>651.0</ele><time>2026-04-03T13:57:07.499Z</time></trkpt><trkpt lat="42.6233884" lon="12.3405947"><ele>651.0</ele><time>2026-04-03T13:57:08.493Z</time></trkpt><trkpt lat="42.6233901" lon="12.3406868"><ele>651.0</ele><time>2026-04-03T13:57:09.497Z</time></trkpt><trkpt lat="42.6233963" lon="12.3407809"><ele>654.1666666666666</ele><time>2026-04-03T13:57:10.503Z</time></trkpt><trkpt lat="42.6233931" lon="12.3408764"><ele>657.3333333333334</ele><time>2026-04-03T13:57:11.5Z</time></trkpt><trkpt lat="42.6233748" lon="12.3409813"><ele>660.5</ele><time>2026-04-03T13:57:12.513Z</time></trkpt><trkpt lat="42.6233529" lon="12.3410883"><ele>663.6666666666667</ele><time>2026-04-03T13:57:13.504Z</time></trkpt><trkpt lat="42.6233357" lon="12.3412013"><ele>666.8333333333334</ele><time>2026-04-03T13:57:14.508Z</time></trkpt><trkpt lat="42.6233182" lon="12.3413126"><ele>670.0</ele><time>2026-04-03T13:57:15.502Z</time></trkpt><trkpt lat="42.6233028" lon="12.3414231"><ele>672.0</ele><time>2026-04-03T13:57:16.502Z</time></trkpt><trkpt lat="42.6232857" lon="12.3415405"><ele>674.0</ele><time>2026-04-03T13:57:17.494Z</time></trkpt><trkpt lat="42.6232724" lon="12.3416635"><ele>676.0</ele><time>2026-04-03T13:57:18.498Z</time></trkpt><trkpt lat="42.6232676" lon="12.3418028"><ele>678.0</ele><time>2026-04-03T13:57:19.496Z</time></trkpt><trkpt lat="42.6232643" lon="12.3419531"><ele>680.0</ele><time>2026-04-03T13:57:20.491Z</time></trkpt><trkpt lat="42.6232691" lon="12.3421124"><ele>680.8</ele><time>2026-04-03T13:57:21.498Z</time></trkpt><trkpt lat="42.62328" lon="12.3422534"><ele>681.6</ele><time>2026-04-03T13:57:22.492Z</time></trkpt><trkpt lat="42.6232916" lon="12.3423855"><ele>682.4000000000001</ele><time>2026-04-03T13:57:23.503Z</time></trkpt><trkpt lat="42.623297" lon="12.3425088"><ele>683.2</ele><time>2026-04-03T13:57:24.481Z</time></trkpt><trkpt lat="42.6232962" lon="12.3426282"><ele>684.0</ele><time>2026-04-03T13:57:25.483Z</time></trkpt><trkpt lat="42.6232899" lon="12.342744"><ele>684.0</ele><time>2026-04-03T13:57:26.479Z</time></trkpt><trkpt lat="42.6232725" lon="12.3428573"><ele>684.0</ele><time>2026-04-03T13:57:27.502Z</time></trkpt><trkpt lat="42.6232518" lon="12.3429652"><ele>684.0</ele><time>2026-04-03T13:57:28.493Z</time></trkpt><trkpt lat="42.6232329" lon="12.3430786"><ele>684.0</ele><time>2026-04-03T13:57:29.499Z</time></trkpt><trkpt lat="42.6232108" lon="12.3431899"><ele>684.0</ele><time>2026-04-03T13:57:30.491Z</time></trkpt><trkpt lat="42.6231928" lon="12.3433123"><ele>684.0</ele><time>2026-04-03T13:57:31.505Z</time></trkpt><trkpt lat="42.6231807" lon="12.3434474"><ele>684.5</ele><time>2026-04-03T13:57:32.494Z</time></trkpt><trkpt lat="42.6231768" lon="12.3435948"><ele>685.0</ele><time>2026-04-03T13:57:33.502Z</time></trkpt><trkpt lat="42.6231814" lon="12.3437572"><ele>685.5</ele><time>2026-04-03T13:57:34.493Z</time></trkpt><trkpt lat="42.6231904" lon="12.3439304"><ele>686.0</ele><time>2026-04-03T13:57:35.503Z</time></trkpt><trkpt lat="42.6231918" lon="12.3440752"><ele>687.3333333333333</ele><time>2026-04-03T13:57:36.503Z</time></trkpt><trkpt lat="42.6231952" lon="12.3442057"><ele>688.6666666666666</ele><time>2026-04-03T13:57:37.492Z</time></trkpt><trkpt lat="42.6232041" lon="12.3443334"><ele>690.0</ele><time>2026-04-03T13:57:38.487Z</time></trkpt><trkpt lat="42.6232146" lon="12.3444428"><ele>691.3333333333334</ele><time>2026-04-03T13:57:39.507Z</time></trkpt><trkpt lat="42.6232228" lon="12.3445321"><ele>692.6666666666667</ele><time>2026-04-03T13:57:40.5Z</time></trkpt><trkpt lat="42.6232181" lon="12.3446177"><ele>694.0</ele><time>2026-04-03T13:57:41.501Z</time></trkpt><trkpt lat="42.6232099" lon="12.3447074"><ele>696.1666666666667</ele><time>2026-04-03T13:57:42.493Z</time></trkpt><trkpt lat="42.6231958" lon="12.3448038"><ele>698.3333333333334</ele><time>2026-04-03T13:57:43.502Z</time></trkpt><trkpt lat="42.6231764" lon="12.3449029"><ele>700.5</ele><time>2026-04-03T13:57:44.49Z</time></trkpt><trkpt lat="42.6231745" lon="12.3449926"><ele>702.6666666666666</ele><time>2026-04-03T13:57:45.503Z</time></trkpt><trkpt lat="42.6232193" lon="12.345108"><ele>704.8333333333333</ele><time>2026-04-03T13:57:47.493Z</time></trkpt><trkpt lat="42.6233099" lon="12.3451608"><ele>707.0</ele><time>2026-04-03T13:57:49.479Z</time></trkpt><trkpt lat="42.6233732" lon="12.3451849"><ele>707.0</ele><time>2026-04-03T13:57:50.499Z</time></trkpt><trkpt lat="42.6234399" lon="12.3451966"><ele>707.0</ele><time>2026-04-03T13:57:51.503Z</time></trkpt><trkpt lat="42.6235157" lon="12.3451953"><ele>707.0</ele><time>2026-04-03T13:57:52.499Z</time></trkpt><trkpt lat="42.6236007" lon="12.3451935"><ele>707.0</ele><time>2026-04-03T13:57:53.499Z</time></trkpt><trkpt lat="42.6236931" lon="12.3451973"><ele>707.0</ele><time>2026-04-03T13:57:54.481Z</time></trkpt><trkpt lat="42.6237905" lon="12.3452085"><ele>707.0</ele><time>2026-04-03T13:57:55.495Z</time></trkpt><trkpt lat="42.6238888" lon="12.345222"><ele>706.8</ele><time>2026-04-03T13:57:56.493Z</time></trkpt><trkpt lat="42.6239889" lon="12.3452371"><ele>706.6</ele><time>2026-04-03T13:57:57.505Z</time></trkpt><trkpt lat="42.6240931" lon="12.345243"><ele>706.4</ele><time>2026-04-03T13:57:58.499Z</time></trkpt><trkpt lat="42.6241904" lon="12.3452402"><ele>706.1999999999999</ele><time>2026-04-03T13:57:59.503Z</time></trkpt><trkpt lat="42.6242927" lon="12.3452195"><ele>706.0</ele><time>2026-04-03T13:58:00.503Z</time></trkpt><trkpt lat="42.6243963" lon="12.3451747"><ele>709.25</ele><time>2026-04-03T13:58:01.499Z</time></trkpt><trkpt lat="42.6245065" lon="12.3451286"><ele>712.5</ele><time>2026-04-03T13:58:02.502Z</time></trkpt><trkpt lat="42.6246174" lon="12.3450828"><ele>715.75</ele><time>2026-04-03T13:58:03.499Z</time></trkpt><trkpt lat="42.6247369" lon="12.3450289"><ele>719.0</ele><time>2026-04-03T13:58:04.503Z</time></trkpt><trkpt lat="42.6248617" lon="12.3449683"><ele>719.0</ele><time>2026-04-03T13:58:05.498Z</time></trkpt><trkpt lat="42.624991" lon="12.3449061"><ele>719.0</ele><time>2026-04-03T13:58:06.501Z</time></trkpt><trkpt lat="42.6251128" lon="12.3448491"><ele>719.0</ele><time>2026-04-03T13:58:07.508Z</time></trkpt><trkpt lat="42.6252211" lon="12.344804"><ele>719.0</ele><time>2026-04-03T13:58:08.502Z</time></trkpt><trkpt lat="42.6253166" lon="12.3447709"><ele>720.4000000000001</ele><time>2026-04-03T13:58:09.507Z</time></trkpt><trkpt lat="42.6254201" lon="12.3447514"><ele>721.8</ele><time>2026-04-03T13:58:10.505Z</time></trkpt><trkpt lat="42.6255225" lon="12.3447414"><ele>723.2</ele><time>2026-04-03T13:58:11.503Z</time></trkpt><trkpt lat="42.6256186" lon="12.3447478"><ele>724.5999999999999</ele><time>2026-04-03T13:58:12.509Z</time></trkpt><trkpt lat="42.625719" lon="12.3447722"><ele>726.0</ele><time>2026-04-03T13:58:13.506Z</time></trkpt><trkpt lat="42.6258299" lon="12.3448089"><ele>726.0</ele><time>2026-04-03T13:58:14.506Z</time></trkpt><trkpt lat="42.6259448" lon="12.3448615"><ele>726.0</ele><time>2026-04-03T13:58:15.501Z</time></trkpt><trkpt lat="42.6260613" lon="12.3449233"><ele>726.0</ele><time>2026-04-03T13:58:16.504Z</time></trkpt><trkpt lat="42.6261697" lon="12.3449878"><ele>726.0</ele><time>2026-04-03T13:58:17.503Z</time></trkpt><trkpt lat="42.6262621" lon="12.3450547"><ele>725.25</ele><time>2026-04-03T13:58:18.507Z</time></trkpt><trkpt lat="42.6263519" lon="12.3451237"><ele>724.5</ele><time>2026-04-03T13:58:19.501Z</time></trkpt><trkpt lat="42.6264451" lon="12.3452175"><ele>723.75</ele><time>2026-04-03T13:58:20.496Z</time></trkpt><trkpt lat="42.6265368" lon="12.3453303"><ele>723.0</ele><time>2026-04-03T13:58:21.509Z</time></trkpt><trkpt lat="42.6266133" lon="12.34544"><ele>723.0</ele><time>2026-04-03T13:58:22.498Z</time></trkpt><trkpt lat="42.626674" lon="12.3455281"><ele>723.0</ele><time>2026-04-03T13:58:23.507Z</time></trkpt><trkpt lat="42.6267258" lon="12.3456059"><ele>723.0</ele><time>2026-04-03T13:58:24.494Z</time></trkpt><trkpt lat="42.6267681" lon="12.3456792"><ele>723.0</ele><time>2026-04-03T13:58:25.498Z</time></trkpt><trkpt lat="42.6268248" lon="12.3457941"><ele>723.0</ele><time>2026-04-03T13:58:27.505Z</time></trkpt><trkpt lat="42.6268597" lon="12.3459012"><ele>723.0</ele><time>2026-04-03T13:58:29.494Z</time></trkpt><trkpt lat="42.6268914" lon="12.3459961"><ele>723.5714285714287</ele><time>2026-04-03T13:58:31.505Z</time></trkpt><trkpt lat="42.626958" lon="12.3460064"><ele>724.1428571428571</ele><time>2026-04-03T13:58:34.495Z</time></trkpt><trkpt lat="42.6269821" lon="12.3458919"><ele>724.7142857142858</ele><time>2026-04-03T13:59:05.492Z</time></trkpt><trkpt lat="42.6269232" lon="12.3458613"><ele>725.2857142857143</ele><time>2026-04-03T13:59:07.483Z</time></trkpt><trkpt lat="42.6268765" lon="12.3459193"><ele>725.8571428571429</ele><time>2026-04-03T13:59:09.478Z</time></trkpt><trkpt lat="42.6268971" lon="12.3460255"><ele>726.4285714285714</ele><time>2026-04-03T13:59:12.497Z</time></trkpt><trkpt lat="42.6268872" lon="12.3461251"><ele>727.0</ele><time>2026-04-03T13:59:14.497Z</time></trkpt><trkpt lat="42.6268723" lon="12.3462197"><ele>727.0</ele><time>2026-04-03T13:59:15.483Z</time></trkpt><trkpt lat="42.6268616" lon="12.3463229"><ele>727.0</ele><time>2026-04-03T13:59:16.475Z</time></trkpt><trkpt lat="42.6268485" lon="12.3464222"><ele>727.0</ele><time>2026-04-03T13:59:17.491Z</time></trkpt><trkpt lat="42.6268225" lon="12.346513"><ele>727.0</ele><time>2026-04-03T13:59:18.502Z</time></trkpt><trkpt lat="42.6267904" lon="12.3466025"><ele>727.0</ele><time>2026-04-03T13:59:19.51Z</time></trkpt><trkpt lat="42.6267542" lon="12.346684"><ele>727.0</ele><time>2026-04-03T13:59:20.478Z</time></trkpt><trkpt lat="42.6267138" lon="12.3467609"><ele>727.0</ele><time>2026-04-03T13:59:21.483Z</time></trkpt><trkpt lat="42.6266798" lon="12.3468454"><ele>727.0</ele><time>2026-04-03T13:59:22.506Z</time></trkpt><trkpt lat="42.6266555" lon="12.3469345"><ele>727.0</ele><time>2026-04-03T13:59:23.482Z</time></trkpt><trkpt lat="42.6266434" lon="12.3470321"><ele>727.0</ele><time>2026-04-03T13:59:24.494Z</time></trkpt><trkpt lat="42.6266497" lon="12.3471308"><ele>727.0</ele><time>2026-04-03T13:59:25.484Z</time></trkpt><trkpt lat="42.6267125" lon="12.3472366"><ele>727.0</ele><time>2026-04-03T13:59:26.499Z</time></trkpt><trkpt lat="42.6267883" lon="12.347346"><ele>727.0</ele><time>2026-04-03T13:59:27.486Z</time></trkpt><trkpt lat="42.6268607" lon="12.3474502"><ele>725.2</ele><time>2026-04-03T13:59:28.506Z</time></trkpt><trkpt lat="42.6269281" lon="12.3475474"><ele>723.4000000000001</ele><time>2026-04-03T13:59:29.494Z</time></trkpt><trkpt lat="42.6269933" lon="12.3476422"><ele>721.5999999999999</ele><time>2026-04-03T13:59:30.498Z</time></trkpt><trkpt lat="42.6270545" lon="12.3477307"><ele>719.8</ele><time>2026-04-03T13:59:31.508Z</time></trkpt><trkpt lat="42.6271211" lon="12.3478098"><ele>718.0</ele><time>2026-04-03T13:59:32.495Z</time></trkpt><trkpt lat="42.6271895" lon="12.3478806"><ele>717.5999999999999</ele><time>2026-04-03T13:59:33.493Z</time></trkpt><trkpt lat="42.6272687" lon="12.3479495"><ele>717.1999999999999</ele><time>2026-04-03T13:59:34.532Z</time></trkpt><trkpt lat="42.6273533" lon="12.3480197"><ele>716.8</ele><time>2026-04-03T13:59:35.494Z</time></trkpt><trkpt lat="42.6274406" lon="12.3480854"><ele>716.4</ele><time>2026-04-03T13:59:36.486Z</time></trkpt><trkpt lat="42.6275202" lon="12.3481494"><ele>716.0</ele><time>2026-04-03T13:59:37.495Z</time></trkpt><trkpt lat="42.6275923" lon="12.3482089"><ele>714.6666666666666</ele><time>2026-04-03T13:59:38.493Z</time></trkpt><trkpt lat="42.6276579" lon="12.348265"><ele>713.3333333333333</ele><time>2026-04-03T13:59:39.506Z</time></trkpt><trkpt lat="42.6277132" lon="12.3483211"><ele>712.0</ele><time>2026-04-03T13:59:40.497Z</time></trkpt><trkpt lat="42.6277961" lon="12.3484256"><ele>710.6666666666666</ele><time>2026-04-03T13:59:42.499Z</time></trkpt><trkpt lat="42.6278188" lon="12.348531"><ele>709.3333333333334</ele><time>2026-04-03T13:59:44.484Z</time></trkpt><trkpt lat="42.627781" lon="12.3486286"><ele>708.0</ele><time>2026-04-03T13:59:46.499Z</time></trkpt><trkpt lat="42.6277204" lon="12.3486968"><ele>708.0</ele><time>2026-04-03T13:59:48.486Z</time></trkpt><trkpt lat="42.6276026" lon="12.3487457"><ele>708.0</ele><time>2026-04-03T13:59:50.499Z</time></trkpt><trkpt lat="42.6274954" lon="12.3487691"><ele>708.0</ele><time>2026-04-03T13:59:52.506Z</time></trkpt><trkpt lat="42.6274115" lon="12.3487858"><ele>708.0</ele><time>2026-04-03T13:59:54.5Z</time></trkpt><trkpt lat="42.6273568" lon="12.3488316"><ele>708.0</ele><time>2026-04-03T13:59:56.5Z</time></trkpt><trkpt lat="42.6273552" lon="12.3489626"><ele>705.5999999999999</ele><time>2026-04-03T13:59:59.486Z</time></trkpt><trkpt lat="42.6274063" lon="12.3490848"><ele>703.1999999999999</ele><time>2026-04-03T14:00:01.504Z</time></trkpt><trkpt lat="42.6274933" lon="12.3491991"><ele>700.8</ele><time>2026-04-03T14:00:03.503Z</time></trkpt><trkpt lat="42.627551" lon="12.3492553"><ele>698.4</ele><time>2026-04-03T14:00:04.473Z</time></trkpt><trkpt lat="42.6276085" lon="12.3493083"><ele>696.0</ele><time>2026-04-03T14:00:05.505Z</time></trkpt><trkpt lat="42.6277057" lon="12.3494114"><ele>696.0</ele><time>2026-04-03T14:00:07.508Z</time></trkpt><trkpt lat="42.6277935" lon="12.3495086"><ele>696.0</ele><time>2026-04-03T14:00:09.507Z</time></trkpt><trkpt lat="42.6278744" lon="12.3496156"><ele>696.0</ele><time>2026-04-03T14:00:11.502Z</time></trkpt><trkpt lat="42.6279099" lon="12.3496951"><ele>696.0</ele><time>2026-04-03T14:00:12.497Z</time></trkpt><trkpt lat="42.6279416" lon="12.3497707"><ele>696.0</ele><time>2026-04-03T14:00:13.503Z</time></trkpt><trkpt lat="42.6279921" lon="12.3499096"><ele>696.0</ele><time>2026-04-03T14:00:15.491Z</time></trkpt><trkpt lat="42.628041" lon="12.3500434"><ele>696.0</ele><time>2026-04-03T14:00:17.505Z</time></trkpt><trkpt lat="42.6280825" lon="12.3501771"><ele>696.0</ele><time>2026-04-03T14:00:19.51Z</time></trkpt><trkpt lat="42.6280874" lon="12.3503249"><ele>696.0</ele><time>2026-04-03T14:00:21.506Z</time></trkpt><trkpt lat="42.628055" lon="12.3504757"><ele>696.0</ele><time>2026-04-03T14:00:23.508Z</time></trkpt><trkpt lat="42.6280152" lon="12.3505581"><ele>696.0</ele><time>2026-04-03T14:00:24.496Z</time></trkpt><trkpt lat="42.6279657" lon="12.3506365"><ele>696.0</ele><time>2026-04-03T14:00:25.493Z</time></trkpt><trkpt lat="42.6279102" lon="12.3507047"><ele>696.0</ele><time>2026-04-03T14:00:26.506Z</time></trkpt><trkpt lat="42.6278415" lon="12.3507668"><ele>696.0</ele><time>2026-04-03T14:00:27.493Z</time></trkpt><trkpt lat="42.6277593" lon="12.3508259"><ele>696.0</ele><time>2026-04-03T14:00:28.504Z</time></trkpt><trkpt lat="42.627673" lon="12.3508937"><ele>696.0</ele><time>2026-04-03T14:00:29.5Z</time></trkpt><trkpt lat="42.6275937" lon="12.350969"><ele>695.3333333333334</ele><time>2026-04-03T14:00:30.506Z</time></trkpt><trkpt lat="42.6275211" lon="12.3510479"><ele>694.6666666666666</ele><time>2026-04-03T14:00:31.487Z</time></trkpt><trkpt lat="42.6274593" lon="12.3511309"><ele>694.0</ele><time>2026-04-03T14:00:32.508Z</time></trkpt><trkpt lat="42.6273984" lon="12.3512139"><ele>693.3333333333333</ele><time>2026-04-03T14:00:33.509Z</time></trkpt><trkpt lat="42.627334" lon="12.3512977"><ele>692.6666666666666</ele><time>2026-04-03T14:00:34.51Z</time></trkpt><trkpt lat="42.6272716" lon="12.3513811"><ele>692.0</ele><time>2026-04-03T14:00:35.51Z</time></trkpt><trkpt lat="42.6272112" lon="12.3514658"><ele>693.8</ele><time>2026-04-03T14:00:36.509Z</time></trkpt><trkpt lat="42.6271488" lon="12.351554"><ele>695.6</ele><time>2026-04-03T14:00:37.509Z</time></trkpt><trkpt lat="42.6270833" lon="12.3516401"><ele>697.4</ele><time>2026-04-03T14:00:38.505Z</time></trkpt><trkpt lat="42.6270164" lon="12.3517304"><ele>699.1999999999999</ele><time>2026-04-03T14:00:39.509Z</time></trkpt><trkpt lat="42.6269434" lon="12.3518241"><ele>701.0</ele><time>2026-04-03T14:00:40.509Z</time></trkpt><trkpt lat="42.626875" lon="12.3519183"><ele>701.0</ele><time>2026-04-03T14:00:41.508Z</time></trkpt><trkpt lat="42.6268114" lon="12.3520056"><ele>701.0</ele><time>2026-04-03T14:00:42.511Z</time></trkpt><trkpt lat="42.6267472" lon="12.3520844"><ele>701.0</ele><time>2026-04-03T14:00:43.514Z</time></trkpt><trkpt lat="42.6266798" lon="12.3521597"><ele>701.0</ele><time>2026-04-03T14:00:44.506Z</time></trkpt><trkpt lat="42.6266162" lon="12.3522421"><ele>701.0</ele><time>2026-04-03T14:00:45.509Z</time></trkpt><trkpt lat="42.6265456" lon="12.3523359"><ele>703.3333333333333</ele><time>2026-04-03T14:00:46.501Z</time></trkpt><trkpt lat="42.6264825" lon="12.3524299"><ele>705.6666666666666</ele><time>2026-04-03T14:00:47.51Z</time></trkpt><trkpt lat="42.6264375" lon="12.352505"><ele>708.0</ele><time>2026-04-03T14:00:48.499Z</time></trkpt><trkpt lat="42.6264033" lon="12.3525829"><ele>710.3333333333334</ele><time>2026-04-03T14:00:49.486Z</time></trkpt><trkpt lat="42.6263732" lon="12.3526816"><ele>712.6666666666667</ele><time>2026-04-03T14:00:50.501Z</time></trkpt><trkpt lat="42.626343" lon="12.3528017"><ele>715.0</ele><time>2026-04-03T14:00:51.493Z</time></trkpt><trkpt lat="42.6263108" lon="12.3529026"><ele>715.0</ele><time>2026-04-03T14:00:52.494Z</time></trkpt><trkpt lat="42.6262802" lon="12.3529969"><ele>715.0</ele><time>2026-04-03T14:00:53.501Z</time></trkpt><trkpt lat="42.6262475" lon="12.3531035"><ele>715.0</ele><time>2026-04-03T14:00:54.491Z</time></trkpt><trkpt lat="42.6262114" lon="12.3532149"><ele>715.0</ele><time>2026-04-03T14:00:55.502Z</time></trkpt><trkpt lat="42.6261771" lon="12.3533242"><ele>715.0</ele><time>2026-04-03T14:00:56.489Z</time></trkpt><trkpt lat="42.626151" lon="12.3534371"><ele>715.0</ele><time>2026-04-03T14:00:57.503Z</time></trkpt><trkpt lat="42.6261336" lon="12.3535493"><ele>715.1666666666667</ele><time>2026-04-03T14:00:58.494Z</time></trkpt><trkpt lat="42.6261225" lon="12.3536582"><ele>715.3333333333334</ele><time>2026-04-03T14:00:59.484Z</time></trkpt><trkpt lat="42.6261056" lon="12.3537635"><ele>715.5</ele><time>2026-04-03T14:01:00.503Z</time></trkpt><trkpt lat="42.6260853" lon="12.3538774"><ele>715.6666666666666</ele><time>2026-04-03T14:01:01.493Z</time></trkpt><trkpt lat="42.6260589" lon="12.354003"><ele>715.8333333333333</ele><time>2026-04-03T14:01:02.495Z</time></trkpt><trkpt lat="42.6260413" lon="12.3541126"><ele>716.0</ele><time>2026-04-03T14:01:03.493Z</time></trkpt><trkpt lat="42.6260419" lon="12.3542094"><ele>716.3333333333333</ele><time>2026-04-03T14:01:04.491Z</time></trkpt><trkpt lat="42.6260643" lon="12.3543155"><ele>716.6666666666666</ele><time>2026-04-03T14:01:05.489Z</time></trkpt><trkpt lat="42.6260914" lon="12.3544198"><ele>717.0</ele><time>2026-04-03T14:01:06.486Z</time></trkpt><trkpt lat="42.6261024" lon="12.3545265"><ele>717.3333333333334</ele><time>2026-04-03T14:01:07.503Z</time></trkpt><trkpt lat="42.6260902" lon="12.3546228"><ele>717.6666666666667</ele><time>2026-04-03T14:01:08.494Z</time></trkpt><trkpt lat="42.6260778" lon="12.3547115"><ele>718.0</ele><time>2026-04-03T14:01:09.492Z</time></trkpt><trkpt lat="42.6260625" lon="12.3548404"><ele>718.0</ele><time>2026-04-03T14:01:11.501Z</time></trkpt><trkpt lat="42.626046" lon="12.3549609"><ele>718.0</ele><time>2026-04-03T14:01:13.507Z</time></trkpt><trkpt lat="42.6260455" lon="12.3551224"><ele>718.0</ele><time>2026-04-03T14:01:15.495Z</time></trkpt><trkpt lat="42.6260592" lon="12.3552208"><ele>718.0</ele><time>2026-04-03T14:01:16.494Z</time></trkpt><trkpt lat="42.6260801" lon="12.3553231"><ele>718.0</ele><time>2026-04-03T14:01:17.495Z</time></trkpt><trkpt lat="42.6261" lon="12.355428"><ele>718.0</ele><time>2026-04-03T14:01:18.493Z</time></trkpt><trkpt lat="42.6261221" lon="12.3555329"><ele>717.3333333333334</ele><time>2026-04-03T14:01:19.491Z</time></trkpt><trkpt lat="42.6261348" lon="12.3556386"><ele>716.6666666666667</ele><time>2026-04-03T14:01:20.509Z</time></trkpt><trkpt lat="42.6261393" lon="12.3557361"><ele>716.0</ele><time>2026-04-03T14:01:21.492Z</time></trkpt><trkpt lat="42.6261395" lon="12.3558238"><ele>715.3333333333334</ele><time>2026-04-03T14:01:23.218Z</time></trkpt><trkpt lat="42.6261521" lon="12.3560019"><ele>714.6666666666666</ele><time>2026-04-03T14:01:24.488Z</time></trkpt><trkpt lat="42.6261663" lon="12.3560994"><ele>714.0</ele><time>2026-04-03T14:01:25.498Z</time></trkpt><trkpt lat="42.626187" lon="12.3561984"><ele>713.5</ele><time>2026-04-03T14:01:26.49Z</time></trkpt><trkpt lat="42.6262071" lon="12.3562966"><ele>713.0</ele><time>2026-04-03T14:01:27.492Z</time></trkpt><trkpt lat="42.6262258" lon="12.3563867"><ele>712.5</ele><time>2026-04-03T14:01:28.477Z</time></trkpt><trkpt lat="42.6262443" lon="12.356482"><ele>712.0</ele><time>2026-04-03T14:01:29.49Z</time></trkpt><trkpt lat="42.6262718" lon="12.356625"><ele>711.5</ele><time>2026-04-03T14:01:31.492Z</time></trkpt><trkpt lat="42.626295" lon="12.3567176"><ele>711.0</ele><time>2026-04-03T14:01:33.487Z</time></trkpt><trkpt lat="42.6263501" lon="12.3567871"><ele>711.0</ele><time>2026-04-03T14:01:40.491Z</time></trkpt><trkpt lat="42.626397" lon="12.3568621"><ele>711.0</ele><time>2026-04-03T14:01:51.498Z</time></trkpt><trkpt lat="42.626346" lon="12.3567738"><ele>711.0</ele><time>2026-04-03T14:03:01.496Z</time></trkpt><trkpt lat="42.6263305" lon="12.3566742"><ele>711.0</ele><time>2026-04-03T14:03:03.506Z</time></trkpt><trkpt lat="42.6263165" lon="12.3565646"><ele>711.0</ele><time>2026-04-03T14:03:05.497Z</time></trkpt><trkpt lat="42.6262913" lon="12.3564675"><ele>711.0</ele><time>2026-04-03T14:03:07.5Z</time></trkpt><trkpt lat="42.6262566" lon="12.3563932"><ele>713.5999999999999</ele><time>2026-04-03T14:03:09.504Z</time></trkpt><trkpt lat="42.6262471" lon="12.3562884"><ele>716.2</ele><time>2026-04-03T14:03:12.503Z</time></trkpt><trkpt lat="42.6262238" lon="12.3561562"><ele>718.8</ele><time>2026-04-03T14:03:14.486Z</time></trkpt><trkpt lat="42.6261975" lon="12.3559946"><ele>721.4000000000001</ele><time>2026-04-03T14:03:16.486Z</time></trkpt><trkpt lat="42.626184" lon="12.3559087"><ele>724.0</ele><time>2026-04-03T14:03:17.491Z</time></trkpt><trkpt lat="42.6261707" lon="12.3557553"><ele>724.0</ele><time>2026-04-03T14:03:19.497Z</time></trkpt><trkpt lat="42.6261736" lon="12.3556034"><ele>724.0</ele><time>2026-04-03T14:03:21.493Z</time></trkpt><trkpt lat="42.6261689" lon="12.3555148"><ele>724.0</ele><time>2026-04-03T14:03:22.492Z</time></trkpt><trkpt lat="42.6261582" lon="12.3554149"><ele>724.0</ele><time>2026-04-03T14:03:23.49Z</time></trkpt><trkpt lat="42.6261404" lon="12.3553113"><ele>724.0</ele><time>2026-04-03T14:03:24.505Z</time></trkpt><trkpt lat="42.6261213" lon="12.3552116"><ele>724.0</ele><time>2026-04-03T14:03:25.503Z</time></trkpt><trkpt lat="42.6261028" lon="12.3551186"><ele>723.2</ele><time>2026-04-03T14:03:26.496Z</time></trkpt><trkpt lat="42.626083" lon="12.354958"><ele>722.4000000000001</ele><time>2026-04-03T14:03:28.498Z</time></trkpt><trkpt lat="42.6261038" lon="12.3547769"><ele>721.6</ele><time>2026-04-03T14:03:30.484Z</time></trkpt><trkpt lat="42.6261115" lon="12.3546882"><ele>720.8</ele><time>2026-04-03T14:03:31.494Z</time></trkpt><trkpt lat="42.6261303" lon="12.354541"><ele>720.0</ele><time>2026-04-03T14:03:33.482Z</time></trkpt><trkpt lat="42.6261441" lon="12.3544073"><ele>720.0</ele><time>2026-04-03T14:03:35.489Z</time></trkpt><trkpt lat="42.626129" lon="12.354262"><ele>720.0</ele><time>2026-04-03T14:03:37.5Z</time></trkpt><trkpt lat="42.6261244" lon="12.3541028"><ele>720.0</ele><time>2026-04-03T14:03:39.503Z</time></trkpt><trkpt lat="42.626157" lon="12.3539677"><ele>720.0</ele><time>2026-04-03T14:03:41.494Z</time></trkpt><trkpt lat="42.6262076" lon="12.3538092"><ele>720.6666666666666</ele><time>2026-04-03T14:03:43.494Z</time></trkpt><trkpt lat="42.6262335" lon="12.3537277"><ele>721.3333333333334</ele><time>2026-04-03T14:03:44.49Z</time></trkpt><trkpt lat="42.6262573" lon="12.3536337"><ele>722.0</ele><time>2026-04-03T14:03:45.475Z</time></trkpt><trkpt lat="42.6262716" lon="12.3535221"><ele>722.6666666666667</ele><time>2026-04-03T14:03:46.483Z</time></trkpt><trkpt lat="42.6262858" lon="12.3533942"><ele>723.3333333333334</ele><time>2026-04-03T14:03:47.49Z</time></trkpt><trkpt lat="42.6263147" lon="12.3532948"><ele>724.0</ele><time>2026-04-03T14:03:48.501Z</time></trkpt><trkpt lat="42.6263414" lon="12.3532072"><ele>724.0</ele><time>2026-04-03T14:03:49.494Z</time></trkpt><trkpt lat="42.6263643" lon="12.3531189"><ele>724.0</ele><time>2026-04-03T14:03:50.482Z</time></trkpt><trkpt lat="42.62639" lon="12.3530353"><ele>724.0</ele><time>2026-04-03T14:03:51.504Z</time></trkpt><trkpt lat="42.6264456" lon="12.3528746"><ele>724.0</ele><time>2026-04-03T14:03:53.503Z</time></trkpt><trkpt lat="42.626473" lon="12.3527739"><ele>724.0</ele><time>2026-04-03T14:03:54.494Z</time></trkpt><trkpt lat="42.6264913" lon="12.3526728"><ele>724.0</ele><time>2026-04-03T14:03:55.484Z</time></trkpt><trkpt lat="42.6265151" lon="12.3525858"><ele>722.2</ele><time>2026-04-03T14:03:56.493Z</time></trkpt><trkpt lat="42.6265869" lon="12.3524445"><ele>720.4000000000001</ele><time>2026-04-03T14:03:58.501Z</time></trkpt><trkpt lat="42.6266382" lon="12.3523752"><ele>718.6</ele><time>2026-04-03T14:03:59.489Z</time></trkpt><trkpt lat="42.6266896" lon="12.3522973"><ele>716.8</ele><time>2026-04-03T14:04:00.497Z</time></trkpt><trkpt lat="42.6267337" lon="12.3522237"><ele>715.0</ele><time>2026-04-03T14:04:01.503Z</time></trkpt><trkpt lat="42.6268164" lon="12.3521183"><ele>713.3333333333334</ele><time>2026-04-03T14:04:03.501Z</time></trkpt><trkpt lat="42.6269066" lon="12.3520114"><ele>711.6666666666667</ele><time>2026-04-03T14:04:05.496Z</time></trkpt><trkpt lat="42.6269522" lon="12.3519515"><ele>710.0</ele><time>2026-04-03T14:04:06.496Z</time></trkpt><trkpt lat="42.6269973" lon="12.3518913"><ele>708.3333333333334</ele><time>2026-04-03T14:04:07.492Z</time></trkpt><trkpt lat="42.6270404" lon="12.3518227"><ele>706.6666666666666</ele><time>2026-04-03T14:04:08.502Z</time></trkpt><trkpt lat="42.6270868" lon="12.3517547"><ele>705.0</ele><time>2026-04-03T14:04:09.496Z</time></trkpt><trkpt lat="42.6271327" lon="12.3516816"><ele>704.9999999999999</ele><time>2026-04-03T14:04:10.499Z</time></trkpt><trkpt lat="42.6271798" lon="12.3516061"><ele>705.0</ele><time>2026-04-03T14:04:11.506Z</time></trkpt><trkpt lat="42.6272241" lon="12.3515357"><ele>705.0</ele><time>2026-04-03T14:04:12.503Z</time></trkpt><trkpt lat="42.6272721" lon="12.3514703"><ele>705.0</ele><time>2026-04-03T14:04:13.505Z</time></trkpt><trkpt lat="42.6273198" lon="12.3514084"><ele>705.0</ele><time>2026-04-03T14:04:14.503Z</time></trkpt><trkpt lat="42.6273642" lon="12.3513473"><ele>704.9999999999999</ele><time>2026-04-03T14:04:15.506Z</time></trkpt><trkpt lat="42.6274078" lon="12.3512855"><ele>705.0</ele><time>2026-04-03T14:04:16.5Z</time></trkpt><trkpt lat="42.6274925" lon="12.3511724"><ele>703.5</ele><time>2026-04-03T14:04:18.499Z</time></trkpt><trkpt lat="42.6275761" lon="12.3510575"><ele>702.0</ele><time>2026-04-03T14:04:20.505Z</time></trkpt><trkpt lat="42.627622" lon="12.3509904"><ele>700.5</ele><time>2026-04-03T14:04:21.51Z</time></trkpt><trkpt lat="42.6276812" lon="12.3509187"><ele>699.0</ele><time>2026-04-03T14:04:22.496Z</time></trkpt><trkpt lat="42.6277447" lon="12.3508574"><ele>697.5</ele><time>2026-04-03T14:04:23.509Z</time></trkpt><trkpt lat="42.6278144" lon="12.3508037"><ele>696.0</ele><time>2026-04-03T14:04:24.495Z</time></trkpt><trkpt lat="42.6278805" lon="12.3507546"><ele>696.0</ele><time>2026-04-03T14:04:25.511Z</time></trkpt><trkpt lat="42.627939" lon="12.3507033"><ele>696.0</ele><time>2026-04-03T14:04:26.5Z</time></trkpt><trkpt lat="42.6279941" lon="12.3506435"><ele>696.0</ele><time>2026-04-03T14:04:27.504Z</time></trkpt><trkpt lat="42.6280402" lon="12.3505736"><ele>696.0</ele><time>2026-04-03T14:04:28.509Z</time></trkpt><trkpt lat="42.6280792" lon="12.3505055"><ele>696.0</ele><time>2026-04-03T14:04:29.512Z</time></trkpt><trkpt lat="42.6281221" lon="12.3503632"><ele>696.0</ele><time>2026-04-03T14:04:31.483Z</time></trkpt><trkpt lat="42.6281345" lon="12.3502263"><ele>694.5999999999999</ele><time>2026-04-03T14:04:33.511Z</time></trkpt><trkpt lat="42.6281168" lon="12.350096"><ele>693.2</ele><time>2026-04-03T14:04:35.507Z</time></trkpt><trkpt lat="42.6280541" lon="12.3499318"><ele>691.8</ele><time>2026-04-03T14:04:37.509Z</time></trkpt><trkpt lat="42.6280191" lon="12.3498344"><ele>690.4000000000001</ele><time>2026-04-03T14:04:38.494Z</time></trkpt><trkpt lat="42.6279843" lon="12.3497329"><ele>689.0</ele><time>2026-04-03T14:04:39.51Z</time></trkpt><trkpt lat="42.627943" lon="12.3496317"><ele>689.0</ele><time>2026-04-03T14:04:40.502Z</time></trkpt><trkpt lat="42.6278927" lon="12.3495346"><ele>689.0</ele><time>2026-04-03T14:04:41.498Z</time></trkpt><trkpt lat="42.627833" lon="12.3494474"><ele>689.0</ele><time>2026-04-03T14:04:42.495Z</time></trkpt><trkpt lat="42.6277606" lon="12.3493555"><ele>689.0</ele><time>2026-04-03T14:04:43.514Z</time></trkpt><trkpt lat="42.6276764" lon="12.3492606"><ele>689.0</ele><time>2026-04-03T14:04:44.503Z</time></trkpt><trkpt lat="42.6276031" lon="12.3491563"><ele>690.1666666666666</ele><time>2026-04-03T14:04:45.5Z</time></trkpt><trkpt lat="42.6275366" lon="12.3490724"><ele>691.3333333333333</ele><time>2026-04-03T14:04:46.483Z</time></trkpt><trkpt lat="42.627477" lon="12.3490109"><ele>692.5</ele><time>2026-04-03T14:04:47.501Z</time></trkpt><trkpt lat="42.6274161" lon="12.3489441"><ele>693.6666666666666</ele><time>2026-04-03T14:04:49.499Z</time></trkpt><trkpt lat="42.6274064" lon="12.3488165"><ele>694.8333333333334</ele><time>2026-04-03T14:04:52.487Z</time></trkpt><trkpt lat="42.627447" lon="12.3487486"><ele>696.0</ele><time>2026-04-03T14:04:54.493Z</time></trkpt><trkpt lat="42.6275382" lon="12.3487316"><ele>695.5999999999999</ele><time>2026-04-03T14:04:56.495Z</time></trkpt><trkpt lat="42.6276422" lon="12.3487026"><ele>695.2</ele><time>2026-04-03T14:04:58.503Z</time></trkpt><trkpt lat="42.6277466" lon="12.3486534"><ele>694.8</ele><time>2026-04-03T14:05:00.486Z</time></trkpt><trkpt lat="42.6278237" lon="12.3485592"><ele>694.4000000000001</ele><time>2026-04-03T14:05:02.488Z</time></trkpt><trkpt lat="42.6278172" lon="12.3484104"><ele>694.0</ele><time>2026-04-03T14:05:04.49Z</time></trkpt><trkpt lat="42.6277817" lon="12.3483365"><ele>696.3333333333334</ele><time>2026-04-03T14:05:05.497Z</time></trkpt><trkpt lat="42.6277306" lon="12.3482707"><ele>698.6666666666667</ele><time>2026-04-03T14:05:06.482Z</time></trkpt><trkpt lat="42.6276684" lon="12.3482192"><ele>701.0</ele><time>2026-04-03T14:05:07.478Z</time></trkpt><trkpt lat="42.62759" lon="12.3481676"><ele>703.3333333333334</ele><time>2026-04-03T14:05:08.488Z</time></trkpt><trkpt lat="42.627509" lon="12.3481047"><ele>705.6666666666666</ele><time>2026-04-03T14:05:09.507Z</time></trkpt><trkpt lat="42.6274274" lon="12.348045"><ele>708.0</ele><time>2026-04-03T14:05:10.506Z</time></trkpt><trkpt lat="42.627341" lon="12.3479743"><ele>709.5999999999999</ele><time>2026-04-03T14:05:11.483Z</time></trkpt><trkpt lat="42.6272489" lon="12.3478959"><ele>711.1999999999999</ele><time>2026-04-03T14:05:12.509Z</time></trkpt><trkpt lat="42.6271624" lon="12.3478131"><ele>712.8</ele><time>2026-04-03T14:05:13.508Z</time></trkpt><trkpt lat="42.6270812" lon="12.347718"><ele>714.4</ele><time>2026-04-03T14:05:14.506Z</time></trkpt><trkpt lat="42.6269991" lon="12.3476188"><ele>716.0</ele><time>2026-04-03T14:05:15.498Z</time></trkpt><trkpt lat="42.6269182" lon="12.3475036"><ele>716.4</ele><time>2026-04-03T14:05:16.491Z</time></trkpt><trkpt lat="42.6268473" lon="12.3473723"><ele>716.8</ele><time>2026-04-03T14:05:17.492Z</time></trkpt><trkpt lat="42.6267764" lon="12.3472567"><ele>717.1999999999999</ele><time>2026-04-03T14:05:18.494Z</time></trkpt><trkpt lat="42.626731" lon="12.347158"><ele>717.5999999999999</ele><time>2026-04-03T14:05:19.499Z</time></trkpt><trkpt lat="42.6267" lon="12.3470614"><ele>718.0</ele><time>2026-04-03T14:05:20.489Z</time></trkpt><trkpt lat="42.6266728" lon="12.3469592"><ele>719.8</ele><time>2026-04-03T14:05:21.49Z</time></trkpt><trkpt lat="42.626665" lon="12.3468534"><ele>721.5999999999999</ele><time>2026-04-03T14:05:22.492Z</time></trkpt><trkpt lat="42.62668" lon="12.3467536"><ele>723.4000000000001</ele><time>2026-04-03T14:05:23.499Z</time></trkpt><trkpt lat="42.6267236" lon="12.3466474"><ele>725.2</ele><time>2026-04-03T14:05:24.491Z</time></trkpt><trkpt lat="42.6267854" lon="12.3465185"><ele>727.0</ele><time>2026-04-03T14:05:25.493Z</time></trkpt><trkpt lat="42.6268498" lon="12.3464067"><ele>727.6666666666667</ele><time>2026-04-03T14:05:26.491Z</time></trkpt><trkpt lat="42.6268968" lon="12.3462985"><ele>728.3333333333334</ele><time>2026-04-03T14:05:27.488Z</time></trkpt><trkpt lat="42.6269214" lon="12.3461845"><ele>729.0</ele><time>2026-04-03T14:05:28.492Z</time></trkpt><trkpt lat="42.6269298" lon="12.3460671"><ele>729.6666666666666</ele><time>2026-04-03T14:05:29.493Z</time></trkpt><trkpt lat="42.6269206" lon="12.3459683"><ele>730.3333333333333</ele><time>2026-04-03T14:05:30.507Z</time></trkpt><trkpt lat="42.6268984" lon="12.3458853"><ele>731.0</ele><time>2026-04-03T14:05:31.502Z</time></trkpt><trkpt lat="42.6268276" lon="12.3457583"><ele>731.0</ele><time>2026-04-03T14:05:33.499Z</time></trkpt><trkpt lat="42.6267366" lon="12.3456432"><ele>731.0</ele><time>2026-04-03T14:05:35.509Z</time></trkpt><trkpt lat="42.6266842" lon="12.3455712"><ele>731.0</ele><time>2026-04-03T14:05:36.51Z</time></trkpt><trkpt lat="42.6266319" lon="12.3454987"><ele>731.0</ele><time>2026-04-03T14:05:37.501Z</time></trkpt><trkpt lat="42.6265654" lon="12.3454172"><ele>731.0</ele><time>2026-04-03T14:05:38.498Z</time></trkpt><trkpt lat="42.6264951" lon="12.3453199"><ele>730.1666666666666</ele><time>2026-04-03T14:05:39.504Z</time></trkpt><trkpt lat="42.6264235" lon="12.3452298"><ele>729.3333333333333</ele><time>2026-04-03T14:05:40.5Z</time></trkpt><trkpt lat="42.6263518" lon="12.3451541"><ele>728.5</ele><time>2026-04-03T14:05:41.511Z</time></trkpt><trkpt lat="42.6262809" lon="12.3450877"><ele>727.6666666666666</ele><time>2026-04-03T14:05:42.5Z</time></trkpt><trkpt lat="42.6262078" lon="12.3450319"><ele>726.8333333333334</ele><time>2026-04-03T14:05:43.511Z</time></trkpt><trkpt lat="42.6261328" lon="12.344982"><ele>726.0</ele><time>2026-04-03T14:05:44.499Z</time></trkpt><trkpt lat="42.6260593" lon="12.3449356"><ele>726.0</ele><time>2026-04-03T14:05:45.498Z</time></trkpt><trkpt lat="42.6259871" lon="12.3448909"><ele>726.0</ele><time>2026-04-03T14:05:46.503Z</time></trkpt><trkpt lat="42.6259181" lon="12.3448553"><ele>726.0</ele><time>2026-04-03T14:05:47.485Z</time></trkpt><trkpt lat="42.6258525" lon="12.3448206"><ele>726.0</ele><time>2026-04-03T14:05:48.507Z</time></trkpt><trkpt lat="42.6257788" lon="12.3447875"><ele>726.0</ele><time>2026-04-03T14:05:49.508Z</time></trkpt><trkpt lat="42.6256971" lon="12.3447595"><ele>726.0</ele><time>2026-04-03T14:05:50.485Z</time></trkpt><trkpt lat="42.6256142" lon="12.3447415"><ele>726.0</ele><time>2026-04-03T14:05:51.498Z</time></trkpt><trkpt lat="42.6255357" lon="12.3447313"><ele>726.0</ele><time>2026-04-03T14:05:52.502Z</time></trkpt><trkpt lat="42.625458" lon="12.3447294"><ele>726.0</ele><time>2026-04-03T14:05:53.503Z</time></trkpt><trkpt lat="42.6253761" lon="12.3447345"><ele>726.0</ele><time>2026-04-03T14:05:54.496Z</time></trkpt><trkpt lat="42.6252863" lon="12.3447496"><ele>726.0</ele><time>2026-04-03T14:05:55.501Z</time></trkpt><trkpt lat="42.6251921" lon="12.344775"><ele>726.0</ele><time>2026-04-03T14:05:56.489Z</time></trkpt><trkpt lat="42.6250878" lon="12.3448115"><ele>724.25</ele><time>2026-04-03T14:05:57.506Z</time></trkpt><trkpt lat="42.6249733" lon="12.3448708"><ele>722.5</ele><time>2026-04-03T14:05:58.487Z</time></trkpt><trkpt lat="42.6248577" lon="12.3449326"><ele>720.75</ele><time>2026-04-03T14:05:59.493Z</time></trkpt><trkpt lat="42.6247556" lon="12.3449874"><ele>719.0</ele><time>2026-04-03T14:06:00.502Z</time></trkpt><trkpt lat="42.6246629" lon="12.3450349"><ele>719.0</ele><time>2026-04-03T14:06:01.5Z</time></trkpt><trkpt lat="42.6245742" lon="12.3450772"><ele>719.0</ele><time>2026-04-03T14:06:02.496Z</time></trkpt><trkpt lat="42.6244896" lon="12.345116"><ele>719.0</ele><time>2026-04-03T14:06:03.499Z</time></trkpt><trkpt lat="42.6244068" lon="12.3451508"><ele>719.0</ele><time>2026-04-03T14:06:04.499Z</time></trkpt><trkpt lat="42.6243178" lon="12.345179"><ele>719.0</ele><time>2026-04-03T14:06:05.505Z</time></trkpt><trkpt lat="42.6242274" lon="12.3452105"><ele>716.4000000000001</ele><time>2026-04-03T14:06:06.502Z</time></trkpt><trkpt lat="42.6241406" lon="12.3452352"><ele>713.8</ele><time>2026-04-03T14:06:07.502Z</time></trkpt><trkpt lat="42.624048" lon="12.3452425"><ele>711.2</ele><time>2026-04-03T14:06:08.496Z</time></trkpt><trkpt lat="42.6239478" lon="12.3452345"><ele>708.5999999999999</ele><time>2026-04-03T14:06:09.5Z</time></trkpt><trkpt lat="42.6238508" lon="12.3452187"><ele>706.0</ele><time>2026-04-03T14:06:10.5Z</time></trkpt><trkpt lat="42.6237651" lon="12.3451992"><ele>706.0</ele><time>2026-04-03T14:06:11.483Z</time></trkpt><trkpt lat="42.6236862" lon="12.3451818"><ele>706.0</ele><time>2026-04-03T14:06:12.479Z</time></trkpt><trkpt lat="42.6236064" lon="12.3451656"><ele>706.0</ele><time>2026-04-03T14:06:13.505Z</time></trkpt><trkpt lat="42.6235311" lon="12.3451544"><ele>706.0</ele><time>2026-04-03T14:06:14.475Z</time></trkpt><trkpt lat="42.6234642" lon="12.3451459"><ele>706.0</ele><time>2026-04-03T14:06:15.502Z</time></trkpt><trkpt lat="42.6233563" lon="12.3451274"><ele>706.0</ele><time>2026-04-03T14:06:17.477Z</time></trkpt><trkpt lat="42.6232697" lon="12.3450819"><ele>706.25</ele><time>2026-04-03T14:06:19.5Z</time></trkpt><trkpt lat="42.6232226" lon="12.3449869"><ele>706.5</ele><time>2026-04-03T14:06:21.499Z</time></trkpt><trkpt lat="42.6232228" lon="12.3448591"><ele>706.75</ele><time>2026-04-03T14:06:23.484Z</time></trkpt><trkpt lat="42.6232438" lon="12.3447134"><ele>707.0</ele><time>2026-04-03T14:06:25.491Z</time></trkpt><trkpt lat="42.6232715" lon="12.3444709"><ele>704.4000000000001</ele><time>2026-04-03T14:06:28.49Z</time></trkpt><trkpt lat="42.6232719" lon="12.3443818"><ele>701.8000000000001</ele><time>2026-04-03T14:06:29.497Z</time></trkpt><trkpt lat="42.6232676" lon="12.3442764"><ele>699.2</ele><time>2026-04-03T14:06:30.497Z</time></trkpt><trkpt lat="42.6232616" lon="12.3441477"><ele>696.6</ele><time>2026-04-03T14:06:31.491Z</time></trkpt><trkpt lat="42.6232579" lon="12.3440069"><ele>694.0</ele><time>2026-04-03T14:06:32.487Z</time></trkpt><trkpt lat="42.6232509" lon="12.3438595"><ele>692.0</ele><time>2026-04-03T14:06:33.486Z</time></trkpt><trkpt lat="42.6232419" lon="12.3437074"><ele>690.0</ele><time>2026-04-03T14:06:34.492Z</time></trkpt><trkpt lat="42.623235" lon="12.3435515"><ele>688.0</ele><time>2026-04-03T14:06:35.498Z</time></trkpt><trkpt lat="42.6232302" lon="12.3433924"><ele>686.0</ele><time>2026-04-03T14:06:36.489Z</time></trkpt><trkpt lat="42.6232342" lon="12.3432216"><ele>685.5999999999999</ele><time>2026-04-03T14:06:37.486Z</time></trkpt><trkpt lat="42.6232552" lon="12.3430471"><ele>685.2</ele><time>2026-04-03T14:06:38.496Z</time></trkpt><trkpt lat="42.6232773" lon="12.3428792"><ele>684.8</ele><time>2026-04-03T14:06:39.493Z</time></trkpt><trkpt lat="42.6233008" lon="12.3427401"><ele>684.4000000000001</ele><time>2026-04-03T14:06:40.492Z</time></trkpt><trkpt lat="42.6233167" lon="12.3426231"><ele>684.0</ele><time>2026-04-03T14:06:41.497Z</time></trkpt><trkpt lat="42.6233291" lon="12.3425226"><ele>684.0</ele><time>2026-04-03T14:06:42.5Z</time></trkpt><trkpt lat="42.6233356" lon="12.342426"><ele>684.0</ele><time>2026-04-03T14:06:43.491Z</time></trkpt><trkpt lat="42.6233378" lon="12.3423123"><ele>684.0</ele><time>2026-04-03T14:06:44.495Z</time></trkpt><trkpt lat="42.6233353" lon="12.3421973"><ele>684.0</ele><time>2026-04-03T14:06:45.5Z</time></trkpt><trkpt lat="42.6233341" lon="12.3420765"><ele>684.0</ele><time>2026-04-03T14:06:46.488Z</time></trkpt><trkpt lat="42.6233322" lon="12.3419279"><ele>684.0</ele><time>2026-04-03T14:06:47.491Z</time></trkpt><trkpt lat="42.6233379" lon="12.3417687"><ele>683.2</ele><time>2026-04-03T14:06:48.492Z</time></trkpt><trkpt lat="42.6233438" lon="12.3416033"><ele>682.4000000000001</ele><time>2026-04-03T14:06:49.501Z</time></trkpt><trkpt lat="42.6233523" lon="12.3414485"><ele>681.6</ele><time>2026-04-03T14:06:50.492Z</time></trkpt><trkpt lat="42.6233601" lon="12.3413116"><ele>680.8</ele><time>2026-04-03T14:06:51.481Z</time></trkpt><trkpt lat="42.623371" lon="12.3411919"><ele>680.0</ele><time>2026-04-03T14:06:52.496Z</time></trkpt><trkpt lat="42.623381" lon="12.3410816"><ele>678.3333333333333</ele><time>2026-04-03T14:06:53.496Z</time></trkpt><trkpt lat="42.6233924" lon="12.3409876"><ele>676.6666666666666</ele><time>2026-04-03T14:06:54.498Z</time></trkpt><trkpt lat="42.6234033" lon="12.340903"><ele>675.0</ele><time>2026-04-03T14:06:55.498Z</time></trkpt><trkpt lat="42.6234179" lon="12.3408196"><ele>673.3333333333334</ele><time>2026-04-03T14:06:56.489Z</time></trkpt><trkpt lat="42.6234284" lon="12.3406562"><ele>671.6666666666667</ele><time>2026-04-03T14:06:58.494Z</time></trkpt><trkpt lat="42.6234209" lon="12.3405585"><ele>670.0</ele><time>2026-04-03T14:06:59.487Z</time></trkpt><trkpt lat="42.623399" lon="12.3404677"><ele>665.25</ele><time>2026-04-03T14:07:00.488Z</time></trkpt><trkpt lat="42.6233407" lon="12.3403337"><ele>660.5</ele><time>2026-04-03T14:07:02.501Z</time></trkpt><trkpt lat="42.6232679" lon="12.3402165"><ele>655.75</ele><time>2026-04-03T14:07:04.484Z</time></trkpt><trkpt lat="42.6231768" lon="12.3401146"><ele>651.0</ele><time>2026-04-03T14:07:06.481Z</time></trkpt><trkpt lat="42.6230564" lon="12.3400217"><ele>651.0</ele><time>2026-04-03T14:07:08.48Z</time></trkpt><trkpt lat="42.6229953" lon="12.339972"><ele>651.0</ele><time>2026-04-03T14:07:09.491Z</time></trkpt><trkpt lat="42.6228926" lon="12.3398868"><ele>651.0</ele><time>2026-04-03T14:07:11.489Z</time></trkpt><trkpt lat="42.6228014" lon="12.3398163"><ele>651.0</ele><time>2026-04-03T14:07:13.477Z</time></trkpt><trkpt lat="42.6227123" lon="12.3397515"><ele>651.0</ele><time>2026-04-03T14:07:15.501Z</time></trkpt><trkpt lat="42.622611" lon="12.3397323"><ele>648.8333333333334</ele><time>2026-04-03T14:07:17.493Z</time></trkpt><trkpt lat="42.6224911" lon="12.3396776"><ele>646.6666666666666</ele><time>2026-04-03T14:07:19.479Z</time></trkpt><trkpt lat="42.6224228" lon="12.3396343"><ele>644.5</ele><time>2026-04-03T14:07:20.502Z</time></trkpt><trkpt lat="42.6223579" lon="12.3395958"><ele>642.3333333333333</ele><time>2026-04-03T14:07:21.484Z</time></trkpt><trkpt lat="42.6222974" lon="12.3395598"><ele>640.1666666666666</ele><time>2026-04-03T14:07:22.478Z</time></trkpt><trkpt lat="42.6222285" lon="12.3395233"><ele>638.0</ele><time>2026-04-03T14:07:23.484Z</time></trkpt><trkpt lat="42.6221531" lon="12.3394751"><ele>638.0</ele><time>2026-04-03T14:07:24.485Z</time></trkpt><trkpt lat="42.6220796" lon="12.3394325"><ele>638.0</ele><time>2026-04-03T14:07:25.478Z</time></trkpt><trkpt lat="42.6220063" lon="12.339378"><ele>638.0</ele><time>2026-04-03T14:07:26.478Z</time></trkpt><trkpt lat="42.6219297" lon="12.3393279"><ele>638.0</ele><time>2026-04-03T14:07:27.478Z</time></trkpt><trkpt lat="42.6218501" lon="12.3392809"><ele>638.0</ele><time>2026-04-03T14:07:28.475Z</time></trkpt><trkpt lat="42.6217691" lon="12.339227"><ele>638.0</ele><time>2026-04-03T14:07:29.483Z</time></trkpt><trkpt lat="42.6216873" lon="12.3391741"><ele>639.1666666666666</ele><time>2026-04-03T14:07:30.491Z</time></trkpt><trkpt lat="42.6216063" lon="12.3391325"><ele>640.3333333333333</ele><time>2026-04-03T14:07:31.478Z</time></trkpt><trkpt lat="42.6215304" lon="12.3390977"><ele>641.5</ele><time>2026-04-03T14:07:32.509Z</time></trkpt><trkpt lat="42.6214534" lon="12.339059"><ele>642.6666666666666</ele><time>2026-04-03T14:07:33.48Z</time></trkpt><trkpt lat="42.6213846" lon="12.3390213"><ele>643.8333333333334</ele><time>2026-04-03T14:07:34.489Z</time></trkpt><trkpt lat="42.6213176" lon="12.3389724"><ele>645.0</ele><time>2026-04-03T14:07:35.478Z</time></trkpt><trkpt lat="42.6212591" lon="12.338915"><ele>640.8333333333334</ele><time>2026-04-03T14:07:36.477Z</time></trkpt><trkpt lat="42.6211977" lon="12.3388692"><ele>636.6666666666666</ele><time>2026-04-03T14:07:37.489Z</time></trkpt><trkpt lat="42.6211332" lon="12.3388363"><ele>632.5</ele><time>2026-04-03T14:07:38.48Z</time></trkpt><trkpt lat="42.6210117" lon="12.3387851"><ele>628.3333333333333</ele><time>2026-04-03T14:07:40.488Z</time></trkpt><trkpt lat="42.6209428" lon="12.3387674"><ele>624.1666666666666</ele><time>2026-04-03T14:07:41.486Z</time></trkpt><trkpt lat="42.6208736" lon="12.3387505"><ele>620.0</ele><time>2026-04-03T14:07:42.491Z</time></trkpt><trkpt lat="42.6207593" lon="12.3387544"><ele>620.0</ele><time>2026-04-03T14:07:44.484Z</time></trkpt><trkpt lat="42.6206966" lon="12.3387804"><ele>620.0</ele><time>2026-04-03T14:07:45.487Z</time></trkpt><trkpt lat="42.6206256" lon="12.3388144"><ele>620.0</ele><time>2026-04-03T14:07:46.486Z</time></trkpt><trkpt lat="42.6205427" lon="12.3388558"><ele>620.0</ele><time>2026-04-03T14:07:47.486Z</time></trkpt><trkpt lat="42.6204605" lon="12.3389077"><ele>620.0</ele><time>2026-04-03T14:07:48.49Z</time></trkpt><trkpt lat="42.6203781" lon="12.3389573"><ele>620.0</ele><time>2026-04-03T14:07:49.486Z</time></trkpt><trkpt lat="42.6202965" lon="12.3390039"><ele>621.6</ele><time>2026-04-03T14:07:50.486Z</time></trkpt><trkpt lat="42.6202146" lon="12.3390519"><ele>623.2</ele><time>2026-04-03T14:07:51.48Z</time></trkpt><trkpt lat="42.6201167" lon="12.3391059"><ele>624.8</ele><time>2026-04-03T14:07:52.483Z</time></trkpt><trkpt lat="42.62002" lon="12.3391623"><ele>626.4</ele><time>2026-04-03T14:07:53.48Z</time></trkpt><trkpt lat="42.6199238" lon="12.3392136"><ele>628.0</ele><time>2026-04-03T14:07:54.482Z</time></trkpt><trkpt lat="42.6198285" lon="12.3392591"><ele>628.0</ele><time>2026-04-03T14:07:55.477Z</time></trkpt><trkpt lat="42.6197281" lon="12.3393098"><ele>628.0</ele><time>2026-04-03T14:07:56.478Z</time></trkpt><trkpt lat="42.6196267" lon="12.3393597"><ele>628.0</ele><time>2026-04-03T14:07:57.477Z</time></trkpt><trkpt lat="42.6195264" lon="12.3394078"><ele>628.0</ele><time>2026-04-03T14:07:58.476Z</time></trkpt><trkpt lat="42.6194187" lon="12.33945"><ele>628.0</ele><time>2026-04-03T14:07:59.476Z</time></trkpt><trkpt lat="42.6193128" lon="12.3394795"><ele>626.4</ele><time>2026-04-03T14:08:00.48Z</time></trkpt><trkpt lat="42.6192189" lon="12.3394923"><ele>624.8</ele><time>2026-04-03T14:08:01.473Z</time></trkpt><trkpt lat="42.619139" lon="12.3394946"><ele>623.2</ele><time>2026-04-03T14:08:02.493Z</time></trkpt><trkpt lat="42.6190485" lon="12.3394724"><ele>621.6</ele><time>2026-04-03T14:08:03.484Z</time></trkpt><trkpt lat="42.6189479" lon="12.3394462"><ele>620.0</ele><time>2026-04-03T14:08:04.479Z</time></trkpt><trkpt lat="42.6188438" lon="12.3394061"><ele>620.0</ele><time>2026-04-03T14:08:05.477Z</time></trkpt><trkpt lat="42.6187435" lon="12.3393663"><ele>620.0</ele><time>2026-04-03T14:08:06.478Z</time></trkpt><trkpt lat="42.6186504" lon="12.3393417"><ele>620.0</ele><time>2026-04-03T14:08:07.477Z</time></trkpt><trkpt lat="42.6185594" lon="12.3393297"><ele>620.0</ele><time>2026-04-03T14:08:08.483Z</time></trkpt><trkpt lat="42.6184715" lon="12.3393152"><ele>620.0</ele><time>2026-04-03T14:08:09.484Z</time></trkpt><trkpt lat="42.6183826" lon="12.3393131"><ele>618.8333333333333</ele><time>2026-04-03T14:08:10.476Z</time></trkpt><trkpt lat="42.6182948" lon="12.3393234"><ele>617.6666666666666</ele><time>2026-04-03T14:08:11.479Z</time></trkpt><trkpt lat="42.6182079" lon="12.3393469"><ele>616.5</ele><time>2026-04-03T14:08:12.484Z</time></trkpt><trkpt lat="42.6181248" lon="12.3393793"><ele>615.3333333333334</ele><time>2026-04-03T14:08:13.477Z</time></trkpt><trkpt lat="42.6180417" lon="12.3394152"><ele>614.1666666666667</ele><time>2026-04-03T14:08:14.474Z</time></trkpt><trkpt lat="42.617955" lon="12.339452"><ele>613.0</ele><time>2026-04-03T14:08:15.479Z</time></trkpt><trkpt lat="42.6178684" lon="12.3394946"><ele>612.2857142857143</ele><time>2026-04-03T14:08:16.475Z</time></trkpt><trkpt lat="42.6177887" lon="12.3395276"><ele>611.5714285714286</ele><time>2026-04-03T14:08:17.475Z</time></trkpt><trkpt lat="42.6177114" lon="12.3395513"><ele>610.8571428571429</ele><time>2026-04-03T14:08:18.479Z</time></trkpt><trkpt lat="42.617637" lon="12.3395674"><ele>610.1428571428571</ele><time>2026-04-03T14:08:19.48Z</time></trkpt><trkpt lat="42.6175699" lon="12.3395773"><ele>609.4285714285714</ele><time>2026-04-03T14:08:20.481Z</time></trkpt><trkpt lat="42.617504" lon="12.3395951"><ele>608.7142857142857</ele><time>2026-04-03T14:08:21.481Z</time></trkpt><trkpt lat="42.617432" lon="12.3396245"><ele>608.0</ele><time>2026-04-03T14:08:22.488Z</time></trkpt><trkpt lat="42.617353" lon="12.3396519"><ele>608.0</ele><time>2026-04-03T14:08:23.481Z</time></trkpt><trkpt lat="42.6172755" lon="12.3396806"><ele>608.0</ele><time>2026-04-03T14:08:24.499Z</time></trkpt><trkpt lat="42.6172082" lon="12.3397032"><ele>608.0</ele><time>2026-04-03T14:08:25.489Z</time></trkpt><trkpt lat="42.6170914" lon="12.339711"><ele>608.0</ele><time>2026-04-03T14:08:27.491Z</time></trkpt><trkpt lat="42.6169991" lon="12.3396648"><ele>608.0</ele><time>2026-04-03T14:08:29.483Z</time></trkpt><trkpt lat="42.616944" lon="12.3395476"><ele>609.5</ele><time>2026-04-03T14:08:31.501Z</time></trkpt><trkpt lat="42.616934" lon="12.339455"><ele>611.0</ele><time>2026-04-03T14:08:32.494Z</time></trkpt><trkpt lat="42.6169388" lon="12.3393411"><ele>612.5</ele><time>2026-04-03T14:08:33.491Z</time></trkpt><trkpt lat="42.6169422" lon="12.3392185"><ele>614.0</ele><time>2026-04-03T14:08:34.489Z</time></trkpt><trkpt lat="42.6169322" lon="12.3390896"><ele>615.5</ele><time>2026-04-03T14:08:35.489Z</time></trkpt><trkpt lat="42.6169121" lon="12.3389493"><ele>617.0</ele><time>2026-04-03T14:08:36.495Z</time></trkpt><trkpt lat="42.6168914" lon="12.3388122"><ele>617.0</ele><time>2026-04-03T14:08:37.489Z</time></trkpt><trkpt lat="42.6168591" lon="12.3386842"><ele>617.0</ele><time>2026-04-03T14:08:38.499Z</time></trkpt><trkpt lat="42.6168207" lon="12.3385442"><ele>617.0</ele><time>2026-04-03T14:08:39.492Z</time></trkpt><trkpt lat="42.6167912" lon="12.338383"><ele>617.0</ele><time>2026-04-03T14:08:40.495Z</time></trkpt><trkpt lat="42.6167663" lon="12.3382069"><ele>616.25</ele><time>2026-04-03T14:08:41.49Z</time></trkpt><trkpt lat="42.6167538" lon="12.338034"><ele>615.5</ele><time>2026-04-03T14:08:42.498Z</time></trkpt><trkpt lat="42.6167456" lon="12.3378731"><ele>614.75</ele><time>2026-04-03T14:08:43.483Z</time></trkpt><trkpt lat="42.6167419" lon="12.3377272"><ele>614.0</ele><time>2026-04-03T14:08:44.491Z</time></trkpt><trkpt lat="42.6167298" lon="12.3375872"><ele>614.0</ele><time>2026-04-03T14:08:45.498Z</time></trkpt><trkpt lat="42.616717" lon="12.3374476"><ele>614.0</ele><time>2026-04-03T14:08:46.499Z</time></trkpt><trkpt lat="42.6167021" lon="12.3373026"><ele>614.0</ele><time>2026-04-03T14:08:47.489Z</time></trkpt><trkpt lat="42.6166873" lon="12.3371547"><ele>614.0</ele><time>2026-04-03T14:08:48.499Z</time></trkpt><trkpt lat="42.6166781" lon="12.3370165"><ele>614.0</ele><time>2026-04-03T14:08:49.499Z</time></trkpt><trkpt lat="42.6166715" lon="12.336906"><ele>614.1428571428571</ele><time>2026-04-03T14:08:50.503Z</time></trkpt><trkpt lat="42.6166643" lon="12.3368165"><ele>614.2857142857142</ele><time>2026-04-03T14:08:51.505Z</time></trkpt><trkpt lat="42.6166876" lon="12.3367215"><ele>614.4285714285713</ele><time>2026-04-03T14:08:53.497Z</time></trkpt><trkpt lat="42.6166216" lon="12.336735"><ele>614.5714285714286</ele><time>2026-04-03T14:08:57.498Z</time></trkpt><trkpt lat="42.6166288" lon="12.3368339"><ele>614.7142857142858</ele><time>2026-04-03T14:08:59.488Z</time></trkpt><trkpt lat="42.6166233" lon="12.3369524"><ele>614.8571428571428</ele><time>2026-04-03T14:09:01.51Z</time></trkpt><trkpt lat="42.6166203" lon="12.3370536"><ele>615.0</ele><time>2026-04-03T14:09:03.493Z</time></trkpt><trkpt lat="42.6166692" lon="12.337146"><ele>615.0</ele><time>2026-04-03T14:09:05.502Z</time></trkpt><trkpt lat="42.6167462" lon="12.3371981"><ele>615.0</ele><time>2026-04-03T14:09:07.512Z</time></trkpt><trkpt lat="42.616828" lon="12.3372402"><ele>615.0</ele><time>2026-04-03T14:09:09.495Z</time></trkpt><trkpt lat="42.6169019" lon="12.33732"><ele>615.0</ele><time>2026-04-03T14:09:11.497Z</time></trkpt><trkpt lat="42.6169473" lon="12.3374389"><ele>615.0</ele><time>2026-04-03T14:09:13.497Z</time></trkpt><trkpt lat="42.6169681" lon="12.3375675"><ele>614.8</ele><time>2026-04-03T14:09:15.51Z</time></trkpt><trkpt lat="42.6169611" lon="12.3377249"><ele>614.6</ele><time>2026-04-03T14:09:17.491Z</time></trkpt><trkpt lat="42.6169625" lon="12.3378399"><ele>614.4</ele><time>2026-04-03T14:09:18.499Z</time></trkpt><trkpt lat="42.6169693" lon="12.3379652"><ele>614.2</ele><time>2026-04-03T14:09:19.477Z</time></trkpt><trkpt lat="42.6169848" lon="12.3380839"><ele>614.0</ele><time>2026-04-03T14:09:20.481Z</time></trkpt><trkpt lat="42.6170038" lon="12.3381955"><ele>611.0</ele><time>2026-04-03T14:09:21.49Z</time></trkpt><trkpt lat="42.6170284" lon="12.3383098"><ele>608.0</ele><time>2026-04-03T14:09:22.495Z</time></trkpt><trkpt lat="42.6170626" lon="12.3384302"><ele>605.0</ele><time>2026-04-03T14:09:23.493Z</time></trkpt><trkpt lat="42.6170963" lon="12.3385481"><ele>602.0</ele><time>2026-04-03T14:09:24.496Z</time></trkpt><trkpt lat="42.6171359" lon="12.3386541"><ele>599.0</ele><time>2026-04-03T14:09:25.489Z</time></trkpt><trkpt lat="42.6171776" lon="12.3387401"><ele>596.0</ele><time>2026-04-03T14:09:26.498Z</time></trkpt><trkpt lat="42.6172252" lon="12.3388165"><ele>596.0</ele><time>2026-04-03T14:09:27.494Z</time></trkpt><trkpt lat="42.6172776" lon="12.3388749"><ele>596.0</ele><time>2026-04-03T14:09:28.487Z</time></trkpt><trkpt lat="42.617338" lon="12.3389145"><ele>596.0</ele><time>2026-04-03T14:09:29.491Z</time></trkpt><trkpt lat="42.617419" lon="12.338914"><ele>596.0</ele><time>2026-04-03T14:09:30.498Z</time></trkpt><trkpt lat="42.6175203" lon="12.338858"><ele>596.0</ele><time>2026-04-03T14:09:31.492Z</time></trkpt><trkpt lat="42.6176267" lon="12.3387997"><ele>596.0</ele><time>2026-04-03T14:09:32.488Z</time></trkpt><trkpt lat="42.6177295" lon="12.3387538"><ele>595.0</ele><time>2026-04-03T14:09:33.494Z</time></trkpt><trkpt lat="42.6178251" lon="12.338712"><ele>594.0</ele><time>2026-04-03T14:09:34.482Z</time></trkpt><trkpt lat="42.6179085" lon="12.3386801"><ele>593.0</ele><time>2026-04-03T14:09:35.494Z</time></trkpt><trkpt lat="42.6179907" lon="12.3386454"><ele>592.0</ele><time>2026-04-03T14:09:36.487Z</time></trkpt><trkpt lat="42.6180665" lon="12.3386252"><ele>591.0</ele><time>2026-04-03T14:09:37.48Z</time></trkpt><trkpt lat="42.6181416" lon="12.3386006"><ele>590.0</ele><time>2026-04-03T14:09:38.49Z</time></trkpt><trkpt lat="42.6182175" lon="12.3385842"><ele>590.0</ele><time>2026-04-03T14:09:39.489Z</time></trkpt><trkpt lat="42.6182969" lon="12.3385586"><ele>590.0</ele><time>2026-04-03T14:09:40.49Z</time></trkpt><trkpt lat="42.6183969" lon="12.3385269"><ele>590.0</ele><time>2026-04-03T14:09:41.485Z</time></trkpt><trkpt lat="42.6184901" lon="12.338507"><ele>590.0</ele><time>2026-04-03T14:09:42.49Z</time></trkpt><trkpt lat="42.6185797" lon="12.3384822"><ele>590.0</ele><time>2026-04-03T14:09:43.486Z</time></trkpt><trkpt lat="42.6186645" lon="12.3384564"><ele>590.3333333333333</ele><time>2026-04-03T14:09:44.497Z</time></trkpt><trkpt lat="42.6187379" lon="12.3384411"><ele>590.6666666666666</ele><time>2026-04-03T14:09:45.486Z</time></trkpt><trkpt lat="42.6188018" lon="12.3384249"><ele>591.0</ele><time>2026-04-03T14:09:46.488Z</time></trkpt><trkpt lat="42.6188667" lon="12.3384037"><ele>591.3333333333334</ele><time>2026-04-03T14:09:47.483Z</time></trkpt><trkpt lat="42.6189738" lon="12.3383223"><ele>591.6666666666667</ele><time>2026-04-03T14:09:49.494Z</time></trkpt><trkpt lat="42.619012" lon="12.3382531"><ele>592.0</ele><time>2026-04-03T14:09:50.497Z</time></trkpt><trkpt lat="42.6190312" lon="12.3381713"><ele>589.0</ele><time>2026-04-03T14:09:51.486Z</time></trkpt><trkpt lat="42.6190186" lon="12.3380483"><ele>586.0</ele><time>2026-04-03T14:09:53.495Z</time></trkpt><trkpt lat="42.6189472" lon="12.337963"><ele>583.0</ele><time>2026-04-03T14:09:55.49Z</time></trkpt><trkpt lat="42.6188856" lon="12.3379423"><ele>580.0</ele><time>2026-04-03T14:09:56.488Z</time></trkpt><trkpt lat="42.6188184" lon="12.3379304"><ele>577.0</ele><time>2026-04-03T14:09:57.489Z</time></trkpt><trkpt lat="42.6187475" lon="12.3379093"><ele>574.0</ele><time>2026-04-03T14:09:58.49Z</time></trkpt><trkpt lat="42.6186602" lon="12.3378661"><ele>574.2</ele><time>2026-04-03T14:09:59.489Z</time></trkpt><trkpt lat="42.6185644" lon="12.3378104"><ele>574.4</ele><time>2026-04-03T14:10:00.491Z</time></trkpt><trkpt lat="42.6184714" lon="12.3377516"><ele>574.6</ele><time>2026-04-03T14:10:01.488Z</time></trkpt><trkpt lat="42.6183753" lon="12.3377002"><ele>574.8</ele><time>2026-04-03T14:10:02.497Z</time></trkpt><trkpt lat="42.6182931" lon="12.3376592"><ele>575.0</ele><time>2026-04-03T14:10:03.488Z</time></trkpt><trkpt lat="42.6182272" lon="12.3376272"><ele>575.0</ele><time>2026-04-03T14:10:04.492Z</time></trkpt><trkpt lat="42.6181265" lon="12.3375464"><ele>575.0</ele><time>2026-04-03T14:10:06.497Z</time></trkpt><trkpt lat="42.6180681" lon="12.3374236"><ele>575.0</ele><time>2026-04-03T14:10:08.497Z</time></trkpt><trkpt lat="42.6180896" lon="12.3373052"><ele>575.0</ele><time>2026-04-03T14:10:10.493Z</time></trkpt><trkpt lat="42.6182017" lon="12.3372224"><ele>575.0</ele><time>2026-04-03T14:10:12.496Z</time></trkpt><trkpt lat="42.6182625" lon="12.337191"><ele>574.6666666666666</ele><time>2026-04-03T14:10:13.487Z</time></trkpt><trkpt lat="42.6183293" lon="12.3371597"><ele>574.3333333333333</ele><time>2026-04-03T14:10:14.488Z</time></trkpt><trkpt lat="42.6183978" lon="12.3371239"><ele>574.0</ele><time>2026-04-03T14:10:15.489Z</time></trkpt><trkpt lat="42.6184619" lon="12.3370732"><ele>573.6666666666666</ele><time>2026-04-03T14:10:16.487Z</time></trkpt><trkpt lat="42.6185271" lon="12.3370125"><ele>573.3333333333334</ele><time>2026-04-03T14:10:17.493Z</time></trkpt><trkpt lat="42.6185986" lon="12.3369471"><ele>573.0</ele><time>2026-04-03T14:10:18.487Z</time></trkpt><trkpt lat="42.6186701" lon="12.336874"><ele>570.8</ele><time>2026-04-03T14:10:19.496Z</time></trkpt><trkpt lat="42.6187535" lon="12.3367983"><ele>568.5999999999999</ele><time>2026-04-03T14:10:20.49Z</time></trkpt><trkpt lat="42.6188308" lon="12.3367278"><ele>566.4000000000001</ele><time>2026-04-03T14:10:21.49Z</time></trkpt><trkpt lat="42.6189073" lon="12.3366531"><ele>564.2</ele><time>2026-04-03T14:10:22.493Z</time></trkpt><trkpt lat="42.6189808" lon="12.3365598"><ele>562.0</ele><time>2026-04-03T14:10:23.498Z</time></trkpt><trkpt lat="42.6190574" lon="12.3364611"><ele>561.6</ele><time>2026-04-03T14:10:24.498Z</time></trkpt><trkpt lat="42.6191338" lon="12.3363648"><ele>561.2</ele><time>2026-04-03T14:10:25.493Z</time></trkpt><trkpt lat="42.6192093" lon="12.3362749"><ele>560.8</ele><time>2026-04-03T14:10:26.492Z</time></trkpt><trkpt lat="42.6192839" lon="12.336186"><ele>560.4</ele><time>2026-04-03T14:10:27.493Z</time></trkpt><trkpt lat="42.61936" lon="12.3360973"><ele>560.0</ele><time>2026-04-03T14:10:28.492Z</time></trkpt><trkpt lat="42.6194284" lon="12.3360017"><ele>558.0</ele><time>2026-04-03T14:10:29.489Z</time></trkpt><trkpt lat="42.6194938" lon="12.3359037"><ele>556.0</ele><time>2026-04-03T14:10:30.491Z</time></trkpt><trkpt lat="42.6195664" lon="12.3358006"><ele>554.0</ele><time>2026-04-03T14:10:31.492Z</time></trkpt><trkpt lat="42.6196389" lon="12.3357063"><ele>552.0</ele><time>2026-04-03T14:10:32.496Z</time></trkpt><trkpt lat="42.6197146" lon="12.335613"><ele>550.0</ele><time>2026-04-03T14:10:33.507Z</time></trkpt><trkpt lat="42.6197976" lon="12.3355119"><ele>549.0</ele><time>2026-04-03T14:10:34.488Z</time></trkpt><trkpt lat="42.6198783" lon="12.3354086"><ele>548.0</ele><time>2026-04-03T14:10:35.495Z</time></trkpt><trkpt lat="42.6199611" lon="12.3352871"><ele>547.0</ele><time>2026-04-03T14:10:36.488Z</time></trkpt><trkpt lat="42.6200414" lon="12.3351476"><ele>546.0</ele><time>2026-04-03T14:10:37.49Z</time></trkpt><trkpt lat="42.6201125" lon="12.3350304"><ele>546.0</ele><time>2026-04-03T14:10:38.491Z</time></trkpt><trkpt lat="42.6201787" lon="12.3349332"><ele>546.0</ele><time>2026-04-03T14:10:39.49Z</time></trkpt><trkpt lat="42.6202381" lon="12.3348515"><ele>546.0</ele><time>2026-04-03T14:10:40.503Z</time></trkpt><trkpt lat="42.6203007" lon="12.3347881"><ele>546.0</ele><time>2026-04-03T14:10:41.496Z</time></trkpt><trkpt lat="42.6203693" lon="12.3347325"><ele>546.0</ele><time>2026-04-03T14:10:42.496Z</time></trkpt><trkpt lat="42.6204364" lon="12.3346645"><ele>546.0</ele><time>2026-04-03T14:10:43.493Z</time></trkpt><trkpt lat="42.6205169" lon="12.3345762"><ele>542.0</ele><time>2026-04-03T14:10:44.494Z</time></trkpt><trkpt lat="42.6206144" lon="12.3344656"><ele>538.0</ele><time>2026-04-03T14:10:45.497Z</time></trkpt><trkpt lat="42.6207058" lon="12.3343512"><ele>534.0</ele><time>2026-04-03T14:10:46.49Z</time></trkpt><trkpt lat="42.620789" lon="12.3342408"><ele>530.0</ele><time>2026-04-03T14:10:47.489Z</time></trkpt><trkpt lat="42.6208688" lon="12.3341324"><ele>530.0</ele><time>2026-04-03T14:10:48.5Z</time></trkpt><trkpt lat="42.6209416" lon="12.3340522"><ele>530.0</ele><time>2026-04-03T14:10:49.488Z</time></trkpt><trkpt lat="42.6210045" lon="12.3339876"><ele>530.0</ele><time>2026-04-03T14:10:50.491Z</time></trkpt><trkpt lat="42.6210626" lon="12.3339236"><ele>530.0</ele><time>2026-04-03T14:10:51.491Z</time></trkpt><trkpt lat="42.6211187" lon="12.333861"><ele>530.0</ele><time>2026-04-03T14:10:52.491Z</time></trkpt><trkpt lat="42.6211744" lon="12.3338039"><ele>530.0</ele><time>2026-04-03T14:10:53.491Z</time></trkpt><trkpt lat="42.621232" lon="12.3337537"><ele>525.5</ele><time>2026-04-03T14:10:54.5Z</time></trkpt><trkpt lat="42.6213372" lon="12.3336746"><ele>521.0</ele><time>2026-04-03T14:10:56.49Z</time></trkpt><trkpt lat="42.6214471" lon="12.3336338"><ele>516.5</ele><time>2026-04-03T14:10:58.5Z</time></trkpt><trkpt lat="42.6215559" lon="12.3336023"><ele>512.0</ele><time>2026-04-03T14:11:00.478Z</time></trkpt><trkpt lat="42.621663" lon="12.3335515"><ele>512.0</ele><time>2026-04-03T14:11:02.501Z</time></trkpt><trkpt lat="42.6217208" lon="12.3334986"><ele>512.0</ele><time>2026-04-03T14:11:03.473Z</time></trkpt><trkpt lat="42.6217773" lon="12.3334376"><ele>512.0</ele><time>2026-04-03T14:11:04.479Z</time></trkpt><trkpt lat="42.6218278" lon="12.3333824"><ele>512.0</ele><time>2026-04-03T14:11:05.489Z</time></trkpt><trkpt lat="42.6219161" lon="12.3332851"><ele>512.0</ele><time>2026-04-03T14:11:07.48Z</time></trkpt><trkpt lat="42.6220164" lon="12.3331673"><ele>512.1666666666666</ele><time>2026-04-03T14:11:09.487Z</time></trkpt><trkpt lat="42.6220738" lon="12.3330894"><ele>512.3333333333333</ele><time>2026-04-03T14:11:10.503Z</time></trkpt><trkpt lat="42.6221254" lon="12.3330004"><ele>512.5</ele><time>2026-04-03T14:11:11.498Z</time></trkpt><trkpt lat="42.6221575" lon="12.3329166"><ele>512.6666666666666</ele><time>2026-04-03T14:11:12.501Z</time></trkpt><trkpt lat="42.6222256" lon="12.3327759"><ele>512.8333333333334</ele><time>2026-04-03T14:11:14.503Z</time></trkpt><trkpt lat="42.6222715" lon="12.3327124"><ele>513.0</ele><time>2026-04-03T14:11:15.502Z</time></trkpt><trkpt lat="42.6223213" lon="12.3326482"><ele>511.79999999999995</ele><time>2026-04-03T14:11:16.5Z</time></trkpt><trkpt lat="42.6223665" lon="12.3325627"><ele>510.59999999999997</ele><time>2026-04-03T14:11:17.474Z</time></trkpt><trkpt lat="42.6224114" lon="12.3324679"><ele>509.40000000000003</ele><time>2026-04-03T14:11:18.503Z</time></trkpt><trkpt lat="42.6224731" lon="12.3323664"><ele>508.20000000000005</ele><time>2026-04-03T14:11:19.478Z</time></trkpt><trkpt lat="42.6225457" lon="12.3322524"><ele>507.0</ele><time>2026-04-03T14:11:20.498Z</time></trkpt><trkpt lat="42.6226115" lon="12.3321452"><ele>506.5</ele><time>2026-04-03T14:11:21.494Z</time></trkpt><trkpt lat="42.6226705" lon="12.3320556"><ele>506.0</ele><time>2026-04-03T14:11:22.506Z</time></trkpt><trkpt lat="42.6227293" lon="12.3319736"><ele>505.5</ele><time>2026-04-03T14:11:23.491Z</time></trkpt><trkpt lat="42.622786" lon="12.3318944"><ele>505.0</ele><time>2026-04-03T14:11:24.494Z</time></trkpt><trkpt lat="42.6228348" lon="12.3318149"><ele>504.5</ele><time>2026-04-03T14:11:25.489Z</time></trkpt><trkpt lat="42.6228843" lon="12.3317383"><ele>504.0</ele><time>2026-04-03T14:11:26.49Z</time></trkpt><trkpt lat="42.6229305" lon="12.3316477"><ele>505.1666666666667</ele><time>2026-04-03T14:11:27.499Z</time></trkpt><trkpt lat="42.6229713" lon="12.3315638"><ele>506.33333333333337</ele><time>2026-04-03T14:11:28.487Z</time></trkpt><trkpt lat="42.6230062" lon="12.3314822"><ele>507.5</ele><time>2026-04-03T14:11:29.492Z</time></trkpt><trkpt lat="42.6230381" lon="12.331396"><ele>508.6666666666667</ele><time>2026-04-03T14:11:30.497Z</time></trkpt><trkpt lat="42.6230602" lon="12.3313016"><ele>509.83333333333337</ele><time>2026-04-03T14:11:31.508Z</time></trkpt><trkpt lat="42.6230782" lon="12.3311961"><ele>511.0</ele><time>2026-04-03T14:11:32.502Z</time></trkpt><trkpt lat="42.6231003" lon="12.3310862"><ele>511.0</ele><time>2026-04-03T14:11:33.499Z</time></trkpt><trkpt lat="42.6231273" lon="12.3309735"><ele>511.0</ele><time>2026-04-03T14:11:34.501Z</time></trkpt><trkpt lat="42.6231436" lon="12.3308467"><ele>511.0</ele><time>2026-04-03T14:11:35.504Z</time></trkpt><trkpt lat="42.6231618" lon="12.3307354"><ele>511.0</ele><time>2026-04-03T14:11:36.499Z</time></trkpt><trkpt lat="42.62318" lon="12.3306395"><ele>511.0</ele><time>2026-04-03T14:11:37.505Z</time></trkpt><trkpt lat="42.6231848" lon="12.330481"><ele>511.4</ele><time>2026-04-03T14:11:39.502Z</time></trkpt><trkpt lat="42.6231408" lon="12.3303235"><ele>511.8</ele><time>2026-04-03T14:11:41.493Z</time></trkpt><trkpt lat="42.6231013" lon="12.3302402"><ele>512.1999999999999</ele><time>2026-04-03T14:11:42.495Z</time></trkpt><trkpt lat="42.6230387" lon="12.3301305"><ele>512.6</ele><time>2026-04-03T14:11:43.493Z</time></trkpt><trkpt lat="42.6229666" lon="12.330019"><ele>513.0</ele><time>2026-04-03T14:11:44.487Z</time></trkpt><trkpt lat="42.6229001" lon="12.3299014"><ele>513.0</ele><time>2026-04-03T14:11:45.496Z</time></trkpt><trkpt lat="42.6228425" lon="12.3297818"><ele>513.0</ele><time>2026-04-03T14:11:46.505Z</time></trkpt><trkpt lat="42.622797" lon="12.3296645"><ele>513.0</ele><time>2026-04-03T14:11:47.503Z</time></trkpt><trkpt lat="42.6227654" lon="12.3295573"><ele>513.0</ele><time>2026-04-03T14:11:48.5Z</time></trkpt><trkpt lat="42.6227387" lon="12.3294489"><ele>513.0</ele><time>2026-04-03T14:11:49.505Z</time></trkpt><trkpt lat="42.622719" lon="12.3293456"><ele>509.8333333333333</ele><time>2026-04-03T14:11:50.496Z</time></trkpt><trkpt lat="42.6227099" lon="12.3292466"><ele>506.66666666666663</ele><time>2026-04-03T14:11:51.504Z</time></trkpt><trkpt lat="42.6226921" lon="12.3291497"><ele>503.5</ele><time>2026-04-03T14:11:52.494Z</time></trkpt><trkpt lat="42.6226603" lon="12.3290488"><ele>500.3333333333333</ele><time>2026-04-03T14:11:53.495Z</time></trkpt><trkpt lat="42.6226197" lon="12.3289394"><ele>497.16666666666663</ele><time>2026-04-03T14:11:54.493Z</time></trkpt><trkpt lat="42.6225665" lon="12.3288288"><ele>494.0</ele><time>2026-04-03T14:11:55.495Z</time></trkpt><trkpt lat="42.6225102" lon="12.3287278"><ele>493.79999999999995</ele><time>2026-04-03T14:11:56.501Z</time></trkpt><trkpt lat="42.6224616" lon="12.3286203"><ele>493.59999999999997</ele><time>2026-04-03T14:11:57.5Z</time></trkpt><trkpt lat="42.6224235" lon="12.3284877"><ele>493.4</ele><time>2026-04-03T14:11:58.484Z</time></trkpt><trkpt lat="42.6223842" lon="12.3283543"><ele>493.2</ele><time>2026-04-03T14:11:59.502Z</time></trkpt><trkpt lat="42.622344" lon="12.3282215"><ele>493.0</ele><time>2026-04-03T14:12:00.492Z</time></trkpt><trkpt lat="42.6222945" lon="12.3281013"><ele>492.6666666666667</ele><time>2026-04-03T14:12:01.495Z</time></trkpt><trkpt lat="42.6222601" lon="12.3280002"><ele>492.33333333333337</ele><time>2026-04-03T14:12:02.494Z</time></trkpt><trkpt lat="42.6222371" lon="12.3279028"><ele>492.0</ele><time>2026-04-03T14:12:03.499Z</time></trkpt><trkpt lat="42.6222311" lon="12.3278091"><ele>491.66666666666663</ele><time>2026-04-03T14:12:04.506Z</time></trkpt><trkpt lat="42.6222326" lon="12.3277167"><ele>491.3333333333333</ele><time>2026-04-03T14:12:05.501Z</time></trkpt><trkpt lat="42.6222605" lon="12.3276148"><ele>491.0</ele><time>2026-04-03T14:12:06.494Z</time></trkpt><trkpt lat="42.6223112" lon="12.3275072"><ele>491.0</ele><time>2026-04-03T14:12:07.492Z</time></trkpt><trkpt lat="42.6223594" lon="12.3273861"><ele>491.0</ele><time>2026-04-03T14:12:08.491Z</time></trkpt><trkpt lat="42.6223937" lon="12.3272639"><ele>491.0</ele><time>2026-04-03T14:12:09.498Z</time></trkpt><trkpt lat="42.6224093" lon="12.3271445"><ele>491.0</ele><time>2026-04-03T14:12:10.502Z</time></trkpt><trkpt lat="42.6224178" lon="12.3270565"><ele>491.0</ele><time>2026-04-03T14:12:11.499Z</time></trkpt><trkpt lat="42.6224585" lon="12.3268882"><ele>489.0</ele><time>2026-04-03T14:12:13.508Z</time></trkpt><trkpt lat="42.6224921" lon="12.3267688"><ele>487.0</ele><time>2026-04-03T14:12:14.505Z</time></trkpt><trkpt lat="42.6225229" lon="12.3266258"><ele>485.0</ele><time>2026-04-03T14:12:15.507Z</time></trkpt><trkpt lat="42.622557" lon="12.3264879"><ele>483.0</ele><time>2026-04-03T14:12:16.503Z</time></trkpt><trkpt lat="42.6225903" lon="12.3263639"><ele>481.0</ele><time>2026-04-03T14:12:17.505Z</time></trkpt><trkpt lat="42.6226228" lon="12.3262525"><ele>481.8</ele><time>2026-04-03T14:12:18.493Z</time></trkpt><trkpt lat="42.6226487" lon="12.326153"><ele>482.6</ele><time>2026-04-03T14:12:19.506Z</time></trkpt><trkpt lat="42.6226767" lon="12.3260694"><ele>483.4</ele><time>2026-04-03T14:12:20.499Z</time></trkpt><trkpt lat="42.6227462" lon="12.3259418"><ele>484.2</ele><time>2026-04-03T14:12:22.488Z</time></trkpt><trkpt lat="42.622835" lon="12.3258101"><ele>485.0</ele><time>2026-04-03T14:12:24.5Z</time></trkpt><trkpt lat="42.6228802" lon="12.3257503"><ele>484.99999999999994</ele><time>2026-04-03T14:12:25.504Z</time></trkpt><trkpt lat="42.6229275" lon="12.3256895"><ele>485.0</ele><time>2026-04-03T14:12:26.49Z</time></trkpt><trkpt lat="42.622971" lon="12.3256172"><ele>485.0</ele><time>2026-04-03T14:12:27.488Z</time></trkpt><trkpt lat="42.6230153" lon="12.3255386"><ele>485.0</ele><time>2026-04-03T14:12:28.488Z</time></trkpt><trkpt lat="42.6230658" lon="12.3254512"><ele>484.99999999999994</ele><time>2026-04-03T14:12:29.487Z</time></trkpt><trkpt lat="42.623114" lon="12.325347"><ele>485.0</ele><time>2026-04-03T14:12:30.503Z</time></trkpt><trkpt lat="42.6231612" lon="12.3252351"><ele>481.8</ele><time>2026-04-03T14:12:31.497Z</time></trkpt><trkpt lat="42.6232019" lon="12.3251288"><ele>478.6</ele><time>2026-04-03T14:12:32.499Z</time></trkpt><trkpt lat="42.6232397" lon="12.3250157"><ele>475.4</ele><time>2026-04-03T14:12:33.493Z</time></trkpt><trkpt lat="42.6232881" lon="12.3249119"><ele>472.2</ele><time>2026-04-03T14:12:34.501Z</time></trkpt><trkpt lat="42.6233425" lon="12.3248021"><ele>469.0</ele><time>2026-04-03T14:12:35.491Z</time></trkpt><trkpt lat="42.6233987" lon="12.3246962"><ele>468.0</ele><time>2026-04-03T14:12:36.492Z</time></trkpt><trkpt lat="42.6234601" lon="12.3245923"><ele>467.0</ele><time>2026-04-03T14:12:37.492Z</time></trkpt><trkpt lat="42.623534" lon="12.3244859"><ele>466.0</ele><time>2026-04-03T14:12:38.5Z</time></trkpt><trkpt lat="42.6236142" lon="12.3243905"><ele>465.0</ele><time>2026-04-03T14:12:39.498Z</time></trkpt><trkpt lat="42.6236945" lon="12.3242995"><ele>464.0</ele><time>2026-04-03T14:12:40.486Z</time></trkpt><trkpt lat="42.6237657" lon="12.3242202"><ele>464.0</ele><time>2026-04-03T14:12:41.499Z</time></trkpt><trkpt lat="42.6238309" lon="12.3241478"><ele>464.0</ele><time>2026-04-03T14:12:42.503Z</time></trkpt><trkpt lat="42.6239113" lon="12.3240721"><ele>464.0</ele><time>2026-04-03T14:12:43.498Z</time></trkpt><trkpt lat="42.623991" lon="12.3239908"><ele>464.0</ele><time>2026-04-03T14:12:44.505Z</time></trkpt><trkpt lat="42.6240747" lon="12.3239047"><ele>464.0</ele><time>2026-04-03T14:12:45.503Z</time></trkpt><trkpt lat="42.624156" lon="12.3238103"><ele>461.6</ele><time>2026-04-03T14:12:46.492Z</time></trkpt><trkpt lat="42.6242361" lon="12.3237271"><ele>459.2</ele><time>2026-04-03T14:12:47.496Z</time></trkpt><trkpt lat="42.6243161" lon="12.3236335"><ele>456.80000000000007</ele><time>2026-04-03T14:12:48.504Z</time></trkpt><trkpt lat="42.6243893" lon="12.3235415"><ele>454.40000000000003</ele><time>2026-04-03T14:12:49.499Z</time></trkpt><trkpt lat="42.6244601" lon="12.3234522"><ele>452.0</ele><time>2026-04-03T14:12:50.498Z</time></trkpt><trkpt lat="42.6245379" lon="12.3233568"><ele>452.0</ele><time>2026-04-03T14:12:51.499Z</time></trkpt><trkpt lat="42.624621" lon="12.3232606"><ele>452.00000000000006</ele><time>2026-04-03T14:12:52.503Z</time></trkpt><trkpt lat="42.6247089" lon="12.3231615"><ele>452.00000000000006</ele><time>2026-04-03T14:12:53.503Z</time></trkpt><trkpt lat="42.6247908" lon="12.3230659"><ele>452.0</ele><time>2026-04-03T14:12:54.497Z</time></trkpt><trkpt lat="42.6248665" lon="12.3229714"><ele>452.0</ele><time>2026-04-03T14:12:55.506Z</time></trkpt><trkpt lat="42.6249417" lon="12.3228643"><ele>450.49999999999994</ele><time>2026-04-03T14:12:56.5Z</time></trkpt><trkpt lat="42.6250041" lon="12.3227432"><ele>449.0</ele><time>2026-04-03T14:12:57.504Z</time></trkpt><trkpt lat="42.6250604" lon="12.322638"><ele>447.5</ele><time>2026-04-03T14:12:58.482Z</time></trkpt><trkpt lat="42.6251115" lon="12.3225326"><ele>446.0</ele><time>2026-04-03T14:12:59.503Z</time></trkpt><trkpt lat="42.6251559" lon="12.3224455"><ele>444.49999999999994</ele><time>2026-04-03T14:13:00.495Z</time></trkpt><trkpt lat="42.6251954" lon="12.3223753"><ele>443.0</ele><time>2026-04-03T14:13:01.501Z</time></trkpt><trkpt lat="42.6252382" lon="12.3223104"><ele>442.99999999999994</ele><time>2026-04-03T14:13:02.494Z</time></trkpt><trkpt lat="42.6252792" lon="12.322238"><ele>443.0</ele><time>2026-04-03T14:13:03.505Z</time></trkpt><trkpt lat="42.6253322" lon="12.3221645"><ele>443.0</ele><time>2026-04-03T14:13:04.501Z</time></trkpt><trkpt lat="42.6253846" lon="12.3220862"><ele>443.0</ele><time>2026-04-03T14:13:05.497Z</time></trkpt><trkpt lat="42.6254337" lon="12.3219918"><ele>442.99999999999994</ele><time>2026-04-03T14:13:06.495Z</time></trkpt><trkpt lat="42.6254821" lon="12.321894"><ele>443.0</ele><time>2026-04-03T14:13:07.494Z</time></trkpt><trkpt lat="42.6255248" lon="12.3217906"><ele>442.25</ele><time>2026-04-03T14:13:08.506Z</time></trkpt><trkpt lat="42.6255551" lon="12.3216605"><ele>441.5</ele><time>2026-04-03T14:13:09.492Z</time></trkpt><trkpt lat="42.6255617" lon="12.3215039"><ele>440.75</ele><time>2026-04-03T14:13:10.504Z</time></trkpt><trkpt lat="42.6255586" lon="12.3213392"><ele>440.0</ele><time>2026-04-03T14:13:11.495Z</time></trkpt><trkpt lat="42.6255517" lon="12.3211796"><ele>438.6</ele><time>2026-04-03T14:13:12.485Z</time></trkpt><trkpt lat="42.6255493" lon="12.3210387"><ele>437.2</ele><time>2026-04-03T14:13:13.481Z</time></trkpt><trkpt lat="42.6255592" lon="12.32091"><ele>435.79999999999995</ele><time>2026-04-03T14:13:14.503Z</time></trkpt><trkpt lat="42.6255767" lon="12.3207813"><ele>434.4</ele><time>2026-04-03T14:13:15.504Z</time></trkpt><trkpt lat="42.6255989" lon="12.3206499"><ele>433.0</ele><time>2026-04-03T14:13:16.503Z</time></trkpt><trkpt lat="42.6256147" lon="12.3205294"><ele>432.50000000000006</ele><time>2026-04-03T14:13:17.496Z</time></trkpt><trkpt lat="42.6256292" lon="12.3204139"><ele>432.0</ele><time>2026-04-03T14:13:18.496Z</time></trkpt><trkpt lat="42.625636" lon="12.3202954"><ele>431.5</ele><time>2026-04-03T14:13:19.501Z</time></trkpt><trkpt lat="42.6256389" lon="12.3201883"><ele>431.0</ele><time>2026-04-03T14:13:20.493Z</time></trkpt><trkpt lat="42.6256362" lon="12.3200841"><ele>430.50000000000006</ele><time>2026-04-03T14:13:21.505Z</time></trkpt><trkpt lat="42.6256382" lon="12.3199844"><ele>430.0</ele><time>2026-04-03T14:13:22.506Z</time></trkpt><trkpt lat="42.6256415" lon="12.3198765"><ele>430.0</ele><time>2026-04-03T14:13:23.492Z</time></trkpt><trkpt lat="42.6256466" lon="12.3197726"><ele>430.0</ele><time>2026-04-03T14:13:24.494Z</time></trkpt><trkpt lat="42.6256485" lon="12.3196762"><ele>430.0</ele><time>2026-04-03T14:13:25.501Z</time></trkpt><trkpt lat="42.6256419" lon="12.3195849"><ele>430.0</ele><time>2026-04-03T14:13:26.499Z</time></trkpt><trkpt lat="42.6256237" lon="12.319492"><ele>430.0</ele><time>2026-04-03T14:13:27.504Z</time></trkpt><trkpt lat="42.6255971" lon="12.3193982"><ele>430.0</ele><time>2026-04-03T14:13:28.504Z</time></trkpt><trkpt lat="42.6255539" lon="12.3193034"><ele>430.0</ele><time>2026-04-03T14:13:29.494Z</time></trkpt><trkpt lat="42.6255023" lon="12.3191949"><ele>428.5</ele><time>2026-04-03T14:13:30.495Z</time></trkpt><trkpt lat="42.6254466" lon="12.3190755"><ele>427.0</ele><time>2026-04-03T14:13:31.495Z</time></trkpt><trkpt lat="42.625394" lon="12.3189418"><ele>425.5</ele><time>2026-04-03T14:13:32.499Z</time></trkpt><trkpt lat="42.6253398" lon="12.3187906"><ele>424.0</ele><time>2026-04-03T14:13:33.505Z</time></trkpt><trkpt lat="42.6252923" lon="12.3186351"><ele>422.79999999999995</ele><time>2026-04-03T14:13:34.507Z</time></trkpt><trkpt lat="42.6252498" lon="12.31851"><ele>421.59999999999997</ele><time>2026-04-03T14:13:35.488Z</time></trkpt><trkpt lat="42.6252179" lon="12.3183898"><ele>420.4</ele><time>2026-04-03T14:13:36.499Z</time></trkpt><trkpt lat="42.6251977" lon="12.3182729"><ele>419.2</ele><time>2026-04-03T14:13:37.505Z</time></trkpt><trkpt lat="42.6251972" lon="12.3181517"><ele>418.0</ele><time>2026-04-03T14:13:38.495Z</time></trkpt><trkpt lat="42.6252161" lon="12.3180156"><ele>418.0</ele><time>2026-04-03T14:13:39.507Z</time></trkpt><trkpt lat="42.6252458" lon="12.3178633"><ele>418.0</ele><time>2026-04-03T14:13:40.492Z</time></trkpt><trkpt lat="42.6252783" lon="12.3177042"><ele>418.0</ele><time>2026-04-03T14:13:41.504Z</time></trkpt><trkpt lat="42.6253224" lon="12.3175439"><ele>418.0</ele><time>2026-04-03T14:13:42.505Z</time></trkpt><trkpt lat="42.6253629" lon="12.3174011"><ele>417.79999999999995</ele><time>2026-04-03T14:13:43.507Z</time></trkpt><trkpt lat="42.6253966" lon="12.3172712"><ele>417.6</ele><time>2026-04-03T14:13:44.496Z</time></trkpt><trkpt lat="42.6254092" lon="12.3171384"><ele>417.4</ele><time>2026-04-03T14:13:45.479Z</time></trkpt><trkpt lat="42.6254013" lon="12.3169991"><ele>417.20000000000005</ele><time>2026-04-03T14:13:46.481Z</time></trkpt><trkpt lat="42.6253761" lon="12.3168714"><ele>417.0</ele><time>2026-04-03T14:13:47.507Z</time></trkpt><trkpt lat="42.6253448" lon="12.3167508"><ele>416.5</ele><time>2026-04-03T14:13:48.5Z</time></trkpt><trkpt lat="42.6253222" lon="12.3166345"><ele>416.0</ele><time>2026-04-03T14:13:49.496Z</time></trkpt><trkpt lat="42.6253144" lon="12.3165331"><ele>415.5</ele><time>2026-04-03T14:13:50.499Z</time></trkpt><trkpt lat="42.6253192" lon="12.3164395"><ele>415.0</ele><time>2026-04-03T14:13:51.508Z</time></trkpt><trkpt lat="42.625327" lon="12.3163544"><ele>414.5</ele><time>2026-04-03T14:13:52.501Z</time></trkpt><trkpt lat="42.6253431" lon="12.3162355"><ele>414.0</ele><time>2026-04-03T14:13:54.501Z</time></trkpt><trkpt lat="42.6253111" lon="12.3161124"><ele>414.0</ele><time>2026-04-03T14:13:57.498Z</time></trkpt><trkpt lat="42.6252524" lon="12.3160491"><ele>414.0</ele><time>2026-04-03T14:13:58.499Z</time></trkpt><trkpt lat="42.6251708" lon="12.3159922"><ele>414.0</ele><time>2026-04-03T14:13:59.488Z</time></trkpt><trkpt lat="42.6250755" lon="12.3159374"><ele>414.0</ele><time>2026-04-03T14:14:00.501Z</time></trkpt><trkpt lat="42.6249658" lon="12.3158804"><ele>414.0</ele><time>2026-04-03T14:14:01.504Z</time></trkpt><trkpt lat="42.6248498" lon="12.3158246"><ele>414.0</ele><time>2026-04-03T14:14:02.494Z</time></trkpt><trkpt lat="42.6247347" lon="12.3157713"><ele>414.0</ele><time>2026-04-03T14:14:03.492Z</time></trkpt><trkpt lat="42.6246254" lon="12.3157126"><ele>414.0</ele><time>2026-04-03T14:14:04.496Z</time></trkpt><trkpt lat="42.6245164" lon="12.3156389"><ele>414.0</ele><time>2026-04-03T14:14:05.499Z</time></trkpt><trkpt lat="42.6244074" lon="12.3155582"><ele>413.25</ele><time>2026-04-03T14:14:06.501Z</time></trkpt><trkpt lat="42.6243043" lon="12.3154747"><ele>412.5</ele><time>2026-04-03T14:14:07.5Z</time></trkpt><trkpt lat="42.6242065" lon="12.3153918"><ele>411.75</ele><time>2026-04-03T14:14:08.473Z</time></trkpt><trkpt lat="42.6241101" lon="12.3153131"><ele>411.0</ele><time>2026-04-03T14:14:09.491Z</time></trkpt><trkpt lat="42.6240125" lon="12.3152413"><ele>411.0</ele><time>2026-04-03T14:14:10.481Z</time></trkpt><trkpt lat="42.6239188" lon="12.3151696"><ele>411.0</ele><time>2026-04-03T14:14:11.5Z</time></trkpt><trkpt lat="42.6238301" lon="12.3150952"><ele>411.0</ele><time>2026-04-03T14:14:12.495Z</time></trkpt><trkpt lat="42.6237424" lon="12.3150204"><ele>411.0</ele><time>2026-04-03T14:14:13.493Z</time></trkpt><trkpt lat="42.6236535" lon="12.3149419"><ele>411.0</ele><time>2026-04-03T14:14:14.499Z</time></trkpt><trkpt lat="42.6235704" lon="12.314864"><ele>411.0</ele><time>2026-04-03T14:14:15.494Z</time></trkpt><trkpt lat="42.6234931" lon="12.3147863"><ele>411.0</ele><time>2026-04-03T14:14:16.504Z</time></trkpt><trkpt lat="42.6234246" lon="12.3147057"><ele>411.0</ele><time>2026-04-03T14:14:17.494Z</time></trkpt><trkpt lat="42.6233624" lon="12.3146194"><ele>411.0</ele><time>2026-04-03T14:14:18.499Z</time></trkpt><trkpt lat="42.6233069" lon="12.314522"><ele>411.0</ele><time>2026-04-03T14:14:19.482Z</time></trkpt><trkpt lat="42.6232536" lon="12.3144188"><ele>411.0</ele><time>2026-04-03T14:14:20.498Z</time></trkpt><trkpt lat="42.6232112" lon="12.3142984"><ele>411.0</ele><time>2026-04-03T14:14:21.503Z</time></trkpt><trkpt lat="42.6231765" lon="12.3141582"><ele>411.0</ele><time>2026-04-03T14:14:22.506Z</time></trkpt><trkpt lat="42.6231454" lon="12.3140221"><ele>411.0</ele><time>2026-04-03T14:14:23.499Z</time></trkpt><trkpt lat="42.6231251" lon="12.3138861"><ele>411.0</ele><time>2026-04-03T14:14:24.5Z</time></trkpt><trkpt lat="42.6231178" lon="12.3137509"><ele>410.8</ele><time>2026-04-03T14:14:25.502Z</time></trkpt><trkpt lat="42.6231121" lon="12.3136008"><ele>410.6</ele><time>2026-04-03T14:14:26.502Z</time></trkpt><trkpt lat="42.623108" lon="12.3134484"><ele>410.4</ele><time>2026-04-03T14:14:27.486Z</time></trkpt><trkpt lat="42.6231013" lon="12.3133036"><ele>410.2</ele><time>2026-04-03T14:14:28.498Z</time></trkpt><trkpt lat="42.6230923" lon="12.3131637"><ele>410.0</ele><time>2026-04-03T14:14:29.487Z</time></trkpt><trkpt lat="42.6230752" lon="12.3130258"><ele>410.0</ele><time>2026-04-03T14:14:30.488Z</time></trkpt><trkpt lat="42.623048" lon="12.3128999"><ele>410.0</ele><time>2026-04-03T14:14:31.501Z</time></trkpt><trkpt lat="42.6230016" lon="12.3127779"><ele>410.0</ele><time>2026-04-03T14:14:32.498Z</time></trkpt><trkpt lat="42.6229384" lon="12.3126596"><ele>410.0</ele><time>2026-04-03T14:14:33.502Z</time></trkpt><trkpt lat="42.6228478" lon="12.3125496"><ele>410.0</ele><time>2026-04-03T14:14:34.494Z</time></trkpt><trkpt lat="42.6227367" lon="12.3124543"><ele>409.0</ele><time>2026-04-03T14:14:35.492Z</time></trkpt><trkpt lat="42.622623" lon="12.3123828"><ele>408.0</ele><time>2026-04-03T14:14:36.498Z</time></trkpt><trkpt lat="42.622503" lon="12.3123141"><ele>407.0</ele><time>2026-04-03T14:14:37.499Z</time></trkpt><trkpt lat="42.6223717" lon="12.3122328"><ele>406.0</ele><time>2026-04-03T14:14:38.492Z</time></trkpt><trkpt lat="42.6222373" lon="12.3121417"><ele>406.33333333333337</ele><time>2026-04-03T14:14:39.498Z</time></trkpt><trkpt lat="42.6220992" lon="12.3120437"><ele>406.66666666666663</ele><time>2026-04-03T14:14:40.497Z</time></trkpt><trkpt lat="42.6219614" lon="12.3119449"><ele>407.0</ele><time>2026-04-03T14:14:41.494Z</time></trkpt><trkpt lat="42.6218193" lon="12.3118425"><ele>407.0</ele><time>2026-04-03T14:14:42.498Z</time></trkpt><trkpt lat="42.6216748" lon="12.3117363"><ele>407.0</ele><time>2026-04-03T14:14:43.495Z</time></trkpt><trkpt lat="42.6215338" lon="12.3116382"><ele>407.0</ele><time>2026-04-03T14:14:44.498Z</time></trkpt><trkpt lat="42.6214013" lon="12.3115497"><ele>407.0</ele><time>2026-04-03T14:14:45.491Z</time></trkpt><trkpt lat="42.621276" lon="12.3114705"><ele>407.0</ele><time>2026-04-03T14:14:46.483Z</time></trkpt><trkpt lat="42.6211462" lon="12.3113884"><ele>407.0</ele><time>2026-04-03T14:14:47.484Z</time></trkpt><trkpt lat="42.6210132" lon="12.3113098"><ele>407.0</ele><time>2026-04-03T14:14:48.477Z</time></trkpt><trkpt lat="42.6208887" lon="12.3112366"><ele>408.75</ele><time>2026-04-03T14:14:49.479Z</time></trkpt><trkpt lat="42.6207717" lon="12.3111696"><ele>410.5</ele><time>2026-04-03T14:14:50.479Z</time></trkpt><trkpt lat="42.6206589" lon="12.3111036"><ele>412.25</ele><time>2026-04-03T14:14:51.477Z</time></trkpt><trkpt lat="42.6205487" lon="12.3110287"><ele>414.0</ele><time>2026-04-03T14:14:52.483Z</time></trkpt><trkpt lat="42.6204478" lon="12.3109461"><ele>414.0</ele><time>2026-04-03T14:14:53.478Z</time></trkpt><trkpt lat="42.620357" lon="12.310835"><ele>414.0</ele><time>2026-04-03T14:14:54.473Z</time></trkpt><trkpt lat="42.6202787" lon="12.310696"><ele>414.0</ele><time>2026-04-03T14:14:55.491Z</time></trkpt><trkpt lat="42.6202156" lon="12.310526"><ele>414.0</ele><time>2026-04-03T14:14:56.478Z</time></trkpt><trkpt lat="42.6201594" lon="12.3103463"><ele>410.66666666666663</ele><time>2026-04-03T14:14:57.482Z</time></trkpt><trkpt lat="42.6201055" lon="12.3101482"><ele>407.3333333333333</ele><time>2026-04-03T14:14:58.478Z</time></trkpt><trkpt lat="42.620054" lon="12.3099419"><ele>404.0</ele><time>2026-04-03T14:14:59.493Z</time></trkpt><trkpt lat="42.620007" lon="12.3097352"><ele>404.0</ele><time>2026-04-03T14:15:00.495Z</time></trkpt><trkpt lat="42.6199623" lon="12.3095417"><ele>404.0</ele><time>2026-04-03T14:15:01.477Z</time></trkpt><trkpt lat="42.6199267" lon="12.3093646"><ele>404.0</ele><time>2026-04-03T14:15:02.493Z</time></trkpt><trkpt lat="42.6198982" lon="12.3091976"><ele>404.0</ele><time>2026-04-03T14:15:03.479Z</time></trkpt><trkpt lat="42.61988" lon="12.3090338"><ele>403.4</ele><time>2026-04-03T14:15:04.497Z</time></trkpt><trkpt lat="42.6198792" lon="12.3088716"><ele>402.79999999999995</ele><time>2026-04-03T14:15:05.482Z</time></trkpt><trkpt lat="42.6198912" lon="12.3087214"><ele>402.20000000000005</ele><time>2026-04-03T14:15:06.49Z</time></trkpt><trkpt lat="42.6199009" lon="12.3085855"><ele>401.6</ele><time>2026-04-03T14:15:07.493Z</time></trkpt><trkpt lat="42.6199128" lon="12.3084679"><ele>401.0</ele><time>2026-04-03T14:15:08.499Z</time></trkpt><trkpt lat="42.6199233" lon="12.3083669"><ele>400.99999999999994</ele><time>2026-04-03T14:15:09.489Z</time></trkpt><trkpt lat="42.6199355" lon="12.308282"><ele>401.0</ele><time>2026-04-03T14:15:10.494Z</time></trkpt><trkpt lat="42.619941" lon="12.3081661"><ele>401.0</ele><time>2026-04-03T14:15:12.492Z</time></trkpt><trkpt lat="42.6198757" lon="12.3081285"><ele>401.0</ele><time>2026-04-03T14:15:14.498Z</time></trkpt><trkpt lat="42.6198148" lon="12.3081689"><ele>400.99999999999994</ele><time>2026-04-03T14:15:15.498Z</time></trkpt><trkpt lat="42.6197429" lon="12.3082418"><ele>401.0</ele><time>2026-04-03T14:15:16.498Z</time></trkpt><trkpt lat="42.6196557" lon="12.3083412"><ele>401.0</ele><time>2026-04-03T14:15:17.499Z</time></trkpt><trkpt lat="42.619536" lon="12.3084346"><ele>401.0</ele><time>2026-04-03T14:15:18.503Z</time></trkpt><trkpt lat="42.6194033" lon="12.3085073"><ele>401.0</ele><time>2026-04-03T14:15:19.503Z</time></trkpt><trkpt lat="42.6192628" lon="12.3085604"><ele>401.0</ele><time>2026-04-03T14:15:20.497Z</time></trkpt><trkpt lat="42.6191184" lon="12.3085679"><ele>400.5</ele><time>2026-04-03T14:15:21.507Z</time></trkpt><trkpt lat="42.6189806" lon="12.3085461"><ele>400.0</ele><time>2026-04-03T14:15:22.504Z</time></trkpt><trkpt lat="42.6188396" lon="12.3084882"><ele>399.5</ele><time>2026-04-03T14:15:23.506Z</time></trkpt><trkpt lat="42.6187019" lon="12.3083956"><ele>399.0</ele><time>2026-04-03T14:15:24.505Z</time></trkpt><trkpt lat="42.6185654" lon="12.3082838"><ele>399.0</ele><time>2026-04-03T14:15:25.507Z</time></trkpt><trkpt lat="42.6184506" lon="12.3081727"><ele>399.0</ele><time>2026-04-03T14:15:26.509Z</time></trkpt><trkpt lat="42.6183379" lon="12.308059"><ele>399.0</ele><time>2026-04-03T14:15:27.498Z</time></trkpt><trkpt lat="42.6182308" lon="12.307946"><ele>399.0</ele><time>2026-04-03T14:15:28.507Z</time></trkpt><trkpt lat="42.6181211" lon="12.3078334"><ele>399.5</ele><time>2026-04-03T14:15:29.506Z</time></trkpt><trkpt lat="42.6180096" lon="12.3077302"><ele>400.0</ele><time>2026-04-03T14:15:30.501Z</time></trkpt><trkpt lat="42.6179043" lon="12.3076329"><ele>400.5</ele><time>2026-04-03T14:15:31.507Z</time></trkpt><trkpt lat="42.6178" lon="12.3075331"><ele>401.0</ele><time>2026-04-03T14:15:32.506Z</time></trkpt><trkpt lat="42.6176917" lon="12.3074325"><ele>401.0</ele><time>2026-04-03T14:15:33.507Z</time></trkpt><trkpt lat="42.6175754" lon="12.3073337"><ele>401.0</ele><time>2026-04-03T14:15:34.502Z</time></trkpt><trkpt lat="42.6174579" lon="12.3072332"><ele>401.0</ele><time>2026-04-03T14:15:35.511Z</time></trkpt><trkpt lat="42.6173396" lon="12.3071321"><ele>401.0</ele><time>2026-04-03T14:15:36.497Z</time></trkpt><trkpt lat="42.6172143" lon="12.3070323"><ele>397.66666666666663</ele><time>2026-04-03T14:15:37.5Z</time></trkpt><trkpt lat="42.6170857" lon="12.3069352"><ele>394.33333333333337</ele><time>2026-04-03T14:15:38.506Z</time></trkpt><trkpt lat="42.6169489" lon="12.306846"><ele>391.0</ele><time>2026-04-03T14:15:39.503Z</time></trkpt><trkpt lat="42.616809" lon="12.3067613"><ele>391.0</ele><time>2026-04-03T14:15:40.504Z</time></trkpt><trkpt lat="42.6166726" lon="12.3066774"><ele>391.0</ele><time>2026-04-03T14:15:41.505Z</time></trkpt><trkpt lat="42.6165437" lon="12.3066035"><ele>391.0</ele><time>2026-04-03T14:15:42.507Z</time></trkpt><trkpt lat="42.6164237" lon="12.3065371"><ele>391.0</ele><time>2026-04-03T14:15:43.486Z</time></trkpt><trkpt lat="42.616309" lon="12.3064732"><ele>390.6</ele><time>2026-04-03T14:15:44.507Z</time></trkpt><trkpt lat="42.6162103" lon="12.3064089"><ele>390.20000000000005</ele><time>2026-04-03T14:15:45.499Z</time></trkpt><trkpt lat="42.616111" lon="12.3063473"><ele>389.79999999999995</ele><time>2026-04-03T14:15:46.508Z</time></trkpt><trkpt lat="42.6160071" lon="12.3062848"><ele>389.4</ele><time>2026-04-03T14:15:47.499Z</time></trkpt><trkpt lat="42.6159064" lon="12.3062115"><ele>389.0</ele><time>2026-04-03T14:15:48.51Z</time></trkpt><trkpt lat="42.6158117" lon="12.3061344"><ele>389.0</ele><time>2026-04-03T14:15:49.514Z</time></trkpt><trkpt lat="42.6157205" lon="12.3060554"><ele>389.0</ele><time>2026-04-03T14:15:50.493Z</time></trkpt><trkpt lat="42.6156279" lon="12.3059701"><ele>389.0</ele><time>2026-04-03T14:15:51.508Z</time></trkpt><trkpt lat="42.61553" lon="12.3058821"><ele>389.0</ele><time>2026-04-03T14:15:52.506Z</time></trkpt><trkpt lat="42.6154304" lon="12.3057909"><ele>389.0</ele><time>2026-04-03T14:15:53.508Z</time></trkpt><trkpt lat="42.6153272" lon="12.3056968"><ele>389.0</ele><time>2026-04-03T14:15:54.505Z</time></trkpt><trkpt lat="42.6152238" lon="12.3056012"><ele>389.0</ele><time>2026-04-03T14:15:55.511Z</time></trkpt><trkpt lat="42.6151165" lon="12.3055022"><ele>389.0</ele><time>2026-04-03T14:15:56.513Z</time></trkpt><trkpt lat="42.6150094" lon="12.3054011"><ele>389.0</ele><time>2026-04-03T14:15:57.51Z</time></trkpt><trkpt lat="42.6148997" lon="12.3053026"><ele>389.0</ele><time>2026-04-03T14:15:58.495Z</time></trkpt><trkpt lat="42.6147947" lon="12.3052113"><ele>389.0</ele><time>2026-04-03T14:15:59.49Z</time></trkpt><trkpt lat="42.614697" lon="12.305125"><ele>389.0</ele><time>2026-04-03T14:16:00.502Z</time></trkpt><trkpt lat="42.6146096" lon="12.3050393"><ele>388.99999999999994</ele><time>2026-04-03T14:16:01.508Z</time></trkpt><trkpt lat="42.6145366" lon="12.3049452"><ele>389.0</ele><time>2026-04-03T14:16:02.507Z</time></trkpt><trkpt lat="42.6144744" lon="12.3048433"><ele>389.0</ele><time>2026-04-03T14:16:03.503Z</time></trkpt><trkpt lat="42.6144299" lon="12.3047458"><ele>389.0</ele><time>2026-04-03T14:16:04.507Z</time></trkpt><trkpt lat="42.6143902" lon="12.3046554"><ele>388.99999999999994</ele><time>2026-04-03T14:16:05.504Z</time></trkpt><trkpt lat="42.6143552" lon="12.3045548"><ele>389.0</ele><time>2026-04-03T14:16:06.51Z</time></trkpt><trkpt lat="42.6143241" lon="12.3044365"><ele>389.3333333333333</ele><time>2026-04-03T14:16:07.51Z</time></trkpt><trkpt lat="42.6142937" lon="12.3043086"><ele>389.66666666666663</ele><time>2026-04-03T14:16:08.508Z</time></trkpt><trkpt lat="42.6142624" lon="12.3041755"><ele>390.0</ele><time>2026-04-03T14:16:09.507Z</time></trkpt><trkpt lat="42.6142337" lon="12.3040532"><ele>390.33333333333337</ele><time>2026-04-03T14:16:10.495Z</time></trkpt><trkpt lat="42.6142217" lon="12.3039517"><ele>390.6666666666667</ele><time>2026-04-03T14:16:11.506Z</time></trkpt><trkpt lat="42.6142327" lon="12.3038661"><ele>391.0</ele><time>2026-04-03T14:16:12.5Z</time></trkpt><trkpt lat="42.6142603" lon="12.3037889"><ele>391.0</ele><time>2026-04-03T14:16:13.484Z</time></trkpt><trkpt lat="42.614307" lon="12.30364"><ele>391.0</ele><time>2026-04-03T14:16:15.507Z</time></trkpt><trkpt lat="42.6143246" lon="12.3034922"><ele>391.0</ele><time>2026-04-03T14:16:17.503Z</time></trkpt><trkpt lat="42.6143149" lon="12.3033278"><ele>391.0</ele><time>2026-04-03T14:16:19.506Z</time></trkpt><trkpt lat="42.6143089" lon="12.3032398"><ele>391.0</ele><time>2026-04-03T14:16:20.494Z</time></trkpt><trkpt lat="42.6143063" lon="12.3031311"><ele>390.4</ele><time>2026-04-03T14:16:21.505Z</time></trkpt><trkpt lat="42.6142929" lon="12.3029906"><ele>389.8</ele><time>2026-04-03T14:16:22.496Z</time></trkpt><trkpt lat="42.6142693" lon="12.3028393"><ele>389.2</ele><time>2026-04-03T14:16:23.501Z</time></trkpt><trkpt lat="42.6142411" lon="12.3026936"><ele>388.59999999999997</ele><time>2026-04-03T14:16:24.506Z</time></trkpt><trkpt lat="42.6142102" lon="12.3025669"><ele>388.0</ele><time>2026-04-03T14:16:25.478Z</time></trkpt><trkpt lat="42.6141783" lon="12.3024538"><ele>388.00000000000006</ele><time>2026-04-03T14:16:26.506Z</time></trkpt><trkpt lat="42.614142" lon="12.3023513"><ele>388.0</ele><time>2026-04-03T14:16:27.502Z</time></trkpt><trkpt lat="42.6140979" lon="12.3022464"><ele>388.0</ele><time>2026-04-03T14:16:28.507Z</time></trkpt><trkpt lat="42.6140527" lon="12.302136"><ele>388.0</ele><time>2026-04-03T14:16:29.484Z</time></trkpt><trkpt lat="42.6140056" lon="12.3020332"><ele>388.00000000000006</ele><time>2026-04-03T14:16:30.505Z</time></trkpt><trkpt lat="42.6139623" lon="12.3019352"><ele>388.0</ele><time>2026-04-03T14:16:31.491Z</time></trkpt><trkpt lat="42.6139275" lon="12.301852"><ele>386.4</ele><time>2026-04-03T14:16:32.501Z</time></trkpt><trkpt lat="42.6139005" lon="12.3017657"><ele>384.79999999999995</ele><time>2026-04-03T14:16:33.508Z</time></trkpt><trkpt lat="42.6138976" lon="12.301675"><ele>383.2</ele><time>2026-04-03T14:16:34.496Z</time></trkpt><trkpt lat="42.6139411" lon="12.301559"><ele>381.6</ele><time>2026-04-03T14:16:35.501Z</time></trkpt><trkpt lat="42.6140024" lon="12.3014143"><ele>380.0</ele><time>2026-04-03T14:16:36.509Z</time></trkpt><trkpt lat="42.6140637" lon="12.3012488"><ele>378.0</ele><time>2026-04-03T14:16:37.51Z</time></trkpt><trkpt lat="42.6141266" lon="12.3010948"><ele>376.0</ele><time>2026-04-03T14:16:38.509Z</time></trkpt><trkpt lat="42.6141952" lon="12.300955"><ele>374.0</ele><time>2026-04-03T14:16:39.505Z</time></trkpt><trkpt lat="42.6142732" lon="12.3008366"><ele>372.0</ele><time>2026-04-03T14:16:40.507Z</time></trkpt><trkpt lat="42.6143467" lon="12.3007278"><ele>372.0</ele><time>2026-04-03T14:16:41.507Z</time></trkpt><trkpt lat="42.6144088" lon="12.3006346"><ele>372.0</ele><time>2026-04-03T14:16:42.496Z</time></trkpt><trkpt lat="42.6144567" lon="12.3005581"><ele>372.0</ele><time>2026-04-03T14:16:43.509Z</time></trkpt><trkpt lat="42.6144887" lon="12.3004184"><ele>372.0</ele><time>2026-04-03T14:16:45.509Z</time></trkpt><trkpt lat="42.6144524" lon="12.3003453"><ele>372.0</ele><time>2026-04-03T14:16:46.502Z</time></trkpt><trkpt lat="42.6143888" lon="12.3002839"><ele>372.0</ele><time>2026-04-03T14:16:47.507Z</time></trkpt><trkpt lat="42.6143055" lon="12.3002375"><ele>371.3333333333333</ele><time>2026-04-03T14:16:48.48Z</time></trkpt><trkpt lat="42.6142309" lon="12.300195"><ele>370.6666666666667</ele><time>2026-04-03T14:16:49.505Z</time></trkpt><trkpt lat="42.6141558" lon="12.3001495"><ele>370.0</ele><time>2026-04-03T14:16:50.503Z</time></trkpt><trkpt lat="42.6140838" lon="12.3001035"><ele>369.33333333333337</ele><time>2026-04-03T14:16:51.509Z</time></trkpt><trkpt lat="42.6140055" lon="12.3000521"><ele>368.6666666666667</ele><time>2026-04-03T14:16:52.509Z</time></trkpt><trkpt lat="42.6139256" lon="12.3000041"><ele>368.0</ele><time>2026-04-03T14:16:53.51Z</time></trkpt><trkpt lat="42.6138421" lon="12.2999548"><ele>368.0</ele><time>2026-04-03T14:16:54.504Z</time></trkpt><trkpt lat="42.613743" lon="12.2999087"><ele>368.0</ele><time>2026-04-03T14:16:55.502Z</time></trkpt><trkpt lat="42.6136452" lon="12.2998535"><ele>368.0</ele><time>2026-04-03T14:16:56.496Z</time></trkpt><trkpt lat="42.613548" lon="12.2997964"><ele>368.0</ele><time>2026-04-03T14:16:57.503Z</time></trkpt><trkpt lat="42.61345" lon="12.2997314"><ele>368.0</ele><time>2026-04-03T14:16:58.502Z</time></trkpt><trkpt lat="42.6133397" lon="12.2996584"><ele>367.0</ele><time>2026-04-03T14:16:59.481Z</time></trkpt><trkpt lat="42.6132198" lon="12.2995817"><ele>366.0</ele><time>2026-04-03T14:17:00.491Z</time></trkpt><trkpt lat="42.6131039" lon="12.2995084"><ele>365.0</ele><time>2026-04-03T14:17:01.488Z</time></trkpt><trkpt lat="42.6129971" lon="12.2994441"><ele>364.0</ele><time>2026-04-03T14:17:02.494Z</time></trkpt><trkpt lat="42.6128943" lon="12.299385"><ele>362.4</ele><time>2026-04-03T14:17:03.49Z</time></trkpt><trkpt lat="42.6127978" lon="12.2993289"><ele>360.79999999999995</ele><time>2026-04-03T14:17:04.491Z</time></trkpt><trkpt lat="42.6127079" lon="12.2992666"><ele>359.20000000000005</ele><time>2026-04-03T14:17:05.502Z</time></trkpt><trkpt lat="42.6126241" lon="12.2992014"><ele>357.6</ele><time>2026-04-03T14:17:06.495Z</time></trkpt><trkpt lat="42.6125446" lon="12.2991288"><ele>356.0</ele><time>2026-04-03T14:17:07.5Z</time></trkpt><trkpt lat="42.6124715" lon="12.2990637"><ele>356.0</ele><time>2026-04-03T14:17:08.505Z</time></trkpt><trkpt lat="42.6124048" lon="12.2989983"><ele>356.0</ele><time>2026-04-03T14:17:09.497Z</time></trkpt><trkpt lat="42.6123433" lon="12.2989274"><ele>356.0</ele><time>2026-04-03T14:17:10.498Z</time></trkpt><trkpt lat="42.612289" lon="12.2988565"><ele>356.0</ele><time>2026-04-03T14:17:11.499Z</time></trkpt><trkpt lat="42.6122395" lon="12.2987845"><ele>356.0</ele><time>2026-04-03T14:17:12.505Z</time></trkpt><trkpt lat="42.6121954" lon="12.2987217"><ele>356.0</ele><time>2026-04-03T14:17:13.505Z</time></trkpt><trkpt lat="42.6121116" lon="12.2986127"><ele>356.1666666666667</ele><time>2026-04-03T14:17:15.505Z</time></trkpt><trkpt lat="42.6120435" lon="12.2985401"><ele>356.33333333333337</ele><time>2026-04-03T14:17:17.501Z</time></trkpt><trkpt lat="42.61198" lon="12.2984463"><ele>356.5</ele><time>2026-04-03T14:17:19.49Z</time></trkpt><trkpt lat="42.6119315" lon="12.2983084"><ele>356.6666666666667</ele><time>2026-04-03T14:17:21.502Z</time></trkpt><trkpt lat="42.6119001" lon="12.2982306"><ele>356.8333333333333</ele><time>2026-04-03T14:17:22.5Z</time></trkpt><trkpt lat="42.6118585" lon="12.2981457"><ele>357.0</ele><time>2026-04-03T14:17:23.491Z</time></trkpt><trkpt lat="42.6118175" lon="12.2980568"><ele>354.20000000000005</ele><time>2026-04-03T14:17:24.502Z</time></trkpt><trkpt lat="42.6117798" lon="12.2979593"><ele>351.4</ele><time>2026-04-03T14:17:25.503Z</time></trkpt><trkpt lat="42.6117401" lon="12.2978433"><ele>348.6</ele><time>2026-04-03T14:17:26.495Z</time></trkpt><trkpt lat="42.6117006" lon="12.2977008"><ele>345.79999999999995</ele><time>2026-04-03T14:17:27.501Z</time></trkpt><trkpt lat="42.6116616" lon="12.2975538"><ele>343.0</ele><time>2026-04-03T14:17:28.502Z</time></trkpt><trkpt lat="42.6116296" lon="12.297422"><ele>343.0</ele><time>2026-04-03T14:17:29.502Z</time></trkpt><trkpt lat="42.6115954" lon="12.2972971"><ele>343.0</ele><time>2026-04-03T14:17:30.493Z</time></trkpt><trkpt lat="42.6115637" lon="12.2971682"><ele>343.0</ele><time>2026-04-03T14:17:31.494Z</time></trkpt><trkpt lat="42.6115363" lon="12.2970272"><ele>343.0</ele><time>2026-04-03T14:17:32.504Z</time></trkpt><trkpt lat="42.6115116" lon="12.2969016"><ele>343.0</ele><time>2026-04-03T14:17:33.503Z</time></trkpt><trkpt lat="42.6114935" lon="12.2967915"><ele>341.66666666666663</ele><time>2026-04-03T14:17:34.502Z</time></trkpt><trkpt lat="42.6114801" lon="12.2966957"><ele>340.3333333333333</ele><time>2026-04-03T14:17:35.507Z</time></trkpt><trkpt lat="42.6114734" lon="12.2965514"><ele>339.0</ele><time>2026-04-03T14:17:37.483Z</time></trkpt><trkpt lat="42.6114425" lon="12.2964404"><ele>337.6666666666667</ele><time>2026-04-03T14:17:39.482Z</time></trkpt><trkpt lat="42.6114094" lon="12.2963012"><ele>336.33333333333337</ele><time>2026-04-03T14:17:41.526Z</time></trkpt><trkpt lat="42.6114151" lon="12.2962155"><ele>335.0</ele><time>2026-04-03T14:17:42.478Z</time></trkpt><trkpt lat="42.6114087" lon="12.2960089"><ele>333.4</ele><time>2026-04-03T14:17:44.503Z</time></trkpt><trkpt lat="42.6113916" lon="12.2959023"><ele>331.8</ele><time>2026-04-03T14:17:45.494Z</time></trkpt><trkpt lat="42.6113703" lon="12.295787"><ele>330.20000000000005</ele><time>2026-04-03T14:17:46.504Z</time></trkpt><trkpt lat="42.611352" lon="12.295663"><ele>328.6</ele><time>2026-04-03T14:17:47.5Z</time></trkpt><trkpt lat="42.6113472" lon="12.295534"><ele>327.0</ele><time>2026-04-03T14:17:48.484Z</time></trkpt><trkpt lat="42.6113489" lon="12.2953947"><ele>325.6666666666667</ele><time>2026-04-03T14:17:49.478Z</time></trkpt><trkpt lat="42.6113419" lon="12.2952709"><ele>324.3333333333333</ele><time>2026-04-03T14:17:50.48Z</time></trkpt><trkpt lat="42.6113157" lon="12.2951623"><ele>323.0</ele><time>2026-04-03T14:17:51.494Z</time></trkpt><trkpt lat="42.6112975" lon="12.2950753"><ele>321.66666666666663</ele><time>2026-04-03T14:17:52.481Z</time></trkpt><trkpt lat="42.6113029" lon="12.2949226"><ele>320.3333333333333</ele><time>2026-04-03T14:17:54.489Z</time></trkpt><trkpt lat="42.6113735" lon="12.2948533"><ele>319.0</ele><time>2026-04-03T14:17:56.491Z</time></trkpt><trkpt lat="42.6114536" lon="12.2947782"><ele>317.16666666666663</ele><time>2026-04-03T14:17:58.475Z</time></trkpt><trkpt lat="42.6115129" lon="12.2947369"><ele>315.3333333333333</ele><time>2026-04-03T14:17:59.49Z</time></trkpt><trkpt lat="42.6115756" lon="12.2946934"><ele>313.5</ele><time>2026-04-03T14:18:00.481Z</time></trkpt><trkpt lat="42.6116744" lon="12.2946215"><ele>311.6666666666667</ele><time>2026-04-03T14:18:02.48Z</time></trkpt><trkpt lat="42.6117866" lon="12.2945702"><ele>309.83333333333337</ele><time>2026-04-03T14:18:04.478Z</time></trkpt><trkpt lat="42.6118559" lon="12.2945541"><ele>308.0</ele><time>2026-04-03T14:18:05.494Z</time></trkpt><trkpt lat="42.611936" lon="12.2945329"><ele>308.83333333333337</ele><time>2026-04-03T14:18:06.484Z</time></trkpt><trkpt lat="42.612019" lon="12.2945122"><ele>309.6666666666667</ele><time>2026-04-03T14:18:07.478Z</time></trkpt><trkpt lat="42.6120929" lon="12.2944985"><ele>310.5</ele><time>2026-04-03T14:18:08.489Z</time></trkpt><trkpt lat="42.6121926" lon="12.2945008"><ele>311.3333333333333</ele><time>2026-04-03T14:18:10.491Z</time></trkpt><trkpt lat="42.6122754" lon="12.2945545"><ele>312.16666666666663</ele><time>2026-04-03T14:18:12.481Z</time></trkpt><trkpt lat="42.6123511" lon="12.2946316"><ele>313.0</ele><time>2026-04-03T14:18:14.482Z</time></trkpt><trkpt lat="42.6124034" lon="12.2946891"><ele>313.0</ele><time>2026-04-03T14:18:16.483Z</time></trkpt><trkpt lat="42.6123099" lon="12.2945826"><ele>313.0</ele><time>2026-04-03T14:19:45.478Z</time></trkpt><trkpt lat="42.6122504" lon="12.2945317"><ele>313.0</ele><time>2026-04-03T14:19:46.49Z</time></trkpt><trkpt lat="42.6121544" lon="12.2944771"><ele>313.0</ele><time>2026-04-03T14:19:48.485Z</time></trkpt><trkpt lat="42.6120258" lon="12.294478"><ele>313.0</ele><time>2026-04-03T14:19:50.489Z</time></trkpt><trkpt lat="42.6119326" lon="12.2945008"><ele>312.16666666666663</ele><time>2026-04-03T14:19:51.495Z</time></trkpt><trkpt lat="42.6118373" lon="12.2945249"><ele>311.3333333333333</ele><time>2026-04-03T14:19:52.482Z</time></trkpt><trkpt lat="42.6117556" lon="12.294547"><ele>310.5</ele><time>2026-04-03T14:19:53.497Z</time></trkpt><trkpt lat="42.6116854" lon="12.2945771"><ele>309.6666666666667</ele><time>2026-04-03T14:19:54.487Z</time></trkpt><trkpt lat="42.6116228" lon="12.294613"><ele>308.83333333333337</ele><time>2026-04-03T14:19:55.493Z</time></trkpt><trkpt lat="42.6115672" lon="12.2946547"><ele>308.0</ele><time>2026-04-03T14:19:56.488Z</time></trkpt><trkpt lat="42.6114652" lon="12.2947274"><ele>310.2</ele><time>2026-04-03T14:19:58.488Z</time></trkpt><trkpt lat="42.611369" lon="12.2947847"><ele>312.4</ele><time>2026-04-03T14:20:00.489Z</time></trkpt><trkpt lat="42.6113152" lon="12.2948471"><ele>314.59999999999997</ele><time>2026-04-03T14:20:02.48Z</time></trkpt><trkpt lat="42.6112527" lon="12.2949015"><ele>316.8</ele><time>2026-04-03T14:20:18.482Z</time></trkpt><trkpt lat="42.6112656" lon="12.2949997"><ele>319.0</ele><time>2026-04-03T14:20:26.485Z</time></trkpt><trkpt lat="42.6113057" lon="12.2951626"><ele>319.0</ele><time>2026-04-03T14:20:28.476Z</time></trkpt><trkpt lat="42.611318" lon="12.2952829"><ele>319.0</ele><time>2026-04-03T14:20:29.474Z</time></trkpt><trkpt lat="42.611325" lon="12.2954094"><ele>319.0</ele><time>2026-04-03T14:20:30.482Z</time></trkpt><trkpt lat="42.6113257" lon="12.2955304"><ele>319.0</ele><time>2026-04-03T14:20:31.479Z</time></trkpt><trkpt lat="42.6113252" lon="12.2956493"><ele>319.0</ele><time>2026-04-03T14:20:32.494Z</time></trkpt><trkpt lat="42.6113296" lon="12.2957629"><ele>319.0</ele><time>2026-04-03T14:20:33.49Z</time></trkpt><trkpt lat="42.6113476" lon="12.2958577"><ele>320.3333333333333</ele><time>2026-04-03T14:20:35.387Z</time></trkpt><trkpt lat="42.6113918" lon="12.2960441"><ele>321.66666666666663</ele><time>2026-04-03T14:20:36.479Z</time></trkpt><trkpt lat="42.6114112" lon="12.2961344"><ele>323.0</ele><time>2026-04-03T14:20:37.489Z</time></trkpt><trkpt lat="42.6114174" lon="12.2962224"><ele>324.3333333333333</ele><time>2026-04-03T14:20:38.475Z</time></trkpt><trkpt lat="42.6114179" lon="12.296309"><ele>325.6666666666667</ele><time>2026-04-03T14:20:39.489Z</time></trkpt><trkpt lat="42.6114342" lon="12.2964403"><ele>327.0</ele><time>2026-04-03T14:20:41.484Z</time></trkpt><trkpt lat="42.6114715" lon="12.2965482"><ele>328.6</ele><time>2026-04-03T14:20:43.494Z</time></trkpt><trkpt lat="42.611492" lon="12.2966634"><ele>330.20000000000005</ele><time>2026-04-03T14:20:45.499Z</time></trkpt><trkpt lat="42.6114964" lon="12.2968574"><ele>331.8</ele><time>2026-04-03T14:20:47.495Z</time></trkpt><trkpt lat="42.611514" lon="12.2969817"><ele>333.4</ele><time>2026-04-03T14:20:48.497Z</time></trkpt><trkpt lat="42.6115367" lon="12.297114"><ele>335.0</ele><time>2026-04-03T14:20:49.49Z</time></trkpt><trkpt lat="42.6115689" lon="12.2972621"><ele>336.6</ele><time>2026-04-03T14:20:50.499Z</time></trkpt><trkpt lat="42.6116093" lon="12.2974141"><ele>338.2</ele><time>2026-04-03T14:20:51.498Z</time></trkpt><trkpt lat="42.6116471" lon="12.2975582"><ele>339.79999999999995</ele><time>2026-04-03T14:20:52.491Z</time></trkpt><trkpt lat="42.6116817" lon="12.2976967"><ele>341.4</ele><time>2026-04-03T14:20:53.493Z</time></trkpt><trkpt lat="42.6117157" lon="12.2978167"><ele>343.0</ele><time>2026-04-03T14:20:54.5Z</time></trkpt><trkpt lat="42.6117527" lon="12.2979314"><ele>343.0</ele><time>2026-04-03T14:20:55.488Z</time></trkpt><trkpt lat="42.611794" lon="12.2980379"><ele>343.0</ele><time>2026-04-03T14:20:56.504Z</time></trkpt><trkpt lat="42.6118349" lon="12.2981316"><ele>343.0</ele><time>2026-04-03T14:20:57.502Z</time></trkpt><trkpt lat="42.6118766" lon="12.2982149"><ele>343.0</ele><time>2026-04-03T14:20:58.499Z</time></trkpt><trkpt lat="42.6119169" lon="12.298295"><ele>343.0</ele><time>2026-04-03T14:20:59.498Z</time></trkpt><trkpt lat="42.6119512" lon="12.2983692"><ele>343.0</ele><time>2026-04-03T14:21:00.49Z</time></trkpt><trkpt lat="42.6119922" lon="12.2984776"><ele>344.16666666666663</ele><time>2026-04-03T14:21:02.484Z</time></trkpt><trkpt lat="42.6119759" lon="12.2985773"><ele>345.3333333333333</ele><time>2026-04-03T14:21:06.495Z</time></trkpt><trkpt lat="42.6118616" lon="12.29856"><ele>346.5</ele><time>2026-04-03T14:21:08.502Z</time></trkpt><trkpt lat="42.611792" lon="12.2985383"><ele>347.6666666666667</ele><time>2026-04-03T14:21:09.494Z</time></trkpt><trkpt lat="42.6117222" lon="12.2985171"><ele>348.83333333333337</ele><time>2026-04-03T14:21:10.49Z</time></trkpt><trkpt lat="42.6116608" lon="12.2984874"><ele>350.0</ele><time>2026-04-03T14:21:11.498Z</time></trkpt><trkpt lat="42.6116043" lon="12.2984434"><ele>350.0</ele><time>2026-04-03T14:21:12.473Z</time></trkpt><trkpt lat="42.6115498" lon="12.2983888"><ele>350.0</ele><time>2026-04-03T14:21:13.5Z</time></trkpt><trkpt lat="42.6114958" lon="12.2983282"><ele>350.0</ele><time>2026-04-03T14:21:14.478Z</time></trkpt><trkpt lat="42.6113497" lon="12.2981734"><ele>350.0</ele><time>2026-04-03T14:21:17.479Z</time></trkpt><trkpt lat="42.611261" lon="12.2980746"><ele>350.0</ele><time>2026-04-03T14:21:19.48Z</time></trkpt><trkpt lat="42.6111664" lon="12.2979863"><ele>349.25</ele><time>2026-04-03T14:21:21.481Z</time></trkpt><trkpt lat="42.6110826" lon="12.2978594"><ele>348.5</ele><time>2026-04-03T14:21:23.486Z</time></trkpt><trkpt lat="42.6110394" lon="12.2977563"><ele>347.75</ele><time>2026-04-03T14:21:24.491Z</time></trkpt><trkpt lat="42.6109854" lon="12.2976175"><ele>347.0</ele><time>2026-04-03T14:21:25.497Z</time></trkpt><trkpt lat="42.6109232" lon="12.2974656"><ele>347.0</ele><time>2026-04-03T14:21:26.507Z</time></trkpt><trkpt lat="42.6108514" lon="12.2973041"><ele>347.0</ele><time>2026-04-03T14:21:27.483Z</time></trkpt><trkpt lat="42.6107849" lon="12.2971568"><ele>347.0</ele><time>2026-04-03T14:21:28.492Z</time></trkpt><trkpt lat="42.610726" lon="12.2970264"><ele>347.0</ele><time>2026-04-03T14:21:29.505Z</time></trkpt><trkpt lat="42.6106687" lon="12.2969027"><ele>345.0</ele><time>2026-04-03T14:21:30.495Z</time></trkpt><trkpt lat="42.610613" lon="12.2967777"><ele>343.0</ele><time>2026-04-03T14:21:31.505Z</time></trkpt><trkpt lat="42.6105643" lon="12.2966537"><ele>341.0</ele><time>2026-04-03T14:21:32.5Z</time></trkpt><trkpt lat="42.6105176" lon="12.2965354"><ele>339.0</ele><time>2026-04-03T14:21:33.476Z</time></trkpt><trkpt lat="42.6104734" lon="12.2964158"><ele>337.0</ele><time>2026-04-03T14:21:34.487Z</time></trkpt><trkpt lat="42.6104398" lon="12.2962989"><ele>336.66666666666663</ele><time>2026-04-03T14:21:35.486Z</time></trkpt><trkpt lat="42.6104052" lon="12.2961875"><ele>336.3333333333333</ele><time>2026-04-03T14:21:36.48Z</time></trkpt><trkpt lat="42.6103674" lon="12.2960789"><ele>336.0</ele><time>2026-04-03T14:21:37.49Z</time></trkpt><trkpt lat="42.6103274" lon="12.2959722"><ele>335.6666666666667</ele><time>2026-04-03T14:21:38.498Z</time></trkpt><trkpt lat="42.610292" lon="12.2958697"><ele>335.33333333333337</ele><time>2026-04-03T14:21:39.492Z</time></trkpt><trkpt lat="42.6102474" lon="12.2957856"><ele>335.0</ele><time>2026-04-03T14:21:40.498Z</time></trkpt><trkpt lat="42.6101879" lon="12.2957146"><ele>335.0</ele><time>2026-04-03T14:21:41.503Z</time></trkpt><trkpt lat="42.6101109" lon="12.2956345"><ele>335.0</ele><time>2026-04-03T14:21:42.501Z</time></trkpt><trkpt lat="42.6100239" lon="12.2955514"><ele>335.0</ele><time>2026-04-03T14:21:43.507Z</time></trkpt><trkpt lat="42.6099273" lon="12.2954701"><ele>335.0</ele><time>2026-04-03T14:21:44.506Z</time></trkpt><trkpt lat="42.6098241" lon="12.2953914"><ele>335.0</ele><time>2026-04-03T14:21:45.483Z</time></trkpt><trkpt lat="42.6097213" lon="12.2953232"><ele>335.2</ele><time>2026-04-03T14:21:46.503Z</time></trkpt><trkpt lat="42.6096295" lon="12.2952693"><ele>335.4</ele><time>2026-04-03T14:21:47.507Z</time></trkpt><trkpt lat="42.60954" lon="12.2952085"><ele>335.6</ele><time>2026-04-03T14:21:48.515Z</time></trkpt><trkpt lat="42.6094574" lon="12.2951478"><ele>335.8</ele><time>2026-04-03T14:21:49.495Z</time></trkpt><trkpt lat="42.6093813" lon="12.2950892"><ele>336.0</ele><time>2026-04-03T14:21:50.48Z</time></trkpt><trkpt lat="42.6093101" lon="12.2950336"><ele>336.0</ele><time>2026-04-03T14:21:51.505Z</time></trkpt><trkpt lat="42.6092443" lon="12.294982"><ele>336.0</ele><time>2026-04-03T14:21:52.512Z</time></trkpt><trkpt lat="42.6091793" lon="12.2949243"><ele>336.0</ele><time>2026-04-03T14:21:53.505Z</time></trkpt><trkpt lat="42.609116" lon="12.2948699"><ele>336.0</ele><time>2026-04-03T14:21:54.505Z</time></trkpt><trkpt lat="42.6090539" lon="12.2948163"><ele>336.0</ele><time>2026-04-03T14:21:55.495Z</time></trkpt><trkpt lat="42.6089905" lon="12.2947642"><ele>336.0</ele><time>2026-04-03T14:21:56.496Z</time></trkpt><trkpt lat="42.6089208" lon="12.2947055"><ele>334.75</ele><time>2026-04-03T14:21:57.503Z</time></trkpt><trkpt lat="42.6088396" lon="12.2946355"><ele>333.5</ele><time>2026-04-03T14:21:58.502Z</time></trkpt><trkpt lat="42.6087459" lon="12.2945519"><ele>332.25</ele><time>2026-04-03T14:21:59.5Z</time></trkpt><trkpt lat="42.6086409" lon="12.2944624"><ele>331.0</ele><time>2026-04-03T14:22:00.507Z</time></trkpt><trkpt lat="42.6085381" lon="12.2943698"><ele>331.0</ele><time>2026-04-03T14:22:01.504Z</time></trkpt><trkpt lat="42.6084381" lon="12.2942892"><ele>331.0</ele><time>2026-04-03T14:22:02.503Z</time></trkpt><trkpt lat="42.6083389" lon="12.2942079"><ele>331.0</ele><time>2026-04-03T14:22:03.501Z</time></trkpt><trkpt lat="42.6082417" lon="12.294126"><ele>331.0</ele><time>2026-04-03T14:22:04.503Z</time></trkpt><trkpt lat="42.6081515" lon="12.2940505"><ele>331.0</ele><time>2026-04-03T14:22:05.495Z</time></trkpt><trkpt lat="42.6080682" lon="12.2939841"><ele>331.0</ele><time>2026-04-03T14:22:06.51Z</time></trkpt><trkpt lat="42.6079874" lon="12.2939259"><ele>331.0</ele><time>2026-04-03T14:22:07.503Z</time></trkpt><trkpt lat="42.6078974" lon="12.2938798"><ele>331.0</ele><time>2026-04-03T14:22:08.503Z</time></trkpt><trkpt lat="42.6078014" lon="12.2938358"><ele>331.0</ele><time>2026-04-03T14:22:09.508Z</time></trkpt><trkpt lat="42.6076897" lon="12.2937962"><ele>328.6</ele><time>2026-04-03T14:22:10.507Z</time></trkpt><trkpt lat="42.6075751" lon="12.2937541"><ele>326.20000000000005</ele><time>2026-04-03T14:22:11.507Z</time></trkpt><trkpt lat="42.6074667" lon="12.2937192"><ele>323.79999999999995</ele><time>2026-04-03T14:22:12.5Z</time></trkpt><trkpt lat="42.6073631" lon="12.2936779"><ele>321.4</ele><time>2026-04-03T14:22:13.501Z</time></trkpt><trkpt lat="42.6072613" lon="12.2936338"><ele>319.0</ele><time>2026-04-03T14:22:14.511Z</time></trkpt><trkpt lat="42.6071681" lon="12.2935921"><ele>319.0</ele><time>2026-04-03T14:22:15.497Z</time></trkpt><trkpt lat="42.6070844" lon="12.2935538"><ele>319.0</ele><time>2026-04-03T14:22:16.508Z</time></trkpt><trkpt lat="42.6070055" lon="12.2935195"><ele>319.0</ele><time>2026-04-03T14:22:17.495Z</time></trkpt><trkpt lat="42.6069326" lon="12.2934915"><ele>319.0</ele><time>2026-04-03T14:22:18.5Z</time></trkpt><trkpt lat="42.6068636" lon="12.293459"><ele>319.0</ele><time>2026-04-03T14:22:19.49Z</time></trkpt><trkpt lat="42.606799" lon="12.2934255"><ele>319.0</ele><time>2026-04-03T14:22:20.508Z</time></trkpt><trkpt lat="42.6067365" lon="12.2933819"><ele>318.59999999999997</ele><time>2026-04-03T14:22:21.488Z</time></trkpt><trkpt lat="42.6066801" lon="12.293329"><ele>318.2</ele><time>2026-04-03T14:22:22.493Z</time></trkpt><trkpt lat="42.6066319" lon="12.2932664"><ele>317.79999999999995</ele><time>2026-04-03T14:22:23.493Z</time></trkpt><trkpt lat="42.6065938" lon="12.2931356"><ele>317.4</ele><time>2026-04-03T14:22:25.502Z</time></trkpt><trkpt lat="42.6066349" lon="12.292931"><ele>317.0</ele><time>2026-04-03T14:22:28.486Z</time></trkpt><trkpt lat="42.606712" lon="12.2928297"><ele>315.2</ele><time>2026-04-03T14:22:30.49Z</time></trkpt><trkpt lat="42.6068115" lon="12.2927441"><ele>313.4</ele><time>2026-04-03T14:22:32.503Z</time></trkpt><trkpt lat="42.60692" lon="12.2926703"><ele>311.6</ele><time>2026-04-03T14:22:34.494Z</time></trkpt><trkpt lat="42.6069796" lon="12.2926299"><ele>309.8</ele><time>2026-04-03T14:22:35.495Z</time></trkpt><trkpt lat="42.6070423" lon="12.2925831"><ele>308.0</ele><time>2026-04-03T14:22:36.497Z</time></trkpt><trkpt lat="42.6071068" lon="12.292527"><ele>308.0</ele><time>2026-04-03T14:22:37.497Z</time></trkpt><trkpt lat="42.6071699" lon="12.2924613"><ele>308.0</ele><time>2026-04-03T14:22:38.492Z</time></trkpt><trkpt lat="42.6072384" lon="12.2923894"><ele>308.0</ele><time>2026-04-03T14:22:39.499Z</time></trkpt><trkpt lat="42.6073077" lon="12.2923149"><ele>308.0</ele><time>2026-04-03T14:22:40.495Z</time></trkpt><trkpt lat="42.6073792" lon="12.2922393"><ele>308.0</ele><time>2026-04-03T14:22:41.495Z</time></trkpt><trkpt lat="42.6074615" lon="12.2921606"><ele>308.0</ele><time>2026-04-03T14:22:42.496Z</time></trkpt><trkpt lat="42.6075458" lon="12.2920877"><ele>306.5</ele><time>2026-04-03T14:22:43.503Z</time></trkpt><trkpt lat="42.6076241" lon="12.292026"><ele>305.0</ele><time>2026-04-03T14:22:44.492Z</time></trkpt><trkpt lat="42.6077041" lon="12.2919655"><ele>303.5</ele><time>2026-04-03T14:22:45.499Z</time></trkpt><trkpt lat="42.6077877" lon="12.2919108"><ele>302.0</ele><time>2026-04-03T14:22:46.492Z</time></trkpt><trkpt lat="42.607859" lon="12.2918668"><ele>300.5</ele><time>2026-04-03T14:22:47.48Z</time></trkpt><trkpt lat="42.6079297" lon="12.2918313"><ele>299.0</ele><time>2026-04-03T14:22:48.492Z</time></trkpt><trkpt lat="42.608002" lon="12.2918121"><ele>299.0</ele><time>2026-04-03T14:22:49.502Z</time></trkpt><trkpt lat="42.608091" lon="12.2917997"><ele>299.0</ele><time>2026-04-03T14:22:50.492Z</time></trkpt><trkpt lat="42.6081923" lon="12.2917948"><ele>299.0</ele><time>2026-04-03T14:22:51.493Z</time></trkpt><trkpt lat="42.6082879" lon="12.291796"><ele>299.0</ele><time>2026-04-03T14:22:52.502Z</time></trkpt><trkpt lat="42.6083897" lon="12.2918012"><ele>299.0</ele><time>2026-04-03T14:22:53.499Z</time></trkpt><trkpt lat="42.6084963" lon="12.2918074"><ele>299.0</ele><time>2026-04-03T14:22:54.505Z</time></trkpt><trkpt lat="42.6086031" lon="12.2918141"><ele>299.0</ele><time>2026-04-03T14:22:55.51Z</time></trkpt><trkpt lat="42.6087024" lon="12.2918219"><ele>299.0</ele><time>2026-04-03T14:22:56.5Z</time></trkpt><trkpt lat="42.6087982" lon="12.2918308"><ele>299.0</ele><time>2026-04-03T14:22:57.505Z</time></trkpt><trkpt lat="42.6088868" lon="12.2918349"><ele>299.0</ele><time>2026-04-03T14:22:58.498Z</time></trkpt><trkpt lat="42.6089861" lon="12.2918447"><ele>297.0</ele><time>2026-04-03T14:22:59.504Z</time></trkpt><trkpt lat="42.6090914" lon="12.2918505"><ele>295.0</ele><time>2026-04-03T14:23:00.502Z</time></trkpt><trkpt lat="42.6091977" lon="12.2918563"><ele>293.0</ele><time>2026-04-03T14:23:01.506Z</time></trkpt><trkpt lat="42.6093037" lon="12.2918605"><ele>291.0</ele><time>2026-04-03T14:23:02.502Z</time></trkpt><trkpt lat="42.6094061" lon="12.291867"><ele>289.0</ele><time>2026-04-03T14:23:03.5Z</time></trkpt><trkpt lat="42.6095054" lon="12.2918738"><ele>287.0</ele><time>2026-04-03T14:23:04.499Z</time></trkpt><trkpt lat="42.6096029" lon="12.2918769"><ele>285.0</ele><time>2026-04-03T14:23:05.505Z</time></trkpt><trkpt lat="42.6096972" lon="12.2918735"><ele>283.0</ele><time>2026-04-03T14:23:06.503Z</time></trkpt><trkpt lat="42.6097836" lon="12.2918639"><ele>281.0</ele><time>2026-04-03T14:23:07.492Z</time></trkpt><trkpt lat="42.6098681" lon="12.2918434"><ele>279.0</ele><time>2026-04-03T14:23:08.502Z</time></trkpt><trkpt lat="42.6099551" lon="12.2918091"><ele>279.0</ele><time>2026-04-03T14:23:09.504Z</time></trkpt><trkpt lat="42.6100494" lon="12.2917599"><ele>279.0</ele><time>2026-04-03T14:23:10.505Z</time></trkpt><trkpt lat="42.6101561" lon="12.2917031"><ele>279.0</ele><time>2026-04-03T14:23:11.494Z</time></trkpt><trkpt lat="42.6102731" lon="12.2916287"><ele>279.0</ele><time>2026-04-03T14:23:12.481Z</time></trkpt><trkpt lat="42.6104142" lon="12.2915288"><ele>278.3333333333333</ele><time>2026-04-03T14:23:13.503Z</time></trkpt><trkpt lat="42.6105595" lon="12.2914294"><ele>277.66666666666663</ele><time>2026-04-03T14:23:14.502Z</time></trkpt><trkpt lat="42.6107008" lon="12.2913346"><ele>277.0</ele><time>2026-04-03T14:23:15.487Z</time></trkpt><trkpt lat="42.6108338" lon="12.291243"><ele>275.4</ele><time>2026-04-03T14:23:16.504Z</time></trkpt><trkpt lat="42.6109459" lon="12.2911562"><ele>273.79999999999995</ele><time>2026-04-03T14:23:17.488Z</time></trkpt><trkpt lat="42.6110462" lon="12.2910835"><ele>272.2</ele><time>2026-04-03T14:23:18.505Z</time></trkpt><trkpt lat="42.6111373" lon="12.2910154"><ele>270.59999999999997</ele><time>2026-04-03T14:23:19.507Z</time></trkpt><trkpt lat="42.6112203" lon="12.2909544"><ele>269.0</ele><time>2026-04-03T14:23:20.492Z</time></trkpt><trkpt lat="42.6113016" lon="12.2909086"><ele>268.83333333333337</ele><time>2026-04-03T14:23:21.489Z</time></trkpt><trkpt lat="42.611378" lon="12.2908807"><ele>268.6666666666667</ele><time>2026-04-03T14:23:22.494Z</time></trkpt><trkpt lat="42.6114642" lon="12.2908719"><ele>268.5</ele><time>2026-04-03T14:23:23.498Z</time></trkpt><trkpt lat="42.6115486" lon="12.2908838"><ele>268.3333333333333</ele><time>2026-04-03T14:23:24.489Z</time></trkpt><trkpt lat="42.6116296" lon="12.2908978"><ele>268.16666666666663</ele><time>2026-04-03T14:23:25.473Z</time></trkpt><trkpt lat="42.6117094" lon="12.290919"><ele>268.0</ele><time>2026-04-03T14:23:26.473Z</time></trkpt><trkpt lat="42.6117841" lon="12.2909474"><ele>268.0</ele><time>2026-04-03T14:23:27.504Z</time></trkpt><trkpt lat="42.6118584" lon="12.2909692"><ele>268.0</ele><time>2026-04-03T14:23:28.504Z</time></trkpt><trkpt lat="42.6119322" lon="12.2909902"><ele>268.0</ele><time>2026-04-03T14:23:29.485Z</time></trkpt><trkpt lat="42.6120858" lon="12.2910256"><ele>268.0</ele><time>2026-04-03T14:23:31.484Z</time></trkpt><trkpt lat="42.6121596" lon="12.2910476"><ele>268.0</ele><time>2026-04-03T14:23:32.487Z</time></trkpt><trkpt lat="42.6122284" lon="12.2910646"><ele>267.2857142857143</ele><time>2026-04-03T14:23:33.494Z</time></trkpt><trkpt lat="42.6122998" lon="12.2910868"><ele>266.57142857142856</ele><time>2026-04-03T14:23:34.477Z</time></trkpt><trkpt lat="42.6123717" lon="12.2911147"><ele>265.85714285714283</ele><time>2026-04-03T14:23:35.485Z</time></trkpt><trkpt lat="42.6124415" lon="12.2911399"><ele>265.1428571428571</ele><time>2026-04-03T14:23:36.48Z</time></trkpt><trkpt lat="42.612513" lon="12.2911608"><ele>264.4285714285714</ele><time>2026-04-03T14:23:37.481Z</time></trkpt><trkpt lat="42.6125847" lon="12.291173"><ele>263.7142857142857</ele><time>2026-04-03T14:23:38.473Z</time></trkpt><trkpt lat="42.6126589" lon="12.2911905"><ele>263.0</ele><time>2026-04-03T14:23:39.477Z</time></trkpt><trkpt lat="42.612811" lon="12.2912304"><ele>262.0</ele><time>2026-04-03T14:23:41.492Z</time></trkpt><trkpt lat="42.6128937" lon="12.2912538"><ele>261.0</ele><time>2026-04-03T14:23:42.479Z</time></trkpt><trkpt lat="42.6129827" lon="12.2912791"><ele>260.0</ele><time>2026-04-03T14:23:43.478Z</time></trkpt><trkpt lat="42.6130766" lon="12.2913026"><ele>259.0</ele><time>2026-04-03T14:23:44.485Z</time></trkpt><trkpt lat="42.6131789" lon="12.2913297"><ele>258.0</ele><time>2026-04-03T14:23:45.486Z</time></trkpt><trkpt lat="42.6132821" lon="12.2913544"><ele>258.0</ele><time>2026-04-03T14:23:46.502Z</time></trkpt><trkpt lat="42.6133796" lon="12.2913713"><ele>258.0</ele><time>2026-04-03T14:23:47.507Z</time></trkpt><trkpt lat="42.6134706" lon="12.2913697"><ele>258.0</ele><time>2026-04-03T14:23:49.216Z</time></trkpt><trkpt lat="42.6136244" lon="12.2913233"><ele>258.0</ele><time>2026-04-03T14:23:50.497Z</time></trkpt><trkpt lat="42.6136827" lon="12.2912834"><ele>258.0</ele><time>2026-04-03T14:23:51.495Z</time></trkpt><trkpt lat="42.6137868" lon="12.2912075"><ele>257.6</ele><time>2026-04-03T14:23:53.507Z</time></trkpt><trkpt lat="42.6138693" lon="12.2911687"><ele>257.20000000000005</ele><time>2026-04-03T14:23:55.498Z</time></trkpt><trkpt lat="42.613938" lon="12.2910521"><ele>256.8</ele><time>2026-04-03T14:23:58.503Z</time></trkpt><trkpt lat="42.6139487" lon="12.2909404"><ele>256.40000000000003</ele><time>2026-04-03T14:23:59.49Z</time></trkpt><trkpt lat="42.6139548" lon="12.2907866"><ele>256.0</ele><time>2026-04-03T14:24:00.497Z</time></trkpt><trkpt lat="42.6139786" lon="12.2906328"><ele>253.20000000000002</ele><time>2026-04-03T14:24:01.499Z</time></trkpt><trkpt lat="42.6140099" lon="12.2905043"><ele>250.40000000000003</ele><time>2026-04-03T14:24:02.507Z</time></trkpt><trkpt lat="42.6140644" lon="12.2903928"><ele>247.6</ele><time>2026-04-03T14:24:03.479Z</time></trkpt><trkpt lat="42.6141455" lon="12.290306"><ele>244.8</ele><time>2026-04-03T14:24:04.506Z</time></trkpt><trkpt lat="42.6142558" lon="12.2902368"><ele>242.0</ele><time>2026-04-03T14:24:05.491Z</time></trkpt><trkpt lat="42.6143759" lon="12.2901756"><ele>241.8</ele><time>2026-04-03T14:24:06.508Z</time></trkpt><trkpt lat="42.6144931" lon="12.2901277"><ele>241.6</ele><time>2026-04-03T14:24:07.504Z</time></trkpt><trkpt lat="42.6145979" lon="12.2901064"><ele>241.40000000000003</ele><time>2026-04-03T14:24:08.507Z</time></trkpt><trkpt lat="42.6146895" lon="12.290122"><ele>241.20000000000002</ele><time>2026-04-03T14:24:09.501Z</time></trkpt><trkpt lat="42.6147778" lon="12.2901681"><ele>241.0</ele><time>2026-04-03T14:24:10.501Z</time></trkpt><trkpt lat="42.6148611" lon="12.2902531"><ele>241.0</ele><time>2026-04-03T14:24:11.476Z</time></trkpt><trkpt lat="42.6149383" lon="12.2903373"><ele>241.00000000000003</ele><time>2026-04-03T14:24:12.482Z</time></trkpt><trkpt lat="42.6150114" lon="12.2904119"><ele>241.00000000000003</ele><time>2026-04-03T14:24:13.499Z</time></trkpt><trkpt lat="42.6150704" lon="12.2904692"><ele>241.0</ele><time>2026-04-03T14:24:14.501Z</time></trkpt><trkpt lat="42.6151694" lon="12.2905573"><ele>241.0</ele><time>2026-04-03T14:24:16.5Z</time></trkpt><trkpt lat="42.6152461" lon="12.2906314"><ele>240.75</ele><time>2026-04-03T14:24:18.501Z</time></trkpt><trkpt lat="42.6153855" lon="12.2907639"><ele>240.5</ele><time>2026-04-03T14:24:21.498Z</time></trkpt><trkpt lat="42.6154425" lon="12.2908103"><ele>240.25</ele><time>2026-04-03T14:24:22.483Z</time></trkpt><trkpt lat="42.6155544" lon="12.2909049"><ele>240.0</ele><time>2026-04-03T14:24:24.475Z</time></trkpt><trkpt lat="42.6156575" lon="12.2909983"><ele>240.0</ele><time>2026-04-03T14:24:26.48Z</time></trkpt><trkpt lat="42.6157544" lon="12.2910929"><ele>240.0</ele><time>2026-04-03T14:24:28.48Z</time></trkpt><trkpt lat="42.6158538" lon="12.2911809"><ele>240.0</ele><time>2026-04-03T14:24:30.482Z</time></trkpt><trkpt lat="42.6159571" lon="12.2912697"><ele>240.0</ele><time>2026-04-03T14:24:32.488Z</time></trkpt><trkpt lat="42.6160634" lon="12.2913646"><ele>240.5</ele><time>2026-04-03T14:24:34.481Z</time></trkpt><trkpt lat="42.6161639" lon="12.2914443"><ele>241.0</ele><time>2026-04-03T14:24:36.485Z</time></trkpt><trkpt lat="42.616267" lon="12.2915168"><ele>241.5</ele><time>2026-04-03T14:24:38.485Z</time></trkpt><trkpt lat="42.6163758" lon="12.2915676"><ele>242.0</ele><time>2026-04-03T14:24:40.483Z</time></trkpt><trkpt lat="42.6164846" lon="12.2915996"><ele>242.0</ele><time>2026-04-03T14:24:42.484Z</time></trkpt><trkpt lat="42.6165868" lon="12.2916083"><ele>242.0</ele><time>2026-04-03T14:24:44.475Z</time></trkpt><trkpt lat="42.6166928" lon="12.2915736"><ele>242.0</ele><time>2026-04-03T14:24:46.49Z</time></trkpt><trkpt lat="42.6167588" lon="12.2915275"><ele>242.0</ele><time>2026-04-03T14:24:47.491Z</time></trkpt><trkpt lat="42.6168368" lon="12.2914603"><ele>242.0</ele><time>2026-04-03T14:24:48.502Z</time></trkpt><trkpt lat="42.616915" lon="12.2913653"><ele>242.75</ele><time>2026-04-03T14:24:49.479Z</time></trkpt><trkpt lat="42.6169859" lon="12.291247"><ele>243.5</ele><time>2026-04-03T14:24:50.497Z</time></trkpt><trkpt lat="42.617047" lon="12.291105"><ele>244.25</ele><time>2026-04-03T14:24:51.492Z</time></trkpt><trkpt lat="42.6170869" lon="12.2909568"><ele>245.0</ele><time>2026-04-03T14:24:52.502Z</time></trkpt><trkpt lat="42.6171144" lon="12.2907968"><ele>245.0</ele><time>2026-04-03T14:24:53.487Z</time></trkpt><trkpt lat="42.6171218" lon="12.2905974"><ele>245.0</ele><time>2026-04-03T14:24:54.493Z</time></trkpt><trkpt lat="42.6171153" lon="12.2903815"><ele>245.0</ele><time>2026-04-03T14:24:55.503Z</time></trkpt><trkpt lat="42.6171031" lon="12.2901712"><ele>244.25</ele><time>2026-04-03T14:24:56.495Z</time></trkpt><trkpt lat="42.6170842" lon="12.2899597"><ele>243.5</ele><time>2026-04-03T14:24:57.501Z</time></trkpt><trkpt lat="42.6170605" lon="12.289755"><ele>242.75</ele><time>2026-04-03T14:24:58.5Z</time></trkpt><trkpt lat="42.6170349" lon="12.2895728"><ele>242.0</ele><time>2026-04-03T14:24:59.506Z</time></trkpt><trkpt lat="42.6170151" lon="12.289396"><ele>242.0</ele><time>2026-04-03T14:25:00.481Z</time></trkpt><trkpt lat="42.6170048" lon="12.2892132"><ele>242.0</ele><time>2026-04-03T14:25:01.485Z</time></trkpt><trkpt lat="42.6169976" lon="12.2890102"><ele>242.0</ele><time>2026-04-03T14:25:02.483Z</time></trkpt><trkpt lat="42.616988" lon="12.2887951"><ele>242.0</ele><time>2026-04-03T14:25:03.499Z</time></trkpt><trkpt lat="42.6169802" lon="12.2885832"><ele>236.75</ele><time>2026-04-03T14:25:04.477Z</time></trkpt><trkpt lat="42.6169702" lon="12.2883796"><ele>231.5</ele><time>2026-04-03T14:25:05.495Z</time></trkpt><trkpt lat="42.6169658" lon="12.2881846"><ele>226.25</ele><time>2026-04-03T14:25:06.5Z</time></trkpt><trkpt lat="42.6169631" lon="12.2879867"><ele>221.0</ele><time>2026-04-03T14:25:07.504Z</time></trkpt><trkpt lat="42.6169607" lon="12.2877698"><ele>218.66666666666669</ele><time>2026-04-03T14:25:08.487Z</time></trkpt><trkpt lat="42.6169602" lon="12.2875354"><ele>216.33333333333331</ele><time>2026-04-03T14:25:09.491Z</time></trkpt><trkpt lat="42.6169562" lon="12.2873209"><ele>214.0</ele><time>2026-04-03T14:25:10.479Z</time></trkpt><trkpt lat="42.6169479" lon="12.2871365"><ele>213.39999999999998</ele><time>2026-04-03T14:25:11.5Z</time></trkpt><trkpt lat="42.6169297" lon="12.2869691"><ele>212.79999999999998</ele><time>2026-04-03T14:25:12.49Z</time></trkpt><trkpt lat="42.6168875" lon="12.2868227"><ele>212.2</ele><time>2026-04-03T14:25:13.487Z</time></trkpt><trkpt lat="42.6168329" lon="12.2866986"><ele>211.60000000000002</ele><time>2026-04-03T14:25:14.504Z</time></trkpt><trkpt lat="42.616773" lon="12.2866054"><ele>211.0</ele><time>2026-04-03T14:25:15.487Z</time></trkpt><trkpt lat="42.6166998" lon="12.286519"><ele>210.99999999999997</ele><time>2026-04-03T14:25:17.501Z</time></trkpt><trkpt lat="42.6166587" lon="12.2864325"><ele>211.0</ele><time>2026-04-03T14:25:20.501Z</time></trkpt><trkpt lat="42.6165974" lon="12.2863872"><ele>211.0</ele><time>2026-04-03T14:25:24.497Z</time></trkpt><trkpt lat="42.616508" lon="12.2863714"><ele>211.0</ele><time>2026-04-03T14:25:56.491Z</time></trkpt><trkpt lat="42.6164277" lon="12.286343"><ele>210.99999999999997</ele><time>2026-04-03T14:25:57.488Z</time></trkpt><trkpt lat="42.6163195" lon="12.2862806"><ele>211.0</ele><time>2026-04-03T14:25:58.506Z</time></trkpt><trkpt lat="42.6161856" lon="12.2862012"><ele>209.66666666666666</ele><time>2026-04-03T14:25:59.501Z</time></trkpt><trkpt lat="42.6160228" lon="12.2861231"><ele>208.33333333333331</ele><time>2026-04-03T14:26:00.484Z</time></trkpt><trkpt lat="42.615852" lon="12.2860363"><ele>207.0</ele><time>2026-04-03T14:26:01.486Z</time></trkpt><trkpt lat="42.6156926" lon="12.285956"><ele>207.0</ele><time>2026-04-03T14:26:02.501Z</time></trkpt><trkpt lat="42.6155514" lon="12.2858958"><ele>207.0</ele><time>2026-04-03T14:26:03.5Z</time></trkpt><trkpt lat="42.6154182" lon="12.2858363"><ele>207.0</ele><time>2026-04-03T14:26:04.487Z</time></trkpt><trkpt lat="42.6152949" lon="12.2857808"><ele>207.0</ele><time>2026-04-03T14:26:05.483Z</time></trkpt><trkpt lat="42.6151764" lon="12.2857203"><ele>206.8</ele><time>2026-04-03T14:26:06.503Z</time></trkpt><trkpt lat="42.6150751" lon="12.2856613"><ele>206.6</ele><time>2026-04-03T14:26:07.506Z</time></trkpt><trkpt lat="42.6149926" lon="12.2856043"><ele>206.4</ele><time>2026-04-03T14:26:08.505Z</time></trkpt><trkpt lat="42.6149144" lon="12.2855538"><ele>206.20000000000002</ele><time>2026-04-03T14:26:09.502Z</time></trkpt><trkpt lat="42.6148418" lon="12.2855008"><ele>206.0</ele><time>2026-04-03T14:26:10.5Z</time></trkpt><trkpt lat="42.6147624" lon="12.2854453"><ele>206.0</ele><time>2026-04-03T14:26:11.501Z</time></trkpt><trkpt lat="42.6146866" lon="12.2853784"><ele>206.0</ele><time>2026-04-03T14:26:12.498Z</time></trkpt><trkpt lat="42.6146149" lon="12.2853021"><ele>206.0</ele><time>2026-04-03T14:26:13.494Z</time></trkpt><trkpt lat="42.6145402" lon="12.2852239"><ele>206.0</ele><time>2026-04-03T14:26:14.5Z</time></trkpt><trkpt lat="42.6144653" lon="12.2851474"><ele>206.0</ele><time>2026-04-03T14:26:15.491Z</time></trkpt><trkpt lat="42.6143865" lon="12.2850764"><ele>204.0</ele><time>2026-04-03T14:26:16.503Z</time></trkpt><trkpt lat="42.6143062" lon="12.2850091"><ele>202.0</ele><time>2026-04-03T14:26:17.505Z</time></trkpt><trkpt lat="42.6142226" lon="12.2849564"><ele>200.0</ele><time>2026-04-03T14:26:18.501Z</time></trkpt><trkpt lat="42.6141379" lon="12.284908"><ele>198.0</ele><time>2026-04-03T14:26:19.503Z</time></trkpt><trkpt lat="42.6140586" lon="12.2848632"><ele>196.0</ele><time>2026-04-03T14:26:20.482Z</time></trkpt><trkpt lat="42.6139808" lon="12.2848117"><ele>196.0</ele><time>2026-04-03T14:26:21.487Z</time></trkpt><trkpt lat="42.6139079" lon="12.2847643"><ele>196.0</ele><time>2026-04-03T14:26:22.477Z</time></trkpt><trkpt lat="42.6138327" lon="12.2847145"><ele>196.0</ele><time>2026-04-03T14:26:23.501Z</time></trkpt><trkpt lat="42.6137541" lon="12.2846548"><ele>196.0</ele><time>2026-04-03T14:26:24.504Z</time></trkpt><trkpt lat="42.6136691" lon="12.2845879"><ele>196.0</ele><time>2026-04-03T14:26:25.506Z</time></trkpt><trkpt lat="42.6135811" lon="12.2845123"><ele>195.60000000000002</ele><time>2026-04-03T14:26:26.488Z</time></trkpt><trkpt lat="42.6134903" lon="12.2844314"><ele>195.2</ele><time>2026-04-03T14:26:27.499Z</time></trkpt><trkpt lat="42.6133997" lon="12.2843329"><ele>194.8</ele><time>2026-04-03T14:26:28.503Z</time></trkpt><trkpt lat="42.6133223" lon="12.2842304"><ele>194.39999999999998</ele><time>2026-04-03T14:26:29.497Z</time></trkpt><trkpt lat="42.6132593" lon="12.2841307"><ele>194.0</ele><time>2026-04-03T14:26:30.498Z</time></trkpt><trkpt lat="42.6132022" lon="12.2840399"><ele>194.00000000000003</ele><time>2026-04-03T14:26:31.506Z</time></trkpt><trkpt lat="42.613146" lon="12.2839574"><ele>194.0</ele><time>2026-04-03T14:26:32.496Z</time></trkpt><trkpt lat="42.6130963" lon="12.2838761"><ele>194.0</ele><time>2026-04-03T14:26:33.502Z</time></trkpt><trkpt lat="42.613046" lon="12.2838036"><ele>194.0</ele><time>2026-04-03T14:26:34.507Z</time></trkpt><trkpt lat="42.6129902" lon="12.2837492"><ele>194.00000000000003</ele><time>2026-04-03T14:26:35.499Z</time></trkpt><trkpt lat="42.6129332" lon="12.2837095"><ele>194.0</ele><time>2026-04-03T14:26:36.499Z</time></trkpt><trkpt lat="42.6128263" lon="12.2836508"><ele>193.6</ele><time>2026-04-03T14:26:38.49Z</time></trkpt><trkpt lat="42.6127393" lon="12.2835994"><ele>193.2</ele><time>2026-04-03T14:26:40.502Z</time></trkpt><trkpt lat="42.6126376" lon="12.2835246"><ele>192.79999999999998</ele><time>2026-04-03T14:26:55.502Z</time></trkpt><trkpt lat="42.6125629" lon="12.2834653"><ele>192.39999999999998</ele><time>2026-04-03T14:26:56.473Z</time></trkpt><trkpt lat="42.6124827" lon="12.2833895"><ele>192.0</ele><time>2026-04-03T14:26:57.488Z</time></trkpt><trkpt lat="42.6123981" lon="12.2832789"><ele>192.0</ele><time>2026-04-03T14:26:58.5Z</time></trkpt><trkpt lat="42.6123211" lon="12.2831676"><ele>192.0</ele><time>2026-04-03T14:26:59.488Z</time></trkpt><trkpt lat="42.6122636" lon="12.2830656"><ele>192.0</ele><time>2026-04-03T14:27:00.489Z</time></trkpt><trkpt lat="42.6122176" lon="12.2829528"><ele>192.0</ele><time>2026-04-03T14:27:01.491Z</time></trkpt><trkpt lat="42.6121945" lon="12.282836"><ele>192.0</ele><time>2026-04-03T14:27:02.504Z</time></trkpt><trkpt lat="42.612184" lon="12.2827262"><ele>193.16666666666666</ele><time>2026-04-03T14:27:03.492Z</time></trkpt><trkpt lat="42.6121875" lon="12.2826104"><ele>194.33333333333331</ele><time>2026-04-03T14:27:04.488Z</time></trkpt><trkpt lat="42.6121918" lon="12.2825087"><ele>195.5</ele><time>2026-04-03T14:27:05.493Z</time></trkpt><trkpt lat="42.6121873" lon="12.2824159"><ele>196.66666666666666</ele><time>2026-04-03T14:27:06.506Z</time></trkpt><trkpt lat="42.6121663" lon="12.2823189"><ele>197.83333333333331</ele><time>2026-04-03T14:27:07.503Z</time></trkpt><trkpt lat="42.6121172" lon="12.2822222"><ele>199.0</ele><time>2026-04-03T14:27:08.479Z</time></trkpt><trkpt lat="42.6120429" lon="12.2821267"><ele>201.0</ele><time>2026-04-03T14:27:09.504Z</time></trkpt><trkpt lat="42.6119635" lon="12.2820248"><ele>203.0</ele><time>2026-04-03T14:27:10.495Z</time></trkpt><trkpt lat="42.6118845" lon="12.2819172"><ele>205.0</ele><time>2026-04-03T14:27:11.488Z</time></trkpt><trkpt lat="42.6118094" lon="12.2818345"><ele>207.0</ele><time>2026-04-03T14:27:12.507Z</time></trkpt><trkpt lat="42.6117338" lon="12.2817944"><ele>209.0</ele><time>2026-04-03T14:27:13.485Z</time></trkpt><trkpt lat="42.6116643" lon="12.2817919"><ele>209.00000000000003</ele><time>2026-04-03T14:27:14.486Z</time></trkpt><trkpt lat="42.6115928" lon="12.2818029"><ele>209.0</ele><time>2026-04-03T14:27:15.502Z</time></trkpt><trkpt lat="42.6115246" lon="12.281842"><ele>209.0</ele><time>2026-04-03T14:27:16.503Z</time></trkpt><trkpt lat="42.6114548" lon="12.2818817"><ele>209.0</ele><time>2026-04-03T14:27:17.497Z</time></trkpt><trkpt lat="42.6113912" lon="12.2819062"><ele>209.00000000000003</ele><time>2026-04-03T14:27:18.48Z</time></trkpt><trkpt lat="42.6112738" lon="12.2818815"><ele>209.0</ele><time>2026-04-03T14:27:20.506Z</time></trkpt><trkpt lat="42.6112137" lon="12.2818446"><ele>208.6</ele><time>2026-04-03T14:27:21.494Z</time></trkpt><trkpt lat="42.6111506" lon="12.2817886"><ele>208.2</ele><time>2026-04-03T14:27:22.505Z</time></trkpt><trkpt lat="42.6110762" lon="12.2817159"><ele>207.79999999999998</ele><time>2026-04-03T14:27:23.499Z</time></trkpt><trkpt lat="42.6109891" lon="12.2816205"><ele>207.39999999999998</ele><time>2026-04-03T14:27:24.505Z</time></trkpt><trkpt lat="42.6108865" lon="12.281525"><ele>207.0</ele><time>2026-04-03T14:27:25.496Z</time></trkpt><trkpt lat="42.6107839" lon="12.2814296"><ele>207.0</ele><time>2026-04-03T14:27:26.48Z</time></trkpt><trkpt lat="42.6106797" lon="12.2813286"><ele>207.0</ele><time>2026-04-03T14:27:27.499Z</time></trkpt><trkpt lat="42.6105721" lon="12.2812276"><ele>207.0</ele><time>2026-04-03T14:27:28.495Z</time></trkpt><trkpt lat="42.6104591" lon="12.2811155"><ele>207.0</ele><time>2026-04-03T14:27:29.494Z</time></trkpt><trkpt lat="42.6103303" lon="12.2810038"><ele>203.0</ele><time>2026-04-03T14:27:30.487Z</time></trkpt><trkpt lat="42.6102056" lon="12.2809"><ele>199.0</ele><time>2026-04-03T14:27:31.499Z</time></trkpt><trkpt lat="42.6100831" lon="12.2807977"><ele>195.0</ele><time>2026-04-03T14:27:33.396Z</time></trkpt><trkpt lat="42.6098269" lon="12.2806067"><ele>194.2</ele><time>2026-04-03T14:27:34.484Z</time></trkpt><trkpt lat="42.6097115" lon="12.2805374"><ele>193.4</ele><time>2026-04-03T14:27:35.493Z</time></trkpt><trkpt lat="42.6096066" lon="12.2804835"><ele>192.60000000000002</ele><time>2026-04-03T14:27:36.5Z</time></trkpt><trkpt lat="42.6095067" lon="12.2804568"><ele>191.8</ele><time>2026-04-03T14:27:37.5Z</time></trkpt><trkpt lat="42.6094122" lon="12.2804503"><ele>191.0</ele><time>2026-04-03T14:27:38.494Z</time></trkpt><trkpt lat="42.6093074" lon="12.2804539"><ele>190.8</ele><time>2026-04-03T14:27:39.494Z</time></trkpt><trkpt lat="42.6091967" lon="12.2804648"><ele>190.60000000000002</ele><time>2026-04-03T14:27:40.492Z</time></trkpt><trkpt lat="42.6090949" lon="12.2804768"><ele>190.4</ele><time>2026-04-03T14:27:41.487Z</time></trkpt><trkpt lat="42.6090021" lon="12.2804822"><ele>190.2</ele><time>2026-04-03T14:27:42.49Z</time></trkpt><trkpt lat="42.6089051" lon="12.2804654"><ele>190.0</ele><time>2026-04-03T14:27:43.499Z</time></trkpt><trkpt lat="42.6087939" lon="12.2804197"><ele>190.0</ele><time>2026-04-03T14:27:44.49Z</time></trkpt><trkpt lat="42.6086848" lon="12.280375"><ele>190.0</ele><time>2026-04-03T14:27:45.487Z</time></trkpt><trkpt lat="42.6085873" lon="12.280344"><ele>190.0</ele><time>2026-04-03T14:27:46.499Z</time></trkpt><trkpt lat="42.6085019" lon="12.280346"><ele>190.0</ele><time>2026-04-03T14:27:47.494Z</time></trkpt><trkpt lat="42.6084155" lon="12.2803744"><ele>190.0</ele><time>2026-04-03T14:27:48.488Z</time></trkpt><trkpt lat="42.6083192" lon="12.2804039"><ele>188.5</ele><time>2026-04-03T14:27:49.481Z</time></trkpt><trkpt lat="42.6081972" lon="12.280434"><ele>187.0</ele><time>2026-04-03T14:27:50.473Z</time></trkpt><trkpt lat="42.6080503" lon="12.2804699"><ele>185.5</ele><time>2026-04-03T14:27:51.489Z</time></trkpt><trkpt lat="42.6078913" lon="12.2805174"><ele>184.0</ele><time>2026-04-03T14:27:52.498Z</time></trkpt><trkpt lat="42.6077416" lon="12.2805635"><ele>187.5</ele><time>2026-04-03T14:27:53.491Z</time></trkpt><trkpt lat="42.6076067" lon="12.2806005"><ele>191.0</ele><time>2026-04-03T14:27:54.496Z</time></trkpt><trkpt lat="42.6074805" lon="12.2806253"><ele>194.5</ele><time>2026-04-03T14:27:55.491Z</time></trkpt><trkpt lat="42.607363" lon="12.2806505"><ele>198.0</ele><time>2026-04-03T14:27:56.482Z</time></trkpt><trkpt lat="42.6072536" lon="12.2806832"><ele>198.0</ele><time>2026-04-03T14:27:57.487Z</time></trkpt><trkpt lat="42.6071592" lon="12.2807254"><ele>198.0</ele><time>2026-04-03T14:27:58.499Z</time></trkpt><trkpt lat="42.607072" lon="12.2807376"><ele>198.0</ele><time>2026-04-03T14:27:59.491Z</time></trkpt><trkpt lat="42.6069654" lon="12.2807039"><ele>198.0</ele><time>2026-04-03T14:28:00.497Z</time></trkpt><trkpt lat="42.6068359" lon="12.2806379"><ele>198.0</ele><time>2026-04-03T14:28:01.492Z</time></trkpt><trkpt lat="42.6067114" lon="12.2805838"><ele>195.2</ele><time>2026-04-03T14:28:02.498Z</time></trkpt><trkpt lat="42.6065945" lon="12.280534"><ele>192.4</ele><time>2026-04-03T14:28:03.493Z</time></trkpt><trkpt lat="42.6064966" lon="12.2804742"><ele>189.6</ele><time>2026-04-03T14:28:04.491Z</time></trkpt><trkpt lat="42.6063981" lon="12.2804096"><ele>186.79999999999998</ele><time>2026-04-03T14:28:05.493Z</time></trkpt><trkpt lat="42.6063067" lon="12.2803844"><ele>184.0</ele><time>2026-04-03T14:28:06.496Z</time></trkpt><trkpt lat="42.6062241" lon="12.280375"><ele>187.0</ele><time>2026-04-03T14:28:07.492Z</time></trkpt><trkpt lat="42.6061346" lon="12.2803599"><ele>190.0</ele><time>2026-04-03T14:28:08.494Z</time></trkpt><trkpt lat="42.6060503" lon="12.2803252"><ele>193.0</ele><time>2026-04-03T14:28:09.493Z</time></trkpt><trkpt lat="42.6059726" lon="12.28028"><ele>196.0</ele><time>2026-04-03T14:28:10.511Z</time></trkpt><trkpt lat="42.6058714" lon="12.2802615"><ele>199.0</ele><time>2026-04-03T14:28:11.494Z</time></trkpt><trkpt lat="42.605769" lon="12.2802463"><ele>199.0</ele><time>2026-04-03T14:28:12.503Z</time></trkpt><trkpt lat="42.6056669" lon="12.2802387"><ele>199.0</ele><time>2026-04-03T14:28:13.491Z</time></trkpt><trkpt lat="42.6055663" lon="12.2802308"><ele>199.0</ele><time>2026-04-03T14:28:14.494Z</time></trkpt><trkpt lat="42.6054571" lon="12.280203"><ele>199.0</ele><time>2026-04-03T14:28:15.496Z</time></trkpt><trkpt lat="42.6053489" lon="12.2801657"><ele>199.0</ele><time>2026-04-03T14:28:16.504Z</time></trkpt><trkpt lat="42.6052501" lon="12.2801349"><ele>201.6</ele><time>2026-04-03T14:28:17.496Z</time></trkpt><trkpt lat="42.6051601" lon="12.2800994"><ele>204.2</ele><time>2026-04-03T14:28:18.502Z</time></trkpt><trkpt lat="42.6050716" lon="12.2800384"><ele>206.79999999999998</ele><time>2026-04-03T14:28:19.503Z</time></trkpt><trkpt lat="42.6049783" lon="12.2799584"><ele>209.39999999999998</ele><time>2026-04-03T14:28:20.493Z</time></trkpt><trkpt lat="42.6048703" lon="12.2798725"><ele>212.0</ele><time>2026-04-03T14:28:21.5Z</time></trkpt><trkpt lat="42.6047569" lon="12.2797959"><ele>211.39999999999998</ele><time>2026-04-03T14:28:22.491Z</time></trkpt><trkpt lat="42.6046544" lon="12.2797329"><ele>210.79999999999998</ele><time>2026-04-03T14:28:23.493Z</time></trkpt><trkpt lat="42.6045465" lon="12.2796814"><ele>210.2</ele><time>2026-04-03T14:28:24.489Z</time></trkpt><trkpt lat="42.6044397" lon="12.2796331"><ele>209.6</ele><time>2026-04-03T14:28:25.498Z</time></trkpt><trkpt lat="42.604344" lon="12.2795913"><ele>209.0</ele><time>2026-04-03T14:28:26.49Z</time></trkpt><trkpt lat="42.6042494" lon="12.2795639"><ele>211.2</ele><time>2026-04-03T14:28:27.495Z</time></trkpt><trkpt lat="42.6041467" lon="12.2795543"><ele>213.39999999999998</ele><time>2026-04-03T14:28:28.497Z</time></trkpt><trkpt lat="42.6040515" lon="12.2795586"><ele>215.6</ele><time>2026-04-03T14:28:29.491Z</time></trkpt><trkpt lat="42.6039604" lon="12.2795692"><ele>217.8</ele><time>2026-04-03T14:28:30.506Z</time></trkpt><trkpt lat="42.6038688" lon="12.2795617"><ele>220.0</ele><time>2026-04-03T14:28:31.501Z</time></trkpt><trkpt lat="42.6037714" lon="12.279538"><ele>220.0</ele><time>2026-04-03T14:28:32.497Z</time></trkpt><trkpt lat="42.6036708" lon="12.2795078"><ele>220.0</ele><time>2026-04-03T14:28:33.5Z</time></trkpt><trkpt lat="42.6035689" lon="12.2794752"><ele>220.0</ele><time>2026-04-03T14:28:34.498Z</time></trkpt><trkpt lat="42.6034692" lon="12.2794384"><ele>220.0</ele><time>2026-04-03T14:28:35.501Z</time></trkpt><trkpt lat="42.6033853" lon="12.2793967"><ele>220.0</ele><time>2026-04-03T14:28:36.504Z</time></trkpt><trkpt lat="42.6033148" lon="12.2793648"><ele>222.83333333333331</ele><time>2026-04-03T14:28:37.502Z</time></trkpt><trkpt lat="42.6032457" lon="12.2793384"><ele>225.66666666666666</ele><time>2026-04-03T14:28:38.492Z</time></trkpt><trkpt lat="42.6031522" lon="12.2793606"><ele>228.5</ele><time>2026-04-03T14:28:40.49Z</time></trkpt><trkpt lat="42.603088" lon="12.2794645"><ele>231.33333333333331</ele><time>2026-04-03T14:28:42.5Z</time></trkpt><trkpt lat="42.6030462" lon="12.2795342"><ele>234.16666666666666</ele><time>2026-04-03T14:28:43.501Z</time></trkpt><trkpt lat="42.6030002" lon="12.2796107"><ele>237.0</ele><time>2026-04-03T14:28:44.502Z</time></trkpt><trkpt lat="42.6029555" lon="12.2796726"><ele>237.0</ele><time>2026-04-03T14:28:45.496Z</time></trkpt><trkpt lat="42.6028726" lon="12.2797119"><ele>237.0</ele><time>2026-04-03T14:28:47.498Z</time></trkpt><trkpt lat="42.6027747" lon="12.2796858"><ele>237.0</ele><time>2026-04-03T14:28:49.504Z</time></trkpt><trkpt lat="42.6026892" lon="12.2796302"><ele>237.0</ele><time>2026-04-03T14:28:51.502Z</time></trkpt><trkpt lat="42.6026089" lon="12.2795529"><ele>237.0</ele><time>2026-04-03T14:28:53.494Z</time></trkpt><trkpt lat="42.6025266" lon="12.2794844"><ele>238.2</ele><time>2026-04-03T14:28:55.504Z</time></trkpt><trkpt lat="42.6024432" lon="12.2794301"><ele>239.39999999999998</ele><time>2026-04-03T14:28:57.496Z</time></trkpt><trkpt lat="42.6023287" lon="12.2793706"><ele>240.60000000000002</ele><time>2026-04-03T14:28:59.5Z</time></trkpt><trkpt lat="42.6022576" lon="12.2793378"><ele>241.8</ele><time>2026-04-03T14:29:00.503Z</time></trkpt><trkpt lat="42.6021752" lon="12.2793072"><ele>243.0</ele><time>2026-04-03T14:29:01.498Z</time></trkpt><trkpt lat="42.6020815" lon="12.2792886"><ele>243.2</ele><time>2026-04-03T14:29:02.498Z</time></trkpt><trkpt lat="42.6019808" lon="12.2792794"><ele>243.4</ele><time>2026-04-03T14:29:03.494Z</time></trkpt><trkpt lat="42.601864" lon="12.2792841"><ele>243.59999999999997</ele><time>2026-04-03T14:29:04.5Z</time></trkpt><trkpt lat="42.6017565" lon="12.2792871"><ele>243.79999999999998</ele><time>2026-04-03T14:29:05.493Z</time></trkpt><trkpt lat="42.6016651" lon="12.2792843"><ele>244.0</ele><time>2026-04-03T14:29:06.502Z</time></trkpt><trkpt lat="42.6015759" lon="12.2792675"><ele>243.99999999999997</ele><time>2026-04-03T14:29:07.489Z</time></trkpt><trkpt lat="42.6014987" lon="12.279235"><ele>244.0</ele><time>2026-04-03T14:29:08.499Z</time></trkpt><trkpt lat="42.6014342" lon="12.2792006"><ele>243.99999999999997</ele><time>2026-04-03T14:29:09.495Z</time></trkpt><trkpt lat="42.601371" lon="12.2791773"><ele>243.99999999999997</ele><time>2026-04-03T14:29:10.495Z</time></trkpt><trkpt lat="42.6012968" lon="12.2791734"><ele>244.0</ele><time>2026-04-03T14:29:11.497Z</time></trkpt><trkpt lat="42.6012148" lon="12.279172"><ele>243.99999999999997</ele><time>2026-04-03T14:29:12.48Z</time></trkpt><trkpt lat="42.6011404" lon="12.2791608"><ele>243.99999999999997</ele><time>2026-04-03T14:29:13.492Z</time></trkpt><trkpt lat="42.601072" lon="12.2791413"><ele>244.16666666666666</ele><time>2026-04-03T14:29:14.496Z</time></trkpt><trkpt lat="42.6010041" lon="12.2791439"><ele>244.33333333333331</ele><time>2026-04-03T14:29:15.482Z</time></trkpt><trkpt lat="42.6009285" lon="12.2791564"><ele>244.5</ele><time>2026-04-03T14:29:16.481Z</time></trkpt><trkpt lat="42.6008507" lon="12.2791804"><ele>244.66666666666669</ele><time>2026-04-03T14:29:17.474Z</time></trkpt><trkpt lat="42.6007775" lon="12.2792112"><ele>244.83333333333334</ele><time>2026-04-03T14:29:18.496Z</time></trkpt><trkpt lat="42.6007015" lon="12.2792664"><ele>245.0</ele><time>2026-04-03T14:29:19.496Z</time></trkpt><trkpt lat="42.6006174" lon="12.2793403"><ele>245.00000000000003</ele><time>2026-04-03T14:29:20.494Z</time></trkpt><trkpt lat="42.6005368" lon="12.2793927"><ele>245.0</ele><time>2026-04-03T14:29:21.494Z</time></trkpt><trkpt lat="42.6004692" lon="12.2794071"><ele>245.0</ele><time>2026-04-03T14:29:22.494Z</time></trkpt><trkpt lat="42.6003915" lon="12.2793924"><ele>245.0</ele><time>2026-04-03T14:29:23.498Z</time></trkpt><trkpt lat="42.6003046" lon="12.2793465"><ele>245.00000000000003</ele><time>2026-04-03T14:29:24.488Z</time></trkpt><trkpt lat="42.6002186" lon="12.2793145"><ele>245.0</ele><time>2026-04-03T14:29:25.49Z</time></trkpt><trkpt lat="42.6001383" lon="12.2792928"><ele>243.83333333333334</ele><time>2026-04-03T14:29:26.501Z</time></trkpt><trkpt lat="42.6000372" lon="12.2792267"><ele>242.66666666666669</ele><time>2026-04-03T14:29:28.497Z</time></trkpt><trkpt lat="42.5999874" lon="12.2791623"><ele>241.5</ele><time>2026-04-03T14:29:29.491Z</time></trkpt><trkpt lat="42.5999381" lon="12.2790859"><ele>240.33333333333331</ele><time>2026-04-03T14:29:30.5Z</time></trkpt><trkpt lat="42.5998856" lon="12.2790292"><ele>239.16666666666666</ele><time>2026-04-03T14:29:31.496Z</time></trkpt><trkpt lat="42.5998224" lon="12.2789785"><ele>238.0</ele><time>2026-04-03T14:29:32.49Z</time></trkpt><trkpt lat="42.5997441" lon="12.2789118"><ele>236.8</ele><time>2026-04-03T14:29:33.494Z</time></trkpt><trkpt lat="42.5996588" lon="12.2788426"><ele>235.60000000000002</ele><time>2026-04-03T14:29:34.498Z</time></trkpt><trkpt lat="42.5995831" lon="12.2787889"><ele>234.39999999999998</ele><time>2026-04-03T14:29:35.493Z</time></trkpt><trkpt lat="42.5995268" lon="12.2787478"><ele>233.2</ele><time>2026-04-03T14:29:36.504Z</time></trkpt><trkpt lat="42.5994265" lon="12.2786658"><ele>232.0</ele><time>2026-04-03T14:29:38.498Z</time></trkpt><trkpt lat="42.5993301" lon="12.2785681"><ele>231.99999999999997</ele><time>2026-04-03T14:29:40.503Z</time></trkpt><trkpt lat="42.5992691" lon="12.2784996"><ele>232.0</ele><time>2026-04-03T14:29:42.497Z</time></trkpt><trkpt lat="42.5991913" lon="12.27842"><ele>232.0</ele><time>2026-04-03T14:29:45.494Z</time></trkpt><trkpt lat="42.5991322" lon="12.278346"><ele>232.0</ele><time>2026-04-03T14:29:46.501Z</time></trkpt><trkpt lat="42.5990654" lon="12.2782463"><ele>231.99999999999997</ele><time>2026-04-03T14:29:47.494Z</time></trkpt><trkpt lat="42.5990052" lon="12.2781548"><ele>232.0</ele><time>2026-04-03T14:29:49.166Z</time></trkpt><trkpt lat="42.5989035" lon="12.2779995"><ele>230.6</ele><time>2026-04-03T14:29:50.489Z</time></trkpt><trkpt lat="42.5988601" lon="12.2779276"><ele>229.2</ele><time>2026-04-03T14:29:51.494Z</time></trkpt><trkpt lat="42.5987887" lon="12.2778136"><ele>227.8</ele><time>2026-04-03T14:29:53.507Z</time></trkpt><trkpt lat="42.5987417" lon="12.2777425"><ele>226.4</ele><time>2026-04-03T14:29:54.493Z</time></trkpt><trkpt lat="42.5986759" lon="12.2776445"><ele>225.0</ele><time>2026-04-03T14:29:55.489Z</time></trkpt><trkpt lat="42.5986002" lon="12.2775326"><ele>225.0</ele><time>2026-04-03T14:29:56.491Z</time></trkpt><trkpt lat="42.5985282" lon="12.2774403"><ele>225.0</ele><time>2026-04-03T14:29:57.49Z</time></trkpt><trkpt lat="42.5984747" lon="12.277366"><ele>225.0</ele><time>2026-04-03T14:29:58.493Z</time></trkpt><trkpt lat="42.5984312" lon="12.2773026"><ele>225.0</ele><time>2026-04-03T14:29:59.494Z</time></trkpt><trkpt lat="42.5983614" lon="12.2771704"><ele>225.0</ele><time>2026-04-03T14:30:01.493Z</time></trkpt><trkpt lat="42.5983516" lon="12.2770493"><ele>225.0</ele><time>2026-04-03T14:30:02.501Z</time></trkpt><trkpt lat="42.5983402" lon="12.2768969"><ele>226.6</ele><time>2026-04-03T14:30:03.488Z</time></trkpt><trkpt lat="42.5983239" lon="12.2768078"><ele>228.2</ele><time>2026-04-03T14:30:04.493Z</time></trkpt><trkpt lat="42.5982456" lon="12.2767275"><ele>229.8</ele><time>2026-04-03T14:30:06.49Z</time></trkpt><trkpt lat="42.5981506" lon="12.2766756"><ele>231.4</ele><time>2026-04-03T14:30:07.491Z</time></trkpt><trkpt lat="42.5980262" lon="12.2766078"><ele>233.0</ele><time>2026-04-03T14:30:08.496Z</time></trkpt><trkpt lat="42.5978954" lon="12.2765312"><ele>231.0</ele><time>2026-04-03T14:30:09.487Z</time></trkpt><trkpt lat="42.5977551" lon="12.2764395"><ele>229.0</ele><time>2026-04-03T14:30:10.485Z</time></trkpt><trkpt lat="42.5976234" lon="12.2763488"><ele>227.0</ele><time>2026-04-03T14:30:11.484Z</time></trkpt><trkpt lat="42.5975019" lon="12.2762587"><ele>225.0</ele><time>2026-04-03T14:30:12.489Z</time></trkpt><trkpt lat="42.5973852" lon="12.2761613"><ele>225.0</ele><time>2026-04-03T14:30:13.503Z</time></trkpt><trkpt lat="42.5972677" lon="12.2760638"><ele>225.0</ele><time>2026-04-03T14:30:14.505Z</time></trkpt><trkpt lat="42.5971526" lon="12.2759775"><ele>225.0</ele><time>2026-04-03T14:30:15.502Z</time></trkpt><trkpt lat="42.597054" lon="12.2759178"><ele>225.0</ele><time>2026-04-03T14:30:16.501Z</time></trkpt><trkpt lat="42.5969635" lon="12.2758731"><ele>222.75</ele><time>2026-04-03T14:30:17.506Z</time></trkpt><trkpt lat="42.5968635" lon="12.2758405"><ele>220.5</ele><time>2026-04-03T14:30:18.49Z</time></trkpt><trkpt lat="42.5967387" lon="12.2758217"><ele>218.25</ele><time>2026-04-03T14:30:19.505Z</time></trkpt><trkpt lat="42.5965976" lon="12.2758172"><ele>216.0</ele><time>2026-04-03T14:30:20.507Z</time></trkpt><trkpt lat="42.5964639" lon="12.2758216"><ele>216.0</ele><time>2026-04-03T14:30:21.493Z</time></trkpt><trkpt lat="42.5963412" lon="12.2758454"><ele>216.00000000000003</ele><time>2026-04-03T14:30:22.503Z</time></trkpt><trkpt lat="42.5962216" lon="12.2758828"><ele>216.00000000000003</ele><time>2026-04-03T14:30:23.5Z</time></trkpt><trkpt lat="42.5961213" lon="12.275926"><ele>216.0</ele><time>2026-04-03T14:30:24.509Z</time></trkpt><trkpt lat="42.5960441" lon="12.27597"><ele>216.0</ele><time>2026-04-03T14:30:25.504Z</time></trkpt><trkpt lat="42.5959754" lon="12.2761187"><ele>214.8</ele><time>2026-04-03T14:30:27.502Z</time></trkpt><trkpt lat="42.5959656" lon="12.2762584"><ele>213.60000000000002</ele><time>2026-04-03T14:30:28.494Z</time></trkpt><trkpt lat="42.5959672" lon="12.2763827"><ele>212.4</ele><time>2026-04-03T14:30:29.506Z</time></trkpt><trkpt lat="42.5959205" lon="12.2764918"><ele>211.2</ele><time>2026-04-03T14:30:31.505Z</time></trkpt><trkpt lat="42.5958537" lon="12.2765271"><ele>210.0</ele><time>2026-04-03T14:30:32.478Z</time></trkpt><trkpt lat="42.5957457" lon="12.2765488"><ele>210.0</ele><time>2026-04-03T14:30:33.481Z</time></trkpt><trkpt lat="42.5956163" lon="12.2765666"><ele>210.0</ele><time>2026-04-03T14:30:34.483Z</time></trkpt><trkpt lat="42.5954743" lon="12.276594"><ele>210.0</ele><time>2026-04-03T14:30:35.498Z</time></trkpt><trkpt lat="42.59533" lon="12.276642"><ele>210.0</ele><time>2026-04-03T14:30:36.512Z</time></trkpt><trkpt lat="42.5951948" lon="12.2766986"><ele>209.5</ele><time>2026-04-03T14:30:37.504Z</time></trkpt><trkpt lat="42.5950744" lon="12.2767525"><ele>209.0</ele><time>2026-04-03T14:30:38.485Z</time></trkpt><trkpt lat="42.5949604" lon="12.2767965"><ele>208.5</ele><time>2026-04-03T14:30:39.507Z</time></trkpt><trkpt lat="42.5948348" lon="12.2768447"><ele>208.0</ele><time>2026-04-03T14:30:40.494Z</time></trkpt><trkpt lat="42.5946921" lon="12.2768964"><ele>208.0</ele><time>2026-04-03T14:30:41.506Z</time></trkpt><trkpt lat="42.594543" lon="12.2769466"><ele>208.0</ele><time>2026-04-03T14:30:42.496Z</time></trkpt><trkpt lat="42.5944071" lon="12.2769981"><ele>208.0</ele><time>2026-04-03T14:30:43.501Z</time></trkpt><trkpt lat="42.5942823" lon="12.2770484"><ele>208.0</ele><time>2026-04-03T14:30:44.493Z</time></trkpt><trkpt lat="42.5941702" lon="12.2770973"><ele>207.2</ele><time>2026-04-03T14:30:45.509Z</time></trkpt><trkpt lat="42.594063" lon="12.2771461"><ele>206.4</ele><time>2026-04-03T14:30:46.495Z</time></trkpt><trkpt lat="42.593963" lon="12.2772024"><ele>205.6</ele><time>2026-04-03T14:30:47.504Z</time></trkpt><trkpt lat="42.5938708" lon="12.2772865"><ele>204.79999999999998</ele><time>2026-04-03T14:30:48.501Z</time></trkpt><trkpt lat="42.5937889" lon="12.2773781"><ele>204.0</ele><time>2026-04-03T14:30:49.486Z</time></trkpt><trkpt lat="42.593721" lon="12.2774555"><ele>201.6</ele><time>2026-04-03T14:30:50.491Z</time></trkpt><trkpt lat="42.5936453" lon="12.2775037"><ele>199.2</ele><time>2026-04-03T14:30:51.507Z</time></trkpt><trkpt lat="42.5935478" lon="12.2775268"><ele>196.79999999999998</ele><time>2026-04-03T14:30:52.503Z</time></trkpt><trkpt lat="42.593453" lon="12.277526"><ele>194.39999999999998</ele><time>2026-04-03T14:30:53.506Z</time></trkpt><trkpt lat="42.5933595" lon="12.2775251"><ele>192.0</ele><time>2026-04-03T14:30:54.499Z</time></trkpt><trkpt lat="42.5932562" lon="12.2775176"><ele>192.0</ele><time>2026-04-03T14:30:55.489Z</time></trkpt><trkpt lat="42.5931547" lon="12.2775043"><ele>192.0</ele><time>2026-04-03T14:30:56.512Z</time></trkpt><trkpt lat="42.5930577" lon="12.2774806"><ele>192.0</ele><time>2026-04-03T14:30:57.499Z</time></trkpt><trkpt lat="42.5929756" lon="12.2774572"><ele>192.0</ele><time>2026-04-03T14:30:59.176Z</time></trkpt><trkpt lat="42.59282" lon="12.2773783"><ele>189.0</ele><time>2026-04-03T14:31:00.499Z</time></trkpt><trkpt lat="42.5927459" lon="12.2773348"><ele>186.0</ele><time>2026-04-03T14:31:01.49Z</time></trkpt><trkpt lat="42.5926737" lon="12.2772894"><ele>183.0</ele><time>2026-04-03T14:31:02.476Z</time></trkpt><trkpt lat="42.5926054" lon="12.2772286"><ele>180.0</ele><time>2026-04-03T14:31:03.504Z</time></trkpt><trkpt lat="42.5925429" lon="12.2771727"><ele>177.0</ele><time>2026-04-03T14:31:04.501Z</time></trkpt><trkpt lat="42.5924876" lon="12.2771146"><ele>174.0</ele><time>2026-04-03T14:31:05.496Z</time></trkpt><trkpt lat="42.5924419" lon="12.2770518"><ele>172.33333333333334</ele><time>2026-04-03T14:31:06.486Z</time></trkpt><trkpt lat="42.5923938" lon="12.2769959"><ele>170.66666666666666</ele><time>2026-04-03T14:31:07.493Z</time></trkpt><trkpt lat="42.5923369" lon="12.2769387"><ele>169.0</ele><time>2026-04-03T14:31:08.497Z</time></trkpt><trkpt lat="42.5922751" lon="12.2768891"><ele>167.33333333333331</ele><time>2026-04-03T14:31:09.496Z</time></trkpt><trkpt lat="42.5922075" lon="12.2768492"><ele>165.66666666666666</ele><time>2026-04-03T14:31:10.492Z</time></trkpt><trkpt lat="42.5921303" lon="12.2768157"><ele>164.0</ele><time>2026-04-03T14:31:11.501Z</time></trkpt><trkpt lat="42.5920417" lon="12.2767788"><ele>163.14285714285714</ele><time>2026-04-03T14:31:12.488Z</time></trkpt><trkpt lat="42.5919531" lon="12.2767476"><ele>162.28571428571428</ele><time>2026-04-03T14:31:13.502Z</time></trkpt><trkpt lat="42.5918707" lon="12.2767235"><ele>161.42857142857144</ele><time>2026-04-03T14:31:14.488Z</time></trkpt><trkpt lat="42.5918037" lon="12.2766945"><ele>160.57142857142856</ele><time>2026-04-03T14:31:15.493Z</time></trkpt><trkpt lat="42.5917415" lon="12.276675"><ele>159.71428571428572</ele><time>2026-04-03T14:31:16.494Z</time></trkpt><trkpt lat="42.5916762" lon="12.2766621"><ele>158.85714285714286</ele><time>2026-04-03T14:31:17.503Z</time></trkpt><trkpt lat="42.5916061" lon="12.2766545"><ele>158.0</ele><time>2026-04-03T14:31:18.497Z</time></trkpt><trkpt lat="42.5915304" lon="12.2766451"><ele>158.0</ele><time>2026-04-03T14:31:19.502Z</time></trkpt><trkpt lat="42.5914516" lon="12.276637"><ele>158.0</ele><time>2026-04-03T14:31:20.494Z</time></trkpt><trkpt lat="42.5913656" lon="12.2766251"><ele>158.0</ele><time>2026-04-03T14:31:21.492Z</time></trkpt><trkpt lat="42.5912745" lon="12.2766038"><ele>158.0</ele><time>2026-04-03T14:31:22.49Z</time></trkpt><trkpt lat="42.5911888" lon="12.2765775"><ele>158.0</ele><time>2026-04-03T14:31:23.487Z</time></trkpt><trkpt lat="42.5911036" lon="12.2765448"><ele>158.0</ele><time>2026-04-03T14:31:24.49Z</time></trkpt><trkpt lat="42.5910204" lon="12.2765142"><ele>155.66666666666666</ele><time>2026-04-03T14:31:25.506Z</time></trkpt><trkpt lat="42.5909397" lon="12.2764945"><ele>153.33333333333331</ele><time>2026-04-03T14:31:26.5Z</time></trkpt><trkpt lat="42.5908638" lon="12.2764816"><ele>151.0</ele><time>2026-04-03T14:31:27.493Z</time></trkpt><trkpt lat="42.5907545" lon="12.2765081"><ele>148.66666666666666</ele><time>2026-04-03T14:31:29.493Z</time></trkpt><trkpt lat="42.5907019" lon="12.276563"><ele>146.33333333333334</ele><time>2026-04-03T14:31:30.49Z</time></trkpt><trkpt lat="42.5906394" lon="12.2766428"><ele>144.0</ele><time>2026-04-03T14:31:31.491Z</time></trkpt><trkpt lat="42.5905708" lon="12.2767283"><ele>144.0</ele><time>2026-04-03T14:31:32.489Z</time></trkpt><trkpt lat="42.5905051" lon="12.27681"><ele>144.0</ele><time>2026-04-03T14:31:33.486Z</time></trkpt><trkpt lat="42.59044" lon="12.2768953"><ele>144.0</ele><time>2026-04-03T14:31:34.503Z</time></trkpt><trkpt lat="42.5903683" lon="12.2769952"><ele>144.0</ele><time>2026-04-03T14:31:35.486Z</time></trkpt><trkpt lat="42.5903081" lon="12.2770869"><ele>144.0</ele><time>2026-04-03T14:31:36.495Z</time></trkpt><trkpt lat="42.5902591" lon="12.2771646"><ele>144.0</ele><time>2026-04-03T14:31:37.501Z</time></trkpt><trkpt lat="42.5902086" lon="12.2772266"><ele>142.0</ele><time>2026-04-03T14:31:38.498Z</time></trkpt><trkpt lat="42.5901024" lon="12.2772988"><ele>140.0</ele><time>2026-04-03T14:31:40.488Z</time></trkpt><trkpt lat="42.58998" lon="12.2773143"><ele>138.0</ele><time>2026-04-03T14:31:42.489Z</time></trkpt><trkpt lat="42.5899105" lon="12.2773122"><ele>136.0</ele><time>2026-04-03T14:31:43.494Z</time></trkpt><trkpt lat="42.5898425" lon="12.2772866"><ele>134.0</ele><time>2026-04-03T14:31:44.488Z</time></trkpt><trkpt lat="42.5897811" lon="12.2772375"><ele>134.0</ele><time>2026-04-03T14:31:45.495Z</time></trkpt><trkpt lat="42.5897118" lon="12.2771607"><ele>134.0</ele><time>2026-04-03T14:31:46.487Z</time></trkpt><trkpt lat="42.5896442" lon="12.2770763"><ele>134.0</ele><time>2026-04-03T14:31:47.488Z</time></trkpt><trkpt lat="42.5895765" lon="12.2769733"><ele>134.0</ele><time>2026-04-03T14:31:48.5Z</time></trkpt><trkpt lat="42.5895042" lon="12.2768501"><ele>134.0</ele><time>2026-04-03T14:31:49.493Z</time></trkpt><trkpt lat="42.5894403" lon="12.2767172"><ele>128.0</ele><time>2026-04-03T14:31:50.498Z</time></trkpt><trkpt lat="42.5893831" lon="12.2765797"><ele>122.0</ele><time>2026-04-03T14:31:51.504Z</time></trkpt><trkpt lat="42.5893328" lon="12.2764067"><ele>116.0</ele><time>2026-04-03T14:31:52.495Z</time></trkpt><trkpt lat="42.5892792" lon="12.2762376"><ele>110.0</ele><time>2026-04-03T14:31:53.497Z</time></trkpt><trkpt lat="42.5892355" lon="12.2760967"><ele>109.99999999999999</ele><time>2026-04-03T14:31:54.483Z</time></trkpt><trkpt lat="42.5892" lon="12.2759887"><ele>110.0</ele><time>2026-04-03T14:31:55.498Z</time></trkpt><trkpt lat="42.5891732" lon="12.2759082"><ele>110.0</ele><time>2026-04-03T14:31:56.506Z</time></trkpt><trkpt lat="42.5891308" lon="12.2758004"><ele>110.0</ele><time>2026-04-03T14:31:58.511Z</time></trkpt><trkpt lat="42.5891117" lon="12.2756889"><ele>109.99999999999999</ele><time>2026-04-03T14:32:00.501Z</time></trkpt><trkpt lat="42.5891645" lon="12.2755528"><ele>110.0</ele><time>2026-04-03T14:32:02.502Z</time></trkpt><trkpt lat="42.5892164" lon="12.2754588"><ele>110.5</ele><time>2026-04-03T14:32:03.5Z</time></trkpt><trkpt lat="42.5892915" lon="12.2753515"><ele>111.0</ele><time>2026-04-03T14:32:04.49Z</time></trkpt><trkpt lat="42.5893815" lon="12.2752327"><ele>111.5</ele><time>2026-04-03T14:32:05.5Z</time></trkpt><trkpt lat="42.589484" lon="12.275112"><ele>112.0</ele><time>2026-04-03T14:32:07.363Z</time></trkpt><trkpt lat="42.5896926" lon="12.2749068"><ele>112.00000000000001</ele><time>2026-04-03T14:32:08.493Z</time></trkpt><trkpt lat="42.5897696" lon="12.2748587"><ele>112.0</ele><time>2026-04-03T14:32:09.489Z</time></trkpt><trkpt lat="42.5898719" lon="12.2747934"><ele>112.0</ele><time>2026-04-03T14:32:11.491Z</time></trkpt><trkpt lat="42.5899545" lon="12.2747511"><ele>112.0</ele><time>2026-04-03T14:32:13.491Z</time></trkpt><trkpt lat="42.5900034" lon="12.2746903"><ele>112.00000000000001</ele><time>2026-04-03T14:32:16.492Z</time></trkpt><trkpt lat="42.5899408" lon="12.2746581"><ele>112.0</ele><time>2026-04-03T14:32:18.493Z</time></trkpt><trkpt lat="42.5898642" lon="12.2746593"><ele>110.0</ele><time>2026-04-03T14:32:19.503Z</time></trkpt><trkpt lat="42.5897576" lon="12.2746803"><ele>108.0</ele><time>2026-04-03T14:32:20.494Z</time></trkpt><trkpt lat="42.5896395" lon="12.2746916"><ele>106.0</ele><time>2026-04-03T14:32:21.506Z</time></trkpt><trkpt lat="42.5895143" lon="12.2746991"><ele>104.0</ele><time>2026-04-03T14:32:22.501Z</time></trkpt><trkpt lat="42.589398" lon="12.2747073"><ele>104.33333333333333</ele><time>2026-04-03T14:32:23.493Z</time></trkpt><trkpt lat="42.5892983" lon="12.27471"><ele>104.66666666666666</ele><time>2026-04-03T14:32:24.5Z</time></trkpt><trkpt lat="42.5892134" lon="12.2747069"><ele>105.0</ele><time>2026-04-03T14:32:25.507Z</time></trkpt><trkpt lat="42.5891395" lon="12.2746985"><ele>105.33333333333334</ele><time>2026-04-03T14:32:26.504Z</time></trkpt><trkpt lat="42.5890385" lon="12.2747074"><ele>105.66666666666667</ele><time>2026-04-03T14:32:28.5Z</time></trkpt><trkpt lat="42.5889793" lon="12.2747692"><ele>106.0</ele><time>2026-04-03T14:32:30.491Z</time></trkpt><trkpt lat="42.5889563" lon="12.2748636"><ele>106.0</ele><time>2026-04-03T14:32:31.5Z</time></trkpt><trkpt lat="42.5889468" lon="12.2750168"><ele>106.0</ele><time>2026-04-03T14:32:32.501Z</time></trkpt><trkpt lat="42.5889448" lon="12.2751937"><ele>106.0</ele><time>2026-04-03T14:32:33.505Z</time></trkpt><trkpt lat="42.5889458" lon="12.2754016"><ele>106.0</ele><time>2026-04-03T14:32:34.496Z</time></trkpt><trkpt lat="42.5889526" lon="12.2756377"><ele>107.0</ele><time>2026-04-03T14:32:35.5Z</time></trkpt><trkpt lat="42.5889585" lon="12.2758603"><ele>108.0</ele><time>2026-04-03T14:32:36.495Z</time></trkpt><trkpt lat="42.5889552" lon="12.2760428"><ele>109.0</ele><time>2026-04-03T14:32:37.497Z</time></trkpt><trkpt lat="42.5889518" lon="12.2762147"><ele>110.0</ele><time>2026-04-03T14:32:38.495Z</time></trkpt><trkpt lat="42.5889453" lon="12.2763744"><ele>110.0</ele><time>2026-04-03T14:32:39.504Z</time></trkpt><trkpt lat="42.5889431" lon="12.2765159"><ele>110.0</ele><time>2026-04-03T14:32:40.508Z</time></trkpt><trkpt lat="42.5889377" lon="12.2766456"><ele>110.0</ele><time>2026-04-03T14:32:41.5Z</time></trkpt><trkpt lat="42.58893" lon="12.2767695"><ele>110.0</ele><time>2026-04-03T14:32:42.486Z</time></trkpt><trkpt lat="42.5889248" lon="12.2769001"><ele>110.0</ele><time>2026-04-03T14:32:43.502Z</time></trkpt><trkpt lat="42.5889235" lon="12.2770214"><ele>110.0</ele><time>2026-04-03T14:32:44.5Z</time></trkpt><trkpt lat="42.5889246" lon="12.2771311"><ele>110.0</ele><time>2026-04-03T14:32:45.497Z</time></trkpt><trkpt lat="42.5889277" lon="12.277221"><ele>110.0</ele><time>2026-04-03T14:32:46.501Z</time></trkpt><trkpt lat="42.5889182" lon="12.2773451"><ele>110.0</ele><time>2026-04-03T14:32:48.499Z</time></trkpt><trkpt lat="42.5888508" lon="12.2773982"><ele>110.0</ele><time>2026-04-03T14:32:50.487Z</time></trkpt><trkpt lat="42.5887354" lon="12.2773038"><ele>107.25</ele><time>2026-04-03T14:32:52.482Z</time></trkpt><trkpt lat="42.5886564" lon="12.2771967"><ele>104.5</ele><time>2026-04-03T14:32:53.502Z</time></trkpt><trkpt lat="42.5885716" lon="12.2770656"><ele>101.75</ele><time>2026-04-03T14:32:54.503Z</time></trkpt><trkpt lat="42.5884871" lon="12.2769295"><ele>99.0</ele><time>2026-04-03T14:32:55.496Z</time></trkpt><trkpt lat="42.5883869" lon="12.2767794"><ele>99.0</ele><time>2026-04-03T14:32:56.503Z</time></trkpt><trkpt lat="42.5882928" lon="12.2766352"><ele>99.0</ele><time>2026-04-03T14:32:57.497Z</time></trkpt><trkpt lat="42.5882044" lon="12.2764909"><ele>99.0</ele><time>2026-04-03T14:32:58.505Z</time></trkpt><trkpt lat="42.5881162" lon="12.2763489"><ele>99.0</ele><time>2026-04-03T14:32:59.493Z</time></trkpt><trkpt lat="42.5880235" lon="12.2762103"><ele>99.0</ele><time>2026-04-03T14:33:00.501Z</time></trkpt><trkpt lat="42.5879267" lon="12.276078"><ele>99.0</ele><time>2026-04-03T14:33:01.479Z</time></trkpt><trkpt lat="42.5878339" lon="12.2759603"><ele>99.0</ele><time>2026-04-03T14:33:02.494Z</time></trkpt><trkpt lat="42.5877448" lon="12.2758493"><ele>99.0</ele><time>2026-04-03T14:33:03.497Z</time></trkpt><trkpt lat="42.5876599" lon="12.2757351"><ele>99.0</ele><time>2026-04-03T14:33:04.501Z</time></trkpt><trkpt lat="42.5875728" lon="12.2756062"><ele>99.0</ele><time>2026-04-03T14:33:05.491Z</time></trkpt><trkpt lat="42.5874935" lon="12.2754627"><ele>99.0</ele><time>2026-04-03T14:33:06.499Z</time></trkpt><trkpt lat="42.5874187" lon="12.2753153"><ele>99.0</ele><time>2026-04-03T14:33:07.492Z</time></trkpt><trkpt lat="42.5873497" lon="12.2751777"><ele>99.0</ele><time>2026-04-03T14:33:08.486Z</time></trkpt><trkpt lat="42.587284" lon="12.2750536"><ele>99.0</ele><time>2026-04-03T14:33:09.504Z</time></trkpt><trkpt lat="42.5872277" lon="12.2749478"><ele>99.0</ele><time>2026-04-03T14:33:10.502Z</time></trkpt><trkpt lat="42.5871828" lon="12.2748543"><ele>99.0</ele><time>2026-04-03T14:33:11.499Z</time></trkpt><trkpt lat="42.5871463" lon="12.2747606"><ele>99.0</ele><time>2026-04-03T14:33:12.494Z</time></trkpt><trkpt lat="42.5871157" lon="12.274668"><ele>99.0</ele><time>2026-04-03T14:33:13.5Z</time></trkpt><trkpt lat="42.5870868" lon="12.2745811"><ele>99.0</ele><time>2026-04-03T14:33:14.498Z</time></trkpt><trkpt lat="42.5870661" lon="12.274495"><ele>99.0</ele><time>2026-04-03T14:33:15.502Z</time></trkpt><trkpt lat="42.5870484" lon="12.2744105"><ele>99.0</ele><time>2026-04-03T14:33:16.501Z</time></trkpt><trkpt lat="42.5870273" lon="12.2743298"><ele>99.0</ele><time>2026-04-03T14:33:17.498Z</time></trkpt><trkpt lat="42.5870021" lon="12.274241"><ele>99.0</ele><time>2026-04-03T14:33:18.492Z</time></trkpt><trkpt lat="42.5869769" lon="12.274148"><ele>99.0</ele><time>2026-04-03T14:33:19.498Z</time></trkpt><trkpt lat="42.5869529" lon="12.2740531"><ele>99.0</ele><time>2026-04-03T14:33:20.497Z</time></trkpt><trkpt lat="42.5869281" lon="12.273951"><ele>99.33333333333333</ele><time>2026-04-03T14:33:21.505Z</time></trkpt><trkpt lat="42.5869067" lon="12.2738528"><ele>99.66666666666666</ele><time>2026-04-03T14:33:22.504Z</time></trkpt><trkpt lat="42.5868846" lon="12.27376"><ele>100.0</ele><time>2026-04-03T14:33:23.505Z</time></trkpt><trkpt lat="42.5868595" lon="12.2736656"><ele>100.33333333333333</ele><time>2026-04-03T14:33:24.506Z</time></trkpt><trkpt lat="42.5868332" lon="12.2735687"><ele>100.66666666666666</ele><time>2026-04-03T14:33:25.507Z</time></trkpt><trkpt lat="42.586805" lon="12.2734703"><ele>101.0</ele><time>2026-04-03T14:33:26.497Z</time></trkpt><trkpt lat="42.5867732" lon="12.2733669"><ele>100.99999999999999</ele><time>2026-04-03T14:33:27.507Z</time></trkpt><trkpt lat="42.5867406" lon="12.2732595"><ele>101.0</ele><time>2026-04-03T14:33:28.499Z</time></trkpt><trkpt lat="42.5867123" lon="12.2731592"><ele>101.0</ele><time>2026-04-03T14:33:29.51Z</time></trkpt><trkpt lat="42.5866834" lon="12.2730626"><ele>101.0</ele><time>2026-04-03T14:33:30.505Z</time></trkpt><trkpt lat="42.5866529" lon="12.2729633"><ele>100.99999999999999</ele><time>2026-04-03T14:33:31.501Z</time></trkpt><trkpt lat="42.5866225" lon="12.2728703"><ele>101.0</ele><time>2026-04-03T14:33:32.506Z</time></trkpt><trkpt lat="42.58659" lon="12.2727725"><ele>100.8</ele><time>2026-04-03T14:33:33.497Z</time></trkpt><trkpt lat="42.5865589" lon="12.2726714"><ele>100.6</ele><time>2026-04-03T14:33:34.498Z</time></trkpt><trkpt lat="42.5865249" lon="12.2725618"><ele>100.4</ele><time>2026-04-03T14:33:35.5Z</time></trkpt><trkpt lat="42.5864932" lon="12.2724551"><ele>100.2</ele><time>2026-04-03T14:33:36.479Z</time></trkpt><trkpt lat="42.5864624" lon="12.2723525"><ele>100.0</ele><time>2026-04-03T14:33:37.495Z</time></trkpt><trkpt lat="42.5864055" lon="12.2721506"><ele>99.66666666666667</ele><time>2026-04-03T14:33:39.486Z</time></trkpt><trkpt lat="42.5863733" lon="12.2720514"><ele>99.33333333333334</ele><time>2026-04-03T14:33:40.488Z</time></trkpt><trkpt lat="42.5863388" lon="12.2719497"><ele>99.0</ele><time>2026-04-03T14:33:41.504Z</time></trkpt><trkpt lat="42.5863113" lon="12.2718466"><ele>98.66666666666666</ele><time>2026-04-03T14:33:42.485Z</time></trkpt><trkpt lat="42.5862807" lon="12.27174"><ele>98.33333333333333</ele><time>2026-04-03T14:33:43.503Z</time></trkpt><trkpt lat="42.5862539" lon="12.2716353"><ele>98.0</ele><time>2026-04-03T14:33:44.481Z</time></trkpt><trkpt lat="42.5862226" lon="12.2715248"><ele>98.2</ele><time>2026-04-03T14:33:45.496Z</time></trkpt><trkpt lat="42.5861879" lon="12.2714069"><ele>98.4</ele><time>2026-04-03T14:33:46.488Z</time></trkpt><trkpt lat="42.5861524" lon="12.2712788"><ele>98.60000000000001</ele><time>2026-04-03T14:33:47.487Z</time></trkpt><trkpt lat="42.586111" lon="12.271137"><ele>98.80000000000001</ele><time>2026-04-03T14:33:48.483Z</time></trkpt><trkpt lat="42.5860743" lon="12.2710096"><ele>99.0</ele><time>2026-04-03T14:33:49.497Z</time></trkpt><trkpt lat="42.5860348" lon="12.2708886"><ele>99.0</ele><time>2026-04-03T14:33:50.499Z</time></trkpt><trkpt lat="42.5859993" lon="12.2707689"><ele>99.0</ele><time>2026-04-03T14:33:51.509Z</time></trkpt><trkpt lat="42.5859687" lon="12.2706552"><ele>99.0</ele><time>2026-04-03T14:33:52.505Z</time></trkpt><trkpt lat="42.5859377" lon="12.2705399"><ele>99.0</ele><time>2026-04-03T14:33:53.482Z</time></trkpt><trkpt lat="42.5859011" lon="12.2704203"><ele>99.0</ele><time>2026-04-03T14:33:54.495Z</time></trkpt><trkpt lat="42.5858578" lon="12.2702862"><ele>98.6</ele><time>2026-04-03T14:33:55.486Z</time></trkpt><trkpt lat="42.5858176" lon="12.2701465"><ele>98.2</ele><time>2026-04-03T14:33:56.496Z</time></trkpt><trkpt lat="42.5857751" lon="12.2700108"><ele>97.8</ele><time>2026-04-03T14:33:57.492Z</time></trkpt><trkpt lat="42.5857393" lon="12.2698882"><ele>97.39999999999999</ele><time>2026-04-03T14:33:58.492Z</time></trkpt><trkpt lat="42.5857041" lon="12.2697678"><ele>97.0</ele><time>2026-04-03T14:33:59.503Z</time></trkpt><trkpt lat="42.5856713" lon="12.2696535"><ele>96.83333333333334</ele><time>2026-04-03T14:34:00.488Z</time></trkpt><trkpt lat="42.5856433" lon="12.2695465"><ele>96.66666666666667</ele><time>2026-04-03T14:34:01.496Z</time></trkpt><trkpt lat="42.5856115" lon="12.2694441"><ele>96.5</ele><time>2026-04-03T14:34:02.501Z</time></trkpt><trkpt lat="42.5855678" lon="12.2693601"><ele>96.33333333333334</ele><time>2026-04-03T14:34:03.509Z</time></trkpt><trkpt lat="42.5855105" lon="12.2693025"><ele>96.16666666666667</ele><time>2026-04-03T14:34:04.49Z</time></trkpt><trkpt lat="42.5854444" lon="12.2692633"><ele>96.0</ele><time>2026-04-03T14:34:05.481Z</time></trkpt><trkpt lat="42.5853686" lon="12.2692277"><ele>96.0</ele><time>2026-04-03T14:34:06.488Z</time></trkpt><trkpt lat="42.5852841" lon="12.2691784"><ele>96.0</ele><time>2026-04-03T14:34:07.505Z</time></trkpt><trkpt lat="42.5852033" lon="12.2691234"><ele>96.0</ele><time>2026-04-03T14:34:08.491Z</time></trkpt><trkpt lat="42.5851297" lon="12.2690663"><ele>96.0</ele><time>2026-04-03T14:34:09.506Z</time></trkpt><trkpt lat="42.5850598" lon="12.2690103"><ele>96.0</ele><time>2026-04-03T14:34:10.504Z</time></trkpt><trkpt lat="42.5849905" lon="12.2689501"><ele>96.0</ele><time>2026-04-03T14:34:11.511Z</time></trkpt><trkpt lat="42.5849258" lon="12.2688917"><ele>96.0</ele><time>2026-04-03T14:34:12.507Z</time></trkpt><trkpt lat="42.5848592" lon="12.2688343"><ele>96.0</ele><time>2026-04-03T14:34:13.484Z</time></trkpt><trkpt lat="42.5847951" lon="12.2687738"><ele>96.0</ele><time>2026-04-03T14:34:14.511Z</time></trkpt><trkpt lat="42.5847306" lon="12.2687181"><ele>96.0</ele><time>2026-04-03T14:34:15.502Z</time></trkpt><trkpt lat="42.5846645" lon="12.2686597"><ele>96.0</ele><time>2026-04-03T14:34:16.506Z</time></trkpt><trkpt lat="42.5845942" lon="12.2686055"><ele>96.0</ele><time>2026-04-03T14:34:17.475Z</time></trkpt><trkpt lat="42.5845239" lon="12.2685516"><ele>96.16666666666667</ele><time>2026-04-03T14:34:18.498Z</time></trkpt><trkpt lat="42.5844547" lon="12.2684976"><ele>96.33333333333334</ele><time>2026-04-03T14:34:19.489Z</time></trkpt><trkpt lat="42.5843846" lon="12.2684354"><ele>96.5</ele><time>2026-04-03T14:34:20.504Z</time></trkpt><trkpt lat="42.5843132" lon="12.2683683"><ele>96.66666666666667</ele><time>2026-04-03T14:34:21.499Z</time></trkpt><trkpt lat="42.5842459" lon="12.2683011"><ele>96.83333333333334</ele><time>2026-04-03T14:34:22.489Z</time></trkpt><trkpt lat="42.5841768" lon="12.2682413"><ele>97.0</ele><time>2026-04-03T14:34:23.499Z</time></trkpt><trkpt lat="42.5841073" lon="12.2681794"><ele>97.00000000000001</ele><time>2026-04-03T14:34:24.499Z</time></trkpt><trkpt lat="42.5840418" lon="12.2681179"><ele>97.0</ele><time>2026-04-03T14:34:25.498Z</time></trkpt><trkpt lat="42.5839773" lon="12.26806"><ele>97.0</ele><time>2026-04-03T14:34:26.485Z</time></trkpt><trkpt lat="42.5839041" lon="12.2680023"><ele>97.0</ele><time>2026-04-03T14:34:27.485Z</time></trkpt><trkpt lat="42.5838223" lon="12.2679401"><ele>97.00000000000001</ele><time>2026-04-03T14:34:28.499Z</time></trkpt><trkpt lat="42.5837279" lon="12.2678746"><ele>97.0</ele><time>2026-04-03T14:34:29.506Z</time></trkpt><trkpt lat="42.5836242" lon="12.267792"><ele>96.75</ele><time>2026-04-03T14:34:30.501Z</time></trkpt><trkpt lat="42.5835146" lon="12.2676961"><ele>96.5</ele><time>2026-04-03T14:34:31.505Z</time></trkpt><trkpt lat="42.5834005" lon="12.2675919"><ele>96.25</ele><time>2026-04-03T14:34:32.504Z</time></trkpt><trkpt lat="42.5832806" lon="12.2674779"><ele>96.0</ele><time>2026-04-03T14:34:33.512Z</time></trkpt><trkpt lat="42.5831536" lon="12.2673693"><ele>95.5</ele><time>2026-04-03T14:34:34.489Z</time></trkpt><trkpt lat="42.5830234" lon="12.2672593"><ele>95.0</ele><time>2026-04-03T14:34:35.505Z</time></trkpt><trkpt lat="42.5828994" lon="12.2671653"><ele>94.5</ele><time>2026-04-03T14:34:36.505Z</time></trkpt><trkpt lat="42.5827862" lon="12.2670896"><ele>94.0</ele><time>2026-04-03T14:34:37.505Z</time></trkpt><trkpt lat="42.5826884" lon="12.2670186"><ele>94.0</ele><time>2026-04-03T14:34:38.515Z</time></trkpt><trkpt lat="42.5826067" lon="12.2669515"><ele>94.0</ele><time>2026-04-03T14:34:39.511Z</time></trkpt><trkpt lat="42.5825447" lon="12.2668863"><ele>94.0</ele><time>2026-04-03T14:34:40.492Z</time></trkpt><trkpt lat="42.5824925" lon="12.2668218"><ele>94.0</ele><time>2026-04-03T14:34:41.51Z</time></trkpt><trkpt lat="42.5824166" lon="12.2667447"><ele>94.0</ele><time>2026-04-03T14:34:42.506Z</time></trkpt><trkpt lat="42.5822922" lon="12.2666644"><ele>94.0</ele><time>2026-04-03T14:34:43.503Z</time></trkpt><trkpt lat="42.5821325" lon="12.2665863"><ele>94.0</ele><time>2026-04-03T14:34:44.477Z</time></trkpt><trkpt lat="42.581945" lon="12.2664895"><ele>94.0</ele><time>2026-04-03T14:34:45.498Z</time></trkpt><trkpt lat="42.5817455" lon="12.2663925"><ele>93.33333333333333</ele><time>2026-04-03T14:34:46.512Z</time></trkpt><trkpt lat="42.5815708" lon="12.2663025"><ele>92.66666666666667</ele><time>2026-04-03T14:34:47.493Z</time></trkpt><trkpt lat="42.5814318" lon="12.2662189"><ele>92.0</ele><time>2026-04-03T14:34:48.506Z</time></trkpt><trkpt lat="42.5812923" lon="12.2661307"><ele>92.66666666666667</ele><time>2026-04-03T14:34:49.51Z</time></trkpt><trkpt lat="42.5811515" lon="12.2660443"><ele>93.33333333333333</ele><time>2026-04-03T14:34:50.509Z</time></trkpt><trkpt lat="42.5810047" lon="12.2659613"><ele>94.0</ele><time>2026-04-03T14:34:51.497Z</time></trkpt><trkpt lat="42.5808575" lon="12.2658756"><ele>94.0</ele><time>2026-04-03T14:34:52.509Z</time></trkpt><trkpt lat="42.5807158" lon="12.2657889"><ele>94.0</ele><time>2026-04-03T14:34:53.499Z</time></trkpt><trkpt lat="42.5805713" lon="12.2657025"><ele>94.0</ele><time>2026-04-03T14:34:54.51Z</time></trkpt><trkpt lat="42.5804308" lon="12.2656173"><ele>93.0</ele><time>2026-04-03T14:34:55.511Z</time></trkpt><trkpt lat="42.5802913" lon="12.265547"><ele>92.0</ele><time>2026-04-03T14:34:56.505Z</time></trkpt><trkpt lat="42.580148" lon="12.2654845"><ele>91.0</ele><time>2026-04-03T14:34:57.509Z</time></trkpt><trkpt lat="42.5800017" lon="12.2654326"><ele>91.0</ele><time>2026-04-03T14:34:58.508Z</time></trkpt><trkpt lat="42.57985" lon="12.2653906"><ele>91.0</ele><time>2026-04-03T14:34:59.502Z</time></trkpt><trkpt lat="42.579693" lon="12.2653532"><ele>91.0</ele><time>2026-04-03T14:35:00.507Z</time></trkpt><trkpt lat="42.5795366" lon="12.2653221"><ele>90.66666666666666</ele><time>2026-04-03T14:35:01.482Z</time></trkpt><trkpt lat="42.5793759" lon="12.2653004"><ele>90.33333333333333</ele><time>2026-04-03T14:35:02.498Z</time></trkpt><trkpt lat="42.5792088" lon="12.2652864"><ele>90.0</ele><time>2026-04-03T14:35:03.496Z</time></trkpt><trkpt lat="42.579037" lon="12.2652857"><ele>90.0</ele><time>2026-04-03T14:35:04.511Z</time></trkpt><trkpt lat="42.5788628" lon="12.2652948"><ele>90.0</ele><time>2026-04-03T14:35:05.48Z</time></trkpt><trkpt lat="42.5786935" lon="12.2653116"><ele>90.0</ele><time>2026-04-03T14:35:06.509Z</time></trkpt><trkpt lat="42.5785333" lon="12.2653301"><ele>90.33333333333333</ele><time>2026-04-03T14:35:07.503Z</time></trkpt><trkpt lat="42.5783837" lon="12.2653449"><ele>90.66666666666666</ele><time>2026-04-03T14:35:08.491Z</time></trkpt><trkpt lat="42.5782279" lon="12.2653648"><ele>91.0</ele><time>2026-04-03T14:35:09.502Z</time></trkpt><trkpt lat="42.5780701" lon="12.2653864"><ele>91.0</ele><time>2026-04-03T14:35:10.51Z</time></trkpt><trkpt lat="42.5779075" lon="12.2654099"><ele>91.0</ele><time>2026-04-03T14:35:11.499Z</time></trkpt><trkpt lat="42.5777403" lon="12.2654302"><ele>91.0</ele><time>2026-04-03T14:35:12.511Z</time></trkpt><trkpt lat="42.5775679" lon="12.2654524"><ele>90.33333333333333</ele><time>2026-04-03T14:35:13.512Z</time></trkpt><trkpt lat="42.5773903" lon="12.265477"><ele>89.66666666666667</ele><time>2026-04-03T14:35:14.51Z</time></trkpt><trkpt lat="42.577207" lon="12.2654993"><ele>89.0</ele><time>2026-04-03T14:35:15.489Z</time></trkpt><trkpt lat="42.5770182" lon="12.2655231"><ele>89.0</ele><time>2026-04-03T14:35:16.515Z</time></trkpt><trkpt lat="42.5768257" lon="12.2655478"><ele>89.0</ele><time>2026-04-03T14:35:17.514Z</time></trkpt><trkpt lat="42.5766464" lon="12.265573"><ele>89.0</ele><time>2026-04-03T14:35:18.503Z</time></trkpt><trkpt lat="42.5764846" lon="12.265594"><ele>90.0</ele><time>2026-04-03T14:35:19.493Z</time></trkpt><trkpt lat="42.5763338" lon="12.2656236"><ele>91.0</ele><time>2026-04-03T14:35:20.506Z</time></trkpt><trkpt lat="42.5761841" lon="12.2656754"><ele>92.0</ele><time>2026-04-03T14:35:21.508Z</time></trkpt><trkpt lat="42.5760301" lon="12.2657584"><ele>92.0</ele><time>2026-04-03T14:35:22.505Z</time></trkpt><trkpt lat="42.575875" lon="12.2658634"><ele>92.0</ele><time>2026-04-03T14:35:23.497Z</time></trkpt><trkpt lat="42.5757072" lon="12.2659813"><ele>92.0</ele><time>2026-04-03T14:35:24.509Z</time></trkpt><trkpt lat="42.5755428" lon="12.2661058"><ele>92.0</ele><time>2026-04-03T14:35:25.508Z</time></trkpt><trkpt lat="42.5753924" lon="12.266221"><ele>92.0</ele><time>2026-04-03T14:35:26.509Z</time></trkpt><trkpt lat="42.5752592" lon="12.2663166"><ele>92.0</ele><time>2026-04-03T14:35:27.507Z</time></trkpt><trkpt lat="42.575124" lon="12.2664157"><ele>93.0</ele><time>2026-04-03T14:35:28.512Z</time></trkpt><trkpt lat="42.5749834" lon="12.2665257"><ele>94.0</ele><time>2026-04-03T14:35:29.508Z</time></trkpt><trkpt lat="42.5748316" lon="12.2666471"><ele>95.0</ele><time>2026-04-03T14:35:30.478Z</time></trkpt><trkpt lat="42.5746731" lon="12.2667695"><ele>94.33333333333334</ele><time>2026-04-03T14:35:31.5Z</time></trkpt><trkpt lat="42.5745097" lon="12.2668958"><ele>93.66666666666667</ele><time>2026-04-03T14:35:32.495Z</time></trkpt><trkpt lat="42.574346" lon="12.2670171"><ele>93.0</ele><time>2026-04-03T14:35:33.502Z</time></trkpt><trkpt lat="42.5741882" lon="12.2671387"><ele>93.0</ele><time>2026-04-03T14:35:34.494Z</time></trkpt><trkpt lat="42.5740288" lon="12.2672579"><ele>93.0</ele><time>2026-04-03T14:35:35.495Z</time></trkpt><trkpt lat="42.5738657" lon="12.2673795"><ele>93.0</ele><time>2026-04-03T14:35:36.493Z</time></trkpt><trkpt lat="42.5737" lon="12.267504"><ele>93.33333333333333</ele><time>2026-04-03T14:35:37.502Z</time></trkpt><trkpt lat="42.5735322" lon="12.2676332"><ele>93.66666666666666</ele><time>2026-04-03T14:35:38.504Z</time></trkpt><trkpt lat="42.573362" lon="12.2677693"><ele>94.0</ele><time>2026-04-03T14:35:39.495Z</time></trkpt><trkpt lat="42.5731939" lon="12.2679039"><ele>94.0</ele><time>2026-04-03T14:35:40.506Z</time></trkpt><trkpt lat="42.5730208" lon="12.2680349"><ele>94.0</ele><time>2026-04-03T14:35:41.504Z</time></trkpt><trkpt lat="42.5728467" lon="12.2681682"><ele>94.0</ele><time>2026-04-03T14:35:42.495Z</time></trkpt><trkpt lat="42.5726723" lon="12.2683025"><ele>94.66666666666666</ele><time>2026-04-03T14:35:43.508Z</time></trkpt><trkpt lat="42.572512" lon="12.268426"><ele>95.33333333333333</ele><time>2026-04-03T14:35:44.504Z</time></trkpt><trkpt lat="42.5723568" lon="12.2685417"><ele>96.0</ele><time>2026-04-03T14:35:45.502Z</time></trkpt><trkpt lat="42.5721971" lon="12.2686607"><ele>96.0</ele><time>2026-04-03T14:35:46.495Z</time></trkpt><trkpt lat="42.5720309" lon="12.2687851"><ele>96.0</ele><time>2026-04-03T14:35:48.456Z</time></trkpt><trkpt lat="42.5716873" lon="12.2690513"><ele>96.0</ele><time>2026-04-03T14:35:49.498Z</time></trkpt><trkpt lat="42.5715192" lon="12.2691875"><ele>96.0</ele><time>2026-04-03T14:35:50.496Z</time></trkpt><trkpt lat="42.571363" lon="12.2693088"><ele>96.0</ele><time>2026-04-03T14:35:51.503Z</time></trkpt><trkpt lat="42.5712233" lon="12.2694084"><ele>96.25</ele><time>2026-04-03T14:35:52.494Z</time></trkpt><trkpt lat="42.5710839" lon="12.2694981"><ele>96.5</ele><time>2026-04-03T14:35:53.5Z</time></trkpt><trkpt lat="42.5709426" lon="12.2695706"><ele>96.75</ele><time>2026-04-03T14:35:54.489Z</time></trkpt><trkpt lat="42.5708047" lon="12.2696213"><ele>97.0</ele><time>2026-04-03T14:35:55.495Z</time></trkpt><trkpt lat="42.5706714" lon="12.2696584"><ele>97.0</ele><time>2026-04-03T14:35:56.503Z</time></trkpt><trkpt lat="42.5705332" lon="12.2696817"><ele>97.0</ele><time>2026-04-03T14:35:57.505Z</time></trkpt><trkpt lat="42.5703834" lon="12.2696932"><ele>97.0</ele><time>2026-04-03T14:35:58.505Z</time></trkpt><trkpt lat="42.5702311" lon="12.2697034"><ele>97.0</ele><time>2026-04-03T14:35:59.487Z</time></trkpt><trkpt lat="42.5700663" lon="12.2697067"><ele>96.0</ele><time>2026-04-03T14:36:00.497Z</time></trkpt><trkpt lat="42.5698937" lon="12.2697087"><ele>95.0</ele><time>2026-04-03T14:36:01.507Z</time></trkpt><trkpt lat="42.5697176" lon="12.2697127"><ele>94.0</ele><time>2026-04-03T14:36:02.506Z</time></trkpt><trkpt lat="42.5695546" lon="12.2697154"><ele>93.66666666666666</ele><time>2026-04-03T14:36:03.507Z</time></trkpt><trkpt lat="42.5694031" lon="12.2697193"><ele>93.33333333333333</ele><time>2026-04-03T14:36:04.492Z</time></trkpt><trkpt lat="42.5692551" lon="12.2697257"><ele>93.0</ele><time>2026-04-03T14:36:05.497Z</time></trkpt><trkpt lat="42.5690975" lon="12.2697335"><ele>93.0</ele><time>2026-04-03T14:36:06.504Z</time></trkpt><trkpt lat="42.5689288" lon="12.2697335"><ele>93.0</ele><time>2026-04-03T14:36:07.505Z</time></trkpt><trkpt lat="42.5687475" lon="12.2697388"><ele>93.0</ele><time>2026-04-03T14:36:08.506Z</time></trkpt><trkpt lat="42.5685461" lon="12.2697512"><ele>92.5</ele><time>2026-04-03T14:36:09.506Z</time></trkpt><trkpt lat="42.5683233" lon="12.2697618"><ele>92.0</ele><time>2026-04-03T14:36:10.499Z</time></trkpt><trkpt lat="42.5680758" lon="12.2697716"><ele>93.5</ele><time>2026-04-03T14:36:11.505Z</time></trkpt><trkpt lat="42.5678278" lon="12.2697845"><ele>95.0</ele><time>2026-04-03T14:36:12.5Z</time></trkpt><trkpt lat="42.5676144" lon="12.2697962"><ele>95.0</ele><time>2026-04-03T14:36:13.498Z</time></trkpt><trkpt lat="42.56742" lon="12.2698077"><ele>95.0</ele><time>2026-04-03T14:36:14.488Z</time></trkpt><trkpt lat="42.5672356" lon="12.2698205"><ele>95.0</ele><time>2026-04-03T14:36:15.5Z</time></trkpt><trkpt lat="42.5670435" lon="12.2698372"><ele>94.0</ele><time>2026-04-03T14:36:16.495Z</time></trkpt><trkpt lat="42.5668397" lon="12.2698469"><ele>93.0</ele><time>2026-04-03T14:36:17.495Z</time></trkpt><trkpt lat="42.5666276" lon="12.2698544"><ele>92.0</ele><time>2026-04-03T14:36:18.478Z</time></trkpt><trkpt lat="42.5664244" lon="12.2698596"><ele>92.0</ele><time>2026-04-03T14:36:19.502Z</time></trkpt><trkpt lat="42.5662416" lon="12.2698732"><ele>92.0</ele><time>2026-04-03T14:36:20.49Z</time></trkpt><trkpt lat="42.5660797" lon="12.2698789"><ele>92.0</ele><time>2026-04-03T14:36:21.501Z</time></trkpt><trkpt lat="42.5659267" lon="12.2698818"><ele>91.75</ele><time>2026-04-03T14:36:22.505Z</time></trkpt><trkpt lat="42.5657861" lon="12.2698858"><ele>91.5</ele><time>2026-04-03T14:36:23.502Z</time></trkpt><trkpt lat="42.5656556" lon="12.2698921"><ele>91.25</ele><time>2026-04-03T14:36:24.501Z</time></trkpt><trkpt lat="42.5655347" lon="12.2698961"><ele>91.0</ele><time>2026-04-03T14:36:25.499Z</time></trkpt><trkpt lat="42.5654196" lon="12.2698992"><ele>90.19999999999999</ele><time>2026-04-03T14:36:26.5Z</time></trkpt><trkpt lat="42.5653136" lon="12.2699095"><ele>89.39999999999999</ele><time>2026-04-03T14:36:27.488Z</time></trkpt><trkpt lat="42.5652135" lon="12.2699441"><ele>88.6</ele><time>2026-04-03T14:36:28.507Z</time></trkpt><trkpt lat="42.5651204" lon="12.2700217"><ele>87.8</ele><time>2026-04-03T14:36:29.503Z</time></trkpt><trkpt lat="42.5650486" lon="12.2701412"><ele>87.0</ele><time>2026-04-03T14:36:30.492Z</time></trkpt><trkpt lat="42.5649832" lon="12.270272"><ele>87.0</ele><time>2026-04-03T14:36:31.507Z</time></trkpt><trkpt lat="42.5649191" lon="12.2703996"><ele>87.0</ele><time>2026-04-03T14:36:32.495Z</time></trkpt><trkpt lat="42.5648653" lon="12.2705057"><ele>87.0</ele><time>2026-04-03T14:36:33.503Z</time></trkpt><trkpt lat="42.5648228" lon="12.2705993"><ele>87.0</ele><time>2026-04-03T14:36:34.506Z</time></trkpt><trkpt lat="42.564785" lon="12.2706927"><ele>87.0</ele><time>2026-04-03T14:36:35.504Z</time></trkpt><trkpt lat="42.5647451" lon="12.2707712"><ele>87.0</ele><time>2026-04-03T14:36:36.497Z</time></trkpt><trkpt lat="42.564699" lon="12.2708439"><ele>87.28571428571428</ele><time>2026-04-03T14:36:37.503Z</time></trkpt><trkpt lat="42.564645" lon="12.2709111"><ele>87.57142857142857</ele><time>2026-04-03T14:36:38.506Z</time></trkpt><trkpt lat="42.5645776" lon="12.2709592"><ele>87.85714285714286</ele><time>2026-04-03T14:36:39.505Z</time></trkpt><trkpt lat="42.5645096" lon="12.2709883"><ele>88.14285714285714</ele><time>2026-04-03T14:36:40.502Z</time></trkpt><trkpt lat="42.5644403" lon="12.2709936"><ele>88.42857142857143</ele><time>2026-04-03T14:36:41.51Z</time></trkpt><trkpt lat="42.5643719" lon="12.270976"><ele>88.71428571428571</ele><time>2026-04-03T14:36:42.51Z</time></trkpt><trkpt lat="42.564308" lon="12.2709421"><ele>89.0</ele><time>2026-04-03T14:36:43.493Z</time></trkpt><trkpt lat="42.5642448" lon="12.2708959"><ele>89.0</ele><time>2026-04-03T14:36:44.484Z</time></trkpt><trkpt lat="42.5641904" lon="12.2708446"><ele>89.0</ele><time>2026-04-03T14:36:45.481Z</time></trkpt><trkpt lat="42.5641443" lon="12.2707863"><ele>89.0</ele><time>2026-04-03T14:36:46.5Z</time></trkpt><trkpt lat="42.5640539" lon="12.2706954"><ele>89.0</ele><time>2026-04-03T14:36:48.499Z</time></trkpt><trkpt lat="42.5639681" lon="12.2705659"><ele>89.0</ele><time>2026-04-03T14:36:50.497Z</time></trkpt><trkpt lat="42.5639118" lon="12.2704826"><ele>88.4</ele><time>2026-04-03T14:36:51.507Z</time></trkpt><trkpt lat="42.5638528" lon="12.2703984"><ele>87.80000000000001</ele><time>2026-04-03T14:36:52.502Z</time></trkpt><trkpt lat="42.5638003" lon="12.2703151"><ele>87.19999999999999</ele><time>2026-04-03T14:36:53.497Z</time></trkpt><trkpt lat="42.5637576" lon="12.2702356"><ele>86.6</ele><time>2026-04-03T14:36:54.495Z</time></trkpt><trkpt lat="42.5637026" lon="12.2701871"><ele>86.0</ele><time>2026-04-03T14:36:55.511Z</time></trkpt><trkpt lat="42.5635079" lon="12.2703175"><ele>85.75</ele><time>2026-04-03T14:36:58.499Z</time></trkpt><trkpt lat="42.5634329" lon="12.2704382"><ele>85.5</ele><time>2026-04-03T14:36:59.496Z</time></trkpt><trkpt lat="42.5633483" lon="12.2705726"><ele>85.25</ele><time>2026-04-03T14:37:00.51Z</time></trkpt><trkpt lat="42.563259" lon="12.2707248"><ele>85.0</ele><time>2026-04-03T14:37:01.511Z</time></trkpt><trkpt lat="42.5631781" lon="12.2708661"><ele>85.0</ele><time>2026-04-03T14:37:02.493Z</time></trkpt><trkpt lat="42.5631036" lon="12.2710022"><ele>85.0</ele><time>2026-04-03T14:37:03.509Z</time></trkpt><trkpt lat="42.5630268" lon="12.2711412"><ele>85.0</ele><time>2026-04-03T14:37:04.491Z</time></trkpt><trkpt lat="42.5629562" lon="12.2712925"><ele>85.0</ele><time>2026-04-03T14:37:05.494Z</time></trkpt><trkpt lat="42.5628865" lon="12.2714611"><ele>81.0</ele><time>2026-04-03T14:37:06.502Z</time></trkpt><trkpt lat="42.5628161" lon="12.2716466"><ele>77.0</ele><time>2026-04-03T14:37:07.496Z</time></trkpt><trkpt lat="42.5627403" lon="12.2718372"><ele>73.0</ele><time>2026-04-03T14:37:08.503Z</time></trkpt><trkpt lat="42.5626657" lon="12.2720234"><ele>73.0</ele><time>2026-04-03T14:37:09.504Z</time></trkpt><trkpt lat="42.562602" lon="12.2721876"><ele>73.0</ele><time>2026-04-03T14:37:10.49Z</time></trkpt><trkpt lat="42.5625439" lon="12.2723391"><ele>73.0</ele><time>2026-04-03T14:37:11.506Z</time></trkpt><trkpt lat="42.5624871" lon="12.2724926"><ele>73.0</ele><time>2026-04-03T14:37:12.499Z</time></trkpt><trkpt lat="42.5624273" lon="12.2726495"><ele>74.25</ele><time>2026-04-03T14:37:13.505Z</time></trkpt><trkpt lat="42.5623692" lon="12.2728132"><ele>75.5</ele><time>2026-04-03T14:37:14.498Z</time></trkpt><trkpt lat="42.5623067" lon="12.2729748"><ele>76.75</ele><time>2026-04-03T14:37:15.506Z</time></trkpt><trkpt lat="42.5622439" lon="12.2731332"><ele>78.0</ele><time>2026-04-03T14:37:16.498Z</time></trkpt><trkpt lat="42.5621758" lon="12.2732874"><ele>79.0</ele><time>2026-04-03T14:37:17.498Z</time></trkpt><trkpt lat="42.5621002" lon="12.2734404"><ele>80.0</ele><time>2026-04-03T14:37:18.503Z</time></trkpt><trkpt lat="42.562029" lon="12.2735891"><ele>81.0</ele><time>2026-04-03T14:37:19.502Z</time></trkpt><trkpt lat="42.5619598" lon="12.2737263"><ele>82.0</ele><time>2026-04-03T14:37:20.504Z</time></trkpt><trkpt lat="42.5618938" lon="12.2738522"><ele>80.5</ele><time>2026-04-03T14:37:21.504Z</time></trkpt><trkpt lat="42.5618285" lon="12.2739822"><ele>79.0</ele><time>2026-04-03T14:37:22.504Z</time></trkpt><trkpt lat="42.5617626" lon="12.2741135"><ele>77.5</ele><time>2026-04-03T14:37:23.501Z</time></trkpt><trkpt lat="42.5616943" lon="12.2742527"><ele>76.0</ele><time>2026-04-03T14:37:24.503Z</time></trkpt><trkpt lat="42.5616234" lon="12.2743899"><ele>76.0</ele><time>2026-04-03T14:37:25.506Z</time></trkpt><trkpt lat="42.5615561" lon="12.2745218"><ele>76.0</ele><time>2026-04-03T14:37:26.499Z</time></trkpt><trkpt lat="42.5614903" lon="12.2746567"><ele>76.0</ele><time>2026-04-03T14:37:27.499Z</time></trkpt><trkpt lat="42.5614181" lon="12.2747903"><ele>76.0</ele><time>2026-04-03T14:37:28.503Z</time></trkpt><trkpt lat="42.5613526" lon="12.2749199"><ele>74.5</ele><time>2026-04-03T14:37:29.496Z</time></trkpt><trkpt lat="42.5612882" lon="12.2750452"><ele>73.0</ele><time>2026-04-03T14:37:30.501Z</time></trkpt><trkpt lat="42.5612226" lon="12.275174"><ele>71.5</ele><time>2026-04-03T14:37:31.504Z</time></trkpt><trkpt lat="42.5611513" lon="12.2753016"><ele>70.0</ele><time>2026-04-03T14:37:32.492Z</time></trkpt><trkpt lat="42.5610766" lon="12.275429"><ele>70.0</ele><time>2026-04-03T14:37:33.503Z</time></trkpt><trkpt lat="42.560998" lon="12.2755558"><ele>70.0</ele><time>2026-04-03T14:37:34.498Z</time></trkpt><trkpt lat="42.5609164" lon="12.2756839"><ele>70.0</ele><time>2026-04-03T14:37:35.509Z</time></trkpt><trkpt lat="42.5608356" lon="12.2758054"><ele>70.0</ele><time>2026-04-03T14:37:36.494Z</time></trkpt><trkpt lat="42.5607591" lon="12.2759216"><ele>71.75</ele><time>2026-04-03T14:37:37.508Z</time></trkpt><trkpt lat="42.5606811" lon="12.2760319"><ele>73.5</ele><time>2026-04-03T14:37:38.502Z</time></trkpt><trkpt lat="42.5605927" lon="12.2761449"><ele>75.25</ele><time>2026-04-03T14:37:39.506Z</time></trkpt><trkpt lat="42.5605037" lon="12.276252"><ele>77.0</ele><time>2026-04-03T14:37:40.502Z</time></trkpt><trkpt lat="42.5604138" lon="12.2763536"><ele>76.0</ele><time>2026-04-03T14:37:41.504Z</time></trkpt><trkpt lat="42.5603276" lon="12.2764463"><ele>75.0</ele><time>2026-04-03T14:37:42.486Z</time></trkpt><trkpt lat="42.560245" lon="12.2765364"><ele>74.0</ele><time>2026-04-03T14:37:43.506Z</time></trkpt><trkpt lat="42.5601736" lon="12.2766057"><ele>73.0</ele><time>2026-04-03T14:37:44.501Z</time></trkpt><trkpt lat="42.5601122" lon="12.2766567"><ele>72.0</ele><time>2026-04-03T14:37:45.5Z</time></trkpt><trkpt lat="42.5600297" lon="12.2767603"><ele>72.0</ele><time>2026-04-03T14:37:47.505Z</time></trkpt><trkpt lat="42.5600219" lon="12.2768815"><ele>72.0</ele><time>2026-04-03T14:37:49.508Z</time></trkpt><trkpt lat="42.5600767" lon="12.276993"><ele>72.0</ele><time>2026-04-03T14:37:51.486Z</time></trkpt><trkpt lat="42.5601424" lon="12.2771244"><ele>72.0</ele><time>2026-04-03T14:37:53.489Z</time></trkpt><trkpt lat="42.5601735" lon="12.2772708"><ele>72.0</ele><time>2026-04-03T14:37:55.487Z</time></trkpt><trkpt lat="42.5601427" lon="12.2774113"><ele>73.0</ele><time>2026-04-03T14:37:57.488Z</time></trkpt><trkpt lat="42.5600535" lon="12.2774944"><ele>74.0</ele><time>2026-04-03T14:37:59.492Z</time></trkpt><trkpt lat="42.5599772" lon="12.2775368"><ele>75.0</ele><time>2026-04-03T14:38:01.49Z</time></trkpt><trkpt lat="42.5599108" lon="12.2776067"><ele>76.0</ele><time>2026-04-03T14:38:04.493Z</time></trkpt><trkpt lat="42.5598325" lon="12.2776837"><ele>77.0</ele><time>2026-04-03T14:38:07.489Z</time></trkpt><trkpt lat="42.5598981" lon="12.2776045"><ele>77.0</ele><time>2026-04-03T14:38:27.502Z</time></trkpt><trkpt lat="42.5599592" lon="12.2775337"><ele>77.0</ele><time>2026-04-03T14:38:29.499Z</time></trkpt><trkpt lat="42.5600143" lon="12.2774689"><ele>77.0</ele><time>2026-04-03T14:38:31.503Z</time></trkpt><trkpt lat="42.5600721" lon="12.2774282"><ele>77.0</ele><time>2026-04-03T14:38:36.495Z</time></trkpt><trkpt lat="42.5601278" lon="12.2773639"><ele>77.0</ele><time>2026-04-03T14:38:38.495Z</time></trkpt><trkpt lat="42.5601537" lon="12.2772478"><ele>77.0</ele><time>2026-04-03T14:38:40.492Z</time></trkpt><trkpt lat="42.5601393" lon="12.2771118"><ele>76.0</ele><time>2026-04-03T14:38:42.49Z</time></trkpt><trkpt lat="42.5600854" lon="12.2769467"><ele>75.0</ele><time>2026-04-03T14:38:44.481Z</time></trkpt><trkpt lat="42.5600507" lon="12.2768731"><ele>74.0</ele><time>2026-04-03T14:38:45.486Z</time></trkpt><trkpt lat="42.5599972" lon="12.2767967"><ele>73.0</ele><time>2026-04-03T14:38:47.489Z</time></trkpt><trkpt lat="42.5599208" lon="12.2767644"><ele>72.0</ele><time>2026-04-03T14:38:49.475Z</time></trkpt><trkpt lat="42.5597858" lon="12.2768053"><ele>72.0</ele><time>2026-04-03T14:38:51.498Z</time></trkpt><trkpt lat="42.5596897" lon="12.2768498"><ele>72.0</ele><time>2026-04-03T14:38:52.492Z</time></trkpt><trkpt lat="42.5595816" lon="12.276897"><ele>72.0</ele><time>2026-04-03T14:38:53.493Z</time></trkpt><trkpt lat="42.5594663" lon="12.2769442"><ele>72.0</ele><time>2026-04-03T14:38:54.485Z</time></trkpt><trkpt lat="42.5593504" lon="12.2769949"><ele>71.0</ele><time>2026-04-03T14:38:55.495Z</time></trkpt><trkpt lat="42.5592351" lon="12.2770426"><ele>70.0</ele><time>2026-04-03T14:38:56.501Z</time></trkpt><trkpt lat="42.5591173" lon="12.2770963"><ele>69.0</ele><time>2026-04-03T14:38:57.494Z</time></trkpt><trkpt lat="42.558992" lon="12.2771495"><ele>68.0</ele><time>2026-04-03T14:38:58.495Z</time></trkpt><trkpt lat="42.5588632" lon="12.2772069"><ele>68.0</ele><time>2026-04-03T14:38:59.5Z</time></trkpt><trkpt lat="42.558729" lon="12.2772665"><ele>68.0</ele><time>2026-04-03T14:39:00.499Z</time></trkpt><trkpt lat="42.5585927" lon="12.2773215"><ele>68.0</ele><time>2026-04-03T14:39:01.495Z</time></trkpt><trkpt lat="42.558453" lon="12.2773776"><ele>68.0</ele><time>2026-04-03T14:39:02.503Z</time></trkpt><trkpt lat="42.5583149" lon="12.2774257"><ele>69.33333333333334</ele><time>2026-04-03T14:39:03.51Z</time></trkpt><trkpt lat="42.5581724" lon="12.2774556"><ele>70.66666666666667</ele><time>2026-04-03T14:39:04.506Z</time></trkpt><trkpt lat="42.5580224" lon="12.2774757"><ele>72.0</ele><time>2026-04-03T14:39:05.505Z</time></trkpt><trkpt lat="42.5578626" lon="12.2774732"><ele>72.66666666666667</ele><time>2026-04-03T14:39:06.507Z</time></trkpt><trkpt lat="42.5576934" lon="12.2774582"><ele>73.33333333333334</ele><time>2026-04-03T14:39:07.499Z</time></trkpt><trkpt lat="42.5575342" lon="12.2774303"><ele>74.0</ele><time>2026-04-03T14:39:08.508Z</time></trkpt><trkpt lat="42.5573792" lon="12.2773953"><ele>74.0</ele><time>2026-04-03T14:39:09.498Z</time></trkpt><trkpt lat="42.5572192" lon="12.2773596"><ele>74.0</ele><time>2026-04-03T14:39:10.505Z</time></trkpt><trkpt lat="42.5570582" lon="12.2773273"><ele>74.0</ele><time>2026-04-03T14:39:11.506Z</time></trkpt><trkpt lat="42.5568967" lon="12.2772874"><ele>71.66666666666667</ele><time>2026-04-03T14:39:12.502Z</time></trkpt><trkpt lat="42.5567301" lon="12.2772498"><ele>69.33333333333333</ele><time>2026-04-03T14:39:13.502Z</time></trkpt><trkpt lat="42.5565635" lon="12.2772138"><ele>67.0</ele><time>2026-04-03T14:39:14.503Z</time></trkpt><trkpt lat="42.5563911" lon="12.2771762"><ele>67.0</ele><time>2026-04-03T14:39:15.489Z</time></trkpt><trkpt lat="42.5562141" lon="12.277141"><ele>67.0</ele><time>2026-04-03T14:39:16.499Z</time></trkpt><trkpt lat="42.5560372" lon="12.2771057"><ele>67.0</ele><time>2026-04-03T14:39:17.493Z</time></trkpt><trkpt lat="42.5558685" lon="12.2770743"><ele>68.0</ele><time>2026-04-03T14:39:18.496Z</time></trkpt><trkpt lat="42.5557073" lon="12.277045"><ele>69.0</ele><time>2026-04-03T14:39:19.504Z</time></trkpt><trkpt lat="42.5555424" lon="12.2770294"><ele>70.0</ele><time>2026-04-03T14:39:20.486Z</time></trkpt><trkpt lat="42.5553749" lon="12.2770322"><ele>69.0</ele><time>2026-04-03T14:39:21.487Z</time></trkpt><trkpt lat="42.5552041" lon="12.2770521"><ele>68.0</ele><time>2026-04-03T14:39:22.487Z</time></trkpt><trkpt lat="42.5550394" lon="12.2770723"><ele>67.0</ele><time>2026-04-03T14:39:23.493Z</time></trkpt><trkpt lat="42.5548866" lon="12.2771011"><ele>67.0</ele><time>2026-04-03T14:39:24.489Z</time></trkpt><trkpt lat="42.554735" lon="12.2771487"><ele>67.0</ele><time>2026-04-03T14:39:25.502Z</time></trkpt><trkpt lat="42.55458" lon="12.277219"><ele>67.0</ele><time>2026-04-03T14:39:26.494Z</time></trkpt><trkpt lat="42.5544249" lon="12.2773004"><ele>69.33333333333333</ele><time>2026-04-03T14:39:27.504Z</time></trkpt><trkpt lat="42.554263" lon="12.2773924"><ele>71.66666666666667</ele><time>2026-04-03T14:39:28.503Z</time></trkpt><trkpt lat="42.5540957" lon="12.2774827"><ele>74.0</ele><time>2026-04-03T14:39:29.508Z</time></trkpt><trkpt lat="42.5539201" lon="12.2775694"><ele>74.0</ele><time>2026-04-03T14:39:30.491Z</time></trkpt><trkpt lat="42.5537463" lon="12.2776589"><ele>74.0</ele><time>2026-04-03T14:39:31.502Z</time></trkpt><trkpt lat="42.5535696" lon="12.2777525"><ele>74.0</ele><time>2026-04-03T14:39:32.495Z</time></trkpt><trkpt lat="42.553396" lon="12.2778448"><ele>75.33333333333334</ele><time>2026-04-03T14:39:33.51Z</time></trkpt><trkpt lat="42.5532293" lon="12.2779325"><ele>76.66666666666667</ele><time>2026-04-03T14:39:34.493Z</time></trkpt><trkpt lat="42.5530606" lon="12.2780145"><ele>78.0</ele><time>2026-04-03T14:39:35.507Z</time></trkpt><trkpt lat="42.5528859" lon="12.2781029"><ele>76.33333333333333</ele><time>2026-04-03T14:39:36.508Z</time></trkpt><trkpt lat="42.55271" lon="12.2781962"><ele>74.66666666666666</ele><time>2026-04-03T14:39:37.508Z</time></trkpt><trkpt lat="42.5525447" lon="12.2782799"><ele>73.0</ele><time>2026-04-03T14:39:38.506Z</time></trkpt><trkpt lat="42.552388" lon="12.2783618"><ele>73.0</ele><time>2026-04-03T14:39:39.509Z</time></trkpt><trkpt lat="42.5522357" lon="12.2784469"><ele>73.0</ele><time>2026-04-03T14:39:40.5Z</time></trkpt><trkpt lat="42.552078" lon="12.278534"><ele>73.0</ele><time>2026-04-03T14:39:41.505Z</time></trkpt><trkpt lat="42.5519067" lon="12.2786164"><ele>71.33333333333333</ele><time>2026-04-03T14:39:42.498Z</time></trkpt><trkpt lat="42.5517303" lon="12.2786789"><ele>69.66666666666667</ele><time>2026-04-03T14:39:43.507Z</time></trkpt><trkpt lat="42.5515567" lon="12.278725"><ele>68.0</ele><time>2026-04-03T14:39:44.499Z</time></trkpt><trkpt lat="42.551383" lon="12.2787554"><ele>68.0</ele><time>2026-04-03T14:39:45.5Z</time></trkpt><trkpt lat="42.5512043" lon="12.2787667"><ele>68.0</ele><time>2026-04-03T14:39:46.496Z</time></trkpt><trkpt lat="42.5510366" lon="12.2787652"><ele>68.0</ele><time>2026-04-03T14:39:47.5Z</time></trkpt><trkpt lat="42.550884" lon="12.2787513"><ele>68.0</ele><time>2026-04-03T14:39:48.502Z</time></trkpt><trkpt lat="42.5507407" lon="12.2787304"><ele>68.0</ele><time>2026-04-03T14:39:49.486Z</time></trkpt><trkpt lat="42.550611" lon="12.2787125"><ele>68.0</ele><time>2026-04-03T14:39:50.492Z</time></trkpt><trkpt lat="42.5504867" lon="12.2786909"><ele>68.0</ele><time>2026-04-03T14:39:51.504Z</time></trkpt><trkpt lat="42.5503656" lon="12.2786841"><ele>67.33333333333334</ele><time>2026-04-03T14:39:52.503Z</time></trkpt><trkpt lat="42.5502297" lon="12.2786793"><ele>66.66666666666667</ele><time>2026-04-03T14:39:53.497Z</time></trkpt><trkpt lat="42.5500746" lon="12.2786695"><ele>66.0</ele><time>2026-04-03T14:39:54.501Z</time></trkpt><trkpt lat="42.5499033" lon="12.2786476"><ele>66.0</ele><time>2026-04-03T14:39:55.505Z</time></trkpt><trkpt lat="42.5497265" lon="12.2786106"><ele>66.0</ele><time>2026-04-03T14:39:56.506Z</time></trkpt><trkpt lat="42.5495555" lon="12.2785854"><ele>66.0</ele><time>2026-04-03T14:39:57.509Z</time></trkpt><trkpt lat="42.5493882" lon="12.2785622"><ele>66.0</ele><time>2026-04-03T14:39:58.501Z</time></trkpt><trkpt lat="42.5492241" lon="12.2785335"><ele>66.0</ele><time>2026-04-03T14:39:59.496Z</time></trkpt><trkpt lat="42.5490637" lon="12.2785067"><ele>66.0</ele><time>2026-04-03T14:40:00.502Z</time></trkpt><trkpt lat="42.548902" lon="12.2784913"><ele>66.0</ele><time>2026-04-03T14:40:01.504Z</time></trkpt><trkpt lat="42.5487332" lon="12.2784784"><ele>66.0</ele><time>2026-04-03T14:40:02.51Z</time></trkpt><trkpt lat="42.5485566" lon="12.2784622"><ele>66.0</ele><time>2026-04-03T14:40:03.499Z</time></trkpt><trkpt lat="42.5483747" lon="12.2784414"><ele>66.33333333333333</ele><time>2026-04-03T14:40:04.504Z</time></trkpt><trkpt lat="42.5481896" lon="12.2784206"><ele>66.66666666666666</ele><time>2026-04-03T14:40:05.501Z</time></trkpt><trkpt lat="42.5480004" lon="12.2784028"><ele>67.0</ele><time>2026-04-03T14:40:06.505Z</time></trkpt><trkpt lat="42.5478034" lon="12.2783927"><ele>67.66666666666666</ele><time>2026-04-03T14:40:07.5Z</time></trkpt><trkpt lat="42.5475993" lon="12.2783725"><ele>68.33333333333333</ele><time>2026-04-03T14:40:08.509Z</time></trkpt><trkpt lat="42.5474005" lon="12.278353"><ele>69.0</ele><time>2026-04-03T14:40:09.508Z</time></trkpt><trkpt lat="42.547214" lon="12.2783273"><ele>69.66666666666667</ele><time>2026-04-03T14:40:10.511Z</time></trkpt><trkpt lat="42.5470386" lon="12.2783135"><ele>70.33333333333334</ele><time>2026-04-03T14:40:11.499Z</time></trkpt><trkpt lat="42.5468645" lon="12.2783088"><ele>71.0</ele><time>2026-04-03T14:40:12.506Z</time></trkpt><trkpt lat="42.5466829" lon="12.2783128"><ele>71.0</ele><time>2026-04-03T14:40:13.507Z</time></trkpt><trkpt lat="42.5465004" lon="12.2783311"><ele>71.0</ele><time>2026-04-03T14:40:14.502Z</time></trkpt><trkpt lat="42.5463205" lon="12.2783576"><ele>71.0</ele><time>2026-04-03T14:40:15.496Z</time></trkpt><trkpt lat="42.5461416" lon="12.2783919"><ele>71.33333333333334</ele><time>2026-04-03T14:40:16.505Z</time></trkpt><trkpt lat="42.5459641" lon="12.2784262"><ele>71.66666666666667</ele><time>2026-04-03T14:40:17.496Z</time></trkpt><trkpt lat="42.5457844" lon="12.2784606"><ele>72.0</ele><time>2026-04-03T14:40:18.51Z</time></trkpt><trkpt lat="42.5456064" lon="12.2784972"><ele>72.0</ele><time>2026-04-03T14:40:19.505Z</time></trkpt><trkpt lat="42.545425" lon="12.2785335"><ele>72.0</ele><time>2026-04-03T14:40:20.497Z</time></trkpt><trkpt lat="42.545247" lon="12.278577"><ele>72.0</ele><time>2026-04-03T14:40:21.493Z</time></trkpt><trkpt lat="42.5450674" lon="12.2786277"><ele>72.33333333333333</ele><time>2026-04-03T14:40:22.503Z</time></trkpt><trkpt lat="42.5448863" lon="12.2786841"><ele>72.66666666666666</ele><time>2026-04-03T14:40:23.479Z</time></trkpt><trkpt lat="42.5447097" lon="12.278751"><ele>73.0</ele><time>2026-04-03T14:40:24.51Z</time></trkpt><trkpt lat="42.5445463" lon="12.278832"><ele>73.33333333333333</ele><time>2026-04-03T14:40:25.498Z</time></trkpt><trkpt lat="42.5444005" lon="12.2789297"><ele>73.66666666666667</ele><time>2026-04-03T14:40:26.514Z</time></trkpt><trkpt lat="42.5442605" lon="12.2790518"><ele>74.0</ele><time>2026-04-03T14:40:27.51Z</time></trkpt><trkpt lat="42.5441195" lon="12.279196"><ele>75.0</ele><time>2026-04-03T14:40:28.508Z</time></trkpt><trkpt lat="42.543981" lon="12.2793519"><ele>76.0</ele><time>2026-04-03T14:40:29.507Z</time></trkpt><trkpt lat="42.543849" lon="12.279521"><ele>77.0</ele><time>2026-04-03T14:40:30.499Z</time></trkpt><trkpt lat="42.5437225" lon="12.2797111"><ele>77.66666666666667</ele><time>2026-04-03T14:40:31.513Z</time></trkpt><trkpt lat="42.5436022" lon="12.2799055"><ele>78.33333333333333</ele><time>2026-04-03T14:40:32.499Z</time></trkpt><trkpt lat="42.5434852" lon="12.2801045"><ele>79.0</ele><time>2026-04-03T14:40:33.49Z</time></trkpt><trkpt lat="42.5433823" lon="12.2802857"><ele>79.0</ele><time>2026-04-03T14:40:34.51Z</time></trkpt><trkpt lat="42.5432853" lon="12.2804527"><ele>79.0</ele><time>2026-04-03T14:40:35.514Z</time></trkpt><trkpt lat="42.5431875" lon="12.2806182"><ele>79.0</ele><time>2026-04-03T14:40:36.51Z</time></trkpt><trkpt lat="42.543086" lon="12.2807925"><ele>79.0</ele><time>2026-04-03T14:40:37.51Z</time></trkpt><trkpt lat="42.542981" lon="12.2809696"><ele>79.0</ele><time>2026-04-03T14:40:38.51Z</time></trkpt><trkpt lat="42.5428734" lon="12.2811463"><ele>79.0</ele><time>2026-04-03T14:40:39.511Z</time></trkpt><trkpt lat="42.5427684" lon="12.2813159"><ele>79.0</ele><time>2026-04-03T14:40:40.498Z</time></trkpt><trkpt lat="42.5426629" lon="12.2814729"><ele>79.0</ele><time>2026-04-03T14:40:41.514Z</time></trkpt><trkpt lat="42.5425474" lon="12.2816191"><ele>79.0</ele><time>2026-04-03T14:40:42.504Z</time></trkpt><trkpt lat="42.5424258" lon="12.2817617"><ele>79.0</ele><time>2026-04-03T14:40:43.512Z</time></trkpt><trkpt lat="42.542302" lon="12.2818891"><ele>79.0</ele><time>2026-04-03T14:40:44.51Z</time></trkpt><trkpt lat="42.5421698" lon="12.282003"><ele>79.0</ele><time>2026-04-03T14:40:45.5Z</time></trkpt><trkpt lat="42.5420327" lon="12.2821077"><ele>78.66666666666666</ele><time>2026-04-03T14:40:46.493Z</time></trkpt><trkpt lat="42.5418857" lon="12.2822013"><ele>78.33333333333333</ele><time>2026-04-03T14:40:47.505Z</time></trkpt><trkpt lat="42.5417231" lon="12.2822865"><ele>78.0</ele><time>2026-04-03T14:40:48.504Z</time></trkpt><trkpt lat="42.5415578" lon="12.2823615"><ele>78.0</ele><time>2026-04-03T14:40:49.493Z</time></trkpt><trkpt lat="42.5413927" lon="12.2824356"><ele>78.0</ele><time>2026-04-03T14:40:50.501Z</time></trkpt><trkpt lat="42.541221" lon="12.2825018"><ele>78.0</ele><time>2026-04-03T14:40:51.501Z</time></trkpt><trkpt lat="42.5410431" lon="12.2825588"><ele>78.0</ele><time>2026-04-03T14:40:52.51Z</time></trkpt><trkpt lat="42.5408582" lon="12.2826075"><ele>78.0</ele><time>2026-04-03T14:40:53.485Z</time></trkpt><trkpt lat="42.5406664" lon="12.2826483"><ele>78.0</ele><time>2026-04-03T14:40:54.477Z</time></trkpt><trkpt lat="42.5404741" lon="12.2826753"><ele>78.0</ele><time>2026-04-03T14:40:55.503Z</time></trkpt><trkpt lat="42.540278" lon="12.2827095"><ele>78.0</ele><time>2026-04-03T14:40:56.507Z</time></trkpt><trkpt lat="42.5400854" lon="12.2827445"><ele>78.0</ele><time>2026-04-03T14:40:57.484Z</time></trkpt><trkpt lat="42.5398979" lon="12.2827778"><ele>78.0</ele><time>2026-04-03T14:40:58.485Z</time></trkpt><trkpt lat="42.5397207" lon="12.2828271"><ele>78.0</ele><time>2026-04-03T14:40:59.496Z</time></trkpt><trkpt lat="42.5395484" lon="12.282875"><ele>78.0</ele><time>2026-04-03T14:41:00.499Z</time></trkpt><trkpt lat="42.5393873" lon="12.2829202"><ele>78.5</ele><time>2026-04-03T14:41:01.511Z</time></trkpt><trkpt lat="42.5392446" lon="12.2829651"><ele>79.0</ele><time>2026-04-03T14:41:02.503Z</time></trkpt><trkpt lat="42.5391084" lon="12.2830226"><ele>79.5</ele><time>2026-04-03T14:41:03.49Z</time></trkpt><trkpt lat="42.5389734" lon="12.2831127"><ele>80.0</ele><time>2026-04-03T14:41:04.506Z</time></trkpt><trkpt lat="42.5388449" lon="12.2832279"><ele>80.0</ele><time>2026-04-03T14:41:05.499Z</time></trkpt><trkpt lat="42.5387284" lon="12.2833775"><ele>80.0</ele><time>2026-04-03T14:41:06.5Z</time></trkpt><trkpt lat="42.538615" lon="12.2835677"><ele>80.0</ele><time>2026-04-03T14:41:07.507Z</time></trkpt><trkpt lat="42.5385094" lon="12.2837697"><ele>82.0</ele><time>2026-04-03T14:41:08.509Z</time></trkpt><trkpt lat="42.5384093" lon="12.2839523"><ele>84.0</ele><time>2026-04-03T14:41:09.501Z</time></trkpt><trkpt lat="42.5383122" lon="12.2841092"><ele>86.0</ele><time>2026-04-03T14:41:10.497Z</time></trkpt><trkpt lat="42.5381997" lon="12.2842522"><ele>86.0</ele><time>2026-04-03T14:41:11.506Z</time></trkpt><trkpt lat="42.5380641" lon="12.2843765"><ele>86.0</ele><time>2026-04-03T14:41:12.5Z</time></trkpt><trkpt lat="42.5379114" lon="12.2844947"><ele>86.0</ele><time>2026-04-03T14:41:13.504Z</time></trkpt><trkpt lat="42.5377412" lon="12.2845959"><ele>85.0</ele><time>2026-04-03T14:41:14.495Z</time></trkpt><trkpt lat="42.5375686" lon="12.2847008"><ele>84.0</ele><time>2026-04-03T14:41:15.491Z</time></trkpt><trkpt lat="42.5373942" lon="12.2848143"><ele>83.0</ele><time>2026-04-03T14:41:16.494Z</time></trkpt><trkpt lat="42.5372196" lon="12.2849363"><ele>82.66666666666667</ele><time>2026-04-03T14:41:17.497Z</time></trkpt><trkpt lat="42.5370547" lon="12.2850698"><ele>82.33333333333333</ele><time>2026-04-03T14:41:18.495Z</time></trkpt><trkpt lat="42.5368989" lon="12.2851958"><ele>82.0</ele><time>2026-04-03T14:41:19.504Z</time></trkpt><trkpt lat="42.5367439" lon="12.2853147"><ele>82.0</ele><time>2026-04-03T14:41:20.492Z</time></trkpt><trkpt lat="42.5365933" lon="12.2854149"><ele>82.0</ele><time>2026-04-03T14:41:21.502Z</time></trkpt><trkpt lat="42.536436" lon="12.2855077"><ele>82.0</ele><time>2026-04-03T14:41:22.498Z</time></trkpt><trkpt lat="42.5362731" lon="12.285588"><ele>83.33333333333333</ele><time>2026-04-03T14:41:23.494Z</time></trkpt><trkpt lat="42.5361048" lon="12.2856708"><ele>84.66666666666667</ele><time>2026-04-03T14:41:24.502Z</time></trkpt><trkpt lat="42.5359428" lon="12.285756"><ele>86.0</ele><time>2026-04-03T14:41:25.487Z</time></trkpt><trkpt lat="42.5357907" lon="12.2858376"><ele>86.0</ele><time>2026-04-03T14:41:26.488Z</time></trkpt><trkpt lat="42.5356408" lon="12.285911"><ele>86.0</ele><time>2026-04-03T14:41:27.496Z</time></trkpt><trkpt lat="42.535488" lon="12.2859809"><ele>86.0</ele><time>2026-04-03T14:41:28.489Z</time></trkpt><trkpt lat="42.5353346" lon="12.2860497"><ele>85.33333333333334</ele><time>2026-04-03T14:41:29.486Z</time></trkpt><trkpt lat="42.5351768" lon="12.2861244"><ele>84.66666666666667</ele><time>2026-04-03T14:41:30.487Z</time></trkpt><trkpt lat="42.5350207" lon="12.2861989"><ele>84.0</ele><time>2026-04-03T14:41:31.493Z</time></trkpt><trkpt lat="42.5348609" lon="12.2862771"><ele>84.0</ele><time>2026-04-03T14:41:32.489Z</time></trkpt><trkpt lat="42.5347003" lon="12.2863549"><ele>84.0</ele><time>2026-04-03T14:41:33.5Z</time></trkpt><trkpt lat="42.5345377" lon="12.2864301"><ele>84.0</ele><time>2026-04-03T14:41:34.494Z</time></trkpt><trkpt lat="42.5343779" lon="12.2865074"><ele>86.0</ele><time>2026-04-03T14:41:35.499Z</time></trkpt><trkpt lat="42.5342176" lon="12.2865815"><ele>88.0</ele><time>2026-04-03T14:41:36.491Z</time></trkpt><trkpt lat="42.5340508" lon="12.2866451"><ele>90.0</ele><time>2026-04-03T14:41:37.503Z</time></trkpt><trkpt lat="42.5338814" lon="12.2866993"><ele>89.33333333333333</ele><time>2026-04-03T14:41:38.504Z</time></trkpt><trkpt lat="42.5337039" lon="12.2867458"><ele>88.66666666666666</ele><time>2026-04-03T14:41:39.507Z</time></trkpt><trkpt lat="42.5335201" lon="12.2867807"><ele>88.0</ele><time>2026-04-03T14:41:40.5Z</time></trkpt><trkpt lat="42.5333334" lon="12.2867967"><ele>88.0</ele><time>2026-04-03T14:41:41.491Z</time></trkpt><trkpt lat="42.5331419" lon="12.2868006"><ele>88.0</ele><time>2026-04-03T14:41:42.499Z</time></trkpt><trkpt lat="42.5329506" lon="12.2867999"><ele>88.0</ele><time>2026-04-03T14:41:43.508Z</time></trkpt><trkpt lat="42.532774" lon="12.2867978"><ele>88.66666666666666</ele><time>2026-04-03T14:41:44.509Z</time></trkpt><trkpt lat="42.5326052" lon="12.286804"><ele>89.33333333333333</ele><time>2026-04-03T14:41:45.507Z</time></trkpt><trkpt lat="42.5324345" lon="12.2868382"><ele>90.0</ele><time>2026-04-03T14:41:46.502Z</time></trkpt><trkpt lat="42.5322683" lon="12.2868777"><ele>90.0</ele><time>2026-04-03T14:41:47.502Z</time></trkpt><trkpt lat="42.5321129" lon="12.2869309"><ele>90.0</ele><time>2026-04-03T14:41:48.502Z</time></trkpt><trkpt lat="42.531959" lon="12.2869905"><ele>90.0</ele><time>2026-04-03T14:41:49.5Z</time></trkpt><trkpt lat="42.5318063" lon="12.2870478"><ele>90.0</ele><time>2026-04-03T14:41:50.493Z</time></trkpt><trkpt lat="42.5316486" lon="12.2870911"><ele>90.0</ele><time>2026-04-03T14:41:51.499Z</time></trkpt><trkpt lat="42.5314736" lon="12.2870958"><ele>90.0</ele><time>2026-04-03T14:41:52.494Z</time></trkpt><trkpt lat="42.5312919" lon="12.287061"><ele>90.33333333333333</ele><time>2026-04-03T14:41:53.488Z</time></trkpt><trkpt lat="42.5311067" lon="12.2870195"><ele>90.66666666666666</ele><time>2026-04-03T14:41:54.508Z</time></trkpt><trkpt lat="42.5309163" lon="12.2869997"><ele>91.0</ele><time>2026-04-03T14:41:55.491Z</time></trkpt><trkpt lat="42.5307226" lon="12.2870209"><ele>91.0</ele><time>2026-04-03T14:41:56.5Z</time></trkpt><trkpt lat="42.5305156" lon="12.2870582"><ele>91.0</ele><time>2026-04-03T14:41:57.507Z</time></trkpt><trkpt lat="42.5302992" lon="12.2871082"><ele>91.0</ele><time>2026-04-03T14:41:58.496Z</time></trkpt><trkpt lat="42.5300874" lon="12.2871526"><ele>91.0</ele><time>2026-04-03T14:41:59.49Z</time></trkpt><trkpt lat="42.529897" lon="12.2871979"><ele>91.0</ele><time>2026-04-03T14:42:00.505Z</time></trkpt><trkpt lat="42.5297241" lon="12.2872521"><ele>91.0</ele><time>2026-04-03T14:42:01.505Z</time></trkpt><trkpt lat="42.5295486" lon="12.2873264"><ele>92.66666666666666</ele><time>2026-04-03T14:42:02.501Z</time></trkpt><trkpt lat="42.5293771" lon="12.2874173"><ele>94.33333333333333</ele><time>2026-04-03T14:42:03.498Z</time></trkpt><trkpt lat="42.5291975" lon="12.2875131"><ele>96.0</ele><time>2026-04-03T14:42:04.506Z</time></trkpt><trkpt lat="42.5290173" lon="12.2876149"><ele>96.0</ele><time>2026-04-03T14:42:05.503Z</time></trkpt><trkpt lat="42.5288441" lon="12.2877255"><ele>96.0</ele><time>2026-04-03T14:42:06.505Z</time></trkpt><trkpt lat="42.5286828" lon="12.2878498"><ele>96.0</ele><time>2026-04-03T14:42:07.507Z</time></trkpt><trkpt lat="42.5285292" lon="12.2879887"><ele>98.0</ele><time>2026-04-03T14:42:08.506Z</time></trkpt><trkpt lat="42.5283852" lon="12.2881195"><ele>100.0</ele><time>2026-04-03T14:42:09.507Z</time></trkpt><trkpt lat="42.5282528" lon="12.2882429"><ele>102.0</ele><time>2026-04-03T14:42:10.498Z</time></trkpt><trkpt lat="42.5281178" lon="12.288371"><ele>102.0</ele><time>2026-04-03T14:42:11.498Z</time></trkpt><trkpt lat="42.5279852" lon="12.2885132"><ele>102.0</ele><time>2026-04-03T14:42:12.507Z</time></trkpt><trkpt lat="42.5278491" lon="12.2886721"><ele>102.0</ele><time>2026-04-03T14:42:13.495Z</time></trkpt><trkpt lat="42.527712" lon="12.2888335"><ele>102.66666666666666</ele><time>2026-04-03T14:42:14.504Z</time></trkpt><trkpt lat="42.527574" lon="12.2889992"><ele>103.33333333333333</ele><time>2026-04-03T14:42:15.497Z</time></trkpt><trkpt lat="42.5274399" lon="12.2891635"><ele>104.0</ele><time>2026-04-03T14:42:16.492Z</time></trkpt><trkpt lat="42.5273054" lon="12.2893326"><ele>104.0</ele><time>2026-04-03T14:42:17.506Z</time></trkpt><trkpt lat="42.527167" lon="12.2895022"><ele>104.0</ele><time>2026-04-03T14:42:18.493Z</time></trkpt><trkpt lat="42.5270302" lon="12.2896732"><ele>104.0</ele><time>2026-04-03T14:42:19.494Z</time></trkpt><trkpt lat="42.5268975" lon="12.2898456"><ele>103.66666666666666</ele><time>2026-04-03T14:42:20.507Z</time></trkpt><trkpt lat="42.5267743" lon="12.2900012"><ele>103.33333333333334</ele><time>2026-04-03T14:42:21.496Z</time></trkpt><trkpt lat="42.5266411" lon="12.2901509"><ele>103.0</ele><time>2026-04-03T14:42:22.507Z</time></trkpt><trkpt lat="42.5264932" lon="12.290294"><ele>103.0</ele><time>2026-04-03T14:42:23.5Z</time></trkpt><trkpt lat="42.5263327" lon="12.290435"><ele>103.0</ele><time>2026-04-03T14:42:24.502Z</time></trkpt><trkpt lat="42.5261626" lon="12.2905575"><ele>103.0</ele><time>2026-04-03T14:42:25.515Z</time></trkpt><trkpt lat="42.5259827" lon="12.2906849"><ele>103.0</ele><time>2026-04-03T14:42:26.496Z</time></trkpt><trkpt lat="42.5257948" lon="12.2908058"><ele>103.0</ele><time>2026-04-03T14:42:27.502Z</time></trkpt><trkpt lat="42.5256156" lon="12.2909401"><ele>103.0</ele><time>2026-04-03T14:42:28.485Z</time></trkpt><trkpt lat="42.5254418" lon="12.2910918"><ele>102.66666666666667</ele><time>2026-04-03T14:42:29.494Z</time></trkpt><trkpt lat="42.5252805" lon="12.2912748"><ele>102.33333333333334</ele><time>2026-04-03T14:42:30.497Z</time></trkpt><trkpt lat="42.5251173" lon="12.2914684"><ele>102.0</ele><time>2026-04-03T14:42:31.503Z</time></trkpt><trkpt lat="42.5249506" lon="12.2916585"><ele>102.0</ele><time>2026-04-03T14:42:32.497Z</time></trkpt><trkpt lat="42.5247835" lon="12.2918439"><ele>102.0</ele><time>2026-04-03T14:42:33.495Z</time></trkpt><trkpt lat="42.5246127" lon="12.2920255"><ele>102.0</ele><time>2026-04-03T14:42:34.495Z</time></trkpt><trkpt lat="42.524439" lon="12.2922073"><ele>102.0</ele><time>2026-04-03T14:42:35.506Z</time></trkpt><trkpt lat="42.5242634" lon="12.2923861"><ele>102.0</ele><time>2026-04-03T14:42:36.497Z</time></trkpt><trkpt lat="42.5240944" lon="12.2925664"><ele>102.0</ele><time>2026-04-03T14:42:38.195Z</time></trkpt><trkpt lat="42.5237444" lon="12.2929268"><ele>102.33333333333334</ele><time>2026-04-03T14:42:39.484Z</time></trkpt><trkpt lat="42.5235659" lon="12.29311"><ele>102.66666666666667</ele><time>2026-04-03T14:42:40.494Z</time></trkpt><trkpt lat="42.5234009" lon="12.293284"><ele>103.0</ele><time>2026-04-03T14:42:41.49Z</time></trkpt><trkpt lat="42.5232663" lon="12.2934361"><ele>103.0</ele><time>2026-04-03T14:42:42.498Z</time></trkpt><trkpt lat="42.5231397" lon="12.2935676"><ele>103.0</ele><time>2026-04-03T14:42:43.502Z</time></trkpt><trkpt lat="42.5230234" lon="12.2936862"><ele>103.0</ele><time>2026-04-03T14:42:44.495Z</time></trkpt><trkpt lat="42.5229104" lon="12.2937908"><ele>103.0</ele><time>2026-04-03T14:42:45.496Z</time></trkpt><trkpt lat="42.5228089" lon="12.2938945"><ele>101.0</ele><time>2026-04-03T14:42:46.503Z</time></trkpt><trkpt lat="42.5226985" lon="12.2939998"><ele>99.0</ele><time>2026-04-03T14:42:47.496Z</time></trkpt><trkpt lat="42.5225677" lon="12.2941106"><ele>97.0</ele><time>2026-04-03T14:42:48.504Z</time></trkpt><trkpt lat="42.5224038" lon="12.2942078"><ele>97.0</ele><time>2026-04-03T14:42:49.495Z</time></trkpt><trkpt lat="42.5222239" lon="12.2942954"><ele>97.0</ele><time>2026-04-03T14:42:50.493Z</time></trkpt><trkpt lat="42.5220598" lon="12.2943524"><ele>97.0</ele><time>2026-04-03T14:42:51.493Z</time></trkpt><trkpt lat="42.5219088" lon="12.2943916"><ele>95.33333333333334</ele><time>2026-04-03T14:42:52.502Z</time></trkpt><trkpt lat="42.5217631" lon="12.2944262"><ele>93.66666666666667</ele><time>2026-04-03T14:42:53.492Z</time></trkpt><trkpt lat="42.5216055" lon="12.2944243"><ele>92.0</ele><time>2026-04-03T14:42:54.504Z</time></trkpt><trkpt lat="42.5214393" lon="12.2943799"><ele>92.0</ele><time>2026-04-03T14:42:55.504Z</time></trkpt><trkpt lat="42.5212759" lon="12.2943201"><ele>92.0</ele><time>2026-04-03T14:42:56.493Z</time></trkpt><trkpt lat="42.5211329" lon="12.2942667"><ele>92.0</ele><time>2026-04-03T14:42:57.494Z</time></trkpt><trkpt lat="42.5210173" lon="12.294235"><ele>92.0</ele><time>2026-04-03T14:42:58.492Z</time></trkpt><trkpt lat="42.5209068" lon="12.2942187"><ele>92.5</ele><time>2026-04-03T14:42:59.494Z</time></trkpt><trkpt lat="42.5208043" lon="12.2942045"><ele>93.0</ele><time>2026-04-03T14:43:00.491Z</time></trkpt><trkpt lat="42.5207234" lon="12.2941949"><ele>93.5</ele><time>2026-04-03T14:43:01.494Z</time></trkpt><trkpt lat="42.5206588" lon="12.2941848"><ele>94.0</ele><time>2026-04-03T14:43:02.499Z</time></trkpt><trkpt lat="42.5205636" lon="12.2941748"><ele>94.5</ele><time>2026-04-03T14:43:04.504Z</time></trkpt><trkpt lat="42.5204915" lon="12.294241"><ele>95.0</ele><time>2026-04-03T14:43:06.506Z</time></trkpt><trkpt lat="42.5204196" lon="12.2943136"><ele>94.8</ele><time>2026-04-03T14:43:07.496Z</time></trkpt><trkpt lat="42.5203314" lon="12.2943912"><ele>94.6</ele><time>2026-04-03T14:43:08.498Z</time></trkpt><trkpt lat="42.5202572" lon="12.2944632"><ele>94.4</ele><time>2026-04-03T14:43:09.489Z</time></trkpt><trkpt lat="42.520184" lon="12.2945252"><ele>94.2</ele><time>2026-04-03T14:43:10.495Z</time></trkpt><trkpt lat="42.5201023" lon="12.2945861"><ele>94.0</ele><time>2026-04-03T14:43:11.506Z</time></trkpt><trkpt lat="42.5200134" lon="12.2946502"><ele>94.0</ele><time>2026-04-03T14:43:12.482Z</time></trkpt><trkpt lat="42.519918" lon="12.2947161"><ele>94.0</ele><time>2026-04-03T14:43:13.488Z</time></trkpt><trkpt lat="42.5198183" lon="12.2947775"><ele>94.0</ele><time>2026-04-03T14:43:14.507Z</time></trkpt><trkpt lat="42.5197265" lon="12.2948352"><ele>94.0</ele><time>2026-04-03T14:43:15.51Z</time></trkpt><trkpt lat="42.5196287" lon="12.2948968"><ele>94.0</ele><time>2026-04-03T14:43:16.505Z</time></trkpt><trkpt lat="42.5195204" lon="12.2949558"><ele>93.2</ele><time>2026-04-03T14:43:17.507Z</time></trkpt><trkpt lat="42.5194198" lon="12.2950165"><ele>92.4</ele><time>2026-04-03T14:43:18.509Z</time></trkpt><trkpt lat="42.5193276" lon="12.2950833"><ele>91.6</ele><time>2026-04-03T14:43:19.511Z</time></trkpt><trkpt lat="42.519226" lon="12.2951518"><ele>90.8</ele><time>2026-04-03T14:43:20.494Z</time></trkpt><trkpt lat="42.5191241" lon="12.2952286"><ele>90.0</ele><time>2026-04-03T14:43:21.505Z</time></trkpt><trkpt lat="42.5190171" lon="12.2952983"><ele>90.0</ele><time>2026-04-03T14:43:22.504Z</time></trkpt><trkpt lat="42.5189072" lon="12.2953608"><ele>90.0</ele><time>2026-04-03T14:43:23.506Z</time></trkpt><trkpt lat="42.5187955" lon="12.2954278"><ele>90.0</ele><time>2026-04-03T14:43:24.511Z</time></trkpt><trkpt lat="42.5186716" lon="12.295498"><ele>90.0</ele><time>2026-04-03T14:43:25.499Z</time></trkpt><trkpt lat="42.5185374" lon="12.2955684"><ele>89.33333333333333</ele><time>2026-04-03T14:43:26.495Z</time></trkpt><trkpt lat="42.5183961" lon="12.2956531"><ele>88.66666666666666</ele><time>2026-04-03T14:43:27.497Z</time></trkpt><trkpt lat="42.5182468" lon="12.2957386"><ele>88.0</ele><time>2026-04-03T14:43:28.507Z</time></trkpt><trkpt lat="42.5180984" lon="12.2958158"><ele>88.0</ele><time>2026-04-03T14:43:29.506Z</time></trkpt><trkpt lat="42.5179475" lon="12.2958863"><ele>88.0</ele><time>2026-04-03T14:43:30.495Z</time></trkpt><trkpt lat="42.5177891" lon="12.2959682"><ele>88.0</ele><time>2026-04-03T14:43:31.51Z</time></trkpt><trkpt lat="42.5176401" lon="12.296064"><ele>87.66666666666666</ele><time>2026-04-03T14:43:32.507Z</time></trkpt><trkpt lat="42.5174809" lon="12.2961742"><ele>87.33333333333333</ele><time>2026-04-03T14:43:33.5Z</time></trkpt><trkpt lat="42.5173147" lon="12.2963034"><ele>87.0</ele><time>2026-04-03T14:43:34.511Z</time></trkpt><trkpt lat="42.5171517" lon="12.2964484"><ele>87.0</ele><time>2026-04-03T14:43:35.502Z</time></trkpt><trkpt lat="42.51699" lon="12.2965897"><ele>87.0</ele><time>2026-04-03T14:43:36.498Z</time></trkpt><trkpt lat="42.5168409" lon="12.2967108"><ele>87.0</ele><time>2026-04-03T14:43:37.503Z</time></trkpt><trkpt lat="42.5167081" lon="12.2968327"><ele>87.0</ele><time>2026-04-03T14:43:38.494Z</time></trkpt><trkpt lat="42.516578" lon="12.2969504"><ele>87.0</ele><time>2026-04-03T14:43:39.483Z</time></trkpt><trkpt lat="42.5164525" lon="12.2970703"><ele>87.0</ele><time>2026-04-03T14:43:40.508Z</time></trkpt><trkpt lat="42.5163416" lon="12.2971787"><ele>87.0</ele><time>2026-04-03T14:43:41.509Z</time></trkpt><trkpt lat="42.5162434" lon="12.2972774"><ele>86.8</ele><time>2026-04-03T14:43:42.503Z</time></trkpt><trkpt lat="42.5161475" lon="12.2973686"><ele>86.6</ele><time>2026-04-03T14:43:43.505Z</time></trkpt><trkpt lat="42.5160631" lon="12.2974511"><ele>86.39999999999999</ele><time>2026-04-03T14:43:44.51Z</time></trkpt><trkpt lat="42.5159836" lon="12.2975289"><ele>86.19999999999999</ele><time>2026-04-03T14:43:45.502Z</time></trkpt><trkpt lat="42.5159129" lon="12.2975992"><ele>86.0</ele><time>2026-04-03T14:43:46.507Z</time></trkpt><trkpt lat="42.5158528" lon="12.2976544"><ele>86.0</ele><time>2026-04-03T14:43:47.508Z</time></trkpt><trkpt lat="42.5157974" lon="12.2977853"><ele>86.0</ele><time>2026-04-03T14:43:49.503Z</time></trkpt><trkpt lat="42.5158147" lon="12.2979239"><ele>86.0</ele><time>2026-04-03T14:43:51.503Z</time></trkpt><trkpt lat="42.5158523" lon="12.297999"><ele>86.0</ele><time>2026-04-03T14:43:52.491Z</time></trkpt><trkpt lat="42.515898" lon="12.2980939"><ele>86.0</ele><time>2026-04-03T14:43:53.5Z</time></trkpt><trkpt lat="42.515944" lon="12.2982161"><ele>86.0</ele><time>2026-04-03T14:43:54.505Z</time></trkpt><trkpt lat="42.5159892" lon="12.2983485"><ele>86.0</ele><time>2026-04-03T14:43:55.5Z</time></trkpt><trkpt lat="42.5160442" lon="12.2984748"><ele>86.0</ele><time>2026-04-03T14:43:56.498Z</time></trkpt><trkpt lat="42.5161053" lon="12.2985923"><ele>86.0</ele><time>2026-04-03T14:43:57.499Z</time></trkpt><trkpt lat="42.5161655" lon="12.2987087"><ele>86.0</ele><time>2026-04-03T14:43:58.493Z</time></trkpt><trkpt lat="42.516225" lon="12.2988265"><ele>85.4</ele><time>2026-04-03T14:43:59.49Z</time></trkpt><trkpt lat="42.516282" lon="12.2989483"><ele>84.8</ele><time>2026-04-03T14:44:00.503Z</time></trkpt><trkpt lat="42.5163364" lon="12.2990745"><ele>84.2</ele><time>2026-04-03T14:44:01.506Z</time></trkpt><trkpt lat="42.5163926" lon="12.2992048"><ele>83.60000000000001</ele><time>2026-04-03T14:44:02.492Z</time></trkpt><trkpt lat="42.5164482" lon="12.299332"><ele>83.0</ele><time>2026-04-03T14:44:03.506Z</time></trkpt><trkpt lat="42.5165035" lon="12.2994537"><ele>83.0</ele><time>2026-04-03T14:44:04.499Z</time></trkpt><trkpt lat="42.5165578" lon="12.2995754"><ele>83.0</ele><time>2026-04-03T14:44:05.503Z</time></trkpt><trkpt lat="42.5166087" lon="12.2996957"><ele>83.0</ele><time>2026-04-03T14:44:06.488Z</time></trkpt><trkpt lat="42.5166513" lon="12.2998206"><ele>83.0</ele><time>2026-04-03T14:44:07.504Z</time></trkpt><trkpt lat="42.5166924" lon="12.2999587"><ele>83.0</ele><time>2026-04-03T14:44:08.498Z</time></trkpt><trkpt lat="42.5167182" lon="12.3000899"><ele>83.2</ele><time>2026-04-03T14:44:09.503Z</time></trkpt><trkpt lat="42.5167329" lon="12.3002118"><ele>83.4</ele><time>2026-04-03T14:44:10.498Z</time></trkpt><trkpt lat="42.5167531" lon="12.3003347"><ele>83.60000000000001</ele><time>2026-04-03T14:44:11.504Z</time></trkpt><trkpt lat="42.5167799" lon="12.3004576"><ele>83.80000000000001</ele><time>2026-04-03T14:44:12.504Z</time></trkpt><trkpt lat="42.5168165" lon="12.300583"><ele>84.0</ele><time>2026-04-03T14:44:13.509Z</time></trkpt><trkpt lat="42.5168671" lon="12.3007102"><ele>84.0</ele><time>2026-04-03T14:44:14.499Z</time></trkpt><trkpt lat="42.5169282" lon="12.3008483"><ele>84.0</ele><time>2026-04-03T14:44:15.505Z</time></trkpt><trkpt lat="42.5169841" lon="12.300997"><ele>84.0</ele><time>2026-04-03T14:44:16.504Z</time></trkpt><trkpt lat="42.5170374" lon="12.3011556"><ele>84.0</ele><time>2026-04-03T14:44:17.506Z</time></trkpt><trkpt lat="42.5170834" lon="12.3013259"><ele>87.33333333333333</ele><time>2026-04-03T14:44:18.497Z</time></trkpt><trkpt lat="42.517129" lon="12.3015223"><ele>90.66666666666666</ele><time>2026-04-03T14:44:19.512Z</time></trkpt><trkpt lat="42.5171758" lon="12.3017224"><ele>94.0</ele><time>2026-04-03T14:44:20.502Z</time></trkpt><trkpt lat="42.5172196" lon="12.3019266"><ele>94.0</ele><time>2026-04-03T14:44:21.51Z</time></trkpt><trkpt lat="42.5172592" lon="12.3021276"><ele>94.0</ele><time>2026-04-03T14:44:22.494Z</time></trkpt><trkpt lat="42.5172877" lon="12.3023264"><ele>94.0</ele><time>2026-04-03T14:44:23.51Z</time></trkpt><trkpt lat="42.5173115" lon="12.3025285"><ele>96.0</ele><time>2026-04-03T14:44:24.506Z</time></trkpt><trkpt lat="42.5173344" lon="12.3027198"><ele>98.0</ele><time>2026-04-03T14:44:25.504Z</time></trkpt><trkpt lat="42.5173595" lon="12.3028752"><ele>100.0</ele><time>2026-04-03T14:44:26.497Z</time></trkpt><trkpt lat="42.5173962" lon="12.3030174"><ele>102.0</ele><time>2026-04-03T14:44:27.507Z</time></trkpt><trkpt lat="42.5174426" lon="12.3031762"><ele>102.75</ele><time>2026-04-03T14:44:28.488Z</time></trkpt><trkpt lat="42.5175019" lon="12.3033285"><ele>103.5</ele><time>2026-04-03T14:44:29.507Z</time></trkpt><trkpt lat="42.5175706" lon="12.3034523"><ele>104.25</ele><time>2026-04-03T14:44:30.497Z</time></trkpt><trkpt lat="42.5176441" lon="12.3035673"><ele>105.0</ele><time>2026-04-03T14:44:31.496Z</time></trkpt><trkpt lat="42.5177172" lon="12.3036652"><ele>105.0</ele><time>2026-04-03T14:44:32.494Z</time></trkpt><trkpt lat="42.5177735" lon="12.3037306"><ele>105.0</ele><time>2026-04-03T14:44:33.503Z</time></trkpt><trkpt lat="42.5178755" lon="12.3038078"><ele>105.0</ele><time>2026-04-03T14:44:35.5Z</time></trkpt><trkpt lat="42.5179306" lon="12.3039573"><ele>105.0</ele><time>2026-04-03T14:45:00.504Z</time></trkpt><trkpt lat="42.5179994" lon="12.3040438"><ele>105.0</ele><time>2026-04-03T14:45:01.499Z</time></trkpt><trkpt lat="42.5180613" lon="12.3041236"><ele>106.5</ele><time>2026-04-03T14:45:02.494Z</time></trkpt><trkpt lat="42.5181104" lon="12.3042102"><ele>108.0</ele><time>2026-04-03T14:45:03.501Z</time></trkpt><trkpt lat="42.5181625" lon="12.3043377"><ele>109.5</ele><time>2026-04-03T14:45:04.504Z</time></trkpt><trkpt lat="42.5182331" lon="12.3045098"><ele>111.0</ele><time>2026-04-03T14:45:05.498Z</time></trkpt><trkpt lat="42.5183" lon="12.3046973"><ele>111.75</ele><time>2026-04-03T14:45:06.497Z</time></trkpt><trkpt lat="42.5183557" lon="12.3048585"><ele>112.5</ele><time>2026-04-03T14:45:07.507Z</time></trkpt><trkpt lat="42.5184081" lon="12.305012"><ele>113.25</ele><time>2026-04-03T14:45:08.5Z</time></trkpt><trkpt lat="42.5184711" lon="12.3051591"><ele>114.0</ele><time>2026-04-03T14:45:09.508Z</time></trkpt><trkpt lat="42.5185349" lon="12.3052982"><ele>114.0</ele><time>2026-04-03T14:45:10.507Z</time></trkpt><trkpt lat="42.5185972" lon="12.3054289"><ele>114.0</ele><time>2026-04-03T14:45:11.506Z</time></trkpt><trkpt lat="42.5186514" lon="12.3055611"><ele>114.0</ele><time>2026-04-03T14:45:12.503Z</time></trkpt><trkpt lat="42.5186868" lon="12.3056927"><ele>114.0</ele><time>2026-04-03T14:45:13.515Z</time></trkpt><trkpt lat="42.5187043" lon="12.3058288"><ele>114.0</ele><time>2026-04-03T14:45:14.503Z</time></trkpt><trkpt lat="42.51873" lon="12.3059631"><ele>116.0</ele><time>2026-04-03T14:45:15.51Z</time></trkpt><trkpt lat="42.5187749" lon="12.3060879"><ele>118.0</ele><time>2026-04-03T14:45:16.492Z</time></trkpt><trkpt lat="42.5188291" lon="12.3062295"><ele>120.0</ele><time>2026-04-03T14:45:17.499Z</time></trkpt><trkpt lat="42.5188835" lon="12.3063808"><ele>122.0</ele><time>2026-04-03T14:45:18.497Z</time></trkpt><trkpt lat="42.5189319" lon="12.3065381"><ele>123.25</ele><time>2026-04-03T14:45:19.5Z</time></trkpt><trkpt lat="42.5189883" lon="12.3066995"><ele>124.5</ele><time>2026-04-03T14:45:20.505Z</time></trkpt><trkpt lat="42.519043" lon="12.3068595"><ele>125.75</ele><time>2026-04-03T14:45:21.5Z</time></trkpt><trkpt lat="42.5191017" lon="12.3070276"><ele>127.0</ele><time>2026-04-03T14:45:22.503Z</time></trkpt><trkpt lat="42.5191645" lon="12.3071947"><ele>127.75</ele><time>2026-04-03T14:45:23.501Z</time></trkpt><trkpt lat="42.5192253" lon="12.3073648"><ele>128.5</ele><time>2026-04-03T14:45:24.509Z</time></trkpt><trkpt lat="42.5192839" lon="12.3075316"><ele>129.25</ele><time>2026-04-03T14:45:25.498Z</time></trkpt><trkpt lat="42.5193431" lon="12.3076796"><ele>130.0</ele><time>2026-04-03T14:45:26.508Z</time></trkpt><trkpt lat="42.519391" lon="12.3077955"><ele>130.0</ele><time>2026-04-03T14:45:27.502Z</time></trkpt><trkpt lat="42.5194299" lon="12.3078947"><ele>130.0</ele><time>2026-04-03T14:45:28.508Z</time></trkpt><trkpt lat="42.5194607" lon="12.3079736"><ele>130.0</ele><time>2026-04-03T14:45:29.493Z</time></trkpt><trkpt lat="42.5195034" lon="12.3080804"><ele>130.0</ele><time>2026-04-03T14:45:31.497Z</time></trkpt><trkpt lat="42.5195477" lon="12.3081824"><ele>130.0</ele><time>2026-04-03T14:45:34.485Z</time></trkpt><trkpt lat="42.5195952" lon="12.3082944"><ele>130.0</ele><time>2026-04-03T14:45:37.509Z</time></trkpt><trkpt lat="42.5196233" lon="12.3084014"><ele>130.33333333333334</ele><time>2026-04-03T14:45:40.502Z</time></trkpt><trkpt lat="42.5196405" lon="12.3084905"><ele>130.66666666666669</ele><time>2026-04-03T14:45:42.497Z</time></trkpt><trkpt lat="42.519662" lon="12.3086102"><ele>131.0</ele><time>2026-04-03T14:45:44.513Z</time></trkpt><trkpt lat="42.5196782" lon="12.3087398"><ele>131.33333333333334</ele><time>2026-04-03T14:45:46.502Z</time></trkpt><trkpt lat="42.5196964" lon="12.3088234"><ele>131.66666666666666</ele><time>2026-04-03T14:45:47.505Z</time></trkpt><trkpt lat="42.5197273" lon="12.3089285"><ele>132.0</ele><time>2026-04-03T14:45:48.496Z</time></trkpt><trkpt lat="42.5197772" lon="12.3090773"><ele>133.25</ele><time>2026-04-03T14:45:49.495Z</time></trkpt><trkpt lat="42.5198319" lon="12.3092578"><ele>134.5</ele><time>2026-04-03T14:45:50.493Z</time></trkpt><trkpt lat="42.5198853" lon="12.3094231"><ele>135.75</ele><time>2026-04-03T14:45:51.497Z</time></trkpt><trkpt lat="42.5199318" lon="12.3095536"><ele>137.0</ele><time>2026-04-03T14:45:52.491Z</time></trkpt><trkpt lat="42.5199749" lon="12.309674"><ele>138.4</ele><time>2026-04-03T14:45:53.506Z</time></trkpt><trkpt lat="42.5200016" lon="12.3097862"><ele>139.79999999999998</ele><time>2026-04-03T14:45:54.499Z</time></trkpt><trkpt lat="42.5200095" lon="12.3099088"><ele>141.2</ele><time>2026-04-03T14:45:55.509Z</time></trkpt><trkpt lat="42.5200096" lon="12.3100429"><ele>142.6</ele><time>2026-04-03T14:45:56.503Z</time></trkpt><trkpt lat="42.5200206" lon="12.3101834"><ele>144.0</ele><time>2026-04-03T14:45:57.5Z</time></trkpt><trkpt lat="42.5200421" lon="12.3103281"><ele>144.0</ele><time>2026-04-03T14:45:58.482Z</time></trkpt><trkpt lat="42.5200685" lon="12.31048"><ele>144.0</ele><time>2026-04-03T14:45:59.499Z</time></trkpt><trkpt lat="42.5201106" lon="12.3106409"><ele>144.0</ele><time>2026-04-03T14:46:00.497Z</time></trkpt><trkpt lat="42.5201556" lon="12.3108029"><ele>144.0</ele><time>2026-04-03T14:46:01.499Z</time></trkpt><trkpt lat="42.5202076" lon="12.3109609"><ele>146.25</ele><time>2026-04-03T14:46:02.495Z</time></trkpt><trkpt lat="42.5202536" lon="12.3111007"><ele>148.5</ele><time>2026-04-03T14:46:03.509Z</time></trkpt><trkpt lat="42.5203024" lon="12.3112297"><ele>150.75</ele><time>2026-04-03T14:46:04.492Z</time></trkpt><trkpt lat="42.5203642" lon="12.3113654"><ele>153.0</ele><time>2026-04-03T14:46:05.492Z</time></trkpt><trkpt lat="42.5204386" lon="12.3115092"><ele>154.0</ele><time>2026-04-03T14:46:06.505Z</time></trkpt><trkpt lat="42.5205152" lon="12.3116581"><ele>155.0</ele><time>2026-04-03T14:46:07.505Z</time></trkpt><trkpt lat="42.5205828" lon="12.3117943"><ele>156.0</ele><time>2026-04-03T14:46:08.499Z</time></trkpt><trkpt lat="42.5206456" lon="12.3119047"><ele>157.0</ele><time>2026-04-03T14:46:09.499Z</time></trkpt><trkpt lat="42.5207131" lon="12.3119896"><ele>157.0</ele><time>2026-04-03T14:46:10.495Z</time></trkpt><trkpt lat="42.5207707" lon="12.3120405"><ele>157.0</ele><time>2026-04-03T14:46:11.501Z</time></trkpt><trkpt lat="42.5208288" lon="12.312078"><ele>157.0</ele><time>2026-04-03T14:46:12.499Z</time></trkpt><trkpt lat="42.5209286" lon="12.3121594"><ele>157.0</ele><time>2026-04-03T14:46:14.51Z</time></trkpt><trkpt lat="42.520992" lon="12.3122628"><ele>157.0</ele><time>2026-04-03T14:46:16.492Z</time></trkpt><trkpt lat="42.5209936" lon="12.3124336"><ele>158.8</ele><time>2026-04-03T14:46:18.498Z</time></trkpt><trkpt lat="42.5209922" lon="12.3125666"><ele>160.6</ele><time>2026-04-03T14:46:19.498Z</time></trkpt><trkpt lat="42.5210038" lon="12.3127143"><ele>162.4</ele><time>2026-04-03T14:46:20.499Z</time></trkpt><trkpt lat="42.5210237" lon="12.3128517"><ele>164.20000000000002</ele><time>2026-04-03T14:46:21.502Z</time></trkpt><trkpt lat="42.521059" lon="12.3129765"><ele>166.0</ele><time>2026-04-03T14:46:22.493Z</time></trkpt><trkpt lat="42.5211026" lon="12.3130966"><ele>166.16666666666669</ele><time>2026-04-03T14:46:23.488Z</time></trkpt><trkpt lat="42.5211438" lon="12.3132114"><ele>166.33333333333334</ele><time>2026-04-03T14:46:24.502Z</time></trkpt><trkpt lat="42.5211796" lon="12.3133167"><ele>166.5</ele><time>2026-04-03T14:46:25.505Z</time></trkpt><trkpt lat="42.5211987" lon="12.3134285"><ele>166.66666666666666</ele><time>2026-04-03T14:46:27.488Z</time></trkpt><trkpt lat="42.5212325" lon="12.3135364"><ele>166.83333333333331</ele><time>2026-04-03T14:46:30.501Z</time></trkpt><trkpt lat="42.5212852" lon="12.3136018"><ele>167.0</ele><time>2026-04-03T14:46:31.504Z</time></trkpt><trkpt lat="42.5213583" lon="12.3136713"><ele>167.25</ele><time>2026-04-03T14:46:32.486Z</time></trkpt><trkpt lat="42.5214461" lon="12.3137409"><ele>167.5</ele><time>2026-04-03T14:46:33.497Z</time></trkpt><trkpt lat="42.5215468" lon="12.3138029"><ele>167.75</ele><time>2026-04-03T14:46:34.49Z</time></trkpt><trkpt lat="42.5216568" lon="12.3138657"><ele>168.0</ele><time>2026-04-03T14:46:35.484Z</time></trkpt><trkpt lat="42.5217649" lon="12.3139316"><ele>168.0</ele><time>2026-04-03T14:46:36.498Z</time></trkpt><trkpt lat="42.521873" lon="12.3139923"><ele>168.0</ele><time>2026-04-03T14:46:37.492Z</time></trkpt><trkpt lat="42.5219795" lon="12.3140411"><ele>168.0</ele><time>2026-04-03T14:46:38.498Z</time></trkpt><trkpt lat="42.522082" lon="12.3140879"><ele>168.0</ele><time>2026-04-03T14:46:39.506Z</time></trkpt><trkpt lat="42.5221857" lon="12.3141257"><ele>168.0</ele><time>2026-04-03T14:46:40.51Z</time></trkpt><trkpt lat="42.5222956" lon="12.3141643"><ele>168.2</ele><time>2026-04-03T14:46:41.495Z</time></trkpt><trkpt lat="42.5224053" lon="12.3142"><ele>168.4</ele><time>2026-04-03T14:46:42.5Z</time></trkpt><trkpt lat="42.5225147" lon="12.3142352"><ele>168.6</ele><time>2026-04-03T14:46:43.503Z</time></trkpt><trkpt lat="42.5226234" lon="12.3142668"><ele>168.79999999999998</ele><time>2026-04-03T14:46:44.488Z</time></trkpt><trkpt lat="42.5227314" lon="12.314301"><ele>169.0</ele><time>2026-04-03T14:46:45.49Z</time></trkpt><trkpt lat="42.5228358" lon="12.3143403"><ele>168.2</ele><time>2026-04-03T14:46:46.504Z</time></trkpt><trkpt lat="42.52294" lon="12.314378"><ele>167.39999999999998</ele><time>2026-04-03T14:46:47.497Z</time></trkpt><trkpt lat="42.5230449" lon="12.3144074"><ele>166.6</ele><time>2026-04-03T14:46:48.495Z</time></trkpt><trkpt lat="42.5231472" lon="12.3144348"><ele>165.8</ele><time>2026-04-03T14:46:49.505Z</time></trkpt><trkpt lat="42.5232541" lon="12.3144647"><ele>165.0</ele><time>2026-04-03T14:46:50.498Z</time></trkpt><trkpt lat="42.5233549" lon="12.3144971"><ele>165.0</ele><time>2026-04-03T14:46:51.499Z</time></trkpt><trkpt lat="42.5234552" lon="12.3145354"><ele>165.0</ele><time>2026-04-03T14:46:52.504Z</time></trkpt><trkpt lat="42.5235565" lon="12.3145692"><ele>165.0</ele><time>2026-04-03T14:46:53.502Z</time></trkpt><trkpt lat="42.5236463" lon="12.3146115"><ele>165.0</ele><time>2026-04-03T14:46:54.508Z</time></trkpt><trkpt lat="42.5237177" lon="12.3146578"><ele>165.0</ele><time>2026-04-03T14:46:55.507Z</time></trkpt><trkpt lat="42.5237772" lon="12.3147275"><ele>164.0</ele><time>2026-04-03T14:46:56.507Z</time></trkpt><trkpt lat="42.5238312" lon="12.3148263"><ele>163.0</ele><time>2026-04-03T14:46:57.503Z</time></trkpt><trkpt lat="42.523882" lon="12.3149496"><ele>162.0</ele><time>2026-04-03T14:46:58.502Z</time></trkpt><trkpt lat="42.523942" lon="12.3150849"><ele>161.0</ele><time>2026-04-03T14:46:59.481Z</time></trkpt><trkpt lat="42.5240104" lon="12.3152306"><ele>160.0</ele><time>2026-04-03T14:47:00.499Z</time></trkpt><trkpt lat="42.5240833" lon="12.3153689"><ele>160.0</ele><time>2026-04-03T14:47:01.504Z</time></trkpt><trkpt lat="42.5241563" lon="12.3155001"><ele>160.0</ele><time>2026-04-03T14:47:02.496Z</time></trkpt><trkpt lat="42.5242243" lon="12.3156309"><ele>160.0</ele><time>2026-04-03T14:47:03.501Z</time></trkpt><trkpt lat="42.5242894" lon="12.3157582"><ele>160.0</ele><time>2026-04-03T14:47:04.496Z</time></trkpt><trkpt lat="42.5243554" lon="12.3158903"><ele>158.0</ele><time>2026-04-03T14:47:05.498Z</time></trkpt><trkpt lat="42.5244207" lon="12.3160194"><ele>156.0</ele><time>2026-04-03T14:47:06.505Z</time></trkpt><trkpt lat="42.5244837" lon="12.3161465"><ele>154.0</ele><time>2026-04-03T14:47:07.491Z</time></trkpt><trkpt lat="42.5245399" lon="12.316269"><ele>152.0</ele><time>2026-04-03T14:47:09.185Z</time></trkpt><trkpt lat="42.5246632" lon="12.3165168"><ele>151.25</ele><time>2026-04-03T14:47:10.503Z</time></trkpt><trkpt lat="42.5247261" lon="12.3166453"><ele>150.5</ele><time>2026-04-03T14:47:11.5Z</time></trkpt><trkpt lat="42.5247894" lon="12.3167723"><ele>149.75</ele><time>2026-04-03T14:47:12.496Z</time></trkpt><trkpt lat="42.5248598" lon="12.3169052"><ele>149.0</ele><time>2026-04-03T14:47:13.497Z</time></trkpt><trkpt lat="42.5249306" lon="12.3170388"><ele>149.0</ele><time>2026-04-03T14:47:14.494Z</time></trkpt><trkpt lat="42.5249996" lon="12.3171712"><ele>149.0</ele><time>2026-04-03T14:47:15.495Z</time></trkpt><trkpt lat="42.5250701" lon="12.3173104"><ele>149.0</ele><time>2026-04-03T14:47:16.496Z</time></trkpt><trkpt lat="42.5251374" lon="12.317451"><ele>149.0</ele><time>2026-04-03T14:47:17.5Z</time></trkpt><trkpt lat="42.5252055" lon="12.3175856"><ele>148.75</ele><time>2026-04-03T14:47:18.501Z</time></trkpt><trkpt lat="42.5252705" lon="12.3177102"><ele>148.5</ele><time>2026-04-03T14:47:19.497Z</time></trkpt><trkpt lat="42.5253332" lon="12.3178356"><ele>148.25</ele><time>2026-04-03T14:47:20.495Z</time></trkpt><trkpt lat="42.5254004" lon="12.3179603"><ele>148.0</ele><time>2026-04-03T14:47:21.501Z</time></trkpt><trkpt lat="42.5254712" lon="12.3180907"><ele>145.75</ele><time>2026-04-03T14:47:22.504Z</time></trkpt><trkpt lat="42.5255448" lon="12.3182203"><ele>143.5</ele><time>2026-04-03T14:47:23.502Z</time></trkpt><trkpt lat="42.5256168" lon="12.3183479"><ele>141.25</ele><time>2026-04-03T14:47:24.5Z</time></trkpt><trkpt lat="42.5256815" lon="12.3184714"><ele>139.0</ele><time>2026-04-03T14:47:25.504Z</time></trkpt><trkpt lat="42.5257402" lon="12.3185901"><ele>139.0</ele><time>2026-04-03T14:47:26.491Z</time></trkpt><trkpt lat="42.5257994" lon="12.3187101"><ele>139.0</ele><time>2026-04-03T14:47:27.499Z</time></trkpt><trkpt lat="42.5258694" lon="12.3188376"><ele>139.0</ele><time>2026-04-03T14:47:28.487Z</time></trkpt><trkpt lat="42.5259426" lon="12.3189657"><ele>139.0</ele><time>2026-04-03T14:47:29.492Z</time></trkpt><trkpt lat="42.5260084" lon="12.3190914"><ele>140.0</ele><time>2026-04-03T14:47:30.489Z</time></trkpt><trkpt lat="42.5260748" lon="12.3192188"><ele>141.0</ele><time>2026-04-03T14:47:31.5Z</time></trkpt><trkpt lat="42.5261501" lon="12.3193562"><ele>142.0</ele><time>2026-04-03T14:47:32.5Z</time></trkpt><trkpt lat="42.5262303" lon="12.3194982"><ele>143.0</ele><time>2026-04-03T14:47:33.496Z</time></trkpt><trkpt lat="42.5263029" lon="12.3196266"><ele>140.8</ele><time>2026-04-03T14:47:34.49Z</time></trkpt><trkpt lat="42.5263695" lon="12.3197456"><ele>138.60000000000002</ele><time>2026-04-03T14:47:35.494Z</time></trkpt><trkpt lat="42.5264282" lon="12.3198534"><ele>136.39999999999998</ele><time>2026-04-03T14:47:36.496Z</time></trkpt><trkpt lat="42.526474" lon="12.3199572"><ele>134.2</ele><time>2026-04-03T14:47:37.511Z</time></trkpt><trkpt lat="42.5265002" lon="12.3200649"><ele>132.0</ele><time>2026-04-03T14:47:38.504Z</time></trkpt><trkpt lat="42.5265136" lon="12.320168"><ele>132.0</ele><time>2026-04-03T14:47:39.489Z</time></trkpt><trkpt lat="42.5265082" lon="12.3202723"><ele>132.0</ele><time>2026-04-03T14:47:40.506Z</time></trkpt><trkpt lat="42.5264842" lon="12.3203718"><ele>132.0</ele><time>2026-04-03T14:47:41.5Z</time></trkpt><trkpt lat="42.5264324" lon="12.3204723"><ele>132.0</ele><time>2026-04-03T14:47:42.487Z</time></trkpt><trkpt lat="42.5263656" lon="12.3205648"><ele>132.0</ele><time>2026-04-03T14:47:43.499Z</time></trkpt><trkpt lat="42.5262879" lon="12.3206523"><ele>132.0</ele><time>2026-04-03T14:47:44.487Z</time></trkpt><trkpt lat="42.5262013" lon="12.320743"><ele>129.5</ele><time>2026-04-03T14:47:45.488Z</time></trkpt><trkpt lat="42.5261025" lon="12.3208345"><ele>127.0</ele><time>2026-04-03T14:47:46.484Z</time></trkpt><trkpt lat="42.5260006" lon="12.3209237"><ele>124.5</ele><time>2026-04-03T14:47:47.497Z</time></trkpt><trkpt lat="42.5258968" lon="12.3210071"><ele>122.0</ele><time>2026-04-03T14:47:48.497Z</time></trkpt><trkpt lat="42.5257967" lon="12.3210923"><ele>122.0</ele><time>2026-04-03T14:47:49.498Z</time></trkpt><trkpt lat="42.5256918" lon="12.3211835"><ele>122.0</ele><time>2026-04-03T14:47:50.493Z</time></trkpt><trkpt lat="42.5255786" lon="12.3212813"><ele>122.0</ele><time>2026-04-03T14:47:51.499Z</time></trkpt><trkpt lat="42.5254608" lon="12.3213875"><ele>122.0</ele><time>2026-04-03T14:47:52.498Z</time></trkpt><trkpt lat="42.5253332" lon="12.3215007"><ele>122.0</ele><time>2026-04-03T14:47:53.495Z</time></trkpt><trkpt lat="42.5252028" lon="12.3216184"><ele>122.0</ele><time>2026-04-03T14:47:54.499Z</time></trkpt><trkpt lat="42.525087" lon="12.3217279"><ele>122.0</ele><time>2026-04-03T14:47:55.5Z</time></trkpt><trkpt lat="42.5249809" lon="12.3218237"><ele>122.0</ele><time>2026-04-03T14:47:56.508Z</time></trkpt><trkpt lat="42.524881" lon="12.3219064"><ele>122.0</ele><time>2026-04-03T14:47:57.497Z</time></trkpt><trkpt lat="42.5247797" lon="12.3219918"><ele>122.0</ele><time>2026-04-03T14:47:58.5Z</time></trkpt><trkpt lat="42.5246774" lon="12.3220818"><ele>122.0</ele><time>2026-04-03T14:47:59.501Z</time></trkpt><trkpt lat="42.5245831" lon="12.3221714"><ele>122.0</ele><time>2026-04-03T14:48:00.495Z</time></trkpt><trkpt lat="42.5245031" lon="12.3222535"><ele>123.19999999999999</ele><time>2026-04-03T14:48:01.499Z</time></trkpt><trkpt lat="42.5244342" lon="12.3223426"><ele>124.39999999999999</ele><time>2026-04-03T14:48:02.492Z</time></trkpt><trkpt lat="42.5243858" lon="12.3224463"><ele>125.60000000000001</ele><time>2026-04-03T14:48:03.505Z</time></trkpt><trkpt lat="42.5243617" lon="12.3225688"><ele>126.80000000000001</ele><time>2026-04-03T14:48:04.503Z</time></trkpt><trkpt lat="42.5243588" lon="12.3226861"><ele>128.0</ele><time>2026-04-03T14:48:05.497Z</time></trkpt><trkpt lat="42.524378" lon="12.322801"><ele>128.0</ele><time>2026-04-03T14:48:06.482Z</time></trkpt><trkpt lat="42.5244134" lon="12.3229182"><ele>128.0</ele><time>2026-04-03T14:48:07.493Z</time></trkpt><trkpt lat="42.5244646" lon="12.3230393"><ele>128.0</ele><time>2026-04-03T14:48:08.508Z</time></trkpt><trkpt lat="42.5245346" lon="12.3231516"><ele>128.0</ele><time>2026-04-03T14:48:09.499Z</time></trkpt><trkpt lat="42.5246212" lon="12.3232398"><ele>128.0</ele><time>2026-04-03T14:48:10.495Z</time></trkpt><trkpt lat="42.5247166" lon="12.3232857"><ele>129.75</ele><time>2026-04-03T14:48:11.505Z</time></trkpt><trkpt lat="42.5248255" lon="12.3233194"><ele>131.5</ele><time>2026-04-03T14:48:12.499Z</time></trkpt><trkpt lat="42.5249488" lon="12.3233508"><ele>133.25</ele><time>2026-04-03T14:48:13.5Z</time></trkpt><trkpt lat="42.5250865" lon="12.3233884"><ele>135.0</ele><time>2026-04-03T14:48:14.505Z</time></trkpt><trkpt lat="42.5252097" lon="12.3234183"><ele>135.0</ele><time>2026-04-03T14:48:15.495Z</time></trkpt><trkpt lat="42.5253125" lon="12.3234533"><ele>135.0</ele><time>2026-04-03T14:48:16.491Z</time></trkpt><trkpt lat="42.525393" lon="12.3234951"><ele>135.0</ele><time>2026-04-03T14:48:17.505Z</time></trkpt><trkpt lat="42.5254439" lon="12.323549"><ele>135.0</ele><time>2026-04-03T14:48:18.506Z</time></trkpt><trkpt lat="42.5255254" lon="12.3236886"><ele>135.0</ele><time>2026-04-03T14:48:20.493Z</time></trkpt><trkpt lat="42.5255579" lon="12.3237732"><ele>135.57142857142856</ele><time>2026-04-03T14:48:21.504Z</time></trkpt><trkpt lat="42.5255689" lon="12.3238652"><ele>136.14285714285714</ele><time>2026-04-03T14:48:22.505Z</time></trkpt><trkpt lat="42.5255657" lon="12.3239534"><ele>136.71428571428572</ele><time>2026-04-03T14:48:23.506Z</time></trkpt><trkpt lat="42.5255595" lon="12.324044"><ele>137.28571428571428</ele><time>2026-04-03T14:48:24.499Z</time></trkpt><trkpt lat="42.5255555" lon="12.3241427"><ele>137.85714285714286</ele><time>2026-04-03T14:48:25.495Z</time></trkpt><trkpt lat="42.5255519" lon="12.3242522"><ele>138.42857142857142</ele><time>2026-04-03T14:48:26.504Z</time></trkpt><trkpt lat="42.5255354" lon="12.3243599"><ele>139.0</ele><time>2026-04-03T14:48:27.499Z</time></trkpt><trkpt lat="42.5254951" lon="12.3244538"><ele>139.0</ele><time>2026-04-03T14:48:28.492Z</time></trkpt><trkpt lat="42.5254305" lon="12.3245243"><ele>139.0</ele><time>2026-04-03T14:48:29.501Z</time></trkpt><trkpt lat="42.5253438" lon="12.3245706"><ele>139.0</ele><time>2026-04-03T14:48:30.496Z</time></trkpt><trkpt lat="42.5252371" lon="12.3245799"><ele>139.0</ele><time>2026-04-03T14:48:31.502Z</time></trkpt><trkpt lat="42.5251015" lon="12.324554"><ele>139.0</ele><time>2026-04-03T14:48:32.503Z</time></trkpt><trkpt lat="42.5249536" lon="12.3245099"><ele>141.33333333333334</ele><time>2026-04-03T14:48:33.503Z</time></trkpt><trkpt lat="42.524783" lon="12.3244523"><ele>143.66666666666666</ele><time>2026-04-03T14:48:34.504Z</time></trkpt><trkpt lat="42.5246121" lon="12.3244032"><ele>146.0</ele><time>2026-04-03T14:48:35.494Z</time></trkpt><trkpt lat="42.5244466" lon="12.3243617"><ele>147.66666666666666</ele><time>2026-04-03T14:48:36.509Z</time></trkpt><trkpt lat="42.5242899" lon="12.3243215"><ele>149.33333333333334</ele><time>2026-04-03T14:48:37.503Z</time></trkpt><trkpt lat="42.5241361" lon="12.324282"><ele>151.0</ele><time>2026-04-03T14:48:38.5Z</time></trkpt><trkpt lat="42.5240031" lon="12.3242549"><ele>151.0</ele><time>2026-04-03T14:48:39.505Z</time></trkpt><trkpt lat="42.5238852" lon="12.3242357"><ele>151.0</ele><time>2026-04-03T14:48:40.484Z</time></trkpt><trkpt lat="42.5237777" lon="12.3242118"><ele>151.0</ele><time>2026-04-03T14:48:41.507Z</time></trkpt><trkpt lat="42.5236841" lon="12.3241853"><ele>151.0</ele><time>2026-04-03T14:48:42.496Z</time></trkpt><trkpt lat="42.523597" lon="12.3241675"><ele>151.0</ele><time>2026-04-03T14:48:43.497Z</time></trkpt><trkpt lat="42.5235134" lon="12.324164"><ele>151.83333333333334</ele><time>2026-04-03T14:48:44.501Z</time></trkpt><trkpt lat="42.5234351" lon="12.3241793"><ele>152.66666666666669</ele><time>2026-04-03T14:48:45.498Z</time></trkpt><trkpt lat="42.5233711" lon="12.324208"><ele>153.5</ele><time>2026-04-03T14:48:46.494Z</time></trkpt><trkpt lat="42.5233059" lon="12.3242583"><ele>154.33333333333334</ele><time>2026-04-03T14:48:47.506Z</time></trkpt><trkpt lat="42.5232455" lon="12.3243178"><ele>155.16666666666666</ele><time>2026-04-03T14:48:48.5Z</time></trkpt><trkpt lat="42.5231833" lon="12.3244161"><ele>156.0</ele><time>2026-04-03T14:48:49.507Z</time></trkpt><trkpt lat="42.5231306" lon="12.3245376"><ele>156.0</ele><time>2026-04-03T14:48:50.508Z</time></trkpt><trkpt lat="42.5230774" lon="12.324673"><ele>156.0</ele><time>2026-04-03T14:48:51.498Z</time></trkpt><trkpt lat="42.5230254" lon="12.3248245"><ele>156.0</ele><time>2026-04-03T14:48:52.507Z</time></trkpt><trkpt lat="42.5229645" lon="12.3249884"><ele>156.0</ele><time>2026-04-03T14:48:53.51Z</time></trkpt><trkpt lat="42.5228982" lon="12.3251563"><ele>155.0</ele><time>2026-04-03T14:48:54.501Z</time></trkpt><trkpt lat="42.5228309" lon="12.3253379"><ele>154.0</ele><time>2026-04-03T14:48:55.509Z</time></trkpt><trkpt lat="42.5227709" lon="12.3255086"><ele>153.0</ele><time>2026-04-03T14:48:56.505Z</time></trkpt><trkpt lat="42.5227101" lon="12.3256702"><ele>152.0</ele><time>2026-04-03T14:48:57.486Z</time></trkpt><trkpt lat="42.522645" lon="12.3258418"><ele>154.66666666666666</ele><time>2026-04-03T14:48:58.506Z</time></trkpt><trkpt lat="42.5225774" lon="12.326022"><ele>157.33333333333334</ele><time>2026-04-03T14:48:59.512Z</time></trkpt><trkpt lat="42.5224992" lon="12.3262184"><ele>160.0</ele><time>2026-04-03T14:49:00.505Z</time></trkpt><trkpt lat="42.5224162" lon="12.3264242"><ele>162.66666666666669</ele><time>2026-04-03T14:49:01.497Z</time></trkpt><trkpt lat="42.5223309" lon="12.3266386"><ele>165.33333333333334</ele><time>2026-04-03T14:49:02.5Z</time></trkpt><trkpt lat="42.5222416" lon="12.3268477"><ele>168.0</ele><time>2026-04-03T14:49:03.499Z</time></trkpt><trkpt lat="42.5221474" lon="12.3270218"><ele>168.0</ele><time>2026-04-03T14:49:04.493Z</time></trkpt><trkpt lat="42.5220433" lon="12.3271745"><ele>168.0</ele><time>2026-04-03T14:49:05.497Z</time></trkpt><trkpt lat="42.5219263" lon="12.3273168"><ele>168.0</ele><time>2026-04-03T14:49:06.495Z</time></trkpt><trkpt lat="42.5218084" lon="12.3274465"><ele>168.0</ele><time>2026-04-03T14:49:07.487Z</time></trkpt><trkpt lat="42.5216981" lon="12.3275545"><ele>168.0</ele><time>2026-04-03T14:49:08.487Z</time></trkpt><trkpt lat="42.5215993" lon="12.3276478"><ele>168.0</ele><time>2026-04-03T14:49:09.5Z</time></trkpt><trkpt lat="42.521501" lon="12.3277316"><ele>168.0</ele><time>2026-04-03T14:49:10.489Z</time></trkpt><trkpt lat="42.521402" lon="12.3278102"><ele>168.0</ele><time>2026-04-03T14:49:11.505Z</time></trkpt><trkpt lat="42.5213" lon="12.327893"><ele>168.0</ele><time>2026-04-03T14:49:12.497Z</time></trkpt><trkpt lat="42.5211967" lon="12.3279643"><ele>168.0</ele><time>2026-04-03T14:49:13.505Z</time></trkpt><trkpt lat="42.5210936" lon="12.328019"><ele>168.0</ele><time>2026-04-03T14:49:14.504Z</time></trkpt><trkpt lat="42.5209922" lon="12.3280508"><ele>166.5</ele><time>2026-04-03T14:49:15.498Z</time></trkpt><trkpt lat="42.520884" lon="12.3280565"><ele>165.0</ele><time>2026-04-03T14:49:16.495Z</time></trkpt><trkpt lat="42.5207769" lon="12.3280262"><ele>163.5</ele><time>2026-04-03T14:49:17.491Z</time></trkpt><trkpt lat="42.5206696" lon="12.3279715"><ele>162.0</ele><time>2026-04-03T14:49:18.493Z</time></trkpt><trkpt lat="42.5205601" lon="12.3278855"><ele>162.0</ele><time>2026-04-03T14:49:19.498Z</time></trkpt><trkpt lat="42.5204421" lon="12.3277753"><ele>162.0</ele><time>2026-04-03T14:49:20.5Z</time></trkpt><trkpt lat="42.5203254" lon="12.3276478"><ele>162.0</ele><time>2026-04-03T14:49:21.503Z</time></trkpt><trkpt lat="42.5202022" lon="12.3275123"><ele>163.0</ele><time>2026-04-03T14:49:22.494Z</time></trkpt><trkpt lat="42.520079" lon="12.3273703"><ele>164.0</ele><time>2026-04-03T14:49:23.492Z</time></trkpt><trkpt lat="42.519948" lon="12.3272205"><ele>165.0</ele><time>2026-04-03T14:49:24.485Z</time></trkpt><trkpt lat="42.5198077" lon="12.3270689"><ele>165.0</ele><time>2026-04-03T14:49:25.501Z</time></trkpt><trkpt lat="42.519667" lon="12.3269196"><ele>165.0</ele><time>2026-04-03T14:49:26.499Z</time></trkpt><trkpt lat="42.5195364" lon="12.3267785"><ele>165.0</ele><time>2026-04-03T14:49:27.493Z</time></trkpt><trkpt lat="42.5194097" lon="12.3266348"><ele>168.0</ele><time>2026-04-03T14:49:28.502Z</time></trkpt><trkpt lat="42.5192787" lon="12.3264874"><ele>171.0</ele><time>2026-04-03T14:49:29.498Z</time></trkpt><trkpt lat="42.5191613" lon="12.3263518"><ele>174.0</ele><time>2026-04-03T14:49:30.494Z</time></trkpt><trkpt lat="42.519061" lon="12.3262336"><ele>174.0</ele><time>2026-04-03T14:49:31.496Z</time></trkpt><trkpt lat="42.5189759" lon="12.3261349"><ele>174.0</ele><time>2026-04-03T14:49:32.503Z</time></trkpt><trkpt lat="42.5188908" lon="12.3260536"><ele>174.0</ele><time>2026-04-03T14:49:33.502Z</time></trkpt><trkpt lat="42.5188058" lon="12.3260067"><ele>174.0</ele><time>2026-04-03T14:49:34.475Z</time></trkpt><trkpt lat="42.518721" lon="12.3260115"><ele>174.0</ele><time>2026-04-03T14:49:35.505Z</time></trkpt><trkpt lat="42.5186317" lon="12.32605"><ele>175.0</ele><time>2026-04-03T14:49:36.499Z</time></trkpt><trkpt lat="42.5185535" lon="12.3261274"><ele>176.0</ele><time>2026-04-03T14:49:37.501Z</time></trkpt><trkpt lat="42.5185047" lon="12.3262335"><ele>177.0</ele><time>2026-04-03T14:49:38.502Z</time></trkpt><trkpt lat="42.5184868" lon="12.3263729"><ele>178.0</ele><time>2026-04-03T14:49:39.498Z</time></trkpt><trkpt lat="42.5185153" lon="12.3264917"><ele>179.0</ele><time>2026-04-03T14:49:40.512Z</time></trkpt><trkpt lat="42.518584" lon="12.3266108"><ele>178.0</ele><time>2026-04-03T14:49:41.488Z</time></trkpt><trkpt lat="42.5186775" lon="12.3267317"><ele>177.0</ele><time>2026-04-03T14:49:42.489Z</time></trkpt><trkpt lat="42.5187952" lon="12.3268612"><ele>176.0</ele><time>2026-04-03T14:49:43.502Z</time></trkpt><trkpt lat="42.5189133" lon="12.3269912"><ele>175.0</ele><time>2026-04-03T14:49:44.499Z</time></trkpt><trkpt lat="42.5190129" lon="12.3271113"><ele>176.75</ele><time>2026-04-03T14:49:45.493Z</time></trkpt><trkpt lat="42.5190844" lon="12.3272351"><ele>178.5</ele><time>2026-04-03T14:49:46.491Z</time></trkpt><trkpt lat="42.5191427" lon="12.3273875"><ele>180.25</ele><time>2026-04-03T14:49:47.491Z</time></trkpt><trkpt lat="42.5191693" lon="12.3275723"><ele>182.0</ele><time>2026-04-03T14:49:48.5Z</time></trkpt><trkpt lat="42.5191834" lon="12.3277761"><ele>182.0</ele><time>2026-04-03T14:49:49.502Z</time></trkpt><trkpt lat="42.5191853" lon="12.3279952"><ele>182.0</ele><time>2026-04-03T14:49:50.501Z</time></trkpt><trkpt lat="42.5191844" lon="12.3282082"><ele>182.0</ele><time>2026-04-03T14:49:51.502Z</time></trkpt><trkpt lat="42.5191777" lon="12.3284183"><ele>184.0</ele><time>2026-04-03T14:49:52.493Z</time></trkpt><trkpt lat="42.5191644" lon="12.3286355"><ele>186.0</ele><time>2026-04-03T14:49:53.502Z</time></trkpt><trkpt lat="42.5191409" lon="12.3288696"><ele>188.0</ele><time>2026-04-03T14:49:54.496Z</time></trkpt><trkpt lat="42.5191062" lon="12.3291202"><ele>191.33333333333331</ele><time>2026-04-03T14:49:55.497Z</time></trkpt><trkpt lat="42.5190619" lon="12.3293751"><ele>194.66666666666666</ele><time>2026-04-03T14:49:56.494Z</time></trkpt><trkpt lat="42.5190202" lon="12.3296086"><ele>198.0</ele><time>2026-04-03T14:49:57.502Z</time></trkpt><trkpt lat="42.5189847" lon="12.3298087"><ele>199.75</ele><time>2026-04-03T14:49:58.486Z</time></trkpt><trkpt lat="42.5189497" lon="12.3299865"><ele>201.5</ele><time>2026-04-03T14:49:59.493Z</time></trkpt><trkpt lat="42.5189084" lon="12.3301637"><ele>203.25</ele><time>2026-04-03T14:50:00.498Z</time></trkpt><trkpt lat="42.5188518" lon="12.3303463"><ele>205.0</ele><time>2026-04-03T14:50:01.49Z</time></trkpt><trkpt lat="42.5187793" lon="12.3305211"><ele>204.66666666666666</ele><time>2026-04-03T14:50:02.489Z</time></trkpt><trkpt lat="42.5186814" lon="12.3306973"><ele>204.33333333333331</ele><time>2026-04-03T14:50:03.5Z</time></trkpt><trkpt lat="42.5185626" lon="12.330881"><ele>204.0</ele><time>2026-04-03T14:50:04.503Z</time></trkpt><trkpt lat="42.518431" lon="12.3310695"><ele>204.0</ele><time>2026-04-03T14:50:05.492Z</time></trkpt><trkpt lat="42.5182998" lon="12.3312575"><ele>204.0</ele><time>2026-04-03T14:50:06.498Z</time></trkpt><trkpt lat="42.5181831" lon="12.3314316"><ele>204.0</ele><time>2026-04-03T14:50:07.485Z</time></trkpt><trkpt lat="42.5180812" lon="12.3315793"><ele>208.0</ele><time>2026-04-03T14:50:08.499Z</time></trkpt><trkpt lat="42.517969" lon="12.3317213"><ele>212.0</ele><time>2026-04-03T14:50:09.484Z</time></trkpt><trkpt lat="42.5178404" lon="12.3318602"><ele>216.0</ele><time>2026-04-03T14:50:10.495Z</time></trkpt><trkpt lat="42.5177233" lon="12.3319807"><ele>216.25</ele><time>2026-04-03T14:50:11.5Z</time></trkpt><trkpt lat="42.5176117" lon="12.3320776"><ele>216.5</ele><time>2026-04-03T14:50:12.503Z</time></trkpt><trkpt lat="42.5174918" lon="12.3321516"><ele>216.75</ele><time>2026-04-03T14:50:13.499Z</time></trkpt><trkpt lat="42.5173636" lon="12.3322123"><ele>217.0</ele><time>2026-04-03T14:50:14.493Z</time></trkpt><trkpt lat="42.5172381" lon="12.3322615"><ele>219.0</ele><time>2026-04-03T14:50:15.497Z</time></trkpt><trkpt lat="42.5171188" lon="12.3322935"><ele>221.0</ele><time>2026-04-03T14:50:16.498Z</time></trkpt><trkpt lat="42.5170075" lon="12.3323142"><ele>223.0</ele><time>2026-04-03T14:50:17.489Z</time></trkpt><trkpt lat="42.5169098" lon="12.3323134"><ele>225.0</ele><time>2026-04-03T14:50:18.498Z</time></trkpt><trkpt lat="42.5168166" lon="12.3322866"><ele>227.0</ele><time>2026-04-03T14:50:19.509Z</time></trkpt><trkpt lat="42.5167174" lon="12.3322242"><ele>226.0</ele><time>2026-04-03T14:50:20.501Z</time></trkpt><trkpt lat="42.5166096" lon="12.3321397"><ele>225.0</ele><time>2026-04-03T14:50:21.499Z</time></trkpt><trkpt lat="42.5165006" lon="12.3320355"><ele>224.0</ele><time>2026-04-03T14:50:22.496Z</time></trkpt><trkpt lat="42.5163991" lon="12.3319428"><ele>223.0</ele><time>2026-04-03T14:50:23.492Z</time></trkpt><trkpt lat="42.5163141" lon="12.3318494"><ele>223.0</ele><time>2026-04-03T14:50:24.496Z</time></trkpt><trkpt lat="42.5162371" lon="12.3317667"><ele>223.0</ele><time>2026-04-03T14:50:25.496Z</time></trkpt><trkpt lat="42.5161506" lon="12.3316918"><ele>223.0</ele><time>2026-04-03T14:50:26.491Z</time></trkpt><trkpt lat="42.5160357" lon="12.3316248"><ele>223.0</ele><time>2026-04-03T14:50:27.491Z</time></trkpt><trkpt lat="42.5159035" lon="12.3315618"><ele>224.25</ele><time>2026-04-03T14:50:28.501Z</time></trkpt><trkpt lat="42.5157604" lon="12.3314993"><ele>225.5</ele><time>2026-04-03T14:50:29.487Z</time></trkpt><trkpt lat="42.515625" lon="12.3314487"><ele>226.75</ele><time>2026-04-03T14:50:30.489Z</time></trkpt><trkpt lat="42.515496" lon="12.3314261"><ele>228.0</ele><time>2026-04-03T14:50:31.481Z</time></trkpt><trkpt lat="42.5153867" lon="12.3314375"><ele>229.4</ele><time>2026-04-03T14:50:32.497Z</time></trkpt><trkpt lat="42.5152823" lon="12.3314608"><ele>230.8</ele><time>2026-04-03T14:50:33.497Z</time></trkpt><trkpt lat="42.515196" lon="12.3314804"><ele>232.2</ele><time>2026-04-03T14:50:34.492Z</time></trkpt><trkpt lat="42.5151264" lon="12.331497"><ele>233.6</ele><time>2026-04-03T14:50:35.48Z</time></trkpt><trkpt lat="42.5150285" lon="12.3315012"><ele>235.0</ele><time>2026-04-03T14:50:37.502Z</time></trkpt><trkpt lat="42.5149434" lon="12.3315698"><ele>235.0</ele><time>2026-04-03T14:50:39.499Z</time></trkpt><trkpt lat="42.5149011" lon="12.3316884"><ele>235.0</ele><time>2026-04-03T14:50:40.496Z</time></trkpt><trkpt lat="42.5148446" lon="12.3318656"><ele>235.0</ele><time>2026-04-03T14:50:41.497Z</time></trkpt><trkpt lat="42.5147774" lon="12.3320394"><ele>235.0</ele><time>2026-04-03T14:50:42.498Z</time></trkpt><trkpt lat="42.5147249" lon="12.3322084"><ele>236.6</ele><time>2026-04-03T14:50:43.494Z</time></trkpt><trkpt lat="42.5146999" lon="12.3323634"><ele>238.2</ele><time>2026-04-03T14:50:44.498Z</time></trkpt><trkpt lat="42.5146942" lon="12.3325092"><ele>239.8</ele><time>2026-04-03T14:50:45.492Z</time></trkpt><trkpt lat="42.5147163" lon="12.3326438"><ele>241.4</ele><time>2026-04-03T14:50:46.489Z</time></trkpt><trkpt lat="42.5147609" lon="12.3327753"><ele>243.0</ele><time>2026-04-03T14:50:47.491Z</time></trkpt><trkpt lat="42.5148259" lon="12.332911"><ele>243.0</ele><time>2026-04-03T14:50:48.485Z</time></trkpt><trkpt lat="42.5148888" lon="12.3330457"><ele>243.0</ele><time>2026-04-03T14:50:49.502Z</time></trkpt><trkpt lat="42.514931" lon="12.3331967"><ele>243.0</ele><time>2026-04-03T14:50:50.493Z</time></trkpt><trkpt lat="42.5149471" lon="12.3333788"><ele>243.0</ele><time>2026-04-03T14:50:51.488Z</time></trkpt><trkpt lat="42.5149435" lon="12.3335676"><ele>245.0</ele><time>2026-04-03T14:50:52.492Z</time></trkpt><trkpt lat="42.5149425" lon="12.3337393"><ele>247.0</ele><time>2026-04-03T14:50:53.497Z</time></trkpt><trkpt lat="42.5149459" lon="12.3338932"><ele>249.0</ele><time>2026-04-03T14:50:54.493Z</time></trkpt><trkpt lat="42.5149657" lon="12.3340556"><ele>251.0</ele><time>2026-04-03T14:50:55.492Z</time></trkpt><trkpt lat="42.5150106" lon="12.3342284"><ele>252.60000000000002</ele><time>2026-04-03T14:50:56.493Z</time></trkpt><trkpt lat="42.5150606" lon="12.3343809"><ele>254.20000000000002</ele><time>2026-04-03T14:50:57.494Z</time></trkpt><trkpt lat="42.5150944" lon="12.3345051"><ele>255.79999999999998</ele><time>2026-04-03T14:50:58.498Z</time></trkpt><trkpt lat="42.5151178" lon="12.3346174"><ele>257.4</ele><time>2026-04-03T14:50:59.493Z</time></trkpt><trkpt lat="42.515129" lon="12.3347315"><ele>259.0</ele><time>2026-04-03T14:51:00.486Z</time></trkpt><trkpt lat="42.5151185" lon="12.3348526"><ele>261.2</ele><time>2026-04-03T14:51:01.501Z</time></trkpt><trkpt lat="42.5150904" lon="12.3349711"><ele>263.4</ele><time>2026-04-03T14:51:02.497Z</time></trkpt><trkpt lat="42.5150493" lon="12.3351051"><ele>265.6</ele><time>2026-04-03T14:51:03.498Z</time></trkpt><trkpt lat="42.5150059" lon="12.3352521"><ele>267.8</ele><time>2026-04-03T14:51:04.491Z</time></trkpt><trkpt lat="42.5149655" lon="12.3353841"><ele>270.0</ele><time>2026-04-03T14:51:05.492Z</time></trkpt><trkpt lat="42.5149391" lon="12.3354995"><ele>272.1666666666667</ele><time>2026-04-03T14:51:06.506Z</time></trkpt><trkpt lat="42.5149238" lon="12.3356151"><ele>274.3333333333333</ele><time>2026-04-03T14:51:07.492Z</time></trkpt><trkpt lat="42.5149202" lon="12.3357552"><ele>276.5</ele><time>2026-04-03T14:51:08.495Z</time></trkpt><trkpt lat="42.5149245" lon="12.3358889"><ele>278.66666666666663</ele><time>2026-04-03T14:51:09.497Z</time></trkpt><trkpt lat="42.5149474" lon="12.3359857"><ele>280.8333333333333</ele><time>2026-04-03T14:51:10.492Z</time></trkpt><trkpt lat="42.5149902" lon="12.336067"><ele>283.0</ele><time>2026-04-03T14:51:11.509Z</time></trkpt><trkpt lat="42.515067" lon="12.3361579"><ele>283.0</ele><time>2026-04-03T14:51:12.493Z</time></trkpt><trkpt lat="42.5151876" lon="12.3362726"><ele>283.0</ele><time>2026-04-03T14:51:13.494Z</time></trkpt><trkpt lat="42.5153399" lon="12.3364053"><ele>283.0</ele><time>2026-04-03T14:51:14.506Z</time></trkpt><trkpt lat="42.5155063" lon="12.3365311"><ele>285.25</ele><time>2026-04-03T14:51:15.496Z</time></trkpt><trkpt lat="42.5156257" lon="12.3366289"><ele>287.5</ele><time>2026-04-03T14:51:16.498Z</time></trkpt><trkpt lat="42.5157358" lon="12.3367134"><ele>289.75</ele><time>2026-04-03T14:51:17.496Z</time></trkpt><trkpt lat="42.5158318" lon="12.3367881"><ele>292.0</ele><time>2026-04-03T14:51:18.496Z</time></trkpt><trkpt lat="42.5159183" lon="12.3368596"><ele>292.0</ele><time>2026-04-03T14:51:19.504Z</time></trkpt><trkpt lat="42.516001" lon="12.3369432"><ele>292.0</ele><time>2026-04-03T14:51:20.506Z</time></trkpt><trkpt lat="42.5160644" lon="12.3370341"><ele>292.0</ele><time>2026-04-03T14:51:21.494Z</time></trkpt><trkpt lat="42.5161292" lon="12.3371288"><ele>292.0</ele><time>2026-04-03T14:51:22.506Z</time></trkpt><trkpt lat="42.5162043" lon="12.3372308"><ele>292.0</ele><time>2026-04-03T14:51:23.505Z</time></trkpt><trkpt lat="42.516296" lon="12.3373596"><ele>294.66666666666663</ele><time>2026-04-03T14:51:24.494Z</time></trkpt><trkpt lat="42.5164027" lon="12.3375405"><ele>297.3333333333333</ele><time>2026-04-03T14:51:25.503Z</time></trkpt><trkpt lat="42.5165135" lon="12.3377331"><ele>300.0</ele><time>2026-04-03T14:51:26.49Z</time></trkpt><trkpt lat="42.5166056" lon="12.3378922"><ele>300.0</ele><time>2026-04-03T14:51:27.507Z</time></trkpt><trkpt lat="42.5166892" lon="12.3380393"><ele>300.0</ele><time>2026-04-03T14:51:28.496Z</time></trkpt><trkpt lat="42.5167803" lon="12.3381837"><ele>300.0</ele><time>2026-04-03T14:51:29.499Z</time></trkpt><trkpt lat="42.5168694" lon="12.3383031"><ele>300.0</ele><time>2026-04-03T14:51:30.491Z</time></trkpt><trkpt lat="42.5169523" lon="12.3383998"><ele>300.6</ele><time>2026-04-03T14:51:31.499Z</time></trkpt><trkpt lat="42.5170205" lon="12.3384919"><ele>301.2</ele><time>2026-04-03T14:51:32.48Z</time></trkpt><trkpt lat="42.5170632" lon="12.3386107"><ele>301.8</ele><time>2026-04-03T14:51:33.506Z</time></trkpt><trkpt lat="42.5170714" lon="12.3387673"><ele>302.4</ele><time>2026-04-03T14:51:34.494Z</time></trkpt><trkpt lat="42.5170832" lon="12.3389533"><ele>303.0</ele><time>2026-04-03T14:51:35.493Z</time></trkpt><trkpt lat="42.5171054" lon="12.3391426"><ele>303.5</ele><time>2026-04-03T14:51:36.49Z</time></trkpt><trkpt lat="42.5171282" lon="12.3393214"><ele>304.0</ele><time>2026-04-03T14:51:37.491Z</time></trkpt><trkpt lat="42.5171423" lon="12.3395169"><ele>304.5</ele><time>2026-04-03T14:51:38.495Z</time></trkpt><trkpt lat="42.5171484" lon="12.3397003"><ele>305.0</ele><time>2026-04-03T14:51:39.505Z</time></trkpt><trkpt lat="42.5171569" lon="12.3398468"><ele>305.33333333333337</ele><time>2026-04-03T14:51:40.496Z</time></trkpt><trkpt lat="42.5171591" lon="12.3399604"><ele>305.6666666666667</ele><time>2026-04-03T14:51:41.515Z</time></trkpt><trkpt lat="42.517164" lon="12.3400585"><ele>306.0</ele><time>2026-04-03T14:51:42.507Z</time></trkpt><trkpt lat="42.5171693" lon="12.3401535"><ele>306.3333333333333</ele><time>2026-04-03T14:51:43.507Z</time></trkpt><trkpt lat="42.5171738" lon="12.3403046"><ele>306.66666666666663</ele><time>2026-04-03T14:51:45.508Z</time></trkpt><trkpt lat="42.5171566" lon="12.3404087"><ele>307.0</ele><time>2026-04-03T14:51:47.498Z</time></trkpt><trkpt lat="42.5170971" lon="12.3405045"><ele>306.66666666666663</ele><time>2026-04-03T14:51:50.494Z</time></trkpt><trkpt lat="42.5170158" lon="12.3404957"><ele>306.3333333333333</ele><time>2026-04-03T14:51:52.497Z</time></trkpt><trkpt lat="42.5169313" lon="12.3404687"><ele>306.0</ele><time>2026-04-03T14:51:54.488Z</time></trkpt><trkpt lat="42.5168924" lon="12.3405684"><ele>305.6666666666667</ele><time>2026-04-03T14:51:57.489Z</time></trkpt><trkpt lat="42.5169376" lon="12.3407096"><ele>305.33333333333337</ele><time>2026-04-03T14:51:59.499Z</time></trkpt><trkpt lat="42.5169769" lon="12.3407892"><ele>305.0</ele><time>2026-04-03T14:52:00.48Z</time></trkpt><trkpt lat="42.5170179" lon="12.3408776"><ele>305.0</ele><time>2026-04-03T14:52:01.501Z</time></trkpt><trkpt lat="42.5170634" lon="12.3409799"><ele>305.0</ele><time>2026-04-03T14:52:02.49Z</time></trkpt><trkpt lat="42.5171096" lon="12.3410842"><ele>305.0</ele><time>2026-04-03T14:52:03.499Z</time></trkpt><trkpt lat="42.5171605" lon="12.3411904"><ele>305.0</ele><time>2026-04-03T14:52:04.504Z</time></trkpt><trkpt lat="42.5172055" lon="12.3412958"><ele>305.0</ele><time>2026-04-03T14:52:05.478Z</time></trkpt><trkpt lat="42.5172509" lon="12.3413986"><ele>305.0</ele><time>2026-04-03T14:52:06.495Z</time></trkpt><trkpt lat="42.5172959" lon="12.3414997"><ele>304.2</ele><time>2026-04-03T14:52:07.505Z</time></trkpt><trkpt lat="42.5173456" lon="12.3416048"><ele>303.4</ele><time>2026-04-03T14:52:08.502Z</time></trkpt><trkpt lat="42.5173947" lon="12.3417095"><ele>302.6</ele><time>2026-04-03T14:52:09.51Z</time></trkpt><trkpt lat="42.5174459" lon="12.3418131"><ele>301.8</ele><time>2026-04-03T14:52:10.498Z</time></trkpt><trkpt lat="42.5174933" lon="12.3419177"><ele>301.0</ele><time>2026-04-03T14:52:11.502Z</time></trkpt><trkpt lat="42.5175375" lon="12.342018"><ele>301.0</ele><time>2026-04-03T14:52:12.509Z</time></trkpt><trkpt lat="42.5175762" lon="12.3421066"><ele>301.0</ele><time>2026-04-03T14:52:13.499Z</time></trkpt><trkpt lat="42.517614" lon="12.3421902"><ele>301.0</ele><time>2026-04-03T14:52:14.496Z</time></trkpt><trkpt lat="42.5176554" lon="12.3423269"><ele>301.0</ele><time>2026-04-03T14:52:16.509Z</time></trkpt><trkpt lat="42.5175805" lon="12.3424555"><ele>301.0</ele><time>2026-04-03T14:52:18.504Z</time></trkpt><trkpt lat="42.517511" lon="12.3425209"><ele>301.0</ele><time>2026-04-03T14:52:19.487Z</time></trkpt><trkpt lat="42.5174317" lon="12.3425934"><ele>301.0</ele><time>2026-04-03T14:52:20.506Z</time></trkpt><trkpt lat="42.5173491" lon="12.3426675"><ele>301.0</ele><time>2026-04-03T14:52:21.505Z</time></trkpt><trkpt lat="42.5172608" lon="12.3427362"><ele>301.0</ele><time>2026-04-03T14:52:22.504Z</time></trkpt><trkpt lat="42.5171699" lon="12.3428084"><ele>301.0</ele><time>2026-04-03T14:52:23.506Z</time></trkpt><trkpt lat="42.5170784" lon="12.3428862"><ele>301.5</ele><time>2026-04-03T14:52:24.495Z</time></trkpt><trkpt lat="42.5169694" lon="12.3429772"><ele>302.0</ele><time>2026-04-03T14:52:25.512Z</time></trkpt><trkpt lat="42.5168439" lon="12.343078"><ele>302.5</ele><time>2026-04-03T14:52:26.502Z</time></trkpt><trkpt lat="42.5167193" lon="12.3431759"><ele>303.0</ele><time>2026-04-03T14:52:27.503Z</time></trkpt><trkpt lat="42.5165956" lon="12.3432703"><ele>303.25</ele><time>2026-04-03T14:52:28.509Z</time></trkpt><trkpt lat="42.5164816" lon="12.3433607"><ele>303.5</ele><time>2026-04-03T14:52:29.501Z</time></trkpt><trkpt lat="42.5163762" lon="12.34345"><ele>303.75</ele><time>2026-04-03T14:52:30.504Z</time></trkpt><trkpt lat="42.5162699" lon="12.3435404"><ele>304.0</ele><time>2026-04-03T14:52:31.497Z</time></trkpt><trkpt lat="42.5161599" lon="12.343631"><ele>305.0</ele><time>2026-04-03T14:52:32.501Z</time></trkpt><trkpt lat="42.5160397" lon="12.3437262"><ele>306.0</ele><time>2026-04-03T14:52:33.481Z</time></trkpt><trkpt lat="42.5159099" lon="12.3438355"><ele>307.0</ele><time>2026-04-03T14:52:34.491Z</time></trkpt><trkpt lat="42.5157737" lon="12.343955"><ele>307.3333333333333</ele><time>2026-04-03T14:52:35.506Z</time></trkpt><trkpt lat="42.5156314" lon="12.3440778"><ele>307.6666666666667</ele><time>2026-04-03T14:52:36.483Z</time></trkpt><trkpt lat="42.5155002" lon="12.3441924"><ele>308.0</ele><time>2026-04-03T14:52:37.482Z</time></trkpt><trkpt lat="42.5153886" lon="12.3442899"><ele>308.6</ele><time>2026-04-03T14:52:38.487Z</time></trkpt><trkpt lat="42.5152804" lon="12.3443816"><ele>309.20000000000005</ele><time>2026-04-03T14:52:39.478Z</time></trkpt><trkpt lat="42.5151856" lon="12.3444548"><ele>309.8</ele><time>2026-04-03T14:52:40.488Z</time></trkpt><trkpt lat="42.5150996" lon="12.3445214"><ele>310.40000000000003</ele><time>2026-04-03T14:52:41.481Z</time></trkpt><trkpt lat="42.5150272" lon="12.3445904"><ele>311.0</ele><time>2026-04-03T14:52:42.482Z</time></trkpt><trkpt lat="42.5149614" lon="12.3446467"><ele>311.0</ele><time>2026-04-03T14:52:43.489Z</time></trkpt><trkpt lat="42.5149011" lon="12.3446932"><ele>311.0</ele><time>2026-04-03T14:52:44.484Z</time></trkpt><trkpt lat="42.5148383" lon="12.3447397"><ele>311.0</ele><time>2026-04-03T14:52:45.487Z</time></trkpt><trkpt lat="42.5147559" lon="12.3447981"><ele>311.0</ele><time>2026-04-03T14:52:46.498Z</time></trkpt><trkpt lat="42.5146741" lon="12.3448612"><ele>311.0</ele><time>2026-04-03T14:52:47.496Z</time></trkpt><trkpt lat="42.5145941" lon="12.3449195"><ele>311.0</ele><time>2026-04-03T14:52:48.508Z</time></trkpt><trkpt lat="42.5145261" lon="12.3449722"><ele>311.6666666666667</ele><time>2026-04-03T14:52:49.482Z</time></trkpt><trkpt lat="42.5144648" lon="12.3450167"><ele>312.33333333333337</ele><time>2026-04-03T14:52:50.493Z</time></trkpt><trkpt lat="42.5144052" lon="12.345059"><ele>313.0</ele><time>2026-04-03T14:52:51.508Z</time></trkpt><trkpt lat="42.5143114" lon="12.345132"><ele>313.6666666666667</ele><time>2026-04-03T14:52:53.497Z</time></trkpt><trkpt lat="42.5142461" lon="12.34518"><ele>314.3333333333333</ele><time>2026-04-03T14:52:55.506Z</time></trkpt><trkpt lat="42.5141453" lon="12.3452671"><ele>315.0</ele><time>2026-04-03T14:53:09.507Z</time></trkpt><trkpt lat="42.5140646" lon="12.3453265"><ele>315.0</ele><time>2026-04-03T14:53:10.482Z</time></trkpt><trkpt lat="42.513945" lon="12.3453729"><ele>315.0</ele><time>2026-04-03T14:53:11.505Z</time></trkpt><trkpt lat="42.513771" lon="12.3453951"><ele>315.0</ele><time>2026-04-03T14:53:12.5Z</time></trkpt><trkpt lat="42.5135818" lon="12.3454061"><ele>314.3333333333333</ele><time>2026-04-03T14:53:13.508Z</time></trkpt><trkpt lat="42.513392" lon="12.3454286"><ele>313.66666666666663</ele><time>2026-04-03T14:53:14.514Z</time></trkpt><trkpt lat="42.5132252" lon="12.3454322"><ele>313.0</ele><time>2026-04-03T14:53:15.488Z</time></trkpt><trkpt lat="42.5130796" lon="12.3454324"><ele>313.0</ele><time>2026-04-03T14:53:16.502Z</time></trkpt><trkpt lat="42.5129518" lon="12.3454334"><ele>313.0</ele><time>2026-04-03T14:53:17.509Z</time></trkpt><trkpt lat="42.5128432" lon="12.3454313"><ele>313.0</ele><time>2026-04-03T14:53:18.509Z</time></trkpt><trkpt lat="42.5127559" lon="12.3454321"><ele>313.0</ele><time>2026-04-03T14:53:19.495Z</time></trkpt><trkpt lat="42.5126793" lon="12.3454286"><ele>313.0</ele><time>2026-04-03T14:53:20.48Z</time></trkpt><trkpt lat="42.5126137" lon="12.3454221"><ele>312.8</ele><time>2026-04-03T14:53:21.503Z</time></trkpt><trkpt lat="42.5125335" lon="12.345413"><ele>312.6</ele><time>2026-04-03T14:53:23.503Z</time></trkpt><trkpt lat="42.5124635" lon="12.3454148"><ele>312.4</ele><time>2026-04-03T14:53:36.51Z</time></trkpt><trkpt lat="42.5123846" lon="12.34541"><ele>312.2</ele><time>2026-04-03T14:53:37.504Z</time></trkpt><trkpt lat="42.5122815" lon="12.3454147"><ele>312.0</ele><time>2026-04-03T14:53:38.51Z</time></trkpt><trkpt lat="42.5121529" lon="12.3454189"><ele>312.25</ele><time>2026-04-03T14:53:39.496Z</time></trkpt><trkpt lat="42.5120066" lon="12.3454179"><ele>312.5</ele><time>2026-04-03T14:53:40.499Z</time></trkpt><trkpt lat="42.5118552" lon="12.3454174"><ele>312.75</ele><time>2026-04-03T14:53:41.502Z</time></trkpt><trkpt lat="42.5117149" lon="12.3454181"><ele>313.0</ele><time>2026-04-03T14:53:42.508Z</time></trkpt><trkpt lat="42.5115874" lon="12.345412"><ele>313.0</ele><time>2026-04-03T14:53:43.511Z</time></trkpt><trkpt lat="42.5114784" lon="12.3454084"><ele>313.0</ele><time>2026-04-03T14:53:44.5Z</time></trkpt><trkpt lat="42.5113801" lon="12.3454099"><ele>313.0</ele><time>2026-04-03T14:53:45.509Z</time></trkpt><trkpt lat="42.5112867" lon="12.3454111"><ele>313.0</ele><time>2026-04-03T14:53:46.506Z</time></trkpt><trkpt lat="42.511198" lon="12.3454099"><ele>313.0</ele><time>2026-04-03T14:53:47.493Z</time></trkpt><trkpt lat="42.5111104" lon="12.3454045"><ele>313.0</ele><time>2026-04-03T14:53:48.495Z</time></trkpt><trkpt lat="42.5110313" lon="12.3453998"><ele>313.0</ele><time>2026-04-03T14:53:49.507Z</time></trkpt><trkpt lat="42.5109596" lon="12.3453944"><ele>313.0</ele><time>2026-04-03T14:53:50.484Z</time></trkpt><trkpt lat="42.510896" lon="12.3453904"><ele>313.0</ele><time>2026-04-03T14:53:51.503Z</time></trkpt><trkpt lat="42.5108276" lon="12.345386"><ele>313.0</ele><time>2026-04-03T14:53:52.505Z</time></trkpt><trkpt lat="42.5107565" lon="12.3453831"><ele>313.0</ele><time>2026-04-03T14:53:53.483Z</time></trkpt><trkpt lat="42.5106757" lon="12.3453802"><ele>313.0</ele><time>2026-04-03T14:53:54.493Z</time></trkpt><trkpt lat="42.5105928" lon="12.3453803"><ele>313.0</ele><time>2026-04-03T14:53:55.507Z</time></trkpt><trkpt lat="42.5105074" lon="12.3453796"><ele>313.0</ele><time>2026-04-03T14:53:56.501Z</time></trkpt><trkpt lat="42.5104286" lon="12.3453802"><ele>313.0</ele><time>2026-04-03T14:53:57.498Z</time></trkpt><trkpt lat="42.5103531" lon="12.345378"><ele>313.0</ele><time>2026-04-03T14:53:58.494Z</time></trkpt><trkpt lat="42.5102773" lon="12.3453749"><ele>313.0</ele><time>2026-04-03T14:53:59.504Z</time></trkpt><trkpt lat="42.5101985" lon="12.3453707"><ele>313.0</ele><time>2026-04-03T14:54:00.503Z</time></trkpt><trkpt lat="42.5101098" lon="12.3453702"><ele>312.5</ele><time>2026-04-03T14:54:01.501Z</time></trkpt><trkpt lat="42.5100093" lon="12.3453697"><ele>312.0</ele><time>2026-04-03T14:54:02.504Z</time></trkpt><trkpt lat="42.5099007" lon="12.3453717"><ele>311.5</ele><time>2026-04-03T14:54:03.506Z</time></trkpt><trkpt lat="42.5097842" lon="12.3453789"><ele>311.0</ele><time>2026-04-03T14:54:04.504Z</time></trkpt><trkpt lat="42.5096574" lon="12.345385"><ele>310.75</ele><time>2026-04-03T14:54:05.503Z</time></trkpt><trkpt lat="42.5095211" lon="12.3453883"><ele>310.5</ele><time>2026-04-03T14:54:06.494Z</time></trkpt><trkpt lat="42.509387" lon="12.3453859"><ele>310.25</ele><time>2026-04-03T14:54:07.506Z</time></trkpt><trkpt lat="42.5092571" lon="12.3453769"><ele>310.0</ele><time>2026-04-03T14:54:08.504Z</time></trkpt><trkpt lat="42.5091353" lon="12.3453621"><ele>310.0</ele><time>2026-04-03T14:54:09.513Z</time></trkpt><trkpt lat="42.5090215" lon="12.3453495"><ele>310.0</ele><time>2026-04-03T14:54:10.496Z</time></trkpt><trkpt lat="42.5089156" lon="12.3453381"><ele>310.0</ele><time>2026-04-03T14:54:11.5Z</time></trkpt><trkpt lat="42.5088125" lon="12.3453221"><ele>310.0</ele><time>2026-04-03T14:54:12.503Z</time></trkpt><trkpt lat="42.5087158" lon="12.3453078"><ele>310.0</ele><time>2026-04-03T14:54:13.511Z</time></trkpt><trkpt lat="42.5086222" lon="12.3452935"><ele>309.5</ele><time>2026-04-03T14:54:14.5Z</time></trkpt><trkpt lat="42.5085349" lon="12.3452806"><ele>309.0</ele><time>2026-04-03T14:54:15.512Z</time></trkpt><trkpt lat="42.5084517" lon="12.3452687"><ele>308.5</ele><time>2026-04-03T14:54:16.506Z</time></trkpt><trkpt lat="42.5083704" lon="12.3452583"><ele>308.0</ele><time>2026-04-03T14:54:17.507Z</time></trkpt><trkpt lat="42.5082922" lon="12.3452459"><ele>307.5</ele><time>2026-04-03T14:54:18.497Z</time></trkpt><trkpt lat="42.5082225" lon="12.3452268"><ele>307.0</ele><time>2026-04-03T14:54:19.51Z</time></trkpt><trkpt lat="42.5081124" lon="12.3451525"><ele>307.0</ele><time>2026-04-03T14:54:21.508Z</time></trkpt><trkpt lat="42.5080666" lon="12.3450636"><ele>307.0</ele><time>2026-04-03T14:54:22.496Z</time></trkpt><trkpt lat="42.5080288" lon="12.3449459"><ele>307.0</ele><time>2026-04-03T14:54:23.511Z</time></trkpt><trkpt lat="42.5079861" lon="12.3448009"><ele>307.0</ele><time>2026-04-03T14:54:24.492Z</time></trkpt><trkpt lat="42.5079348" lon="12.3446325"><ele>307.0</ele><time>2026-04-03T14:54:25.49Z</time></trkpt><trkpt lat="42.5078814" lon="12.3444506"><ele>307.0</ele><time>2026-04-03T14:54:26.495Z</time></trkpt><trkpt lat="42.5078314" lon="12.344272"><ele>307.0</ele><time>2026-04-03T14:54:27.487Z</time></trkpt><trkpt lat="42.5077904" lon="12.3441065"><ele>307.0</ele><time>2026-04-03T14:54:28.499Z</time></trkpt><trkpt lat="42.5077557" lon="12.3439477"><ele>307.0</ele><time>2026-04-03T14:54:29.499Z</time></trkpt><trkpt lat="42.5077228" lon="12.3438014"><ele>307.0</ele><time>2026-04-03T14:54:30.494Z</time></trkpt><trkpt lat="42.5076875" lon="12.3436643"><ele>307.0</ele><time>2026-04-03T14:54:31.512Z</time></trkpt><trkpt lat="42.5076445" lon="12.3435283"><ele>307.0</ele><time>2026-04-03T14:54:32.494Z</time></trkpt><trkpt lat="42.5075842" lon="12.3433916"><ele>307.0</ele><time>2026-04-03T14:54:33.508Z</time></trkpt><trkpt lat="42.5074834" lon="12.3432505"><ele>307.0</ele><time>2026-04-03T14:54:34.495Z</time></trkpt><trkpt lat="42.5073605" lon="12.3430907"><ele>307.0</ele><time>2026-04-03T14:54:35.493Z</time></trkpt><trkpt lat="42.5072379" lon="12.342927"><ele>307.0</ele><time>2026-04-03T14:54:36.497Z</time></trkpt><trkpt lat="42.5071329" lon="12.3427654"><ele>306.25</ele><time>2026-04-03T14:54:37.493Z</time></trkpt><trkpt lat="42.5070366" lon="12.3426066"><ele>305.5</ele><time>2026-04-03T14:54:38.502Z</time></trkpt><trkpt lat="42.5069516" lon="12.3424625"><ele>304.75</ele><time>2026-04-03T14:54:39.504Z</time></trkpt><trkpt lat="42.506876" lon="12.3423284"><ele>304.0</ele><time>2026-04-03T14:54:40.49Z</time></trkpt><trkpt lat="42.5067962" lon="12.3421912"><ele>304.0</ele><time>2026-04-03T14:54:41.495Z</time></trkpt><trkpt lat="42.5067082" lon="12.342056"><ele>304.0</ele><time>2026-04-03T14:54:42.502Z</time></trkpt><trkpt lat="42.5066189" lon="12.3419272"><ele>304.0</ele><time>2026-04-03T14:54:43.507Z</time></trkpt><trkpt lat="42.5065372" lon="12.3418138"><ele>304.0</ele><time>2026-04-03T14:54:44.507Z</time></trkpt><trkpt lat="42.5064575" lon="12.3417156"><ele>304.0</ele><time>2026-04-03T14:54:45.477Z</time></trkpt><trkpt lat="42.5063851" lon="12.3416174"><ele>304.0</ele><time>2026-04-03T14:54:46.495Z</time></trkpt><trkpt lat="42.5063186" lon="12.3415048"><ele>304.0</ele><time>2026-04-03T14:54:47.505Z</time></trkpt><trkpt lat="42.5062561" lon="12.3413815"><ele>304.0</ele><time>2026-04-03T14:54:48.504Z</time></trkpt><trkpt lat="42.5061931" lon="12.3412534"><ele>304.0</ele><time>2026-04-03T14:54:49.492Z</time></trkpt><trkpt lat="42.5061262" lon="12.341119"><ele>303.75</ele><time>2026-04-03T14:54:50.497Z</time></trkpt><trkpt lat="42.5060576" lon="12.3409839"><ele>303.5</ele><time>2026-04-03T14:54:51.498Z</time></trkpt><trkpt lat="42.5059896" lon="12.3408506"><ele>303.25</ele><time>2026-04-03T14:54:52.491Z</time></trkpt><trkpt lat="42.5059257" lon="12.3407121"><ele>303.0</ele><time>2026-04-03T14:54:53.488Z</time></trkpt><trkpt lat="42.5058575" lon="12.340573"><ele>303.25</ele><time>2026-04-03T14:54:54.501Z</time></trkpt><trkpt lat="42.5057859" lon="12.3404419"><ele>303.5</ele><time>2026-04-03T14:54:55.488Z</time></trkpt><trkpt lat="42.5057163" lon="12.340319"><ele>303.75</ele><time>2026-04-03T14:54:56.501Z</time></trkpt><trkpt lat="42.505647" lon="12.3401966"><ele>304.0</ele><time>2026-04-03T14:54:57.507Z</time></trkpt><trkpt lat="42.5055842" lon="12.3400792"><ele>304.0</ele><time>2026-04-03T14:54:58.502Z</time></trkpt><trkpt lat="42.5055204" lon="12.3399645"><ele>304.0</ele><time>2026-04-03T14:54:59.511Z</time></trkpt><trkpt lat="42.5054555" lon="12.339862"><ele>304.0</ele><time>2026-04-03T14:55:00.509Z</time></trkpt><trkpt lat="42.5053904" lon="12.3397546"><ele>304.0</ele><time>2026-04-03T14:55:01.507Z</time></trkpt><trkpt lat="42.5053266" lon="12.3396476"><ele>304.0</ele><time>2026-04-03T14:55:02.478Z</time></trkpt><trkpt lat="42.5052636" lon="12.3395433"><ele>302.4</ele><time>2026-04-03T14:55:03.478Z</time></trkpt><trkpt lat="42.5052038" lon="12.3394416"><ele>300.79999999999995</ele><time>2026-04-03T14:55:04.48Z</time></trkpt><trkpt lat="42.5051442" lon="12.339329"><ele>299.20000000000005</ele><time>2026-04-03T14:55:05.482Z</time></trkpt><trkpt lat="42.50508" lon="12.3392088"><ele>297.6</ele><time>2026-04-03T14:55:06.505Z</time></trkpt><trkpt lat="42.5050095" lon="12.3390862"><ele>296.0</ele><time>2026-04-03T14:55:07.495Z</time></trkpt><trkpt lat="42.5049311" lon="12.3389621"><ele>293.25</ele><time>2026-04-03T14:55:08.479Z</time></trkpt><trkpt lat="42.50485" lon="12.3388433"><ele>290.5</ele><time>2026-04-03T14:55:09.5Z</time></trkpt><trkpt lat="42.5047702" lon="12.3387276"><ele>287.75</ele><time>2026-04-03T14:55:10.504Z</time></trkpt><trkpt lat="42.5046897" lon="12.3386184"><ele>285.0</ele><time>2026-04-03T14:55:11.495Z</time></trkpt><trkpt lat="42.5046186" lon="12.3385162"><ele>284.0</ele><time>2026-04-03T14:55:12.501Z</time></trkpt><trkpt lat="42.5045536" lon="12.3384217"><ele>283.0</ele><time>2026-04-03T14:55:13.511Z</time></trkpt><trkpt lat="42.5044984" lon="12.3383418"><ele>282.0</ele><time>2026-04-03T14:55:14.497Z</time></trkpt><trkpt lat="42.5044504" lon="12.3382757"><ele>281.0</ele><time>2026-04-03T14:55:15.499Z</time></trkpt><trkpt lat="42.504371" lon="12.3381683"><ele>280.0</ele><time>2026-04-03T14:55:17.483Z</time></trkpt><trkpt lat="42.5042938" lon="12.3381108"><ele>279.0</ele><time>2026-04-03T14:55:18.509Z</time></trkpt><trkpt lat="42.5041801" lon="12.3380375"><ele>276.5</ele><time>2026-04-03T14:55:19.506Z</time></trkpt><trkpt lat="42.5040512" lon="12.3379537"><ele>274.0</ele><time>2026-04-03T14:55:20.495Z</time></trkpt><trkpt lat="42.5039307" lon="12.3378673"><ele>271.5</ele><time>2026-04-03T14:55:21.5Z</time></trkpt><trkpt lat="42.5038132" lon="12.3377812"><ele>269.0</ele><time>2026-04-03T14:55:22.505Z</time></trkpt><trkpt lat="42.5037051" lon="12.3377014"><ele>268.4</ele><time>2026-04-03T14:55:23.477Z</time></trkpt><trkpt lat="42.5036076" lon="12.3376262"><ele>267.79999999999995</ele><time>2026-04-03T14:55:24.509Z</time></trkpt><trkpt lat="42.5035174" lon="12.3375622"><ele>267.20000000000005</ele><time>2026-04-03T14:55:25.502Z</time></trkpt><trkpt lat="42.5034284" lon="12.3375233"><ele>266.6</ele><time>2026-04-03T14:55:26.492Z</time></trkpt><trkpt lat="42.5033177" lon="12.3375042"><ele>266.0</ele><time>2026-04-03T14:55:27.496Z</time></trkpt><trkpt lat="42.5031717" lon="12.3375239"><ele>266.0</ele><time>2026-04-03T14:55:28.496Z</time></trkpt><trkpt lat="42.5030238" lon="12.3375663"><ele>266.0</ele><time>2026-04-03T14:55:29.501Z</time></trkpt><trkpt lat="42.5028842" lon="12.3376018"><ele>266.0</ele><time>2026-04-03T14:55:30.491Z</time></trkpt><trkpt lat="42.5027512" lon="12.3376182"><ele>266.0</ele><time>2026-04-03T14:55:31.491Z</time></trkpt><trkpt lat="42.5026342" lon="12.337627"><ele>263.75</ele><time>2026-04-03T14:55:32.489Z</time></trkpt><trkpt lat="42.5025293" lon="12.3376276"><ele>261.5</ele><time>2026-04-03T14:55:33.499Z</time></trkpt><trkpt lat="42.5024288" lon="12.3376118"><ele>259.25</ele><time>2026-04-03T14:55:34.505Z</time></trkpt><trkpt lat="42.5023257" lon="12.3375778"><ele>257.0</ele><time>2026-04-03T14:55:35.503Z</time></trkpt><trkpt lat="42.5022007" lon="12.3374691"><ele>253.0</ele><time>2026-04-03T14:55:36.498Z</time></trkpt><trkpt lat="42.5020643" lon="12.3373304"><ele>249.0</ele><time>2026-04-03T14:55:37.498Z</time></trkpt><trkpt lat="42.5019392" lon="12.3372109"><ele>245.0</ele><time>2026-04-03T14:55:38.493Z</time></trkpt><trkpt lat="42.5018167" lon="12.3371042"><ele>245.0</ele><time>2026-04-03T14:55:39.504Z</time></trkpt><trkpt lat="42.5017043" lon="12.3370043"><ele>245.0</ele><time>2026-04-03T14:55:40.51Z</time></trkpt><trkpt lat="42.5016167" lon="12.3369101"><ele>245.0</ele><time>2026-04-03T14:55:41.499Z</time></trkpt><trkpt lat="42.5015509" lon="12.336832"><ele>245.0</ele><time>2026-04-03T14:55:42.493Z</time></trkpt><trkpt lat="42.5014998" lon="12.3367767"><ele>245.0</ele><time>2026-04-03T14:55:43.503Z</time></trkpt><trkpt lat="42.5014259" lon="12.3367287"><ele>245.00000000000003</ele><time>2026-04-03T14:55:45.504Z</time></trkpt><trkpt lat="42.501351" lon="12.3367728"><ele>245.0</ele><time>2026-04-03T14:55:47.481Z</time></trkpt><trkpt lat="42.5013014" lon="12.3368293"><ele>245.0</ele><time>2026-04-03T14:55:48.498Z</time></trkpt><trkpt lat="42.5012361" lon="12.3368676"><ele>245.0</ele><time>2026-04-03T14:55:49.495Z</time></trkpt><trkpt lat="42.5011637" lon="12.3368738"><ele>245.00000000000003</ele><time>2026-04-03T14:55:50.495Z</time></trkpt><trkpt lat="42.5010856" lon="12.3368318"><ele>245.0</ele><time>2026-04-03T14:55:51.512Z</time></trkpt><trkpt lat="42.5010375" lon="12.3367241"><ele>241.4</ele><time>2026-04-03T14:55:52.494Z</time></trkpt><trkpt lat="42.50097" lon="12.3365897"><ele>237.8</ele><time>2026-04-03T14:55:53.491Z</time></trkpt><trkpt lat="42.5008902" lon="12.3364619"><ele>234.2</ele><time>2026-04-03T14:55:54.493Z</time></trkpt><trkpt lat="42.5008107" lon="12.3363786"><ele>230.6</ele><time>2026-04-03T14:55:55.507Z</time></trkpt><trkpt lat="42.5007069" lon="12.3363522"><ele>227.0</ele><time>2026-04-03T14:55:56.493Z</time></trkpt><trkpt lat="42.5005737" lon="12.3363557"><ele>226.66666666666669</ele><time>2026-04-03T14:55:57.496Z</time></trkpt><trkpt lat="42.500418" lon="12.3363725"><ele>226.33333333333331</ele><time>2026-04-03T14:55:58.503Z</time></trkpt><trkpt lat="42.5002574" lon="12.3364035"><ele>226.0</ele><time>2026-04-03T14:55:59.502Z</time></trkpt><trkpt lat="42.5001084" lon="12.3364449"><ele>223.0</ele><time>2026-04-03T14:56:00.497Z</time></trkpt><trkpt lat="42.4999689" lon="12.3364861"><ele>220.0</ele><time>2026-04-03T14:56:01.499Z</time></trkpt><trkpt lat="42.4998492" lon="12.3365708"><ele>217.0</ele><time>2026-04-03T14:56:02.498Z</time></trkpt><trkpt lat="42.4997534" lon="12.3366789"><ele>214.0</ele><time>2026-04-03T14:56:03.501Z</time></trkpt><trkpt lat="42.4996566" lon="12.3367638"><ele>212.25</ele><time>2026-04-03T14:56:04.5Z</time></trkpt><trkpt lat="42.4995481" lon="12.3368183"><ele>210.5</ele><time>2026-04-03T14:56:05.504Z</time></trkpt><trkpt lat="42.4994099" lon="12.3368282"><ele>208.75</ele><time>2026-04-03T14:56:06.484Z</time></trkpt><trkpt lat="42.499258" lon="12.336807"><ele>207.0</ele><time>2026-04-03T14:56:07.504Z</time></trkpt><trkpt lat="42.4991216" lon="12.3367689"><ele>207.0</ele><time>2026-04-03T14:56:08.491Z</time></trkpt><trkpt lat="42.4989992" lon="12.3367355"><ele>207.0</ele><time>2026-04-03T14:56:09.511Z</time></trkpt><trkpt lat="42.4988836" lon="12.3367207"><ele>207.0</ele><time>2026-04-03T14:56:10.497Z</time></trkpt><trkpt lat="42.4987731" lon="12.3367208"><ele>207.0</ele><time>2026-04-03T14:56:11.51Z</time></trkpt><trkpt lat="42.4986714" lon="12.3367041"><ele>205.5</ele><time>2026-04-03T14:56:12.501Z</time></trkpt><trkpt lat="42.498584" lon="12.3366704"><ele>204.0</ele><time>2026-04-03T14:56:13.496Z</time></trkpt><trkpt lat="42.4985111" lon="12.336622"><ele>202.5</ele><time>2026-04-03T14:56:14.503Z</time></trkpt><trkpt lat="42.4984612" lon="12.3365633"><ele>201.0</ele><time>2026-04-03T14:56:15.507Z</time></trkpt><trkpt lat="42.4984405" lon="12.3364818"><ele>199.5</ele><time>2026-04-03T14:56:16.503Z</time></trkpt><trkpt lat="42.4984536" lon="12.336388"><ele>198.0</ele><time>2026-04-03T14:56:17.505Z</time></trkpt><trkpt lat="42.4984999" lon="12.336276"><ele>199.25</ele><time>2026-04-03T14:56:18.483Z</time></trkpt><trkpt lat="42.4985683" lon="12.3361581"><ele>200.5</ele><time>2026-04-03T14:56:19.501Z</time></trkpt><trkpt lat="42.4986634" lon="12.336026"><ele>201.75</ele><time>2026-04-03T14:56:20.501Z</time></trkpt><trkpt lat="42.4987709" lon="12.3358722"><ele>203.0</ele><time>2026-04-03T14:56:21.495Z</time></trkpt><trkpt lat="42.49886" lon="12.3356835"><ele>200.25</ele><time>2026-04-03T14:56:22.504Z</time></trkpt><trkpt lat="42.4989369" lon="12.3354778"><ele>197.5</ele><time>2026-04-03T14:56:23.499Z</time></trkpt><trkpt lat="42.4989974" lon="12.3352997"><ele>194.75</ele><time>2026-04-03T14:56:24.509Z</time></trkpt><trkpt lat="42.4990492" lon="12.3351531"><ele>192.0</ele><time>2026-04-03T14:56:25.505Z</time></trkpt><trkpt lat="42.4990933" lon="12.3350207"><ele>192.0</ele><time>2026-04-03T14:56:26.504Z</time></trkpt><trkpt lat="42.4991485" lon="12.3349053"><ele>192.0</ele><time>2026-04-03T14:56:27.5Z</time></trkpt><trkpt lat="42.4992236" lon="12.3348126"><ele>192.0</ele><time>2026-04-03T14:56:28.502Z</time></trkpt><trkpt lat="42.499328" lon="12.3347363"><ele>192.0</ele><time>2026-04-03T14:56:29.505Z</time></trkpt><trkpt lat="42.499458" lon="12.3346752"><ele>190.75</ele><time>2026-04-03T14:56:30.486Z</time></trkpt><trkpt lat="42.4995922" lon="12.3346259"><ele>189.5</ele><time>2026-04-03T14:56:31.5Z</time></trkpt><trkpt lat="42.4997148" lon="12.3345806"><ele>188.25</ele><time>2026-04-03T14:56:32.501Z</time></trkpt><trkpt lat="42.4998168" lon="12.3345342"><ele>187.0</ele><time>2026-04-03T14:56:33.507Z</time></trkpt><trkpt lat="42.4999094" lon="12.3344842"><ele>187.0</ele><time>2026-04-03T14:56:34.496Z</time></trkpt><trkpt lat="42.5000006" lon="12.3344266"><ele>187.0</ele><time>2026-04-03T14:56:35.502Z</time></trkpt><trkpt lat="42.5000867" lon="12.3343534"><ele>187.0</ele><time>2026-04-03T14:56:36.504Z</time></trkpt><trkpt lat="42.5001841" lon="12.3342615"><ele>187.0</ele><time>2026-04-03T14:56:37.496Z</time></trkpt><trkpt lat="42.5002769" lon="12.3341619"><ele>187.0</ele><time>2026-04-03T14:56:38.503Z</time></trkpt><trkpt lat="42.500358" lon="12.3340494"><ele>185.25</ele><time>2026-04-03T14:56:39.502Z</time></trkpt><trkpt lat="42.5004206" lon="12.3339233"><ele>183.5</ele><time>2026-04-03T14:56:40.509Z</time></trkpt><trkpt lat="42.5004713" lon="12.3337783"><ele>181.75</ele><time>2026-04-03T14:56:41.5Z</time></trkpt><trkpt lat="42.5004998" lon="12.3336144"><ele>180.0</ele><time>2026-04-03T14:56:42.493Z</time></trkpt><trkpt lat="42.5005183" lon="12.3334817"><ele>180.0</ele><time>2026-04-03T14:56:43.511Z</time></trkpt><trkpt lat="42.5005362" lon="12.3333686"><ele>180.0</ele><time>2026-04-03T14:56:44.515Z</time></trkpt><trkpt lat="42.5005725" lon="12.3332867"><ele>180.0</ele><time>2026-04-03T14:56:45.506Z</time></trkpt><trkpt lat="42.5006279" lon="12.3332367"><ele>180.0</ele><time>2026-04-03T14:56:46.506Z</time></trkpt><trkpt lat="42.5007079" lon="12.3332166"><ele>180.0</ele><time>2026-04-03T14:56:47.504Z</time></trkpt><trkpt lat="42.5008155" lon="12.3332115"><ele>180.0</ele><time>2026-04-03T14:56:48.494Z</time></trkpt><trkpt lat="42.5009358" lon="12.3332183"><ele>180.0</ele><time>2026-04-03T14:56:49.505Z</time></trkpt><trkpt lat="42.5010745" lon="12.3332392"><ele>180.0</ele><time>2026-04-03T14:56:50.506Z</time></trkpt><trkpt lat="42.5012289" lon="12.333256"><ele>180.0</ele><time>2026-04-03T14:56:51.506Z</time></trkpt><trkpt lat="42.501379" lon="12.3332811"><ele>180.0</ele><time>2026-04-03T14:56:52.507Z</time></trkpt><trkpt lat="42.5015137" lon="12.3333018"><ele>180.75</ele><time>2026-04-03T14:56:53.505Z</time></trkpt><trkpt lat="42.5016293" lon="12.3333088"><ele>181.5</ele><time>2026-04-03T14:56:54.504Z</time></trkpt><trkpt lat="42.5017529" lon="12.3333092"><ele>182.25</ele><time>2026-04-03T14:56:55.507Z</time></trkpt><trkpt lat="42.501882" lon="12.3332957"><ele>183.0</ele><time>2026-04-03T14:56:56.505Z</time></trkpt><trkpt lat="42.5020168" lon="12.3332611"><ele>184.60000000000002</ele><time>2026-04-03T14:56:57.506Z</time></trkpt><trkpt lat="42.5021382" lon="12.3332281"><ele>186.20000000000002</ele><time>2026-04-03T14:56:58.496Z</time></trkpt><trkpt lat="42.5022453" lon="12.3331959"><ele>187.8</ele><time>2026-04-03T14:56:59.496Z</time></trkpt><trkpt lat="42.5023312" lon="12.3331689"><ele>189.4</ele><time>2026-04-03T14:57:00.496Z</time></trkpt><trkpt lat="42.5023989" lon="12.3331392"><ele>191.0</ele><time>2026-04-03T14:57:01.49Z</time></trkpt><trkpt lat="42.5024804" lon="12.333086"><ele>189.33333333333331</ele><time>2026-04-03T14:57:03.506Z</time></trkpt><trkpt lat="42.50244" lon="12.3329523"><ele>187.66666666666666</ele><time>2026-04-03T14:57:06.498Z</time></trkpt><trkpt lat="42.5024712" lon="12.3328499"><ele>186.0</ele><time>2026-04-03T14:57:09.504Z</time></trkpt><trkpt lat="42.5025199" lon="12.332757"><ele>184.33333333333334</ele><time>2026-04-03T14:57:11.509Z</time></trkpt><trkpt lat="42.5025276" lon="12.3326303"><ele>182.66666666666669</ele><time>2026-04-03T14:57:13.499Z</time></trkpt><trkpt lat="42.5025015" lon="12.3325488"><ele>181.0</ele><time>2026-04-03T14:57:14.506Z</time></trkpt><trkpt lat="42.5024537" lon="12.3324402"><ele>181.0</ele><time>2026-04-03T14:57:15.509Z</time></trkpt><trkpt lat="42.5023914" lon="12.3323239"><ele>181.0</ele><time>2026-04-03T14:57:16.497Z</time></trkpt><trkpt lat="42.502334" lon="12.3322179"><ele>181.0</ele><time>2026-04-03T14:57:17.509Z</time></trkpt><trkpt lat="42.5022844" lon="12.3321177"><ele>181.0</ele><time>2026-04-03T14:57:18.51Z</time></trkpt><trkpt lat="42.5022436" lon="12.3320336"><ele>181.0</ele><time>2026-04-03T14:57:19.511Z</time></trkpt><trkpt lat="42.5021994" lon="12.3319314"><ele>178.4</ele><time>2026-04-03T14:57:21.508Z</time></trkpt><trkpt lat="42.502085" lon="12.3319152"><ele>175.8</ele><time>2026-04-03T14:57:23.503Z</time></trkpt><trkpt lat="42.5019926" lon="12.3317955"><ele>173.20000000000002</ele><time>2026-04-03T14:57:25.504Z</time></trkpt><trkpt lat="42.5020098" lon="12.3316448"><ele>170.60000000000002</ele><time>2026-04-03T14:57:27.496Z</time></trkpt><trkpt lat="42.5020695" lon="12.3315828"><ele>168.0</ele><time>2026-04-03T14:57:30.192Z</time></trkpt><trkpt lat="42.5019826" lon="12.3316176"><ele>168.0</ele><time>2026-04-03T14:57:32.493Z</time></trkpt><trkpt lat="42.5019807" lon="12.3317135"><ele>168.0</ele><time>2026-04-03T14:57:33.499Z</time></trkpt><trkpt lat="42.5020228" lon="12.3318449"><ele>168.0</ele><time>2026-04-03T14:57:34.502Z</time></trkpt><trkpt lat="42.5020629" lon="12.3319744"><ele>168.0</ele><time>2026-04-03T14:57:35.501Z</time></trkpt><trkpt lat="42.5020932" lon="12.332089"><ele>168.0</ele><time>2026-04-03T14:57:36.496Z</time></trkpt><trkpt lat="42.5021291" lon="12.3321938"><ele>170.60000000000002</ele><time>2026-04-03T14:57:37.496Z</time></trkpt><trkpt lat="42.5022403" lon="12.3322459"><ele>173.20000000000002</ele><time>2026-04-03T14:57:39.501Z</time></trkpt><trkpt lat="42.5023103" lon="12.3322392"><ele>175.8</ele><time>2026-04-03T14:57:40.501Z</time></trkpt><trkpt lat="42.5024001" lon="12.3323624"><ele>178.4</ele><time>2026-04-03T14:57:42.495Z</time></trkpt><trkpt lat="42.5024441" lon="12.3324296"><ele>181.0</ele><time>2026-04-03T14:57:43.497Z</time></trkpt><trkpt lat="42.5025454" lon="12.3325282"><ele>181.0</ele><time>2026-04-03T14:57:45.505Z</time></trkpt><trkpt lat="42.5025614" lon="12.3326914"><ele>181.0</ele><time>2026-04-03T14:57:47.503Z</time></trkpt><trkpt lat="42.5025345" lon="12.3327948"><ele>181.0</ele><time>2026-04-03T14:57:48.492Z</time></trkpt><trkpt lat="42.5024623" lon="12.3328742"><ele>181.0</ele><time>2026-04-03T14:57:50.506Z</time></trkpt><trkpt lat="42.5024125" lon="12.332784"><ele>181.0</ele><time>2026-04-03T14:57:52.496Z</time></trkpt><trkpt lat="42.5024389" lon="12.3327038"><ele>181.0</ele><time>2026-04-03T14:57:53.496Z</time></trkpt><trkpt lat="42.5024786" lon="12.3326328"><ele>181.0</ele><time>2026-04-03T14:57:54.51Z</time></trkpt><trkpt lat="42.5024864" lon="12.3324811"><ele>181.0</ele><time>2026-04-03T14:57:56.5Z</time></trkpt><trkpt lat="42.5024357" lon="12.3323702"><ele>181.0</ele><time>2026-04-03T14:57:57.507Z</time></trkpt><trkpt lat="42.5023761" lon="12.3322536"><ele>181.0</ele><time>2026-04-03T14:57:58.489Z</time></trkpt><trkpt lat="42.5023152" lon="12.3321484"><ele>181.0</ele><time>2026-04-03T14:57:59.492Z</time></trkpt><trkpt lat="42.5022759" lon="12.3320584"><ele>178.83333333333334</ele><time>2026-04-03T14:58:00.495Z</time></trkpt><trkpt lat="42.5022322" lon="12.3319385"><ele>176.66666666666669</ele><time>2026-04-03T14:58:02.499Z</time></trkpt><trkpt lat="42.502134" lon="12.3319189"><ele>174.5</ele><time>2026-04-03T14:58:04.491Z</time></trkpt><trkpt lat="42.5020668" lon="12.3318815"><ele>172.33333333333334</ele><time>2026-04-03T14:58:05.503Z</time></trkpt><trkpt lat="42.5020088" lon="12.3318126"><ele>170.16666666666666</ele><time>2026-04-03T14:58:06.488Z</time></trkpt><trkpt lat="42.5019841" lon="12.3317244"><ele>168.0</ele><time>2026-04-03T14:58:07.484Z</time></trkpt><trkpt lat="42.5020393" lon="12.3316002"><ele>168.0</ele><time>2026-04-03T14:58:09.495Z</time></trkpt><trkpt lat="42.5020844" lon="12.331534"><ele>168.0</ele><time>2026-04-03T14:58:11.494Z</time></trkpt><trkpt lat="42.5020047" lon="12.3316239"><ele>168.0</ele><time>2026-04-03T14:58:14.492Z</time></trkpt><trkpt lat="42.5020058" lon="12.3317342"><ele>168.0</ele><time>2026-04-03T14:58:15.492Z</time></trkpt><trkpt lat="42.5020319" lon="12.3318606"><ele>168.0</ele><time>2026-04-03T14:58:16.507Z</time></trkpt><trkpt lat="42.502064" lon="12.3320039"><ele>168.0</ele><time>2026-04-03T14:58:17.506Z</time></trkpt><trkpt lat="42.5021055" lon="12.3321328"><ele>168.0</ele><time>2026-04-03T14:58:18.495Z</time></trkpt><trkpt lat="42.5021468" lon="12.3322037"><ele>168.0</ele><time>2026-04-03T14:58:19.508Z</time></trkpt><trkpt lat="42.5022367" lon="12.3322404"><ele>168.0</ele><time>2026-04-03T14:58:21.495Z</time></trkpt><trkpt lat="42.5023718" lon="12.3325121"><ele>170.16666666666666</ele><time>2026-04-03T14:58:24.493Z</time></trkpt><trkpt lat="42.502454" lon="12.3325313"><ele>172.33333333333334</ele><time>2026-04-03T14:58:26.495Z</time></trkpt><trkpt lat="42.5025666" lon="12.3325495"><ele>174.5</ele><time>2026-04-03T14:58:28.514Z</time></trkpt><trkpt lat="42.5026723" lon="12.3325807"><ele>176.66666666666669</ele><time>2026-04-03T14:58:30.5Z</time></trkpt><trkpt lat="42.5027259" lon="12.3326378"><ele>178.83333333333334</ele><time>2026-04-03T14:58:31.502Z</time></trkpt><trkpt lat="42.5027761" lon="12.3327139"><ele>181.0</ele><time>2026-04-03T14:58:32.489Z</time></trkpt><trkpt lat="42.502802" lon="12.3328021"><ele>181.0</ele><time>2026-04-03T14:58:34.497Z</time></trkpt><trkpt lat="42.5027419" lon="12.3328867"><ele>181.0</ele><time>2026-04-03T14:58:36.501Z</time></trkpt><trkpt lat="42.5026658" lon="12.3329894"><ele>181.0</ele><time>2026-04-03T14:58:39.496Z</time></trkpt><trkpt lat="42.5027586" lon="12.3329994"><ele>181.0</ele><time>2026-04-03T14:58:42.49Z</time></trkpt><trkpt lat="42.5028712" lon="12.3329619"><ele>181.0</ele><time>2026-04-03T14:58:44.488Z</time></trkpt><trkpt lat="42.5029914" lon="12.3329713"><ele>182.0</ele><time>2026-04-03T14:58:46.497Z</time></trkpt><trkpt lat="42.50306" lon="12.3330137"><ele>183.0</ele><time>2026-04-03T14:58:47.505Z</time></trkpt><trkpt lat="42.5031341" lon="12.3330874"><ele>184.0</ele><time>2026-04-03T14:58:48.5Z</time></trkpt><trkpt lat="42.5032192" lon="12.3331635"><ele>185.0</ele><time>2026-04-03T14:58:49.51Z</time></trkpt><trkpt lat="42.5033089" lon="12.3332089"><ele>186.0</ele><time>2026-04-03T14:58:50.504Z</time></trkpt><trkpt lat="42.50339" lon="12.3332294"><ele>187.0</ele><time>2026-04-03T14:58:51.505Z</time></trkpt><trkpt lat="42.5034727" lon="12.3332364"><ele>188.39999999999998</ele><time>2026-04-03T14:58:52.504Z</time></trkpt><trkpt lat="42.5035593" lon="12.3332167"><ele>189.79999999999998</ele><time>2026-04-03T14:58:53.506Z</time></trkpt><trkpt lat="42.5036438" lon="12.3331678"><ele>191.2</ele><time>2026-04-03T14:58:54.511Z</time></trkpt><trkpt lat="42.5037191" lon="12.3330902"><ele>192.6</ele><time>2026-04-03T14:58:55.51Z</time></trkpt><trkpt lat="42.5037908" lon="12.3330043"><ele>194.0</ele><time>2026-04-03T14:58:56.498Z</time></trkpt><trkpt lat="42.5038489" lon="12.3329302"><ele>194.0</ele><time>2026-04-03T14:58:57.506Z</time></trkpt><trkpt lat="42.5039565" lon="12.3329096"><ele>194.0</ele><time>2026-04-03T14:58:59.485Z</time></trkpt><trkpt lat="42.5040323" lon="12.3329715"><ele>194.0</ele><time>2026-04-03T14:59:00.498Z</time></trkpt><trkpt lat="42.5041077" lon="12.3330219"><ele>194.0</ele><time>2026-04-03T14:59:01.507Z</time></trkpt><trkpt lat="42.5042125" lon="12.3329538"><ele>194.0</ele><time>2026-04-03T14:59:03.503Z</time></trkpt><trkpt lat="42.5042682" lon="12.3328697"><ele>194.0</ele><time>2026-04-03T14:59:04.508Z</time></trkpt><trkpt lat="42.5043271" lon="12.3327551"><ele>194.0</ele><time>2026-04-03T14:59:05.506Z</time></trkpt><trkpt lat="42.5043914" lon="12.3326491"><ele>194.0</ele><time>2026-04-03T14:59:06.491Z</time></trkpt><trkpt lat="42.5044601" lon="12.3325794"><ele>194.0</ele><time>2026-04-03T14:59:07.486Z</time></trkpt><trkpt lat="42.5045477" lon="12.3325786"><ele>194.0</ele><time>2026-04-03T14:59:08.486Z</time></trkpt><trkpt lat="42.5046403" lon="12.332624"><ele>196.0</ele><time>2026-04-03T14:59:09.49Z</time></trkpt><trkpt lat="42.5047245" lon="12.3327174"><ele>198.0</ele><time>2026-04-03T14:59:10.494Z</time></trkpt><trkpt lat="42.5048013" lon="12.332851"><ele>200.0</ele><time>2026-04-03T14:59:11.504Z</time></trkpt><trkpt lat="42.5048614" lon="12.3330056"><ele>202.0</ele><time>2026-04-03T14:59:12.496Z</time></trkpt><trkpt lat="42.5049001" lon="12.3331348"><ele>204.0</ele><time>2026-04-03T14:59:13.504Z</time></trkpt><trkpt lat="42.5049225" lon="12.333242"><ele>206.0</ele><time>2026-04-03T14:59:14.504Z</time></trkpt><trkpt lat="42.5049753" lon="12.3333523"><ele>208.0</ele><time>2026-04-03T14:59:16.503Z</time></trkpt><trkpt lat="42.5050615" lon="12.3333638"><ele>210.0</ele><time>2026-04-03T14:59:18.491Z</time></trkpt><trkpt lat="42.5051655" lon="12.3332376"><ele>212.0</ele><time>2026-04-03T14:59:20.493Z</time></trkpt><trkpt lat="42.5052232" lon="12.3331299"><ele>212.2</ele><time>2026-04-03T14:59:21.492Z</time></trkpt><trkpt lat="42.5052858" lon="12.3330138"><ele>212.39999999999998</ele><time>2026-04-03T14:59:22.499Z</time></trkpt><trkpt lat="42.5053452" lon="12.3328965"><ele>212.60000000000002</ele><time>2026-04-03T14:59:23.501Z</time></trkpt><trkpt lat="42.5053953" lon="12.3327789"><ele>212.8</ele><time>2026-04-03T14:59:24.511Z</time></trkpt><trkpt lat="42.505428" lon="12.3326603"><ele>213.0</ele><time>2026-04-03T14:59:25.506Z</time></trkpt><trkpt lat="42.5054398" lon="12.3325462"><ele>213.0</ele><time>2026-04-03T14:59:26.504Z</time></trkpt><trkpt lat="42.505431" lon="12.3324437"><ele>213.0</ele><time>2026-04-03T14:59:27.502Z</time></trkpt><trkpt lat="42.505399" lon="12.3323417"><ele>213.0</ele><time>2026-04-03T14:59:28.5Z</time></trkpt><trkpt lat="42.5053415" lon="12.33221"><ele>213.0</ele><time>2026-04-03T14:59:29.504Z</time></trkpt><trkpt lat="42.5052997" lon="12.3320336"><ele>213.0</ele><time>2026-04-03T14:59:30.498Z</time></trkpt><trkpt lat="42.5052715" lon="12.3318399"><ele>209.60000000000002</ele><time>2026-04-03T14:59:31.504Z</time></trkpt><trkpt lat="42.5052394" lon="12.3316647"><ele>206.20000000000002</ele><time>2026-04-03T14:59:32.505Z</time></trkpt><trkpt lat="42.5052125" lon="12.3315024"><ele>202.8</ele><time>2026-04-03T14:59:33.493Z</time></trkpt><trkpt lat="42.5052145" lon="12.3313732"><ele>199.4</ele><time>2026-04-03T14:59:34.492Z</time></trkpt><trkpt lat="42.5052382" lon="12.331258"><ele>196.0</ele><time>2026-04-03T14:59:35.507Z</time></trkpt><trkpt lat="42.5052993" lon="12.3311556"><ele>194.5</ele><time>2026-04-03T14:59:36.502Z</time></trkpt><trkpt lat="42.5053852" lon="12.3310709"><ele>193.0</ele><time>2026-04-03T14:59:37.494Z</time></trkpt><trkpt lat="42.5054924" lon="12.331016"><ele>191.5</ele><time>2026-04-03T14:59:38.492Z</time></trkpt><trkpt lat="42.5056202" lon="12.3309679"><ele>190.0</ele><time>2026-04-03T14:59:39.489Z</time></trkpt><trkpt lat="42.5057391" lon="12.3308791"><ele>194.0</ele><time>2026-04-03T14:59:40.506Z</time></trkpt><trkpt lat="42.5058409" lon="12.330767"><ele>198.0</ele><time>2026-04-03T14:59:41.508Z</time></trkpt><trkpt lat="42.5059193" lon="12.3306613"><ele>202.0</ele><time>2026-04-03T14:59:42.507Z</time></trkpt><trkpt lat="42.5059672" lon="12.3305732"><ele>206.0</ele><time>2026-04-03T14:59:43.514Z</time></trkpt><trkpt lat="42.5059716" lon="12.3304687"><ele>210.0</ele><time>2026-04-03T14:59:44.5Z</time></trkpt><trkpt lat="42.5059176" lon="12.3303204"><ele>210.0</ele><time>2026-04-03T14:59:45.503Z</time></trkpt><trkpt lat="42.5058372" lon="12.3301347"><ele>210.0</ele><time>2026-04-03T14:59:46.481Z</time></trkpt><trkpt lat="42.5057673" lon="12.3299625"><ele>210.0</ele><time>2026-04-03T14:59:47.508Z</time></trkpt><trkpt lat="42.5057188" lon="12.3298075"><ele>210.0</ele><time>2026-04-03T14:59:48.484Z</time></trkpt><trkpt lat="42.5056831" lon="12.3296782"><ele>209.33333333333334</ele><time>2026-04-03T14:59:49.491Z</time></trkpt><trkpt lat="42.5056574" lon="12.3295894"><ele>208.66666666666669</ele><time>2026-04-03T14:59:50.495Z</time></trkpt><trkpt lat="42.5056279" lon="12.3295105"><ele>208.0</ele><time>2026-04-03T14:59:51.507Z</time></trkpt><trkpt lat="42.5056037" lon="12.32943"><ele>207.33333333333334</ele><time>2026-04-03T14:59:52.499Z</time></trkpt><trkpt lat="42.505591" lon="12.329338"><ele>206.66666666666669</ele><time>2026-04-03T14:59:53.505Z</time></trkpt><trkpt lat="42.5055802" lon="12.3292114"><ele>206.0</ele><time>2026-04-03T14:59:54.491Z</time></trkpt><trkpt lat="42.5055665" lon="12.3290648"><ele>206.00000000000003</ele><time>2026-04-03T14:59:55.501Z</time></trkpt><trkpt lat="42.5055514" lon="12.3289193"><ele>206.0</ele><time>2026-04-03T14:59:56.503Z</time></trkpt><trkpt lat="42.5055385" lon="12.3287825"><ele>206.0</ele><time>2026-04-03T14:59:57.498Z</time></trkpt><trkpt lat="42.505525" lon="12.3286671"><ele>206.0</ele><time>2026-04-03T14:59:58.482Z</time></trkpt><trkpt lat="42.5055004" lon="12.3285739"><ele>206.00000000000003</ele><time>2026-04-03T14:59:59.499Z</time></trkpt><trkpt lat="42.5054691" lon="12.3284861"><ele>206.0</ele><time>2026-04-03T15:00:00.503Z</time></trkpt><trkpt lat="42.5054302" lon="12.3284003"><ele>202.60000000000002</ele><time>2026-04-03T15:00:01.504Z</time></trkpt><trkpt lat="42.5053953" lon="12.3283066"><ele>199.2</ele><time>2026-04-03T15:00:02.501Z</time></trkpt><trkpt lat="42.5053551" lon="12.3281938"><ele>195.8</ele><time>2026-04-03T15:00:03.486Z</time></trkpt><trkpt lat="42.505317" lon="12.3280519"><ele>192.39999999999998</ele><time>2026-04-03T15:00:04.498Z</time></trkpt><trkpt lat="42.5052904" lon="12.3278822"><ele>189.0</ele><time>2026-04-03T15:00:05.505Z</time></trkpt><trkpt lat="42.5052969" lon="12.3276952"><ele>189.0</ele><time>2026-04-03T15:00:06.499Z</time></trkpt><trkpt lat="42.5053298" lon="12.3275025"><ele>189.0</ele><time>2026-04-03T15:00:07.504Z</time></trkpt><trkpt lat="42.5053432" lon="12.3273237"><ele>189.0</ele><time>2026-04-03T15:00:08.491Z</time></trkpt><trkpt lat="42.5053258" lon="12.3271647"><ele>189.0</ele><time>2026-04-03T15:00:09.504Z</time></trkpt><trkpt lat="42.5052691" lon="12.327022"><ele>193.33333333333331</ele><time>2026-04-03T15:00:10.504Z</time></trkpt><trkpt lat="42.5051801" lon="12.3268771"><ele>197.66666666666666</ele><time>2026-04-03T15:00:11.499Z</time></trkpt><trkpt lat="42.5050638" lon="12.3267227"><ele>202.0</ele><time>2026-04-03T15:00:12.498Z</time></trkpt><trkpt lat="42.5049526" lon="12.3265664"><ele>202.0</ele><time>2026-04-03T15:00:13.508Z</time></trkpt><trkpt lat="42.5048806" lon="12.3264299"><ele>202.0</ele><time>2026-04-03T15:00:14.507Z</time></trkpt><trkpt lat="42.504823" lon="12.32628"><ele>202.0</ele><time>2026-04-03T15:00:15.493Z</time></trkpt><trkpt lat="42.504798" lon="12.3261085"><ele>202.0</ele><time>2026-04-03T15:00:16.495Z</time></trkpt><trkpt lat="42.5047907" lon="12.3259231"><ele>203.0</ele><time>2026-04-03T15:00:17.506Z</time></trkpt><trkpt lat="42.5047748" lon="12.3257671"><ele>204.0</ele><time>2026-04-03T15:00:18.493Z</time></trkpt><trkpt lat="42.5047158" lon="12.3256503"><ele>205.0</ele><time>2026-04-03T15:00:19.507Z</time></trkpt><trkpt lat="42.5046114" lon="12.3255522"><ele>206.0</ele><time>2026-04-03T15:00:20.493Z</time></trkpt><trkpt lat="42.504509" lon="12.3254784"><ele>206.0</ele><time>2026-04-03T15:00:21.49Z</time></trkpt><trkpt lat="42.5044474" lon="12.3253919"><ele>206.0</ele><time>2026-04-03T15:00:22.495Z</time></trkpt><trkpt lat="42.5044223" lon="12.3252768"><ele>206.0</ele><time>2026-04-03T15:00:23.499Z</time></trkpt><trkpt lat="42.504422" lon="12.3251629"><ele>206.0</ele><time>2026-04-03T15:00:24.487Z</time></trkpt><trkpt lat="42.504423" lon="12.3250279"><ele>206.0</ele><time>2026-04-03T15:00:25.495Z</time></trkpt><trkpt lat="42.504414" lon="12.3248958"><ele>206.0</ele><time>2026-04-03T15:00:26.497Z</time></trkpt><trkpt lat="42.5044008" lon="12.3247965"><ele>206.0</ele><time>2026-04-03T15:00:27.499Z</time></trkpt><trkpt lat="42.5043812" lon="12.3246483"><ele>206.0</ele><time>2026-04-03T15:00:29.507Z</time></trkpt><trkpt lat="42.5044006" lon="12.324564"><ele>206.0</ele><time>2026-04-03T15:00:30.496Z</time></trkpt><trkpt lat="42.5044129" lon="12.3244027"><ele>206.0</ele><time>2026-04-03T15:00:31.511Z</time></trkpt><trkpt lat="42.5044094" lon="12.3241953"><ele>206.33333333333334</ele><time>2026-04-03T15:00:32.503Z</time></trkpt><trkpt lat="42.5043805" lon="12.3239634"><ele>206.66666666666669</ele><time>2026-04-03T15:00:33.501Z</time></trkpt><trkpt lat="42.5043505" lon="12.3237292"><ele>207.0</ele><time>2026-04-03T15:00:34.5Z</time></trkpt><trkpt lat="42.5043512" lon="12.3235122"><ele>207.0</ele><time>2026-04-03T15:00:35.495Z</time></trkpt><trkpt lat="42.5044018" lon="12.323322"><ele>207.0</ele><time>2026-04-03T15:00:36.499Z</time></trkpt><trkpt lat="42.5045024" lon="12.3231672"><ele>207.0</ele><time>2026-04-03T15:00:37.493Z</time></trkpt><trkpt lat="42.504637" lon="12.3230476"><ele>206.33333333333331</ele><time>2026-04-03T15:00:38.51Z</time></trkpt><trkpt lat="42.5047683" lon="12.322921"><ele>205.66666666666666</ele><time>2026-04-03T15:00:39.503Z</time></trkpt><trkpt lat="42.5049091" lon="12.3227908"><ele>205.0</ele><time>2026-04-03T15:00:40.503Z</time></trkpt><trkpt lat="42.505044" lon="12.3226434"><ele>205.0</ele><time>2026-04-03T15:00:41.5Z</time></trkpt><trkpt lat="42.5051765" lon="12.3225061"><ele>205.0</ele><time>2026-04-03T15:00:42.498Z</time></trkpt><trkpt lat="42.5053116" lon="12.3224012"><ele>205.0</ele><time>2026-04-03T15:00:43.512Z</time></trkpt><trkpt lat="42.5054405" lon="12.3223143"><ele>203.8</ele><time>2026-04-03T15:00:44.51Z</time></trkpt><trkpt lat="42.5055574" lon="12.3222373"><ele>202.6</ele><time>2026-04-03T15:00:45.489Z</time></trkpt><trkpt lat="42.5056617" lon="12.3221706"><ele>201.39999999999998</ele><time>2026-04-03T15:00:46.484Z</time></trkpt><trkpt lat="42.5057481" lon="12.3221196"><ele>200.2</ele><time>2026-04-03T15:00:47.495Z</time></trkpt><trkpt lat="42.5058345" lon="12.3220783"><ele>199.0</ele><time>2026-04-03T15:00:49.506Z</time></trkpt><trkpt lat="42.5058051" lon="12.3219849"><ele>199.0</ele><time>2026-04-03T15:00:58.486Z</time></trkpt><trkpt lat="42.5056795" lon="12.3219783"><ele>199.0</ele><time>2026-04-03T15:01:00.506Z</time></trkpt><trkpt lat="42.5056052" lon="12.3219274"><ele>199.0</ele><time>2026-04-03T15:01:01.509Z</time></trkpt><trkpt lat="42.5055317" lon="12.3218203"><ele>199.0</ele><time>2026-04-03T15:01:02.5Z</time></trkpt><trkpt lat="42.5054567" lon="12.3217028"><ele>199.0</ele><time>2026-04-03T15:01:03.504Z</time></trkpt><trkpt lat="42.5054029" lon="12.3215795"><ele>197.6</ele><time>2026-04-03T15:01:04.495Z</time></trkpt><trkpt lat="42.5053614" lon="12.3214756"><ele>196.2</ele><time>2026-04-03T15:01:05.505Z</time></trkpt><trkpt lat="42.5053045" lon="12.3213516"><ele>194.79999999999998</ele><time>2026-04-03T15:01:07.511Z</time></trkpt><trkpt lat="42.5052208" lon="12.3213467"><ele>193.39999999999998</ele><time>2026-04-03T15:01:09.502Z</time></trkpt><trkpt lat="42.5051525" lon="12.3213922"><ele>192.0</ele><time>2026-04-03T15:01:10.501Z</time></trkpt><trkpt lat="42.5050562" lon="12.3214578"><ele>192.0</ele><time>2026-04-03T15:01:11.503Z</time></trkpt><trkpt lat="42.5049497" lon="12.3215293"><ele>192.0</ele><time>2026-04-03T15:01:12.502Z</time></trkpt><trkpt lat="42.5048422" lon="12.3216031"><ele>192.0</ele><time>2026-04-03T15:01:13.498Z</time></trkpt><trkpt lat="42.5047481" lon="12.3216563"><ele>192.0</ele><time>2026-04-03T15:01:14.511Z</time></trkpt><trkpt lat="42.5046857" lon="12.3216896"><ele>192.0</ele><time>2026-04-03T15:01:15.501Z</time></trkpt><trkpt lat="42.5046257" lon="12.3217625"><ele>192.0</ele><time>2026-04-03T15:01:17.509Z</time></trkpt><trkpt lat="42.5046557" lon="12.3218401"><ele>192.0</ele><time>2026-04-03T15:01:19.507Z</time></trkpt><trkpt lat="42.5047524" lon="12.3219248"><ele>192.0</ele><time>2026-04-03T15:01:21.508Z</time></trkpt><trkpt lat="42.5048342" lon="12.3219521"><ele>192.0</ele><time>2026-04-03T15:01:22.506Z</time></trkpt><trkpt lat="42.5049233" lon="12.321953"><ele>192.0</ele><time>2026-04-03T15:01:23.498Z</time></trkpt><trkpt lat="42.5050103" lon="12.3219358"><ele>192.0</ele><time>2026-04-03T15:01:24.509Z</time></trkpt><trkpt lat="42.5050852" lon="12.3219028"><ele>192.0</ele><time>2026-04-03T15:01:25.509Z</time></trkpt><trkpt lat="42.5051626" lon="12.3218496"><ele>192.0</ele><time>2026-04-03T15:01:27.512Z</time></trkpt></trkseg></trk></gpx>